<?xml version="1.0" encoding="UTF-8" standalone="no" ?>
<gpx xmlns="http://www.topografix.com/GPX/1/1" xmlns:xsi="http://www.w3.org/2001/XMLSchema-instance" xsi:schemaLocation="http://www.topografix.com/GPX/1/1 http://www.topografix.com/GPX/1/1/gpx.xsd" version="1.1" creator="VisuGPX - https://www.visugpx.com">
  <metadata>
    <name>Pornichet 03/09/2020</name>
    <desc><![CDATA[Sortie VTT du jeudi 03 septembre 2020]]></desc>
  </metadata>
  <trk>
    <name><![CDATA[Pornichet Cyclisme]]></name>
    <trkseg>
      <trkpt lat="47.26406" lon="-2.31567">
        <ele>3</ele>
        <time>2020-09-03T06:55:11.000Z</time>
      </trkpt>
      <trkpt lat="47.26406" lon="-2.3157">
        <ele>3</ele>
        <time>2020-09-03T06:55:12.000Z</time>
      </trkpt>
      <trkpt lat="47.26407" lon="-2.31582">
        <ele>3</ele>
        <time>2020-09-03T06:55:15.000Z</time>
      </trkpt>
      <trkpt lat="47.26407" lon="-2.31588">
        <ele>4.1999998092651</ele>
        <time>2020-09-03T06:55:16.000Z</time>
      </trkpt>
      <trkpt lat="47.26407" lon="-2.31593">
        <ele>5</ele>
        <time>2020-09-03T06:55:17.000Z</time>
      </trkpt>
      <trkpt lat="47.26407" lon="-2.3161">
        <ele>5</ele>
        <time>2020-09-03T06:55:20.000Z</time>
      </trkpt>
      <trkpt lat="47.26407" lon="-2.3166">
        <ele>5</ele>
        <time>2020-09-03T06:55:29.000Z</time>
      </trkpt>
      <trkpt lat="47.26406" lon="-2.31663">
        <ele>5</ele>
        <time>2020-09-03T06:55:30.000Z</time>
      </trkpt>
      <trkpt lat="47.26402" lon="-2.31668">
        <ele>5</ele>
        <time>2020-09-03T06:55:32.000Z</time>
      </trkpt>
      <trkpt lat="47.26395" lon="-2.31671">
        <ele>5</ele>
        <time>2020-09-03T06:55:35.000Z</time>
      </trkpt>
      <trkpt lat="47.26389" lon="-2.31675">
        <ele>5</ele>
        <time>2020-09-03T06:55:37.000Z</time>
      </trkpt>
      <trkpt lat="47.26366" lon="-2.31688">
        <ele>5</ele>
        <time>2020-09-03T06:55:43.000Z</time>
      </trkpt>
      <trkpt lat="47.26361" lon="-2.31691">
        <ele>4</ele>
        <time>2020-09-03T06:55:44.000Z</time>
      </trkpt>
      <trkpt lat="47.26356" lon="-2.31694">
        <ele>3.2000000476837</ele>
        <time>2020-09-03T06:55:45.000Z</time>
      </trkpt>
      <trkpt lat="47.26351" lon="-2.31697">
        <ele>2.4000000953674</ele>
        <time>2020-09-03T06:55:46.000Z</time>
      </trkpt>
      <trkpt lat="47.26345" lon="-2.317">
        <ele>1.3999999761581</ele>
        <time>2020-09-03T06:55:47.000Z</time>
      </trkpt>
      <trkpt lat="47.2634" lon="-2.31703">
        <ele>0.60000002384186</ele>
        <time>2020-09-03T06:55:48.000Z</time>
      </trkpt>
      <trkpt lat="47.26334" lon="-2.31706">
        <ele>0.60000002384186</ele>
        <time>2020-09-03T06:55:49.000Z</time>
      </trkpt>
      <trkpt lat="47.26313" lon="-2.31715">
        <ele>0.60000002384186</ele>
        <time>2020-09-03T06:55:53.000Z</time>
      </trkpt>
      <trkpt lat="47.26302" lon="-2.31716">
        <ele>0.20000000298023</ele>
        <time>2020-09-03T06:55:55.000Z</time>
      </trkpt>
      <trkpt lat="47.26298" lon="-2.31715">
        <ele>-0.20000000298023</ele>
        <time>2020-09-03T06:55:56.000Z</time>
      </trkpt>
      <trkpt lat="47.26295" lon="-2.31711">
        <ele>-0.60000002384186</ele>
        <time>2020-09-03T06:55:57.000Z</time>
      </trkpt>
      <trkpt lat="47.26291" lon="-2.31707">
        <ele>-1</ele>
        <time>2020-09-03T06:55:58.000Z</time>
      </trkpt>
      <trkpt lat="47.26288" lon="-2.31702">
        <ele>-1.6000000238419</ele>
        <time>2020-09-03T06:55:59.000Z</time>
      </trkpt>
      <trkpt lat="47.26285" lon="-2.31697">
        <ele>-1.6000000238419</ele>
        <time>2020-09-03T06:56:00.000Z</time>
      </trkpt>
      <trkpt lat="47.26271" lon="-2.31675">
        <ele>-1.6000000238419</ele>
        <time>2020-09-03T06:56:05.000Z</time>
      </trkpt>
      <trkpt lat="47.26259" lon="-2.31649">
        <ele>-1.6000000238419</ele>
        <time>2020-09-03T06:56:10.000Z</time>
      </trkpt>
      <trkpt lat="47.26247" lon="-2.31627">
        <ele>-1.6000000238419</ele>
        <time>2020-09-03T06:56:14.000Z</time>
      </trkpt>
      <trkpt lat="47.26239" lon="-2.31619">
        <ele>-1.6000000238419</ele>
        <time>2020-09-03T06:56:16.000Z</time>
      </trkpt>
      <trkpt lat="47.26223" lon="-2.31607">
        <ele>-1.6000000238419</ele>
        <time>2020-09-03T06:56:20.000Z</time>
      </trkpt>
      <trkpt lat="47.26219" lon="-2.31606">
        <ele>-1.6000000238419</ele>
        <time>2020-09-03T06:56:21.000Z</time>
      </trkpt>
      <trkpt lat="47.26209" lon="-2.31604">
        <ele>-1.6000000238419</ele>
        <time>2020-09-03T06:56:23.000Z</time>
      </trkpt>
      <trkpt lat="47.26195" lon="-2.31607">
        <ele>-1.6000000238419</ele>
        <time>2020-09-03T06:56:26.000Z</time>
      </trkpt>
      <trkpt lat="47.26158" lon="-2.31619">
        <ele>-1.6000000238419</ele>
        <time>2020-09-03T06:56:34.000Z</time>
      </trkpt>
      <trkpt lat="47.26136" lon="-2.31627">
        <ele>-1.6000000238419</ele>
        <time>2020-09-03T06:56:39.000Z</time>
      </trkpt>
      <trkpt lat="47.26127" lon="-2.31629">
        <ele>-1.6000000238419</ele>
        <time>2020-09-03T06:56:41.000Z</time>
      </trkpt>
      <trkpt lat="47.26109" lon="-2.31629">
        <ele>-1.6000000238419</ele>
        <time>2020-09-03T06:56:45.000Z</time>
      </trkpt>
      <trkpt lat="47.26101" lon="-2.31625">
        <ele>-1.6000000238419</ele>
        <time>2020-09-03T06:56:47.000Z</time>
      </trkpt>
      <trkpt lat="47.2609" lon="-2.31608">
        <ele>-1.6000000238419</ele>
        <time>2020-09-03T06:56:51.000Z</time>
      </trkpt>
      <trkpt lat="47.2608" lon="-2.3159">
        <ele>-1.6000000238419</ele>
        <time>2020-09-03T06:56:56.000Z</time>
      </trkpt>
      <trkpt lat="47.26071" lon="-2.31573">
        <ele>-1.6000000238419</ele>
        <time>2020-09-03T06:57:01.000Z</time>
      </trkpt>
      <trkpt lat="47.26059" lon="-2.31543">
        <ele>-1.6000000238419</ele>
        <time>2020-09-03T06:57:07.000Z</time>
      </trkpt>
      <trkpt lat="47.26043" lon="-2.31517">
        <ele>-1.6000000238419</ele>
        <time>2020-09-03T06:57:13.000Z</time>
      </trkpt>
      <trkpt lat="47.26041" lon="-2.31517">
        <ele>-1.6000000238419</ele>
        <time>2020-09-03T06:57:14.000Z</time>
      </trkpt>
      <trkpt lat="47.26037" lon="-2.31521">
        <ele>-1.6000000238419</ele>
        <time>2020-09-03T06:57:16.000Z</time>
      </trkpt>
      <trkpt lat="47.26032" lon="-2.31534">
        <ele>-1.6000000238419</ele>
        <time>2020-09-03T06:57:19.000Z</time>
      </trkpt>
      <trkpt lat="47.26031" lon="-2.31539">
        <ele>-1.6000000238419</ele>
        <time>2020-09-03T06:57:20.000Z</time>
      </trkpt>
      <trkpt lat="47.26024" lon="-2.31554">
        <ele>-1.2000000476837</ele>
        <time>2020-09-03T06:57:23.000Z</time>
      </trkpt>
      <trkpt lat="47.26021" lon="-2.31558">
        <ele>-0.60000002384186</ele>
        <time>2020-09-03T06:57:24.000Z</time>
      </trkpt>
      <trkpt lat="47.26018" lon="-2.31562">
        <ele>-0.20000000298023</ele>
        <time>2020-09-03T06:57:25.000Z</time>
      </trkpt>
      <trkpt lat="47.26014" lon="-2.31564">
        <ele>0.20000000298023</ele>
        <time>2020-09-03T06:57:26.000Z</time>
      </trkpt>
      <trkpt lat="47.26009" lon="-2.31564">
        <ele>0.60000002384186</ele>
        <time>2020-09-03T06:57:27.000Z</time>
      </trkpt>
      <trkpt lat="47.26005" lon="-2.31562">
        <ele>0.60000002384186</ele>
        <time>2020-09-03T06:57:28.000Z</time>
      </trkpt>
      <trkpt lat="47.25994" lon="-2.31548">
        <ele>0.60000002384186</ele>
        <time>2020-09-03T06:57:32.000Z</time>
      </trkpt>
      <trkpt lat="47.25991" lon="-2.31543">
        <ele>0.60000002384186</ele>
        <time>2020-09-03T06:57:33.000Z</time>
      </trkpt>
      <trkpt lat="47.25983" lon="-2.31527">
        <ele>0.60000002384186</ele>
        <time>2020-09-03T06:57:36.000Z</time>
      </trkpt>
      <trkpt lat="47.25975" lon="-2.31505">
        <ele>0.60000002384186</ele>
        <time>2020-09-03T06:57:40.000Z</time>
      </trkpt>
      <trkpt lat="47.25965" lon="-2.31482">
        <ele>0.60000002384186</ele>
        <time>2020-09-03T06:57:44.000Z</time>
      </trkpt>
      <trkpt lat="47.25959" lon="-2.31474">
        <ele>0.60000002384186</ele>
        <time>2020-09-03T06:57:46.000Z</time>
      </trkpt>
      <trkpt lat="47.25951" lon="-2.31467">
        <ele>0.60000002384186</ele>
        <time>2020-09-03T06:57:48.000Z</time>
      </trkpt>
      <trkpt lat="47.25937" lon="-2.31458">
        <ele>0.60000002384186</ele>
        <time>2020-09-03T06:57:52.000Z</time>
      </trkpt>
      <trkpt lat="47.25929" lon="-2.31461">
        <ele>0.60000002384186</ele>
        <time>2020-09-03T06:57:54.000Z</time>
      </trkpt>
      <trkpt lat="47.25926" lon="-2.31466">
        <ele>0.60000002384186</ele>
        <time>2020-09-03T06:57:55.000Z</time>
      </trkpt>
      <trkpt lat="47.2592" lon="-2.31481">
        <ele>0.60000002384186</ele>
        <time>2020-09-03T06:57:58.000Z</time>
      </trkpt>
      <trkpt lat="47.25917" lon="-2.3149">
        <ele>0.60000002384186</ele>
        <time>2020-09-03T06:58:00.000Z</time>
      </trkpt>
      <trkpt lat="47.25911" lon="-2.31508">
        <ele>0.60000002384186</ele>
        <time>2020-09-03T06:58:06.000Z</time>
      </trkpt>
      <trkpt lat="47.25911" lon="-2.31509">
        <ele>0.60000002384186</ele>
        <time>2020-09-03T06:58:07.000Z</time>
      </trkpt>
      <trkpt lat="47.25911" lon="-2.31511">
        <ele>0.60000002384186</ele>
        <time>2020-09-03T06:58:09.000Z</time>
      </trkpt>
      <trkpt lat="47.25907" lon="-2.31515">
        <ele>0.60000002384186</ele>
        <time>2020-09-03T06:58:11.000Z</time>
      </trkpt>
      <trkpt lat="47.25898" lon="-2.31536">
        <ele>0.60000002384186</ele>
        <time>2020-09-03T06:58:16.000Z</time>
      </trkpt>
      <trkpt lat="47.25885" lon="-2.31571">
        <ele>0.60000002384186</ele>
        <time>2020-09-03T06:58:23.000Z</time>
      </trkpt>
      <trkpt lat="47.25879" lon="-2.31579">
        <ele>1</ele>
        <time>2020-09-03T06:58:25.000Z</time>
      </trkpt>
      <trkpt lat="47.25876" lon="-2.31582">
        <ele>1.3999999761581</ele>
        <time>2020-09-03T06:58:26.000Z</time>
      </trkpt>
      <trkpt lat="47.25873" lon="-2.31585">
        <ele>1.7999999523163</ele>
        <time>2020-09-03T06:58:27.000Z</time>
      </trkpt>
      <trkpt lat="47.2587" lon="-2.31587">
        <ele>2.2000000476837</ele>
        <time>2020-09-03T06:58:28.000Z</time>
      </trkpt>
      <trkpt lat="47.25868" lon="-2.31589">
        <ele>2.5999999046326</ele>
        <time>2020-09-03T06:58:29.000Z</time>
      </trkpt>
      <trkpt lat="47.2584" lon="-2.31614">
        <ele>3</ele>
        <time>2020-09-03T06:58:39.000Z</time>
      </trkpt>
      <trkpt lat="47.25838" lon="-2.31617">
        <ele>3.4000000953674</ele>
        <time>2020-09-03T06:58:40.000Z</time>
      </trkpt>
      <trkpt lat="47.25835" lon="-2.3162">
        <ele>3.7999999523163</ele>
        <time>2020-09-03T06:58:41.000Z</time>
      </trkpt>
      <trkpt lat="47.25832" lon="-2.31622">
        <ele>4.4000000953674</ele>
        <time>2020-09-03T06:58:42.000Z</time>
      </trkpt>
      <trkpt lat="47.2583" lon="-2.31624">
        <ele>4.8000001907349</ele>
        <time>2020-09-03T06:58:43.000Z</time>
      </trkpt>
      <trkpt lat="47.25818" lon="-2.31634">
        <ele>4.8000001907349</ele>
        <time>2020-09-03T06:58:47.000Z</time>
      </trkpt>
      <trkpt lat="47.2579" lon="-2.31655">
        <ele>4.8000001907349</ele>
        <time>2020-09-03T06:58:55.000Z</time>
      </trkpt>
      <trkpt lat="47.25768" lon="-2.31672">
        <ele>4.8000001907349</ele>
        <time>2020-09-03T06:59:02.000Z</time>
      </trkpt>
      <trkpt lat="47.25741" lon="-2.31694">
        <ele>4.8000001907349</ele>
        <time>2020-09-03T06:59:09.000Z</time>
      </trkpt>
      <trkpt lat="47.25729" lon="-2.31703">
        <ele>4.8000001907349</ele>
        <time>2020-09-03T06:59:12.000Z</time>
      </trkpt>
      <trkpt lat="47.25726" lon="-2.31704">
        <ele>4.4000000953674</ele>
        <time>2020-09-03T06:59:13.000Z</time>
      </trkpt>
      <trkpt lat="47.25722" lon="-2.31703">
        <ele>3.7999999523163</ele>
        <time>2020-09-03T06:59:14.000Z</time>
      </trkpt>
      <trkpt lat="47.25719" lon="-2.31701">
        <ele>3.4000000953674</ele>
        <time>2020-09-03T06:59:15.000Z</time>
      </trkpt>
      <trkpt lat="47.25715" lon="-2.31699">
        <ele>3</ele>
        <time>2020-09-03T06:59:16.000Z</time>
      </trkpt>
      <trkpt lat="47.25712" lon="-2.31697">
        <ele>2.5999999046326</ele>
        <time>2020-09-03T06:59:17.000Z</time>
      </trkpt>
      <trkpt lat="47.25705" lon="-2.31692">
        <ele>2.5999999046326</ele>
        <time>2020-09-03T06:59:19.000Z</time>
      </trkpt>
      <trkpt lat="47.2568" lon="-2.3168">
        <ele>2.5999999046326</ele>
        <time>2020-09-03T06:59:26.000Z</time>
      </trkpt>
      <trkpt lat="47.25673" lon="-2.31681">
        <ele>2.5999999046326</ele>
        <time>2020-09-03T06:59:28.000Z</time>
      </trkpt>
      <trkpt lat="47.25666" lon="-2.31685">
        <ele>2.5999999046326</ele>
        <time>2020-09-03T06:59:30.000Z</time>
      </trkpt>
      <trkpt lat="47.25663" lon="-2.31687">
        <ele>3</ele>
        <time>2020-09-03T06:59:31.000Z</time>
      </trkpt>
      <trkpt lat="47.2566" lon="-2.31689">
        <ele>3.4000000953674</ele>
        <time>2020-09-03T06:59:32.000Z</time>
      </trkpt>
      <trkpt lat="47.25656" lon="-2.31691">
        <ele>3.7999999523163</ele>
        <time>2020-09-03T06:59:33.000Z</time>
      </trkpt>
      <trkpt lat="47.25653" lon="-2.31695">
        <ele>4.1999998092651</ele>
        <time>2020-09-03T06:59:34.000Z</time>
      </trkpt>
      <trkpt lat="47.2565" lon="-2.31699">
        <ele>4.8000001907349</ele>
        <time>2020-09-03T06:59:35.000Z</time>
      </trkpt>
      <trkpt lat="47.25648" lon="-2.31702">
        <ele>4.8000001907349</ele>
        <time>2020-09-03T06:59:36.000Z</time>
      </trkpt>
      <trkpt lat="47.2563" lon="-2.31724">
        <ele>4.8000001907349</ele>
        <time>2020-09-03T06:59:43.000Z</time>
      </trkpt>
      <trkpt lat="47.25628" lon="-2.31734">
        <ele>5.1999998092651</ele>
        <time>2020-09-03T06:59:45.000Z</time>
      </trkpt>
      <trkpt lat="47.25627" lon="-2.3174">
        <ele>5.5999999046326</ele>
        <time>2020-09-03T06:59:46.000Z</time>
      </trkpt>
      <trkpt lat="47.25626" lon="-2.31745">
        <ele>6</ele>
        <time>2020-09-03T06:59:47.000Z</time>
      </trkpt>
      <trkpt lat="47.25624" lon="-2.31751">
        <ele>6.8000001907349</ele>
        <time>2020-09-03T06:59:48.000Z</time>
      </trkpt>
      <trkpt lat="47.25619" lon="-2.3176">
        <ele>6.8000001907349</ele>
        <time>2020-09-03T06:59:50.000Z</time>
      </trkpt>
      <trkpt lat="47.25612" lon="-2.31766">
        <ele>6.8000001907349</ele>
        <time>2020-09-03T06:59:52.000Z</time>
      </trkpt>
      <trkpt lat="47.256" lon="-2.31766">
        <ele>6.8000001907349</ele>
        <time>2020-09-03T06:59:55.000Z</time>
      </trkpt>
      <trkpt lat="47.25592" lon="-2.31768">
        <ele>6.8000001907349</ele>
        <time>2020-09-03T06:59:57.000Z</time>
      </trkpt>
      <trkpt lat="47.2557" lon="-2.3178">
        <ele>6.8000001907349</ele>
        <time>2020-09-03T07:00:03.000Z</time>
      </trkpt>
      <trkpt lat="47.25564" lon="-2.31799">
        <ele>6.8000001907349</ele>
        <time>2020-09-03T07:00:07.000Z</time>
      </trkpt>
      <trkpt lat="47.25562" lon="-2.31803">
        <ele>7.1999998092651</ele>
        <time>2020-09-03T07:00:08.000Z</time>
      </trkpt>
      <trkpt lat="47.25559" lon="-2.31806">
        <ele>7.5999999046326</ele>
        <time>2020-09-03T07:00:09.000Z</time>
      </trkpt>
      <trkpt lat="47.25555" lon="-2.31806">
        <ele>8</ele>
        <time>2020-09-03T07:00:10.000Z</time>
      </trkpt>
      <trkpt lat="47.25552" lon="-2.31806">
        <ele>8.3999996185303</ele>
        <time>2020-09-03T07:00:11.000Z</time>
      </trkpt>
      <trkpt lat="47.25548" lon="-2.31806">
        <ele>8.8000001907349</ele>
        <time>2020-09-03T07:00:12.000Z</time>
      </trkpt>
      <trkpt lat="47.25534" lon="-2.31811">
        <ele>8.8000001907349</ele>
        <time>2020-09-03T07:00:17.000Z</time>
      </trkpt>
      <trkpt lat="47.25514" lon="-2.31815">
        <ele>8.8000001907349</ele>
        <time>2020-09-03T07:00:24.000Z</time>
      </trkpt>
      <trkpt lat="47.25511" lon="-2.31818">
        <ele>8.8000001907349</ele>
        <time>2020-09-03T07:00:26.000Z</time>
      </trkpt>
      <trkpt lat="47.2551" lon="-2.31823">
        <ele>8.8000001907349</ele>
        <time>2020-09-03T07:00:28.000Z</time>
      </trkpt>
      <trkpt lat="47.25511" lon="-2.31825">
        <ele>9.1999998092651</ele>
        <time>2020-09-03T07:00:29.000Z</time>
      </trkpt>
      <trkpt lat="47.25512" lon="-2.31825">
        <ele>9.6000003814697</ele>
        <time>2020-09-03T07:00:30.000Z</time>
      </trkpt>
      <trkpt lat="47.25513" lon="-2.31824">
        <ele>10</ele>
        <time>2020-09-03T07:00:31.000Z</time>
      </trkpt>
      <trkpt lat="47.25515" lon="-2.31824">
        <ele>10.60000038147</ele>
        <time>2020-09-03T07:00:32.000Z</time>
      </trkpt>
      <trkpt lat="47.25516" lon="-2.31824">
        <ele>11</ele>
        <time>2020-09-03T07:00:33.000Z</time>
      </trkpt>
      <trkpt lat="47.25517" lon="-2.31824">
        <ele>11</ele>
        <time>2020-09-03T07:00:36.000Z</time>
      </trkpt>
      <trkpt lat="47.25514" lon="-2.31829">
        <ele>6.8000001907349</ele>
        <time>2020-09-03T07:12:12.000Z</time>
      </trkpt>
      <trkpt lat="47.25511" lon="-2.31835">
        <ele>6.8000001907349</ele>
        <time>2020-09-03T07:12:15.000Z</time>
      </trkpt>
      <trkpt lat="47.25512" lon="-2.31842">
        <ele>6.8000001907349</ele>
        <time>2020-09-03T07:12:18.000Z</time>
      </trkpt>
      <trkpt lat="47.25513" lon="-2.31848">
        <ele>6.8000001907349</ele>
        <time>2020-09-03T07:12:20.000Z</time>
      </trkpt>
      <trkpt lat="47.25515" lon="-2.31865">
        <ele>6.8000001907349</ele>
        <time>2020-09-03T07:12:25.000Z</time>
      </trkpt>
      <trkpt lat="47.25519" lon="-2.31895">
        <ele>6.8000001907349</ele>
        <time>2020-09-03T07:12:32.000Z</time>
      </trkpt>
      <trkpt lat="47.25525" lon="-2.31923">
        <ele>6.8000001907349</ele>
        <time>2020-09-03T07:12:40.000Z</time>
      </trkpt>
      <trkpt lat="47.25528" lon="-2.31921">
        <ele>6.8000001907349</ele>
        <time>2020-09-03T07:12:42.000Z</time>
      </trkpt>
      <trkpt lat="47.2553" lon="-2.31921">
        <ele>6.8000001907349</ele>
        <time>2020-09-03T07:12:44.000Z</time>
      </trkpt>
      <trkpt lat="47.25535" lon="-2.31918">
        <ele>6.8000001907349</ele>
        <time>2020-09-03T07:12:49.000Z</time>
      </trkpt>
      <trkpt lat="47.25537" lon="-2.3192">
        <ele>6.8000001907349</ele>
        <time>2020-09-03T07:12:51.000Z</time>
      </trkpt>
      <trkpt lat="47.2554" lon="-2.31922">
        <ele>6.8000001907349</ele>
        <time>2020-09-03T07:12:54.000Z</time>
      </trkpt>
      <trkpt lat="47.25543" lon="-2.31921">
        <ele>6.8000001907349</ele>
        <time>2020-09-03T07:12:56.000Z</time>
      </trkpt>
      <trkpt lat="47.25547" lon="-2.31919">
        <ele>6.4000000953674</ele>
        <time>2020-09-03T07:12:58.000Z</time>
      </trkpt>
      <trkpt lat="47.2555" lon="-2.31917">
        <ele>6</ele>
        <time>2020-09-03T07:12:59.000Z</time>
      </trkpt>
      <trkpt lat="47.25553" lon="-2.31916">
        <ele>5.5999999046326</ele>
        <time>2020-09-03T07:13:00.000Z</time>
      </trkpt>
      <trkpt lat="47.25555" lon="-2.31916">
        <ele>5.1999998092651</ele>
        <time>2020-09-03T07:13:01.000Z</time>
      </trkpt>
      <trkpt lat="47.25556" lon="-2.31916">
        <ele>4.8000001907349</ele>
        <time>2020-09-03T07:13:02.000Z</time>
      </trkpt>
      <trkpt lat="47.25562" lon="-2.31915">
        <ele>4.8000001907349</ele>
        <time>2020-09-03T07:13:06.000Z</time>
      </trkpt>
      <trkpt lat="47.25564" lon="-2.31913">
        <ele>4.8000001907349</ele>
        <time>2020-09-03T07:13:09.000Z</time>
      </trkpt>
      <trkpt lat="47.25564" lon="-2.3191">
        <ele>4.8000001907349</ele>
        <time>2020-09-03T07:13:10.000Z</time>
      </trkpt>
      <trkpt lat="47.25562" lon="-2.31891">
        <ele>4.8000001907349</ele>
        <time>2020-09-03T07:13:15.000Z</time>
      </trkpt>
      <trkpt lat="47.25563" lon="-2.31852">
        <ele>4.8000001907349</ele>
        <time>2020-09-03T07:13:24.000Z</time>
      </trkpt>
      <trkpt lat="47.25563" lon="-2.31818">
        <ele>4.8000001907349</ele>
        <time>2020-09-03T07:13:30.000Z</time>
      </trkpt>
      <trkpt lat="47.25562" lon="-2.318">
        <ele>4.8000001907349</ele>
        <time>2020-09-03T07:13:33.000Z</time>
      </trkpt>
      <trkpt lat="47.25566" lon="-2.31781">
        <ele>4.8000001907349</ele>
        <time>2020-09-03T07:13:36.000Z</time>
      </trkpt>
      <trkpt lat="47.25578" lon="-2.31766">
        <ele>4.8000001907349</ele>
        <time>2020-09-03T07:13:39.000Z</time>
      </trkpt>
      <trkpt lat="47.25581" lon="-2.31761">
        <ele>4.8000001907349</ele>
        <time>2020-09-03T07:13:40.000Z</time>
      </trkpt>
      <trkpt lat="47.25589" lon="-2.3175">
        <ele>4.8000001907349</ele>
        <time>2020-09-03T07:13:42.000Z</time>
      </trkpt>
      <trkpt lat="47.25594" lon="-2.31732">
        <ele>4.8000001907349</ele>
        <time>2020-09-03T07:13:45.000Z</time>
      </trkpt>
      <trkpt lat="47.25596" lon="-2.31726">
        <ele>4.8000001907349</ele>
        <time>2020-09-03T07:13:46.000Z</time>
      </trkpt>
      <trkpt lat="47.25598" lon="-2.31721">
        <ele>4.8000001907349</ele>
        <time>2020-09-03T07:13:47.000Z</time>
      </trkpt>
      <trkpt lat="47.25604" lon="-2.31712">
        <ele>4.8000001907349</ele>
        <time>2020-09-03T07:13:49.000Z</time>
      </trkpt>
      <trkpt lat="47.25609" lon="-2.31709">
        <ele>4.8000001907349</ele>
        <time>2020-09-03T07:13:50.000Z</time>
      </trkpt>
      <trkpt lat="47.25614" lon="-2.31707">
        <ele>4.4000000953674</ele>
        <time>2020-09-03T07:13:51.000Z</time>
      </trkpt>
      <trkpt lat="47.2562" lon="-2.31706">
        <ele>4</ele>
        <time>2020-09-03T07:13:52.000Z</time>
      </trkpt>
      <trkpt lat="47.25625" lon="-2.31706">
        <ele>3.5999999046326</ele>
        <time>2020-09-03T07:13:53.000Z</time>
      </trkpt>
      <trkpt lat="47.25631" lon="-2.31706">
        <ele>3.2000000476837</ele>
        <time>2020-09-03T07:13:54.000Z</time>
      </trkpt>
      <trkpt lat="47.25637" lon="-2.31703">
        <ele>2.7999999523163</ele>
        <time>2020-09-03T07:13:55.000Z</time>
      </trkpt>
      <trkpt lat="47.25652" lon="-2.3169">
        <ele>2.7999999523163</ele>
        <time>2020-09-03T07:13:58.000Z</time>
      </trkpt>
      <trkpt lat="47.25658" lon="-2.31676">
        <ele>2.4000000953674</ele>
        <time>2020-09-03T07:14:00.000Z</time>
      </trkpt>
      <trkpt lat="47.2566" lon="-2.31669">
        <ele>2</ele>
        <time>2020-09-03T07:14:01.000Z</time>
      </trkpt>
      <trkpt lat="47.25663" lon="-2.31664">
        <ele>1.6000000238419</ele>
        <time>2020-09-03T07:14:02.000Z</time>
      </trkpt>
      <trkpt lat="47.25668" lon="-2.31663">
        <ele>1</ele>
        <time>2020-09-03T07:14:03.000Z</time>
      </trkpt>
      <trkpt lat="47.25672" lon="-2.31662">
        <ele>0.60000002384186</ele>
        <time>2020-09-03T07:14:04.000Z</time>
      </trkpt>
      <trkpt lat="47.25677" lon="-2.31666">
        <ele>0.60000002384186</ele>
        <time>2020-09-03T07:14:05.000Z</time>
      </trkpt>
      <trkpt lat="47.25687" lon="-2.31673">
        <ele>0.60000002384186</ele>
        <time>2020-09-03T07:14:07.000Z</time>
      </trkpt>
      <trkpt lat="47.25698" lon="-2.31678">
        <ele>0.60000002384186</ele>
        <time>2020-09-03T07:14:09.000Z</time>
      </trkpt>
      <trkpt lat="47.25703" lon="-2.3168">
        <ele>0.20000000298023</ele>
        <time>2020-09-03T07:14:10.000Z</time>
      </trkpt>
      <trkpt lat="47.25709" lon="-2.31684">
        <ele>-0.60000002384186</ele>
        <time>2020-09-03T07:14:11.000Z</time>
      </trkpt>
      <trkpt lat="47.25714" lon="-2.31687">
        <ele>-1</ele>
        <time>2020-09-03T07:14:12.000Z</time>
      </trkpt>
      <trkpt lat="47.25719" lon="-2.31691">
        <ele>-1.3999999761581</ele>
        <time>2020-09-03T07:14:13.000Z</time>
      </trkpt>
      <trkpt lat="47.25729" lon="-2.31697">
        <ele>-1.3999999761581</ele>
        <time>2020-09-03T07:14:15.000Z</time>
      </trkpt>
      <trkpt lat="47.25738" lon="-2.31693">
        <ele>-1.3999999761581</ele>
        <time>2020-09-03T07:14:17.000Z</time>
      </trkpt>
      <trkpt lat="47.25761" lon="-2.31676">
        <ele>-1.3999999761581</ele>
        <time>2020-09-03T07:14:23.000Z</time>
      </trkpt>
      <trkpt lat="47.25777" lon="-2.31663">
        <ele>-1.3999999761581</ele>
        <time>2020-09-03T07:14:29.000Z</time>
      </trkpt>
      <trkpt lat="47.25792" lon="-2.31649">
        <ele>-1.3999999761581</ele>
        <time>2020-09-03T07:14:34.000Z</time>
      </trkpt>
      <trkpt lat="47.25824" lon="-2.31626">
        <ele>-1.3999999761581</ele>
        <time>2020-09-03T07:14:42.000Z</time>
      </trkpt>
      <trkpt lat="47.25836" lon="-2.31616">
        <ele>-1.3999999761581</ele>
        <time>2020-09-03T07:14:45.000Z</time>
      </trkpt>
      <trkpt lat="47.25848" lon="-2.31605">
        <ele>-1.3999999761581</ele>
        <time>2020-09-03T07:14:48.000Z</time>
      </trkpt>
      <trkpt lat="47.25872" lon="-2.31582">
        <ele>-1.3999999761581</ele>
        <time>2020-09-03T07:14:53.000Z</time>
      </trkpt>
      <trkpt lat="47.25887" lon="-2.31564">
        <ele>-1.3999999761581</ele>
        <time>2020-09-03T07:14:56.000Z</time>
      </trkpt>
      <trkpt lat="47.25895" lon="-2.31548">
        <ele>-1.3999999761581</ele>
        <time>2020-09-03T07:14:58.000Z</time>
      </trkpt>
      <trkpt lat="47.25901" lon="-2.31532">
        <ele>-1.3999999761581</ele>
        <time>2020-09-03T07:15:00.000Z</time>
      </trkpt>
      <trkpt lat="47.25904" lon="-2.31526">
        <ele>-1.7999999523163</ele>
        <time>2020-09-03T07:15:01.000Z</time>
      </trkpt>
      <trkpt lat="47.25906" lon="-2.31522">
        <ele>-2.2000000476837</ele>
        <time>2020-09-03T07:15:02.000Z</time>
      </trkpt>
      <trkpt lat="47.2591" lon="-2.31519">
        <ele>-2.5999999046326</ele>
        <time>2020-09-03T07:15:03.000Z</time>
      </trkpt>
      <trkpt lat="47.25913" lon="-2.31516">
        <ele>-3</ele>
        <time>2020-09-03T07:15:04.000Z</time>
      </trkpt>
      <trkpt lat="47.25915" lon="-2.31513">
        <ele>-3.4000000953674</ele>
        <time>2020-09-03T07:15:05.000Z</time>
      </trkpt>
      <trkpt lat="47.25916" lon="-2.31506">
        <ele>-3.4000000953674</ele>
        <time>2020-09-03T07:15:08.000Z</time>
      </trkpt>
      <trkpt lat="47.25915" lon="-2.31505">
        <ele>-3.4000000953674</ele>
        <time>2020-09-03T07:15:09.000Z</time>
      </trkpt>
      <trkpt lat="47.25915" lon="-2.31502">
        <ele>-3.4000000953674</ele>
        <time>2020-09-03T07:15:11.000Z</time>
      </trkpt>
      <trkpt lat="47.25918" lon="-2.31497">
        <ele>-3.4000000953674</ele>
        <time>2020-09-03T07:15:13.000Z</time>
      </trkpt>
      <trkpt lat="47.25926" lon="-2.31477">
        <ele>-3.4000000953674</ele>
        <time>2020-09-03T07:15:17.000Z</time>
      </trkpt>
      <trkpt lat="47.25932" lon="-2.31461">
        <ele>-3.7999999523163</ele>
        <time>2020-09-03T07:15:20.000Z</time>
      </trkpt>
      <trkpt lat="47.25935" lon="-2.31458">
        <ele>-4.1999998092651</ele>
        <time>2020-09-03T07:15:21.000Z</time>
      </trkpt>
      <trkpt lat="47.25938" lon="-2.31456">
        <ele>-4.5999999046326</ele>
        <time>2020-09-03T07:15:22.000Z</time>
      </trkpt>
      <trkpt lat="47.25941" lon="-2.31456">
        <ele>-5</ele>
        <time>2020-09-03T07:15:23.000Z</time>
      </trkpt>
      <trkpt lat="47.25945" lon="-2.31458">
        <ele>-5.4000000953674</ele>
        <time>2020-09-03T07:15:24.000Z</time>
      </trkpt>
      <trkpt lat="47.25958" lon="-2.31469">
        <ele>-5.4000000953674</ele>
        <time>2020-09-03T07:15:27.000Z</time>
      </trkpt>
      <trkpt lat="47.2597" lon="-2.31483">
        <ele>-5.4000000953674</ele>
        <time>2020-09-03T07:15:30.000Z</time>
      </trkpt>
      <trkpt lat="47.2598" lon="-2.31507">
        <ele>-5.4000000953674</ele>
        <time>2020-09-03T07:15:34.000Z</time>
      </trkpt>
      <trkpt lat="47.25994" lon="-2.31535">
        <ele>-5.4000000953674</ele>
        <time>2020-09-03T07:15:39.000Z</time>
      </trkpt>
      <trkpt lat="47.25997" lon="-2.31541">
        <ele>-5.4000000953674</ele>
        <time>2020-09-03T07:15:40.000Z</time>
      </trkpt>
      <trkpt lat="47.26006" lon="-2.31557">
        <ele>-5.4000000953674</ele>
        <time>2020-09-03T07:15:43.000Z</time>
      </trkpt>
      <trkpt lat="47.26012" lon="-2.31565">
        <ele>-5.4000000953674</ele>
        <time>2020-09-03T07:15:45.000Z</time>
      </trkpt>
      <trkpt lat="47.26015" lon="-2.31566">
        <ele>-5.4000000953674</ele>
        <time>2020-09-03T07:15:46.000Z</time>
      </trkpt>
      <trkpt lat="47.26022" lon="-2.31559">
        <ele>-5.4000000953674</ele>
        <time>2020-09-03T07:15:48.000Z</time>
      </trkpt>
      <trkpt lat="47.26031" lon="-2.31534">
        <ele>-5.4000000953674</ele>
        <time>2020-09-03T07:15:52.000Z</time>
      </trkpt>
      <trkpt lat="47.26035" lon="-2.31522">
        <ele>-5.4000000953674</ele>
        <time>2020-09-03T07:15:54.000Z</time>
      </trkpt>
      <trkpt lat="47.2604" lon="-2.31516">
        <ele>-5.4000000953674</ele>
        <time>2020-09-03T07:15:56.000Z</time>
      </trkpt>
      <trkpt lat="47.26044" lon="-2.31517">
        <ele>-5.4000000953674</ele>
        <time>2020-09-03T07:15:57.000Z</time>
      </trkpt>
      <trkpt lat="47.26056" lon="-2.31529">
        <ele>-5.4000000953674</ele>
        <time>2020-09-03T07:16:00.000Z</time>
      </trkpt>
      <trkpt lat="47.26066" lon="-2.31548">
        <ele>-5.4000000953674</ele>
        <time>2020-09-03T07:16:03.000Z</time>
      </trkpt>
      <trkpt lat="47.26071" lon="-2.31561">
        <ele>-5.8000001907349</ele>
        <time>2020-09-03T07:16:05.000Z</time>
      </trkpt>
      <trkpt lat="47.26073" lon="-2.31567">
        <ele>-6.1999998092651</ele>
        <time>2020-09-03T07:16:06.000Z</time>
      </trkpt>
      <trkpt lat="47.26075" lon="-2.31573">
        <ele>-6.5999999046326</ele>
        <time>2020-09-03T07:16:07.000Z</time>
      </trkpt>
      <trkpt lat="47.26078" lon="-2.31576">
        <ele>-7</ele>
        <time>2020-09-03T07:16:08.000Z</time>
      </trkpt>
      <trkpt lat="47.2608" lon="-2.31577">
        <ele>-7.4000000953674</ele>
        <time>2020-09-03T07:16:09.000Z</time>
      </trkpt>
      <trkpt lat="47.26087" lon="-2.31576">
        <ele>-7.4000000953674</ele>
        <time>2020-09-03T07:16:13.000Z</time>
      </trkpt>
      <trkpt lat="47.26093" lon="-2.31588">
        <ele>-7.4000000953674</ele>
        <time>2020-09-03T07:16:16.000Z</time>
      </trkpt>
      <trkpt lat="47.26095" lon="-2.31594">
        <ele>-7.4000000953674</ele>
        <time>2020-09-03T07:16:17.000Z</time>
      </trkpt>
      <trkpt lat="47.26103" lon="-2.31609">
        <ele>-7.4000000953674</ele>
        <time>2020-09-03T07:16:20.000Z</time>
      </trkpt>
      <trkpt lat="47.26112" lon="-2.31614">
        <ele>-7.4000000953674</ele>
        <time>2020-09-03T07:16:22.000Z</time>
      </trkpt>
      <trkpt lat="47.26129" lon="-2.31613">
        <ele>-7.4000000953674</ele>
        <time>2020-09-03T07:16:26.000Z</time>
      </trkpt>
      <trkpt lat="47.26133" lon="-2.31613">
        <ele>-7.4000000953674</ele>
        <time>2020-09-03T07:16:27.000Z</time>
      </trkpt>
      <trkpt lat="47.26159" lon="-2.31606">
        <ele>-7.4000000953674</ele>
        <time>2020-09-03T07:16:33.000Z</time>
      </trkpt>
      <trkpt lat="47.26202" lon="-2.31589">
        <ele>-7.4000000953674</ele>
        <time>2020-09-03T07:16:43.000Z</time>
      </trkpt>
      <trkpt lat="47.26211" lon="-2.31587">
        <ele>-7.4000000953674</ele>
        <time>2020-09-03T07:16:45.000Z</time>
      </trkpt>
      <trkpt lat="47.2622" lon="-2.31589">
        <ele>-7.4000000953674</ele>
        <time>2020-09-03T07:16:47.000Z</time>
      </trkpt>
      <trkpt lat="47.26233" lon="-2.31594">
        <ele>-7.4000000953674</ele>
        <time>2020-09-03T07:16:50.000Z</time>
      </trkpt>
      <trkpt lat="47.2624" lon="-2.316">
        <ele>-7.4000000953674</ele>
        <time>2020-09-03T07:16:52.000Z</time>
      </trkpt>
      <trkpt lat="47.26248" lon="-2.31607">
        <ele>-7.4000000953674</ele>
        <time>2020-09-03T07:16:54.000Z</time>
      </trkpt>
      <trkpt lat="47.26258" lon="-2.31623">
        <ele>-7.4000000953674</ele>
        <time>2020-09-03T07:16:57.000Z</time>
      </trkpt>
      <trkpt lat="47.26277" lon="-2.31667">
        <ele>-7.4000000953674</ele>
        <time>2020-09-03T07:17:04.000Z</time>
      </trkpt>
      <trkpt lat="47.26296" lon="-2.31704">
        <ele>-7.4000000953674</ele>
        <time>2020-09-03T07:17:10.000Z</time>
      </trkpt>
      <trkpt lat="47.26304" lon="-2.31712">
        <ele>-7.4000000953674</ele>
        <time>2020-09-03T07:17:12.000Z</time>
      </trkpt>
      <trkpt lat="47.26321" lon="-2.31709">
        <ele>-7.4000000953674</ele>
        <time>2020-09-03T07:17:16.000Z</time>
      </trkpt>
      <trkpt lat="47.26328" lon="-2.31705">
        <ele>-7.4000000953674</ele>
        <time>2020-09-03T07:17:18.000Z</time>
      </trkpt>
      <trkpt lat="47.26333" lon="-2.31699">
        <ele>-7.4000000953674</ele>
        <time>2020-09-03T07:17:20.000Z</time>
      </trkpt>
      <trkpt lat="47.26335" lon="-2.31694">
        <ele>-7.4000000953674</ele>
        <time>2020-09-03T07:17:21.000Z</time>
      </trkpt>
      <trkpt lat="47.26342" lon="-2.31687">
        <ele>-7.4000000953674</ele>
        <time>2020-09-03T07:17:24.000Z</time>
      </trkpt>
      <trkpt lat="47.26351" lon="-2.31681">
        <ele>-7.4000000953674</ele>
        <time>2020-09-03T07:17:27.000Z</time>
      </trkpt>
      <trkpt lat="47.2636" lon="-2.31676">
        <ele>-7.4000000953674</ele>
        <time>2020-09-03T07:17:30.000Z</time>
      </trkpt>
      <trkpt lat="47.26386" lon="-2.31665">
        <ele>-7.4000000953674</ele>
        <time>2020-09-03T07:17:37.000Z</time>
      </trkpt>
      <trkpt lat="47.26397" lon="-2.3166">
        <ele>-7</ele>
        <time>2020-09-03T07:17:40.000Z</time>
      </trkpt>
      <trkpt lat="47.264" lon="-2.31659">
        <ele>-6.5999999046326</ele>
        <time>2020-09-03T07:17:41.000Z</time>
      </trkpt>
      <trkpt lat="47.26404" lon="-2.31657">
        <ele>-6.1999998092651</ele>
        <time>2020-09-03T07:17:42.000Z</time>
      </trkpt>
      <trkpt lat="47.26407" lon="-2.31656">
        <ele>-5.8000001907349</ele>
        <time>2020-09-03T07:17:43.000Z</time>
      </trkpt>
      <trkpt lat="47.2641" lon="-2.31654">
        <ele>-5.4000000953674</ele>
        <time>2020-09-03T07:17:44.000Z</time>
      </trkpt>
      <trkpt lat="47.26414" lon="-2.31648">
        <ele>-5.4000000953674</ele>
        <time>2020-09-03T07:17:46.000Z</time>
      </trkpt>
      <trkpt lat="47.26414" lon="-2.31644">
        <ele>-5.4000000953674</ele>
        <time>2020-09-03T07:17:47.000Z</time>
      </trkpt>
      <trkpt lat="47.26411" lon="-2.31609">
        <ele>-5.4000000953674</ele>
        <time>2020-09-03T07:17:54.000Z</time>
      </trkpt>
      <trkpt lat="47.26411" lon="-2.31591">
        <ele>-5.4000000953674</ele>
        <time>2020-09-03T07:17:58.000Z</time>
      </trkpt>
      <trkpt lat="47.2641" lon="-2.31567">
        <ele>-5.4000000953674</ele>
        <time>2020-09-03T07:18:03.000Z</time>
      </trkpt>
      <trkpt lat="47.26413" lon="-2.31555">
        <ele>-5.4000000953674</ele>
        <time>2020-09-03T07:18:06.000Z</time>
      </trkpt>
      <trkpt lat="47.26414" lon="-2.31554">
        <ele>-5.4000000953674</ele>
        <time>2020-09-03T07:18:07.000Z</time>
      </trkpt>
      <trkpt lat="47.26416" lon="-2.31552">
        <ele>-5.4000000953674</ele>
        <time>2020-09-03T07:18:09.000Z</time>
      </trkpt>
      <trkpt lat="47.26408" lon="-2.31556">
        <ele>-5.4000000953674</ele>
        <time>2020-09-03T07:20:46.000Z</time>
      </trkpt>
      <trkpt lat="47.26408" lon="-2.31558">
        <ele>-5.4000000953674</ele>
        <time>2020-09-03T07:20:47.000Z</time>
      </trkpt>
      <trkpt lat="47.26406" lon="-2.31567">
        <ele>-5.4000000953674</ele>
        <time>2020-09-03T07:20:50.000Z</time>
      </trkpt>
      <trkpt lat="47.26407" lon="-2.31578">
        <ele>-5.4000000953674</ele>
        <time>2020-09-03T07:20:54.000Z</time>
      </trkpt>
      <trkpt lat="47.26408" lon="-2.31596">
        <ele>-5.4000000953674</ele>
        <time>2020-09-03T07:20:59.000Z</time>
      </trkpt>
      <trkpt lat="47.26408" lon="-2.31619">
        <ele>-5.4000000953674</ele>
        <time>2020-09-03T07:21:05.000Z</time>
      </trkpt>
      <trkpt lat="47.26408" lon="-2.31646">
        <ele>-5.4000000953674</ele>
        <time>2020-09-03T07:21:10.000Z</time>
      </trkpt>
      <trkpt lat="47.26409" lon="-2.31652">
        <ele>-5.4000000953674</ele>
        <time>2020-09-03T07:21:11.000Z</time>
      </trkpt>
      <trkpt lat="47.26407" lon="-2.31662">
        <ele>-5.4000000953674</ele>
        <time>2020-09-03T07:21:13.000Z</time>
      </trkpt>
      <trkpt lat="47.26404" lon="-2.31665">
        <ele>-5.4000000953674</ele>
        <time>2020-09-03T07:21:14.000Z</time>
      </trkpt>
      <trkpt lat="47.26401" lon="-2.31668">
        <ele>-5.8000001907349</ele>
        <time>2020-09-03T07:21:15.000Z</time>
      </trkpt>
      <trkpt lat="47.26397" lon="-2.3167">
        <ele>-6.1999998092651</ele>
        <time>2020-09-03T07:21:16.000Z</time>
      </trkpt>
      <trkpt lat="47.26393" lon="-2.31672">
        <ele>-6.5999999046326</ele>
        <time>2020-09-03T07:21:17.000Z</time>
      </trkpt>
      <trkpt lat="47.26389" lon="-2.31674">
        <ele>-7</ele>
        <time>2020-09-03T07:21:18.000Z</time>
      </trkpt>
      <trkpt lat="47.26384" lon="-2.31676">
        <ele>-7.4000000953674</ele>
        <time>2020-09-03T07:21:19.000Z</time>
      </trkpt>
      <trkpt lat="47.2638" lon="-2.31678">
        <ele>-7.4000000953674</ele>
        <time>2020-09-03T07:21:20.000Z</time>
      </trkpt>
      <trkpt lat="47.26351" lon="-2.31693">
        <ele>-7.4000000953674</ele>
        <time>2020-09-03T07:21:26.000Z</time>
      </trkpt>
      <trkpt lat="47.26347" lon="-2.31696">
        <ele>-7.4000000953674</ele>
        <time>2020-09-03T07:21:27.000Z</time>
      </trkpt>
      <trkpt lat="47.26319" lon="-2.31709">
        <ele>-7.8000001907349</ele>
        <time>2020-09-03T07:21:32.000Z</time>
      </trkpt>
      <trkpt lat="47.26314" lon="-2.31712">
        <ele>-8.1999998092651</ele>
        <time>2020-09-03T07:21:33.000Z</time>
      </trkpt>
      <trkpt lat="47.26309" lon="-2.31714">
        <ele>-8.8000001907349</ele>
        <time>2020-09-03T07:21:34.000Z</time>
      </trkpt>
      <trkpt lat="47.26305" lon="-2.31718">
        <ele>-9.1999998092651</ele>
        <time>2020-09-03T07:21:35.000Z</time>
      </trkpt>
      <trkpt lat="47.26303" lon="-2.31724">
        <ele>-9.6000003814697</ele>
        <time>2020-09-03T07:21:36.000Z</time>
      </trkpt>
      <trkpt lat="47.26304" lon="-2.31744">
        <ele>-9.6000003814697</ele>
        <time>2020-09-03T07:21:39.000Z</time>
      </trkpt>
      <trkpt lat="47.26307" lon="-2.31763">
        <ele>-9.6000003814697</ele>
        <time>2020-09-03T07:21:42.000Z</time>
      </trkpt>
      <trkpt lat="47.26307" lon="-2.31783">
        <ele>-9.6000003814697</ele>
        <time>2020-09-03T07:21:45.000Z</time>
      </trkpt>
      <trkpt lat="47.26307" lon="-2.31817">
        <ele>-10</ele>
        <time>2020-09-03T07:21:50.000Z</time>
      </trkpt>
      <trkpt lat="47.26306" lon="-2.31824">
        <ele>-10.39999961853</ele>
        <time>2020-09-03T07:21:51.000Z</time>
      </trkpt>
      <trkpt lat="47.26305" lon="-2.31831">
        <ele>-10.800000190735</ele>
        <time>2020-09-03T07:21:52.000Z</time>
      </trkpt>
      <trkpt lat="47.26305" lon="-2.31838">
        <ele>-11.199999809265</ele>
        <time>2020-09-03T07:21:53.000Z</time>
      </trkpt>
      <trkpt lat="47.26304" lon="-2.31845">
        <ele>-11.60000038147</ele>
        <time>2020-09-03T07:21:54.000Z</time>
      </trkpt>
      <trkpt lat="47.26303" lon="-2.31868">
        <ele>-11.60000038147</ele>
        <time>2020-09-03T07:21:57.000Z</time>
      </trkpt>
      <trkpt lat="47.26302" lon="-2.31885">
        <ele>-11.60000038147</ele>
        <time>2020-09-03T07:22:00.000Z</time>
      </trkpt>
      <trkpt lat="47.263" lon="-2.31888">
        <ele>-11.60000038147</ele>
        <time>2020-09-03T07:22:01.000Z</time>
      </trkpt>
      <trkpt lat="47.26289" lon="-2.31896">
        <ele>-11.60000038147</ele>
        <time>2020-09-03T07:22:04.000Z</time>
      </trkpt>
      <trkpt lat="47.26282" lon="-2.31904">
        <ele>-11.60000038147</ele>
        <time>2020-09-03T07:22:06.000Z</time>
      </trkpt>
      <trkpt lat="47.26263" lon="-2.31938">
        <ele>-11.60000038147</ele>
        <time>2020-09-03T07:22:13.000Z</time>
      </trkpt>
      <trkpt lat="47.2625" lon="-2.31966">
        <ele>-11.60000038147</ele>
        <time>2020-09-03T07:22:18.000Z</time>
      </trkpt>
      <trkpt lat="47.26247" lon="-2.3197">
        <ele>-11.60000038147</ele>
        <time>2020-09-03T07:22:19.000Z</time>
      </trkpt>
      <trkpt lat="47.26236" lon="-2.31973">
        <ele>-11.60000038147</ele>
        <time>2020-09-03T07:22:22.000Z</time>
      </trkpt>
      <trkpt lat="47.26219" lon="-2.3199">
        <ele>-11.60000038147</ele>
        <time>2020-09-03T07:22:28.000Z</time>
      </trkpt>
      <trkpt lat="47.26209" lon="-2.31999">
        <ele>-11.60000038147</ele>
        <time>2020-09-03T07:22:32.000Z</time>
      </trkpt>
      <trkpt lat="47.26204" lon="-2.32015">
        <ele>-11.60000038147</ele>
        <time>2020-09-03T07:22:36.000Z</time>
      </trkpt>
      <trkpt lat="47.26193" lon="-2.32019">
        <ele>-11.60000038147</ele>
        <time>2020-09-03T07:22:40.000Z</time>
      </trkpt>
      <trkpt lat="47.26186" lon="-2.32021">
        <ele>-11.60000038147</ele>
        <time>2020-09-03T07:22:42.000Z</time>
      </trkpt>
      <trkpt lat="47.26176" lon="-2.32022">
        <ele>-11.60000038147</ele>
        <time>2020-09-03T07:22:45.000Z</time>
      </trkpt>
      <trkpt lat="47.26159" lon="-2.32035">
        <ele>-11.60000038147</ele>
        <time>2020-09-03T07:22:51.000Z</time>
      </trkpt>
      <trkpt lat="47.26151" lon="-2.32061">
        <ele>-11.60000038147</ele>
        <time>2020-09-03T07:22:56.000Z</time>
      </trkpt>
      <trkpt lat="47.26142" lon="-2.32092">
        <ele>-11.60000038147</ele>
        <time>2020-09-03T07:23:02.000Z</time>
      </trkpt>
      <trkpt lat="47.26132" lon="-2.32124">
        <ele>-11.60000038147</ele>
        <time>2020-09-03T07:23:08.000Z</time>
      </trkpt>
      <trkpt lat="47.26119" lon="-2.32162">
        <ele>-11.60000038147</ele>
        <time>2020-09-03T07:23:15.000Z</time>
      </trkpt>
      <trkpt lat="47.261" lon="-2.32209">
        <ele>-11.60000038147</ele>
        <time>2020-09-03T07:23:24.000Z</time>
      </trkpt>
      <trkpt lat="47.26097" lon="-2.32214">
        <ele>-11.60000038147</ele>
        <time>2020-09-03T07:23:25.000Z</time>
      </trkpt>
      <trkpt lat="47.26081" lon="-2.32236">
        <ele>-11.60000038147</ele>
        <time>2020-09-03T07:23:30.000Z</time>
      </trkpt>
      <trkpt lat="47.26054" lon="-2.32269">
        <ele>-11.60000038147</ele>
        <time>2020-09-03T07:23:38.000Z</time>
      </trkpt>
      <trkpt lat="47.26035" lon="-2.32288">
        <ele>-11.60000038147</ele>
        <time>2020-09-03T07:23:44.000Z</time>
      </trkpt>
      <trkpt lat="47.26014" lon="-2.32314">
        <ele>-11.60000038147</ele>
        <time>2020-09-03T07:23:51.000Z</time>
      </trkpt>
      <trkpt lat="47.25988" lon="-2.32348">
        <ele>-11.60000038147</ele>
        <time>2020-09-03T07:23:59.000Z</time>
      </trkpt>
      <trkpt lat="47.25968" lon="-2.32374">
        <ele>-11.60000038147</ele>
        <time>2020-09-03T07:24:05.000Z</time>
      </trkpt>
      <trkpt lat="47.25944" lon="-2.32406">
        <ele>-11.60000038147</ele>
        <time>2020-09-03T07:24:13.000Z</time>
      </trkpt>
      <trkpt lat="47.2592" lon="-2.32435">
        <ele>-11.60000038147</ele>
        <time>2020-09-03T07:24:20.000Z</time>
      </trkpt>
      <trkpt lat="47.25901" lon="-2.32463">
        <ele>-11.60000038147</ele>
        <time>2020-09-03T07:24:28.000Z</time>
      </trkpt>
      <trkpt lat="47.259" lon="-2.32465">
        <ele>-11.60000038147</ele>
        <time>2020-09-03T07:24:30.000Z</time>
      </trkpt>
      <trkpt lat="47.25899" lon="-2.32468">
        <ele>-11.60000038147</ele>
        <time>2020-09-03T07:24:37.000Z</time>
      </trkpt>
      <trkpt lat="47.25892" lon="-2.32477">
        <ele>-11.60000038147</ele>
        <time>2020-09-03T07:24:41.000Z</time>
      </trkpt>
      <trkpt lat="47.2589" lon="-2.3248">
        <ele>-11.60000038147</ele>
        <time>2020-09-03T07:24:42.000Z</time>
      </trkpt>
      <trkpt lat="47.25881" lon="-2.32488">
        <ele>-11.60000038147</ele>
        <time>2020-09-03T07:24:45.000Z</time>
      </trkpt>
      <trkpt lat="47.25868" lon="-2.32486">
        <ele>-11.60000038147</ele>
        <time>2020-09-03T07:24:48.000Z</time>
      </trkpt>
      <trkpt lat="47.2586" lon="-2.32484">
        <ele>-11.60000038147</ele>
        <time>2020-09-03T07:24:50.000Z</time>
      </trkpt>
      <trkpt lat="47.25827" lon="-2.32485">
        <ele>-11.60000038147</ele>
        <time>2020-09-03T07:24:58.000Z</time>
      </trkpt>
      <trkpt lat="47.25823" lon="-2.32489">
        <ele>-11.60000038147</ele>
        <time>2020-09-03T07:24:59.000Z</time>
      </trkpt>
      <trkpt lat="47.25819" lon="-2.32498">
        <ele>-11.60000038147</ele>
        <time>2020-09-03T07:25:01.000Z</time>
      </trkpt>
      <trkpt lat="47.25809" lon="-2.32512">
        <ele>-11.60000038147</ele>
        <time>2020-09-03T07:25:06.000Z</time>
      </trkpt>
      <trkpt lat="47.25807" lon="-2.32516">
        <ele>-11.60000038147</ele>
        <time>2020-09-03T07:25:07.000Z</time>
      </trkpt>
      <trkpt lat="47.25808" lon="-2.32525">
        <ele>-11.60000038147</ele>
        <time>2020-09-03T07:25:09.000Z</time>
      </trkpt>
      <trkpt lat="47.25813" lon="-2.32547">
        <ele>-11.60000038147</ele>
        <time>2020-09-03T07:25:13.000Z</time>
      </trkpt>
      <trkpt lat="47.25816" lon="-2.32558">
        <ele>-11.60000038147</ele>
        <time>2020-09-03T07:25:15.000Z</time>
      </trkpt>
      <trkpt lat="47.25832" lon="-2.32619">
        <ele>-11.60000038147</ele>
        <time>2020-09-03T07:25:25.000Z</time>
      </trkpt>
      <trkpt lat="47.25842" lon="-2.32665">
        <ele>-11.60000038147</ele>
        <time>2020-09-03T07:25:32.000Z</time>
      </trkpt>
      <trkpt lat="47.25854" lon="-2.32704">
        <ele>-11.60000038147</ele>
        <time>2020-09-03T07:25:39.000Z</time>
      </trkpt>
      <trkpt lat="47.2587" lon="-2.32757">
        <ele>-11.60000038147</ele>
        <time>2020-09-03T07:25:48.000Z</time>
      </trkpt>
      <trkpt lat="47.25884" lon="-2.32807">
        <ele>-11.60000038147</ele>
        <time>2020-09-03T07:25:56.000Z</time>
      </trkpt>
      <trkpt lat="47.25898" lon="-2.32847">
        <ele>-11.60000038147</ele>
        <time>2020-09-03T07:26:03.000Z</time>
      </trkpt>
      <trkpt lat="47.25913" lon="-2.32891">
        <ele>-11.60000038147</ele>
        <time>2020-09-03T07:26:11.000Z</time>
      </trkpt>
      <trkpt lat="47.25931" lon="-2.32942">
        <ele>-11.60000038147</ele>
        <time>2020-09-03T07:26:19.000Z</time>
      </trkpt>
      <trkpt lat="47.25948" lon="-2.32988">
        <ele>-11.60000038147</ele>
        <time>2020-09-03T07:26:26.000Z</time>
      </trkpt>
      <trkpt lat="47.25967" lon="-2.33039">
        <ele>-11.60000038147</ele>
        <time>2020-09-03T07:26:34.000Z</time>
      </trkpt>
      <trkpt lat="47.25983" lon="-2.33084">
        <ele>-11.60000038147</ele>
        <time>2020-09-03T07:26:42.000Z</time>
      </trkpt>
      <trkpt lat="47.25994" lon="-2.3312">
        <ele>-11.60000038147</ele>
        <time>2020-09-03T07:26:48.000Z</time>
      </trkpt>
      <trkpt lat="47.26013" lon="-2.3317">
        <ele>-11.60000038147</ele>
        <time>2020-09-03T07:26:56.000Z</time>
      </trkpt>
      <trkpt lat="47.2603" lon="-2.33218">
        <ele>-11.60000038147</ele>
        <time>2020-09-03T07:27:04.000Z</time>
      </trkpt>
      <trkpt lat="47.26046" lon="-2.33261">
        <ele>-11.60000038147</ele>
        <time>2020-09-03T07:27:11.000Z</time>
      </trkpt>
      <trkpt lat="47.26067" lon="-2.3332">
        <ele>-11.60000038147</ele>
        <time>2020-09-03T07:27:21.000Z</time>
      </trkpt>
      <trkpt lat="47.26081" lon="-2.33368">
        <ele>-11.60000038147</ele>
        <time>2020-09-03T07:27:29.000Z</time>
      </trkpt>
      <trkpt lat="47.26091" lon="-2.33381">
        <ele>-11.60000038147</ele>
        <time>2020-09-03T07:27:33.000Z</time>
      </trkpt>
      <trkpt lat="47.26107" lon="-2.33398">
        <ele>-11.60000038147</ele>
        <time>2020-09-03T07:27:38.000Z</time>
      </trkpt>
      <trkpt lat="47.26128" lon="-2.33424">
        <ele>-11.60000038147</ele>
        <time>2020-09-03T07:27:45.000Z</time>
      </trkpt>
      <trkpt lat="47.26135" lon="-2.33438">
        <ele>-11.60000038147</ele>
        <time>2020-09-03T07:27:49.000Z</time>
      </trkpt>
      <trkpt lat="47.26131" lon="-2.33457">
        <ele>-11.60000038147</ele>
        <time>2020-09-03T07:27:53.000Z</time>
      </trkpt>
      <trkpt lat="47.26115" lon="-2.33497">
        <ele>-11.60000038147</ele>
        <time>2020-09-03T07:28:00.000Z</time>
      </trkpt>
      <trkpt lat="47.26111" lon="-2.33509">
        <ele>-12</ele>
        <time>2020-09-03T07:28:02.000Z</time>
      </trkpt>
      <trkpt lat="47.26109" lon="-2.33516">
        <ele>-12.39999961853</ele>
        <time>2020-09-03T07:28:03.000Z</time>
      </trkpt>
      <trkpt lat="47.26107" lon="-2.33523">
        <ele>-12.800000190735</ele>
        <time>2020-09-03T07:28:04.000Z</time>
      </trkpt>
      <trkpt lat="47.26104" lon="-2.33529">
        <ele>-13.199999809265</ele>
        <time>2020-09-03T07:28:05.000Z</time>
      </trkpt>
      <trkpt lat="47.26102" lon="-2.33535">
        <ele>-13.60000038147</ele>
        <time>2020-09-03T07:28:06.000Z</time>
      </trkpt>
      <trkpt lat="47.261" lon="-2.33542">
        <ele>-13.60000038147</ele>
        <time>2020-09-03T07:28:07.000Z</time>
      </trkpt>
      <trkpt lat="47.26078" lon="-2.33602">
        <ele>-13.60000038147</ele>
        <time>2020-09-03T07:28:17.000Z</time>
      </trkpt>
      <trkpt lat="47.2606" lon="-2.33653">
        <ele>-13.60000038147</ele>
        <time>2020-09-03T07:28:26.000Z</time>
      </trkpt>
      <trkpt lat="47.26054" lon="-2.33677">
        <ele>-13.60000038147</ele>
        <time>2020-09-03T07:28:30.000Z</time>
      </trkpt>
      <trkpt lat="47.2605" lon="-2.33686">
        <ele>-13.60000038147</ele>
        <time>2020-09-03T07:28:32.000Z</time>
      </trkpt>
      <trkpt lat="47.26036" lon="-2.33721">
        <ele>-13.60000038147</ele>
        <time>2020-09-03T07:28:40.000Z</time>
      </trkpt>
      <trkpt lat="47.26023" lon="-2.33757">
        <ele>-13.60000038147</ele>
        <time>2020-09-03T07:28:48.000Z</time>
      </trkpt>
      <trkpt lat="47.2602" lon="-2.33763">
        <ele>-13.60000038147</ele>
        <time>2020-09-03T07:28:51.000Z</time>
      </trkpt>
      <trkpt lat="47.2602" lon="-2.33763">
        <ele>-13.60000038147</ele>
        <time>2020-09-03T07:28:53.000Z</time>
      </trkpt>
      <trkpt lat="47.26019" lon="-2.33765">
        <ele>-13.60000038147</ele>
        <time>2020-09-03T07:28:55.000Z</time>
      </trkpt>
      <trkpt lat="47.26017" lon="-2.3377">
        <ele>-13.60000038147</ele>
        <time>2020-09-03T07:28:57.000Z</time>
      </trkpt>
      <trkpt lat="47.26007" lon="-2.33792">
        <ele>-13.60000038147</ele>
        <time>2020-09-03T07:29:01.000Z</time>
      </trkpt>
      <trkpt lat="47.26001" lon="-2.33809">
        <ele>-13.60000038147</ele>
        <time>2020-09-03T07:29:04.000Z</time>
      </trkpt>
      <trkpt lat="47.25993" lon="-2.33826">
        <ele>-13.60000038147</ele>
        <time>2020-09-03T07:29:07.000Z</time>
      </trkpt>
      <trkpt lat="47.25992" lon="-2.33832">
        <ele>-13.60000038147</ele>
        <time>2020-09-03T07:29:08.000Z</time>
      </trkpt>
      <trkpt lat="47.25983" lon="-2.33865">
        <ele>-13.60000038147</ele>
        <time>2020-09-03T07:29:13.000Z</time>
      </trkpt>
      <trkpt lat="47.2597" lon="-2.33907">
        <ele>-13.60000038147</ele>
        <time>2020-09-03T07:29:20.000Z</time>
      </trkpt>
      <trkpt lat="47.25967" lon="-2.33921">
        <ele>-13.60000038147</ele>
        <time>2020-09-03T07:29:22.000Z</time>
      </trkpt>
      <trkpt lat="47.25958" lon="-2.33937">
        <ele>-13.60000038147</ele>
        <time>2020-09-03T07:29:25.000Z</time>
      </trkpt>
      <trkpt lat="47.25951" lon="-2.33956">
        <ele>-13.60000038147</ele>
        <time>2020-09-03T07:29:28.000Z</time>
      </trkpt>
      <trkpt lat="47.25949" lon="-2.33962">
        <ele>-13.60000038147</ele>
        <time>2020-09-03T07:29:29.000Z</time>
      </trkpt>
      <trkpt lat="47.25932" lon="-2.3402">
        <ele>-13.60000038147</ele>
        <time>2020-09-03T07:29:38.000Z</time>
      </trkpt>
      <trkpt lat="47.25935" lon="-2.3404">
        <ele>-13.60000038147</ele>
        <time>2020-09-03T07:29:41.000Z</time>
      </trkpt>
      <trkpt lat="47.25939" lon="-2.34052">
        <ele>-13.60000038147</ele>
        <time>2020-09-03T07:29:43.000Z</time>
      </trkpt>
      <trkpt lat="47.25941" lon="-2.34058">
        <ele>-13.60000038147</ele>
        <time>2020-09-03T07:29:44.000Z</time>
      </trkpt>
      <trkpt lat="47.25948" lon="-2.34066">
        <ele>-13.60000038147</ele>
        <time>2020-09-03T07:29:46.000Z</time>
      </trkpt>
      <trkpt lat="47.25961" lon="-2.34073">
        <ele>-13.60000038147</ele>
        <time>2020-09-03T07:29:49.000Z</time>
      </trkpt>
      <trkpt lat="47.2597" lon="-2.34077">
        <ele>-13.60000038147</ele>
        <time>2020-09-03T07:29:51.000Z</time>
      </trkpt>
      <trkpt lat="47.25974" lon="-2.34079">
        <ele>-13.60000038147</ele>
        <time>2020-09-03T07:29:52.000Z</time>
      </trkpt>
      <trkpt lat="47.25998" lon="-2.34088">
        <ele>-13.60000038147</ele>
        <time>2020-09-03T07:29:57.000Z</time>
      </trkpt>
      <trkpt lat="47.26031" lon="-2.34105">
        <ele>-13.60000038147</ele>
        <time>2020-09-03T07:30:04.000Z</time>
      </trkpt>
      <trkpt lat="47.26061" lon="-2.34121">
        <ele>-13.60000038147</ele>
        <time>2020-09-03T07:30:11.000Z</time>
      </trkpt>
      <trkpt lat="47.2607" lon="-2.34126">
        <ele>-13.199999809265</ele>
        <time>2020-09-03T07:30:13.000Z</time>
      </trkpt>
      <trkpt lat="47.26074" lon="-2.34128">
        <ele>-12.800000190735</ele>
        <time>2020-09-03T07:30:14.000Z</time>
      </trkpt>
      <trkpt lat="47.26079" lon="-2.3413">
        <ele>-12</ele>
        <time>2020-09-03T07:30:15.000Z</time>
      </trkpt>
      <trkpt lat="47.26083" lon="-2.34133">
        <ele>-11.60000038147</ele>
        <time>2020-09-03T07:30:16.000Z</time>
      </trkpt>
      <trkpt lat="47.26097" lon="-2.34138">
        <ele>-11.60000038147</ele>
        <time>2020-09-03T07:30:19.000Z</time>
      </trkpt>
      <trkpt lat="47.26141" lon="-2.34159">
        <ele>-11.60000038147</ele>
        <time>2020-09-03T07:30:28.000Z</time>
      </trkpt>
      <trkpt lat="47.26151" lon="-2.34165">
        <ele>-11.60000038147</ele>
        <time>2020-09-03T07:30:30.000Z</time>
      </trkpt>
      <trkpt lat="47.26159" lon="-2.34175">
        <ele>-11.60000038147</ele>
        <time>2020-09-03T07:30:32.000Z</time>
      </trkpt>
      <trkpt lat="47.26192" lon="-2.3421">
        <ele>-11.60000038147</ele>
        <time>2020-09-03T07:30:40.000Z</time>
      </trkpt>
      <trkpt lat="47.26226" lon="-2.34245">
        <ele>-11.60000038147</ele>
        <time>2020-09-03T07:30:48.000Z</time>
      </trkpt>
      <trkpt lat="47.26263" lon="-2.34284">
        <ele>-11.60000038147</ele>
        <time>2020-09-03T07:30:57.000Z</time>
      </trkpt>
      <trkpt lat="47.26301" lon="-2.34324">
        <ele>-11.60000038147</ele>
        <time>2020-09-03T07:31:06.000Z</time>
      </trkpt>
      <trkpt lat="47.26326" lon="-2.34348">
        <ele>-11.60000038147</ele>
        <time>2020-09-03T07:31:12.000Z</time>
      </trkpt>
      <trkpt lat="47.26331" lon="-2.3435">
        <ele>-11.60000038147</ele>
        <time>2020-09-03T07:31:13.000Z</time>
      </trkpt>
      <trkpt lat="47.26347" lon="-2.34367">
        <ele>-11.60000038147</ele>
        <time>2020-09-03T07:31:17.000Z</time>
      </trkpt>
      <trkpt lat="47.26364" lon="-2.34383">
        <ele>-11.60000038147</ele>
        <time>2020-09-03T07:31:21.000Z</time>
      </trkpt>
      <trkpt lat="47.26369" lon="-2.34387">
        <ele>-11.60000038147</ele>
        <time>2020-09-03T07:31:22.000Z</time>
      </trkpt>
      <trkpt lat="47.26412" lon="-2.34423">
        <ele>-11.60000038147</ele>
        <time>2020-09-03T07:31:31.000Z</time>
      </trkpt>
      <trkpt lat="47.26445" lon="-2.34449">
        <ele>-11.60000038147</ele>
        <time>2020-09-03T07:31:38.000Z</time>
      </trkpt>
      <trkpt lat="47.26489" lon="-2.3448">
        <ele>-11.60000038147</ele>
        <time>2020-09-03T07:31:47.000Z</time>
      </trkpt>
      <trkpt lat="47.26493" lon="-2.34484">
        <ele>-11.60000038147</ele>
        <time>2020-09-03T07:31:48.000Z</time>
      </trkpt>
      <trkpt lat="47.26516" lon="-2.34502">
        <ele>-11.60000038147</ele>
        <time>2020-09-03T07:31:53.000Z</time>
      </trkpt>
      <trkpt lat="47.26535" lon="-2.34514">
        <ele>-11.60000038147</ele>
        <time>2020-09-03T07:31:57.000Z</time>
      </trkpt>
      <trkpt lat="47.26544" lon="-2.34521">
        <ele>-11.60000038147</ele>
        <time>2020-09-03T07:31:59.000Z</time>
      </trkpt>
      <trkpt lat="47.26551" lon="-2.34533">
        <ele>-11.60000038147</ele>
        <time>2020-09-03T07:32:01.000Z</time>
      </trkpt>
      <trkpt lat="47.26555" lon="-2.34538">
        <ele>-11.60000038147</ele>
        <time>2020-09-03T07:32:02.000Z</time>
      </trkpt>
      <trkpt lat="47.26559" lon="-2.34543">
        <ele>-11.60000038147</ele>
        <time>2020-09-03T07:32:03.000Z</time>
      </trkpt>
      <trkpt lat="47.26593" lon="-2.34581">
        <ele>-11.60000038147</ele>
        <time>2020-09-03T07:32:11.000Z</time>
      </trkpt>
      <trkpt lat="47.26631" lon="-2.34625">
        <ele>-11.60000038147</ele>
        <time>2020-09-03T07:32:20.000Z</time>
      </trkpt>
      <trkpt lat="47.26671" lon="-2.34675">
        <ele>-11.60000038147</ele>
        <time>2020-09-03T07:32:30.000Z</time>
      </trkpt>
      <trkpt lat="47.26704" lon="-2.34715">
        <ele>-11.60000038147</ele>
        <time>2020-09-03T07:32:38.000Z</time>
      </trkpt>
      <trkpt lat="47.26739" lon="-2.34758">
        <ele>-11.60000038147</ele>
        <time>2020-09-03T07:32:47.000Z</time>
      </trkpt>
      <trkpt lat="47.26767" lon="-2.34791">
        <ele>-11.60000038147</ele>
        <time>2020-09-03T07:32:54.000Z</time>
      </trkpt>
      <trkpt lat="47.26778" lon="-2.34805">
        <ele>-11.60000038147</ele>
        <time>2020-09-03T07:32:57.000Z</time>
      </trkpt>
      <trkpt lat="47.26784" lon="-2.34815">
        <ele>-11.60000038147</ele>
        <time>2020-09-03T07:32:59.000Z</time>
      </trkpt>
      <trkpt lat="47.26812" lon="-2.34855">
        <ele>-11.60000038147</ele>
        <time>2020-09-03T07:33:07.000Z</time>
      </trkpt>
      <trkpt lat="47.26846" lon="-2.34907">
        <ele>-11.60000038147</ele>
        <time>2020-09-03T07:33:17.000Z</time>
      </trkpt>
      <trkpt lat="47.26877" lon="-2.34953">
        <ele>-11.60000038147</ele>
        <time>2020-09-03T07:33:26.000Z</time>
      </trkpt>
      <trkpt lat="47.26899" lon="-2.34987">
        <ele>-11.60000038147</ele>
        <time>2020-09-03T07:33:33.000Z</time>
      </trkpt>
      <trkpt lat="47.26928" lon="-2.35032">
        <ele>-11.60000038147</ele>
        <time>2020-09-03T07:33:42.000Z</time>
      </trkpt>
      <trkpt lat="47.2695" lon="-2.35064">
        <ele>-11.60000038147</ele>
        <time>2020-09-03T07:33:48.000Z</time>
      </trkpt>
      <trkpt lat="47.26958" lon="-2.35074">
        <ele>-11.60000038147</ele>
        <time>2020-09-03T07:33:50.000Z</time>
      </trkpt>
      <trkpt lat="47.26982" lon="-2.35111">
        <ele>-11.60000038147</ele>
        <time>2020-09-03T07:33:57.000Z</time>
      </trkpt>
      <trkpt lat="47.27015" lon="-2.35165">
        <ele>-11.60000038147</ele>
        <time>2020-09-03T07:34:07.000Z</time>
      </trkpt>
      <trkpt lat="47.27055" lon="-2.35225">
        <ele>-11.60000038147</ele>
        <time>2020-09-03T07:34:18.000Z</time>
      </trkpt>
      <trkpt lat="47.27086" lon="-2.35273">
        <ele>-11.60000038147</ele>
        <time>2020-09-03T07:34:27.000Z</time>
      </trkpt>
      <trkpt lat="47.27114" lon="-2.35318">
        <ele>-11.60000038147</ele>
        <time>2020-09-03T07:34:35.000Z</time>
      </trkpt>
      <trkpt lat="47.27149" lon="-2.35375">
        <ele>-11.60000038147</ele>
        <time>2020-09-03T07:34:45.000Z</time>
      </trkpt>
      <trkpt lat="47.27181" lon="-2.35435">
        <ele>-11.60000038147</ele>
        <time>2020-09-03T07:34:55.000Z</time>
      </trkpt>
      <trkpt lat="47.2721" lon="-2.35489">
        <ele>-11.60000038147</ele>
        <time>2020-09-03T07:35:04.000Z</time>
      </trkpt>
      <trkpt lat="47.27231" lon="-2.35534">
        <ele>-11.60000038147</ele>
        <time>2020-09-03T07:35:11.000Z</time>
      </trkpt>
      <trkpt lat="47.27255" lon="-2.35591">
        <ele>-11.60000038147</ele>
        <time>2020-09-03T07:35:19.000Z</time>
      </trkpt>
      <trkpt lat="47.2728" lon="-2.35648">
        <ele>-11.60000038147</ele>
        <time>2020-09-03T07:35:27.000Z</time>
      </trkpt>
      <trkpt lat="47.27307" lon="-2.357">
        <ele>-11.60000038147</ele>
        <time>2020-09-03T07:35:35.000Z</time>
      </trkpt>
      <trkpt lat="47.27319" lon="-2.35724">
        <ele>-11.60000038147</ele>
        <time>2020-09-03T07:35:39.000Z</time>
      </trkpt>
      <trkpt lat="47.27325" lon="-2.35736">
        <ele>-11.60000038147</ele>
        <time>2020-09-03T07:35:41.000Z</time>
      </trkpt>
      <trkpt lat="47.27329" lon="-2.3575">
        <ele>-11.60000038147</ele>
        <time>2020-09-03T07:35:43.000Z</time>
      </trkpt>
      <trkpt lat="47.27336" lon="-2.35769">
        <ele>-11.60000038147</ele>
        <time>2020-09-03T07:35:46.000Z</time>
      </trkpt>
      <trkpt lat="47.27347" lon="-2.35803">
        <ele>-11.60000038147</ele>
        <time>2020-09-03T07:35:52.000Z</time>
      </trkpt>
      <trkpt lat="47.27361" lon="-2.35844">
        <ele>-11.60000038147</ele>
        <time>2020-09-03T07:36:00.000Z</time>
      </trkpt>
      <trkpt lat="47.27377" lon="-2.35885">
        <ele>-11.60000038147</ele>
        <time>2020-09-03T07:36:08.000Z</time>
      </trkpt>
      <trkpt lat="47.27394" lon="-2.35924">
        <ele>-11.60000038147</ele>
        <time>2020-09-03T07:36:15.000Z</time>
      </trkpt>
      <trkpt lat="47.27411" lon="-2.35967">
        <ele>-11.60000038147</ele>
        <time>2020-09-03T07:36:22.000Z</time>
      </trkpt>
      <trkpt lat="47.2743" lon="-2.36016">
        <ele>-11.60000038147</ele>
        <time>2020-09-03T07:36:30.000Z</time>
      </trkpt>
      <trkpt lat="47.27433" lon="-2.36022">
        <ele>-11.60000038147</ele>
        <time>2020-09-03T07:36:31.000Z</time>
      </trkpt>
      <trkpt lat="47.27445" lon="-2.36046">
        <ele>-11.60000038147</ele>
        <time>2020-09-03T07:36:35.000Z</time>
      </trkpt>
      <trkpt lat="47.27454" lon="-2.36068">
        <ele>-11.60000038147</ele>
        <time>2020-09-03T07:36:39.000Z</time>
      </trkpt>
      <trkpt lat="47.27461" lon="-2.36078">
        <ele>-11.60000038147</ele>
        <time>2020-09-03T07:36:41.000Z</time>
      </trkpt>
      <trkpt lat="47.27466" lon="-2.36098">
        <ele>-11.60000038147</ele>
        <time>2020-09-03T07:36:44.000Z</time>
      </trkpt>
      <trkpt lat="47.27474" lon="-2.36119">
        <ele>-11.60000038147</ele>
        <time>2020-09-03T07:36:47.000Z</time>
      </trkpt>
      <trkpt lat="47.27479" lon="-2.36132">
        <ele>-11.60000038147</ele>
        <time>2020-09-03T07:36:49.000Z</time>
      </trkpt>
      <trkpt lat="47.27495" lon="-2.3618">
        <ele>-11.60000038147</ele>
        <time>2020-09-03T07:36:56.000Z</time>
      </trkpt>
      <trkpt lat="47.27518" lon="-2.3624">
        <ele>-11.60000038147</ele>
        <time>2020-09-03T07:37:05.000Z</time>
      </trkpt>
      <trkpt lat="47.27543" lon="-2.36307">
        <ele>-11.60000038147</ele>
        <time>2020-09-03T07:37:15.000Z</time>
      </trkpt>
      <trkpt lat="47.27565" lon="-2.36363">
        <ele>-11.60000038147</ele>
        <time>2020-09-03T07:37:23.000Z</time>
      </trkpt>
      <trkpt lat="47.27586" lon="-2.3642">
        <ele>-11.60000038147</ele>
        <time>2020-09-03T07:37:31.000Z</time>
      </trkpt>
      <trkpt lat="47.27611" lon="-2.36483">
        <ele>-11.60000038147</ele>
        <time>2020-09-03T07:37:40.000Z</time>
      </trkpt>
      <trkpt lat="47.27636" lon="-2.36555">
        <ele>-11.60000038147</ele>
        <time>2020-09-03T07:37:50.000Z</time>
      </trkpt>
      <trkpt lat="47.2766" lon="-2.36622">
        <ele>-11.60000038147</ele>
        <time>2020-09-03T07:37:59.000Z</time>
      </trkpt>
      <trkpt lat="47.27682" lon="-2.36688">
        <ele>-11.60000038147</ele>
        <time>2020-09-03T07:38:08.000Z</time>
      </trkpt>
      <trkpt lat="47.27706" lon="-2.3676">
        <ele>-11.60000038147</ele>
        <time>2020-09-03T07:38:18.000Z</time>
      </trkpt>
      <trkpt lat="47.27724" lon="-2.36817">
        <ele>-11.60000038147</ele>
        <time>2020-09-03T07:38:26.000Z</time>
      </trkpt>
      <trkpt lat="47.27743" lon="-2.3688">
        <ele>-11.60000038147</ele>
        <time>2020-09-03T07:38:35.000Z</time>
      </trkpt>
      <trkpt lat="47.27764" lon="-2.36953">
        <ele>-11.60000038147</ele>
        <time>2020-09-03T07:38:45.000Z</time>
      </trkpt>
      <trkpt lat="47.27782" lon="-2.37013">
        <ele>-11.60000038147</ele>
        <time>2020-09-03T07:38:53.000Z</time>
      </trkpt>
      <trkpt lat="47.27796" lon="-2.37072">
        <ele>-11.60000038147</ele>
        <time>2020-09-03T07:39:01.000Z</time>
      </trkpt>
      <trkpt lat="47.27809" lon="-2.37115">
        <ele>-11.60000038147</ele>
        <time>2020-09-03T07:39:07.000Z</time>
      </trkpt>
      <trkpt lat="47.27828" lon="-2.37171">
        <ele>-11.60000038147</ele>
        <time>2020-09-03T07:39:15.000Z</time>
      </trkpt>
      <trkpt lat="47.27831" lon="-2.37176">
        <ele>-11.60000038147</ele>
        <time>2020-09-03T07:39:16.000Z</time>
      </trkpt>
      <trkpt lat="47.27835" lon="-2.3719">
        <ele>-11.60000038147</ele>
        <time>2020-09-03T07:39:18.000Z</time>
      </trkpt>
      <trkpt lat="47.27836" lon="-2.37204">
        <ele>-11.60000038147</ele>
        <time>2020-09-03T07:39:20.000Z</time>
      </trkpt>
      <trkpt lat="47.27838" lon="-2.37218">
        <ele>-11.60000038147</ele>
        <time>2020-09-03T07:39:22.000Z</time>
      </trkpt>
      <trkpt lat="47.27843" lon="-2.3724">
        <ele>-11.60000038147</ele>
        <time>2020-09-03T07:39:25.000Z</time>
      </trkpt>
      <trkpt lat="47.27857" lon="-2.37299">
        <ele>-11.60000038147</ele>
        <time>2020-09-03T07:39:33.000Z</time>
      </trkpt>
      <trkpt lat="47.27872" lon="-2.37358">
        <ele>-11.60000038147</ele>
        <time>2020-09-03T07:39:41.000Z</time>
      </trkpt>
      <trkpt lat="47.2789" lon="-2.37429">
        <ele>-11.60000038147</ele>
        <time>2020-09-03T07:39:50.000Z</time>
      </trkpt>
      <trkpt lat="47.27905" lon="-2.37491">
        <ele>-11.60000038147</ele>
        <time>2020-09-03T07:39:58.000Z</time>
      </trkpt>
      <trkpt lat="47.27922" lon="-2.37563">
        <ele>-11.60000038147</ele>
        <time>2020-09-03T07:40:07.000Z</time>
      </trkpt>
      <trkpt lat="47.27934" lon="-2.37618">
        <ele>-11.60000038147</ele>
        <time>2020-09-03T07:40:14.000Z</time>
      </trkpt>
      <trkpt lat="47.27952" lon="-2.37689">
        <ele>-11.60000038147</ele>
        <time>2020-09-03T07:40:23.000Z</time>
      </trkpt>
      <trkpt lat="47.27965" lon="-2.37752">
        <ele>-11.60000038147</ele>
        <time>2020-09-03T07:40:31.000Z</time>
      </trkpt>
      <trkpt lat="47.27969" lon="-2.37766">
        <ele>-11.60000038147</ele>
        <time>2020-09-03T07:40:33.000Z</time>
      </trkpt>
      <trkpt lat="47.27978" lon="-2.37794">
        <ele>-11.60000038147</ele>
        <time>2020-09-03T07:40:37.000Z</time>
      </trkpt>
      <trkpt lat="47.27983" lon="-2.37808">
        <ele>-11.60000038147</ele>
        <time>2020-09-03T07:40:39.000Z</time>
      </trkpt>
      <trkpt lat="47.27983" lon="-2.37823">
        <ele>-11.60000038147</ele>
        <time>2020-09-03T07:40:41.000Z</time>
      </trkpt>
      <trkpt lat="47.27988" lon="-2.37854">
        <ele>-11.60000038147</ele>
        <time>2020-09-03T07:40:45.000Z</time>
      </trkpt>
      <trkpt lat="47.27989" lon="-2.37862">
        <ele>-11.60000038147</ele>
        <time>2020-09-03T07:40:46.000Z</time>
      </trkpt>
      <trkpt lat="47.28" lon="-2.37926">
        <ele>-11.60000038147</ele>
        <time>2020-09-03T07:40:54.000Z</time>
      </trkpt>
      <trkpt lat="47.28013" lon="-2.3799">
        <ele>-11.60000038147</ele>
        <time>2020-09-03T07:41:02.000Z</time>
      </trkpt>
      <trkpt lat="47.28028" lon="-2.38074">
        <ele>-11.60000038147</ele>
        <time>2020-09-03T07:41:12.000Z</time>
      </trkpt>
      <trkpt lat="47.2803" lon="-2.38083">
        <ele>-11.60000038147</ele>
        <time>2020-09-03T07:41:13.000Z</time>
      </trkpt>
      <trkpt lat="47.28041" lon="-2.38142">
        <ele>-11.60000038147</ele>
        <time>2020-09-03T07:41:20.000Z</time>
      </trkpt>
      <trkpt lat="47.28055" lon="-2.38215">
        <ele>-11.60000038147</ele>
        <time>2020-09-03T07:41:29.000Z</time>
      </trkpt>
      <trkpt lat="47.28069" lon="-2.38289">
        <ele>-11.60000038147</ele>
        <time>2020-09-03T07:41:38.000Z</time>
      </trkpt>
      <trkpt lat="47.28081" lon="-2.38348">
        <ele>-11.60000038147</ele>
        <time>2020-09-03T07:41:45.000Z</time>
      </trkpt>
      <trkpt lat="47.28093" lon="-2.38417">
        <ele>-11.60000038147</ele>
        <time>2020-09-03T07:41:53.000Z</time>
      </trkpt>
      <trkpt lat="47.28105" lon="-2.38486">
        <ele>-11.60000038147</ele>
        <time>2020-09-03T07:42:01.000Z</time>
      </trkpt>
      <trkpt lat="47.28113" lon="-2.3854">
        <ele>-11.60000038147</ele>
        <time>2020-09-03T07:42:08.000Z</time>
      </trkpt>
      <trkpt lat="47.28117" lon="-2.38579">
        <ele>-11.60000038147</ele>
        <time>2020-09-03T07:42:15.000Z</time>
      </trkpt>
      <trkpt lat="47.28119" lon="-2.38592">
        <ele>-12</ele>
        <time>2020-09-03T07:42:21.000Z</time>
      </trkpt>
      <trkpt lat="47.28118" lon="-2.38593">
        <ele>-12.39999961853</ele>
        <time>2020-09-03T07:42:22.000Z</time>
      </trkpt>
      <trkpt lat="47.28119" lon="-2.38595">
        <ele>-12.800000190735</ele>
        <time>2020-09-03T07:42:23.000Z</time>
      </trkpt>
      <trkpt lat="47.28119" lon="-2.38594">
        <ele>-13.199999809265</ele>
        <time>2020-09-03T07:42:24.000Z</time>
      </trkpt>
      <trkpt lat="47.2812" lon="-2.38597">
        <ele>-13.60000038147</ele>
        <time>2020-09-03T07:42:31.000Z</time>
      </trkpt>
      <trkpt lat="47.28124" lon="-2.38608">
        <ele>-13.60000038147</ele>
        <time>2020-09-03T07:42:36.000Z</time>
      </trkpt>
      <trkpt lat="47.28133" lon="-2.38608">
        <ele>-13.60000038147</ele>
        <time>2020-09-03T07:42:40.000Z</time>
      </trkpt>
      <trkpt lat="47.2815" lon="-2.386">
        <ele>-13.60000038147</ele>
        <time>2020-09-03T07:42:46.000Z</time>
      </trkpt>
      <trkpt lat="47.28154" lon="-2.3858">
        <ele>-13.60000038147</ele>
        <time>2020-09-03T07:42:50.000Z</time>
      </trkpt>
      <trkpt lat="47.28159" lon="-2.38555">
        <ele>-13.60000038147</ele>
        <time>2020-09-03T07:42:56.000Z</time>
      </trkpt>
      <trkpt lat="47.28161" lon="-2.38537">
        <ele>-13.60000038147</ele>
        <time>2020-09-03T07:43:01.000Z</time>
      </trkpt>
      <trkpt lat="47.28163" lon="-2.38517">
        <ele>-13.60000038147</ele>
        <time>2020-09-03T07:43:09.000Z</time>
      </trkpt>
      <trkpt lat="47.28162" lon="-2.38516">
        <ele>-13.60000038147</ele>
        <time>2020-09-03T07:43:10.000Z</time>
      </trkpt>
      <trkpt lat="47.28164" lon="-2.38521">
        <ele>-13.60000038147</ele>
        <time>2020-09-03T07:44:23.000Z</time>
      </trkpt>
      <trkpt lat="47.28164" lon="-2.38525">
        <ele>-13.60000038147</ele>
        <time>2020-09-03T07:44:25.000Z</time>
      </trkpt>
      <trkpt lat="47.28164" lon="-2.38533">
        <ele>-13.60000038147</ele>
        <time>2020-09-03T07:44:29.000Z</time>
      </trkpt>
      <trkpt lat="47.28164" lon="-2.38539">
        <ele>-13.60000038147</ele>
        <time>2020-09-03T07:44:31.000Z</time>
      </trkpt>
      <trkpt lat="47.2816" lon="-2.38559">
        <ele>-13.60000038147</ele>
        <time>2020-09-03T07:44:38.000Z</time>
      </trkpt>
      <trkpt lat="47.28156" lon="-2.3858">
        <ele>-13.60000038147</ele>
        <time>2020-09-03T07:44:44.000Z</time>
      </trkpt>
      <trkpt lat="47.28152" lon="-2.38603">
        <ele>-13.60000038147</ele>
        <time>2020-09-03T07:44:51.000Z</time>
      </trkpt>
      <trkpt lat="47.28147" lon="-2.38605">
        <ele>-13.60000038147</ele>
        <time>2020-09-03T07:44:54.000Z</time>
      </trkpt>
      <trkpt lat="47.28144" lon="-2.38607">
        <ele>-13.60000038147</ele>
        <time>2020-09-03T07:44:56.000Z</time>
      </trkpt>
      <trkpt lat="47.28128" lon="-2.38611">
        <ele>-13.60000038147</ele>
        <time>2020-09-03T07:45:03.000Z</time>
      </trkpt>
      <trkpt lat="47.28124" lon="-2.38617">
        <ele>-13.60000038147</ele>
        <time>2020-09-03T07:45:05.000Z</time>
      </trkpt>
      <trkpt lat="47.28124" lon="-2.38626">
        <ele>-13.60000038147</ele>
        <time>2020-09-03T07:45:07.000Z</time>
      </trkpt>
      <trkpt lat="47.28125" lon="-2.38638">
        <ele>-13.60000038147</ele>
        <time>2020-09-03T07:45:09.000Z</time>
      </trkpt>
      <trkpt lat="47.28127" lon="-2.38657">
        <ele>-13.60000038147</ele>
        <time>2020-09-03T07:45:12.000Z</time>
      </trkpt>
      <trkpt lat="47.28132" lon="-2.38721">
        <ele>-13.60000038147</ele>
        <time>2020-09-03T07:45:21.000Z</time>
      </trkpt>
      <trkpt lat="47.28135" lon="-2.38762">
        <ele>-13.60000038147</ele>
        <time>2020-09-03T07:45:27.000Z</time>
      </trkpt>
      <trkpt lat="47.28136" lon="-2.38776">
        <ele>-13.60000038147</ele>
        <time>2020-09-03T07:45:29.000Z</time>
      </trkpt>
      <trkpt lat="47.28142" lon="-2.38836">
        <ele>-13.60000038147</ele>
        <time>2020-09-03T07:45:37.000Z</time>
      </trkpt>
      <trkpt lat="47.28151" lon="-2.389">
        <ele>-13.60000038147</ele>
        <time>2020-09-03T07:45:46.000Z</time>
      </trkpt>
      <trkpt lat="47.28162" lon="-2.38952">
        <ele>-13.60000038147</ele>
        <time>2020-09-03T07:45:53.000Z</time>
      </trkpt>
      <trkpt lat="47.28167" lon="-2.38989">
        <ele>-13.60000038147</ele>
        <time>2020-09-03T07:45:58.000Z</time>
      </trkpt>
      <trkpt lat="47.28168" lon="-2.39004">
        <ele>-13.60000038147</ele>
        <time>2020-09-03T07:46:00.000Z</time>
      </trkpt>
      <trkpt lat="47.28173" lon="-2.39058">
        <ele>-13.60000038147</ele>
        <time>2020-09-03T07:46:08.000Z</time>
      </trkpt>
      <trkpt lat="47.28173" lon="-2.39079">
        <ele>-13.60000038147</ele>
        <time>2020-09-03T07:46:14.000Z</time>
      </trkpt>
      <trkpt lat="47.28174" lon="-2.3908">
        <ele>-13.60000038147</ele>
        <time>2020-09-03T07:46:16.000Z</time>
      </trkpt>
      <trkpt lat="47.28175" lon="-2.39083">
        <ele>-13.60000038147</ele>
        <time>2020-09-03T07:46:42.000Z</time>
      </trkpt>
      <trkpt lat="47.28175" lon="-2.39087">
        <ele>-13.60000038147</ele>
        <time>2020-09-03T07:46:43.000Z</time>
      </trkpt>
      <trkpt lat="47.28176" lon="-2.39114">
        <ele>-13.60000038147</ele>
        <time>2020-09-03T07:46:49.000Z</time>
      </trkpt>
      <trkpt lat="47.28179" lon="-2.39156">
        <ele>-13.60000038147</ele>
        <time>2020-09-03T07:46:56.000Z</time>
      </trkpt>
      <trkpt lat="47.28183" lon="-2.39205">
        <ele>-13.60000038147</ele>
        <time>2020-09-03T07:47:04.000Z</time>
      </trkpt>
      <trkpt lat="47.28184" lon="-2.39251">
        <ele>-13.60000038147</ele>
        <time>2020-09-03T07:47:11.000Z</time>
      </trkpt>
      <trkpt lat="47.28187" lon="-2.39309">
        <ele>-13.60000038147</ele>
        <time>2020-09-03T07:47:20.000Z</time>
      </trkpt>
      <trkpt lat="47.28188" lon="-2.39358">
        <ele>-13.60000038147</ele>
        <time>2020-09-03T07:47:27.000Z</time>
      </trkpt>
      <trkpt lat="47.28188" lon="-2.39403">
        <ele>-13.60000038147</ele>
        <time>2020-09-03T07:47:33.000Z</time>
      </trkpt>
      <trkpt lat="47.28188" lon="-2.3946">
        <ele>-13.60000038147</ele>
        <time>2020-09-03T07:47:40.000Z</time>
      </trkpt>
      <trkpt lat="47.28187" lon="-2.39525">
        <ele>-13.60000038147</ele>
        <time>2020-09-03T07:47:47.000Z</time>
      </trkpt>
      <trkpt lat="47.28186" lon="-2.39568">
        <ele>-13.60000038147</ele>
        <time>2020-09-03T07:47:52.000Z</time>
      </trkpt>
      <trkpt lat="47.28185" lon="-2.39612">
        <ele>-13.60000038147</ele>
        <time>2020-09-03T07:47:58.000Z</time>
      </trkpt>
      <trkpt lat="47.28183" lon="-2.39684">
        <ele>-13.60000038147</ele>
        <time>2020-09-03T07:48:07.000Z</time>
      </trkpt>
      <trkpt lat="47.2818" lon="-2.39751">
        <ele>-13.60000038147</ele>
        <time>2020-09-03T07:48:15.000Z</time>
      </trkpt>
      <trkpt lat="47.28176" lon="-2.39807">
        <ele>-13.60000038147</ele>
        <time>2020-09-03T07:48:22.000Z</time>
      </trkpt>
      <trkpt lat="47.28171" lon="-2.39873">
        <ele>-13.60000038147</ele>
        <time>2020-09-03T07:48:30.000Z</time>
      </trkpt>
      <trkpt lat="47.28167" lon="-2.39933">
        <ele>-13.60000038147</ele>
        <time>2020-09-03T07:48:38.000Z</time>
      </trkpt>
      <trkpt lat="47.28166" lon="-2.39975">
        <ele>-13.60000038147</ele>
        <time>2020-09-03T07:48:44.000Z</time>
      </trkpt>
      <trkpt lat="47.28166" lon="-2.40003">
        <ele>-13.60000038147</ele>
        <time>2020-09-03T07:48:48.000Z</time>
      </trkpt>
      <trkpt lat="47.28163" lon="-2.40018">
        <ele>-13.60000038147</ele>
        <time>2020-09-03T07:48:50.000Z</time>
      </trkpt>
      <trkpt lat="47.28161" lon="-2.40033">
        <ele>-13.60000038147</ele>
        <time>2020-09-03T07:48:52.000Z</time>
      </trkpt>
      <trkpt lat="47.28158" lon="-2.40061">
        <ele>-13.60000038147</ele>
        <time>2020-09-03T07:48:56.000Z</time>
      </trkpt>
      <trkpt lat="47.28154" lon="-2.40103">
        <ele>-13.60000038147</ele>
        <time>2020-09-03T07:49:02.000Z</time>
      </trkpt>
      <trkpt lat="47.2815" lon="-2.40157">
        <ele>-13.60000038147</ele>
        <time>2020-09-03T07:49:09.000Z</time>
      </trkpt>
      <trkpt lat="47.28144" lon="-2.40214">
        <ele>-13.60000038147</ele>
        <time>2020-09-03T07:49:17.000Z</time>
      </trkpt>
      <trkpt lat="47.28139" lon="-2.40273">
        <ele>-13.60000038147</ele>
        <time>2020-09-03T07:49:25.000Z</time>
      </trkpt>
      <trkpt lat="47.28131" lon="-2.4033">
        <ele>-13.60000038147</ele>
        <time>2020-09-03T07:49:33.000Z</time>
      </trkpt>
      <trkpt lat="47.28127" lon="-2.40376">
        <ele>-13.60000038147</ele>
        <time>2020-09-03T07:49:39.000Z</time>
      </trkpt>
      <trkpt lat="47.28122" lon="-2.40413">
        <ele>-13.60000038147</ele>
        <time>2020-09-03T07:49:44.000Z</time>
      </trkpt>
      <trkpt lat="47.28117" lon="-2.40434">
        <ele>-13.60000038147</ele>
        <time>2020-09-03T07:49:47.000Z</time>
      </trkpt>
      <trkpt lat="47.28113" lon="-2.40447">
        <ele>-13.60000038147</ele>
        <time>2020-09-03T07:49:49.000Z</time>
      </trkpt>
      <trkpt lat="47.28102" lon="-2.40469">
        <ele>-13.60000038147</ele>
        <time>2020-09-03T07:49:53.000Z</time>
      </trkpt>
      <trkpt lat="47.28085" lon="-2.40497">
        <ele>-13.60000038147</ele>
        <time>2020-09-03T07:49:58.000Z</time>
      </trkpt>
      <trkpt lat="47.2808" lon="-2.40511">
        <ele>-13.60000038147</ele>
        <time>2020-09-03T07:50:00.000Z</time>
      </trkpt>
      <trkpt lat="47.28077" lon="-2.40525">
        <ele>-13.60000038147</ele>
        <time>2020-09-03T07:50:02.000Z</time>
      </trkpt>
      <trkpt lat="47.2807" lon="-2.4056">
        <ele>-13.60000038147</ele>
        <time>2020-09-03T07:50:07.000Z</time>
      </trkpt>
      <trkpt lat="47.28066" lon="-2.40581">
        <ele>-13.60000038147</ele>
        <time>2020-09-03T07:50:11.000Z</time>
      </trkpt>
      <trkpt lat="47.28061" lon="-2.40604">
        <ele>-13.60000038147</ele>
        <time>2020-09-03T07:50:15.000Z</time>
      </trkpt>
      <trkpt lat="47.28061" lon="-2.4061">
        <ele>-13.60000038147</ele>
        <time>2020-09-03T07:50:16.000Z</time>
      </trkpt>
      <trkpt lat="47.28066" lon="-2.4066">
        <ele>-13.60000038147</ele>
        <time>2020-09-03T07:50:23.000Z</time>
      </trkpt>
      <trkpt lat="47.28069" lon="-2.40681">
        <ele>-13.60000038147</ele>
        <time>2020-09-03T07:50:26.000Z</time>
      </trkpt>
      <trkpt lat="47.28069" lon="-2.40694">
        <ele>-13.60000038147</ele>
        <time>2020-09-03T07:50:28.000Z</time>
      </trkpt>
      <trkpt lat="47.28064" lon="-2.40716">
        <ele>-13.60000038147</ele>
        <time>2020-09-03T07:50:31.000Z</time>
      </trkpt>
      <trkpt lat="47.28061" lon="-2.4073">
        <ele>-13.60000038147</ele>
        <time>2020-09-03T07:50:33.000Z</time>
      </trkpt>
      <trkpt lat="47.2805" lon="-2.40778">
        <ele>-13.60000038147</ele>
        <time>2020-09-03T07:50:40.000Z</time>
      </trkpt>
      <trkpt lat="47.28045" lon="-2.40804">
        <ele>-13.60000038147</ele>
        <time>2020-09-03T07:50:44.000Z</time>
      </trkpt>
      <trkpt lat="47.28044" lon="-2.4081">
        <ele>-13.60000038147</ele>
        <time>2020-09-03T07:50:45.000Z</time>
      </trkpt>
      <trkpt lat="47.28043" lon="-2.40815">
        <ele>-13.60000038147</ele>
        <time>2020-09-03T07:50:46.000Z</time>
      </trkpt>
      <trkpt lat="47.28046" lon="-2.40832">
        <ele>-13.60000038147</ele>
        <time>2020-09-03T07:50:49.000Z</time>
      </trkpt>
      <trkpt lat="47.28048" lon="-2.40837">
        <ele>-13.60000038147</ele>
        <time>2020-09-03T07:50:50.000Z</time>
      </trkpt>
      <trkpt lat="47.28062" lon="-2.40867">
        <ele>-13.60000038147</ele>
        <time>2020-09-03T07:50:55.000Z</time>
      </trkpt>
      <trkpt lat="47.28068" lon="-2.4088">
        <ele>-13.60000038147</ele>
        <time>2020-09-03T07:50:57.000Z</time>
      </trkpt>
      <trkpt lat="47.28075" lon="-2.40892">
        <ele>-13.60000038147</ele>
        <time>2020-09-03T07:50:59.000Z</time>
      </trkpt>
      <trkpt lat="47.28078" lon="-2.40897">
        <ele>-13.60000038147</ele>
        <time>2020-09-03T07:51:00.000Z</time>
      </trkpt>
      <trkpt lat="47.28088" lon="-2.40911">
        <ele>-13.60000038147</ele>
        <time>2020-09-03T07:51:03.000Z</time>
      </trkpt>
      <trkpt lat="47.28092" lon="-2.40924">
        <ele>-13.60000038147</ele>
        <time>2020-09-03T07:51:05.000Z</time>
      </trkpt>
      <trkpt lat="47.28091" lon="-2.40946">
        <ele>-13.60000038147</ele>
        <time>2020-09-03T07:51:08.000Z</time>
      </trkpt>
      <trkpt lat="47.28089" lon="-2.40952">
        <ele>-13.60000038147</ele>
        <time>2020-09-03T07:51:09.000Z</time>
      </trkpt>
      <trkpt lat="47.28085" lon="-2.40964">
        <ele>-13.60000038147</ele>
        <time>2020-09-03T07:51:11.000Z</time>
      </trkpt>
      <trkpt lat="47.28081" lon="-2.40977">
        <ele>-13.60000038147</ele>
        <time>2020-09-03T07:51:13.000Z</time>
      </trkpt>
      <trkpt lat="47.28072" lon="-2.41015">
        <ele>-13.60000038147</ele>
        <time>2020-09-03T07:51:18.000Z</time>
      </trkpt>
      <trkpt lat="47.28061" lon="-2.41054">
        <ele>-14</ele>
        <time>2020-09-03T07:51:23.000Z</time>
      </trkpt>
      <trkpt lat="47.28059" lon="-2.41061">
        <ele>-14.39999961853</ele>
        <time>2020-09-03T07:51:24.000Z</time>
      </trkpt>
      <trkpt lat="47.28057" lon="-2.4107">
        <ele>-14.800000190735</ele>
        <time>2020-09-03T07:51:25.000Z</time>
      </trkpt>
      <trkpt lat="47.28055" lon="-2.41079">
        <ele>-15.199999809265</ele>
        <time>2020-09-03T07:51:26.000Z</time>
      </trkpt>
      <trkpt lat="47.28053" lon="-2.41088">
        <ele>-15.60000038147</ele>
        <time>2020-09-03T07:51:27.000Z</time>
      </trkpt>
      <trkpt lat="47.28046" lon="-2.41123">
        <ele>-15.60000038147</ele>
        <time>2020-09-03T07:51:31.000Z</time>
      </trkpt>
      <trkpt lat="47.28038" lon="-2.4117">
        <ele>-15.60000038147</ele>
        <time>2020-09-03T07:51:37.000Z</time>
      </trkpt>
      <trkpt lat="47.28027" lon="-2.41218">
        <ele>-15.60000038147</ele>
        <time>2020-09-03T07:51:44.000Z</time>
      </trkpt>
      <trkpt lat="47.28024" lon="-2.41231">
        <ele>-15.60000038147</ele>
        <time>2020-09-03T07:51:46.000Z</time>
      </trkpt>
      <trkpt lat="47.28019" lon="-2.41261">
        <ele>-15.60000038147</ele>
        <time>2020-09-03T07:51:50.000Z</time>
      </trkpt>
      <trkpt lat="47.28015" lon="-2.41275">
        <ele>-15.60000038147</ele>
        <time>2020-09-03T07:51:52.000Z</time>
      </trkpt>
      <trkpt lat="47.28009" lon="-2.41305">
        <ele>-15.60000038147</ele>
        <time>2020-09-03T07:51:56.000Z</time>
      </trkpt>
      <trkpt lat="47.28005" lon="-2.41326">
        <ele>-15.60000038147</ele>
        <time>2020-09-03T07:51:59.000Z</time>
      </trkpt>
      <trkpt lat="47.28002" lon="-2.41347">
        <ele>-15.60000038147</ele>
        <time>2020-09-03T07:52:02.000Z</time>
      </trkpt>
      <trkpt lat="47.27996" lon="-2.41399">
        <ele>-15.60000038147</ele>
        <time>2020-09-03T07:52:09.000Z</time>
      </trkpt>
      <trkpt lat="47.2799" lon="-2.4145">
        <ele>-15.60000038147</ele>
        <time>2020-09-03T07:52:16.000Z</time>
      </trkpt>
      <trkpt lat="47.27986" lon="-2.41463">
        <ele>-15.60000038147</ele>
        <time>2020-09-03T07:52:18.000Z</time>
      </trkpt>
      <trkpt lat="47.27981" lon="-2.41477">
        <ele>-15.60000038147</ele>
        <time>2020-09-03T07:52:20.000Z</time>
      </trkpt>
      <trkpt lat="47.27976" lon="-2.41497">
        <ele>-15.60000038147</ele>
        <time>2020-09-03T07:52:23.000Z</time>
      </trkpt>
      <trkpt lat="47.27967" lon="-2.41525">
        <ele>-15.60000038147</ele>
        <time>2020-09-03T07:52:27.000Z</time>
      </trkpt>
      <trkpt lat="47.27961" lon="-2.41538">
        <ele>-15.60000038147</ele>
        <time>2020-09-03T07:52:29.000Z</time>
      </trkpt>
      <trkpt lat="47.27939" lon="-2.41588">
        <ele>-15.60000038147</ele>
        <time>2020-09-03T07:52:36.000Z</time>
      </trkpt>
      <trkpt lat="47.27913" lon="-2.41643">
        <ele>-15.60000038147</ele>
        <time>2020-09-03T07:52:44.000Z</time>
      </trkpt>
      <trkpt lat="47.2789" lon="-2.41688">
        <ele>-15.60000038147</ele>
        <time>2020-09-03T07:52:51.000Z</time>
      </trkpt>
      <trkpt lat="47.27875" lon="-2.41717">
        <ele>-15.60000038147</ele>
        <time>2020-09-03T07:52:57.000Z</time>
      </trkpt>
      <trkpt lat="47.27867" lon="-2.41731">
        <ele>-15.60000038147</ele>
        <time>2020-09-03T07:53:02.000Z</time>
      </trkpt>
      <trkpt lat="47.27865" lon="-2.41734">
        <ele>-15.60000038147</ele>
        <time>2020-09-03T07:53:06.000Z</time>
      </trkpt>
      <trkpt lat="47.27864" lon="-2.41736">
        <ele>-15.60000038147</ele>
        <time>2020-09-03T07:53:11.000Z</time>
      </trkpt>
      <trkpt lat="47.27863" lon="-2.41738">
        <ele>-15.60000038147</ele>
        <time>2020-09-03T07:53:12.000Z</time>
      </trkpt>
      <trkpt lat="47.27857" lon="-2.41753">
        <ele>-15.60000038147</ele>
        <time>2020-09-03T07:53:16.000Z</time>
      </trkpt>
      <trkpt lat="47.27844" lon="-2.41781">
        <ele>-15.60000038147</ele>
        <time>2020-09-03T07:53:22.000Z</time>
      </trkpt>
      <trkpt lat="47.27829" lon="-2.41812">
        <ele>-15.60000038147</ele>
        <time>2020-09-03T07:53:29.000Z</time>
      </trkpt>
      <trkpt lat="47.27815" lon="-2.41843">
        <ele>-15.60000038147</ele>
        <time>2020-09-03T07:53:35.000Z</time>
      </trkpt>
      <trkpt lat="47.27798" lon="-2.41886">
        <ele>-15.60000038147</ele>
        <time>2020-09-03T07:53:42.000Z</time>
      </trkpt>
      <trkpt lat="47.27783" lon="-2.41932">
        <ele>-15.60000038147</ele>
        <time>2020-09-03T07:53:49.000Z</time>
      </trkpt>
      <trkpt lat="47.2777" lon="-2.41975">
        <ele>-15.60000038147</ele>
        <time>2020-09-03T07:53:55.000Z</time>
      </trkpt>
      <trkpt lat="47.27758" lon="-2.42023">
        <ele>-15.60000038147</ele>
        <time>2020-09-03T07:54:01.000Z</time>
      </trkpt>
      <trkpt lat="47.27749" lon="-2.42065">
        <ele>-15.60000038147</ele>
        <time>2020-09-03T07:54:06.000Z</time>
      </trkpt>
      <trkpt lat="47.27746" lon="-2.4209">
        <ele>-15.60000038147</ele>
        <time>2020-09-03T07:54:09.000Z</time>
      </trkpt>
      <trkpt lat="47.27744" lon="-2.42113">
        <ele>-15.60000038147</ele>
        <time>2020-09-03T07:54:12.000Z</time>
      </trkpt>
      <trkpt lat="47.27742" lon="-2.42163">
        <ele>-15.60000038147</ele>
        <time>2020-09-03T07:54:18.000Z</time>
      </trkpt>
      <trkpt lat="47.27742" lon="-2.42236">
        <ele>-15.60000038147</ele>
        <time>2020-09-03T07:54:27.000Z</time>
      </trkpt>
      <trkpt lat="47.27744" lon="-2.42297">
        <ele>-15.60000038147</ele>
        <time>2020-09-03T07:54:35.000Z</time>
      </trkpt>
      <trkpt lat="47.27749" lon="-2.42359">
        <ele>-15.60000038147</ele>
        <time>2020-09-03T07:54:43.000Z</time>
      </trkpt>
      <trkpt lat="47.27757" lon="-2.42412">
        <ele>-15.60000038147</ele>
        <time>2020-09-03T07:54:50.000Z</time>
      </trkpt>
      <trkpt lat="47.2777" lon="-2.42474">
        <ele>-15.60000038147</ele>
        <time>2020-09-03T07:54:58.000Z</time>
      </trkpt>
      <trkpt lat="47.27788" lon="-2.42529">
        <ele>-15.60000038147</ele>
        <time>2020-09-03T07:55:06.000Z</time>
      </trkpt>
      <trkpt lat="47.2781" lon="-2.42591">
        <ele>-15.60000038147</ele>
        <time>2020-09-03T07:55:15.000Z</time>
      </trkpt>
      <trkpt lat="47.27821" lon="-2.42639">
        <ele>-15.60000038147</ele>
        <time>2020-09-03T07:55:22.000Z</time>
      </trkpt>
      <trkpt lat="47.27828" lon="-2.42692">
        <ele>-15.60000038147</ele>
        <time>2020-09-03T07:55:30.000Z</time>
      </trkpt>
      <trkpt lat="47.27832" lon="-2.42731">
        <ele>-15.60000038147</ele>
        <time>2020-09-03T07:55:37.000Z</time>
      </trkpt>
      <trkpt lat="47.27833" lon="-2.42764">
        <ele>-15.60000038147</ele>
        <time>2020-09-03T07:55:43.000Z</time>
      </trkpt>
      <trkpt lat="47.27834" lon="-2.42802">
        <ele>-15.60000038147</ele>
        <time>2020-09-03T07:55:50.000Z</time>
      </trkpt>
      <trkpt lat="47.27837" lon="-2.42823">
        <ele>-15.60000038147</ele>
        <time>2020-09-03T07:55:55.000Z</time>
      </trkpt>
      <trkpt lat="47.27829" lon="-2.4283">
        <ele>-15.60000038147</ele>
        <time>2020-09-03T07:55:58.000Z</time>
      </trkpt>
      <trkpt lat="47.27825" lon="-2.42829">
        <ele>-15.60000038147</ele>
        <time>2020-09-03T07:55:59.000Z</time>
      </trkpt>
      <trkpt lat="47.27801" lon="-2.42824">
        <ele>-15.60000038147</ele>
        <time>2020-09-03T07:56:05.000Z</time>
      </trkpt>
      <trkpt lat="47.27773" lon="-2.4282">
        <ele>-15.60000038147</ele>
        <time>2020-09-03T07:56:12.000Z</time>
      </trkpt>
      <trkpt lat="47.27747" lon="-2.42815">
        <ele>-15.60000038147</ele>
        <time>2020-09-03T07:56:20.000Z</time>
      </trkpt>
      <trkpt lat="47.27715" lon="-2.42808">
        <ele>-15.60000038147</ele>
        <time>2020-09-03T07:56:28.000Z</time>
      </trkpt>
      <trkpt lat="47.27684" lon="-2.42796">
        <ele>-15.60000038147</ele>
        <time>2020-09-03T07:56:36.000Z</time>
      </trkpt>
      <trkpt lat="47.27668" lon="-2.42789">
        <ele>-15.60000038147</ele>
        <time>2020-09-03T07:56:40.000Z</time>
      </trkpt>
      <trkpt lat="47.27658" lon="-2.42781">
        <ele>-15.60000038147</ele>
        <time>2020-09-03T07:56:43.000Z</time>
      </trkpt>
      <trkpt lat="47.27639" lon="-2.4276">
        <ele>-15.60000038147</ele>
        <time>2020-09-03T07:56:49.000Z</time>
      </trkpt>
      <trkpt lat="47.2762" lon="-2.42741">
        <ele>-15.60000038147</ele>
        <time>2020-09-03T07:56:55.000Z</time>
      </trkpt>
      <trkpt lat="47.27592" lon="-2.42709">
        <ele>-15.60000038147</ele>
        <time>2020-09-03T07:57:03.000Z</time>
      </trkpt>
      <trkpt lat="47.27566" lon="-2.42677">
        <ele>-15.60000038147</ele>
        <time>2020-09-03T07:57:11.000Z</time>
      </trkpt>
      <trkpt lat="47.27551" lon="-2.42659">
        <ele>-15.60000038147</ele>
        <time>2020-09-03T07:57:17.000Z</time>
      </trkpt>
      <trkpt lat="47.27537" lon="-2.42643">
        <ele>-15.60000038147</ele>
        <time>2020-09-03T07:57:23.000Z</time>
      </trkpt>
      <trkpt lat="47.27524" lon="-2.42628">
        <ele>-15.60000038147</ele>
        <time>2020-09-03T07:57:27.000Z</time>
      </trkpt>
      <trkpt lat="47.27513" lon="-2.42617">
        <ele>-15.60000038147</ele>
        <time>2020-09-03T07:57:30.000Z</time>
      </trkpt>
      <trkpt lat="47.27488" lon="-2.42591">
        <ele>-15.60000038147</ele>
        <time>2020-09-03T07:57:37.000Z</time>
      </trkpt>
      <trkpt lat="47.27461" lon="-2.4256">
        <ele>-15.60000038147</ele>
        <time>2020-09-03T07:57:45.000Z</time>
      </trkpt>
      <trkpt lat="47.27445" lon="-2.42547">
        <ele>-15.60000038147</ele>
        <time>2020-09-03T07:57:50.000Z</time>
      </trkpt>
      <trkpt lat="47.27435" lon="-2.42557">
        <ele>-15.60000038147</ele>
        <time>2020-09-03T07:57:53.000Z</time>
      </trkpt>
      <trkpt lat="47.27432" lon="-2.42562">
        <ele>-15.60000038147</ele>
        <time>2020-09-03T07:57:54.000Z</time>
      </trkpt>
      <trkpt lat="47.27425" lon="-2.42575">
        <ele>-15.60000038147</ele>
        <time>2020-09-03T07:57:58.000Z</time>
      </trkpt>
      <trkpt lat="47.27425" lon="-2.42578">
        <ele>-15.60000038147</ele>
        <time>2020-09-03T07:58:01.000Z</time>
      </trkpt>
      <trkpt lat="47.27427" lon="-2.42579">
        <ele>-15.60000038147</ele>
        <time>2020-09-03T07:58:03.000Z</time>
      </trkpt>
      <trkpt lat="47.27428" lon="-2.42578">
        <ele>-15.60000038147</ele>
        <time>2020-09-03T07:58:04.000Z</time>
      </trkpt>
      <trkpt lat="47.27431" lon="-2.42575">
        <ele>-15.60000038147</ele>
        <time>2020-09-03T07:58:07.000Z</time>
      </trkpt>
      <trkpt lat="47.27429" lon="-2.42575">
        <ele>-15.60000038147</ele>
        <time>2020-09-03T07:59:44.000Z</time>
      </trkpt>
      <trkpt lat="47.27419" lon="-2.42574">
        <ele>-15.60000038147</ele>
        <time>2020-09-03T07:59:49.000Z</time>
      </trkpt>
      <trkpt lat="47.27412" lon="-2.4257">
        <ele>-15.60000038147</ele>
        <time>2020-09-03T07:59:51.000Z</time>
      </trkpt>
      <trkpt lat="47.27408" lon="-2.42568">
        <ele>-15.60000038147</ele>
        <time>2020-09-03T07:59:52.000Z</time>
      </trkpt>
      <trkpt lat="47.27403" lon="-2.42567">
        <ele>-15.60000038147</ele>
        <time>2020-09-03T07:59:53.000Z</time>
      </trkpt>
      <trkpt lat="47.27374" lon="-2.42564">
        <ele>-15.60000038147</ele>
        <time>2020-09-03T07:59:59.000Z</time>
      </trkpt>
      <trkpt lat="47.27339" lon="-2.42565">
        <ele>-15.60000038147</ele>
        <time>2020-09-03T08:00:06.000Z</time>
      </trkpt>
      <trkpt lat="47.27309" lon="-2.42567">
        <ele>-15.60000038147</ele>
        <time>2020-09-03T08:00:12.000Z</time>
      </trkpt>
      <trkpt lat="47.27305" lon="-2.42568">
        <ele>-15.60000038147</ele>
        <time>2020-09-03T08:00:13.000Z</time>
      </trkpt>
      <trkpt lat="47.27294" lon="-2.42572">
        <ele>-15.60000038147</ele>
        <time>2020-09-03T08:00:15.000Z</time>
      </trkpt>
      <trkpt lat="47.27275" lon="-2.42583">
        <ele>-15.60000038147</ele>
        <time>2020-09-03T08:00:19.000Z</time>
      </trkpt>
      <trkpt lat="47.27242" lon="-2.42598">
        <ele>-15.60000038147</ele>
        <time>2020-09-03T08:00:26.000Z</time>
      </trkpt>
      <trkpt lat="47.27228" lon="-2.42606">
        <ele>-15.60000038147</ele>
        <time>2020-09-03T08:00:29.000Z</time>
      </trkpt>
      <trkpt lat="47.27219" lon="-2.42608">
        <ele>-15.60000038147</ele>
        <time>2020-09-03T08:00:31.000Z</time>
      </trkpt>
      <trkpt lat="47.27183" lon="-2.42618">
        <ele>-15.60000038147</ele>
        <time>2020-09-03T08:00:38.000Z</time>
      </trkpt>
      <trkpt lat="47.27138" lon="-2.42634">
        <ele>-15.60000038147</ele>
        <time>2020-09-03T08:00:47.000Z</time>
      </trkpt>
      <trkpt lat="47.27107" lon="-2.42648">
        <ele>-15.60000038147</ele>
        <time>2020-09-03T08:00:53.000Z</time>
      </trkpt>
      <trkpt lat="47.27061" lon="-2.42665">
        <ele>-15.60000038147</ele>
        <time>2020-09-03T08:01:01.000Z</time>
      </trkpt>
      <trkpt lat="47.27056" lon="-2.42665">
        <ele>-15.60000038147</ele>
        <time>2020-09-03T08:01:02.000Z</time>
      </trkpt>
      <trkpt lat="47.27034" lon="-2.42657">
        <ele>-15.60000038147</ele>
        <time>2020-09-03T08:01:06.000Z</time>
      </trkpt>
      <trkpt lat="47.27025" lon="-2.42649">
        <ele>-15.60000038147</ele>
        <time>2020-09-03T08:01:08.000Z</time>
      </trkpt>
      <trkpt lat="47.27017" lon="-2.4264">
        <ele>-15.60000038147</ele>
        <time>2020-09-03T08:01:10.000Z</time>
      </trkpt>
      <trkpt lat="47.27013" lon="-2.42634">
        <ele>-15.60000038147</ele>
        <time>2020-09-03T08:01:11.000Z</time>
      </trkpt>
      <trkpt lat="47.27002" lon="-2.42604">
        <ele>-15.60000038147</ele>
        <time>2020-09-03T08:01:15.000Z</time>
      </trkpt>
      <trkpt lat="47.26979" lon="-2.42547">
        <ele>-15.60000038147</ele>
        <time>2020-09-03T08:01:23.000Z</time>
      </trkpt>
      <trkpt lat="47.26969" lon="-2.42529">
        <ele>-15.60000038147</ele>
        <time>2020-09-03T08:01:26.000Z</time>
      </trkpt>
      <trkpt lat="47.26961" lon="-2.42519">
        <ele>-15.60000038147</ele>
        <time>2020-09-03T08:01:28.000Z</time>
      </trkpt>
      <trkpt lat="47.26953" lon="-2.4251">
        <ele>-15.60000038147</ele>
        <time>2020-09-03T08:01:30.000Z</time>
      </trkpt>
      <trkpt lat="47.26945" lon="-2.42502">
        <ele>-15.60000038147</ele>
        <time>2020-09-03T08:01:32.000Z</time>
      </trkpt>
      <trkpt lat="47.26918" lon="-2.42482">
        <ele>-15.60000038147</ele>
        <time>2020-09-03T08:01:38.000Z</time>
      </trkpt>
      <trkpt lat="47.26899" lon="-2.42474">
        <ele>-15.60000038147</ele>
        <time>2020-09-03T08:01:42.000Z</time>
      </trkpt>
      <trkpt lat="47.26895" lon="-2.42474">
        <ele>-15.60000038147</ele>
        <time>2020-09-03T08:01:43.000Z</time>
      </trkpt>
      <trkpt lat="47.26872" lon="-2.42472">
        <ele>-15.199999809265</ele>
        <time>2020-09-03T08:01:48.000Z</time>
      </trkpt>
      <trkpt lat="47.26867" lon="-2.42472">
        <ele>-14.800000190735</ele>
        <time>2020-09-03T08:01:49.000Z</time>
      </trkpt>
      <trkpt lat="47.26863" lon="-2.42471">
        <ele>-14.39999961853</ele>
        <time>2020-09-03T08:01:50.000Z</time>
      </trkpt>
      <trkpt lat="47.26858" lon="-2.4247">
        <ele>-14</ele>
        <time>2020-09-03T08:01:51.000Z</time>
      </trkpt>
      <trkpt lat="47.26853" lon="-2.4247">
        <ele>-13.60000038147</ele>
        <time>2020-09-03T08:01:52.000Z</time>
      </trkpt>
      <trkpt lat="47.26838" lon="-2.42466">
        <ele>-13.60000038147</ele>
        <time>2020-09-03T08:01:55.000Z</time>
      </trkpt>
      <trkpt lat="47.26829" lon="-2.4246">
        <ele>-13.60000038147</ele>
        <time>2020-09-03T08:01:57.000Z</time>
      </trkpt>
      <trkpt lat="47.26819" lon="-2.42444">
        <ele>-13.60000038147</ele>
        <time>2020-09-03T08:02:00.000Z</time>
      </trkpt>
      <trkpt lat="47.26816" lon="-2.42438">
        <ele>-13.60000038147</ele>
        <time>2020-09-03T08:02:01.000Z</time>
      </trkpt>
      <trkpt lat="47.26791" lon="-2.42394">
        <ele>-13.60000038147</ele>
        <time>2020-09-03T08:02:08.000Z</time>
      </trkpt>
      <trkpt lat="47.26768" lon="-2.42354">
        <ele>-13.60000038147</ele>
        <time>2020-09-03T08:02:14.000Z</time>
      </trkpt>
      <trkpt lat="47.26763" lon="-2.42349">
        <ele>-13.60000038147</ele>
        <time>2020-09-03T08:02:15.000Z</time>
      </trkpt>
      <trkpt lat="47.26731" lon="-2.42326">
        <ele>-13.60000038147</ele>
        <time>2020-09-03T08:02:21.000Z</time>
      </trkpt>
      <trkpt lat="47.26678" lon="-2.42288">
        <ele>-13.60000038147</ele>
        <time>2020-09-03T08:02:31.000Z</time>
      </trkpt>
      <trkpt lat="47.26673" lon="-2.42282">
        <ele>-13.60000038147</ele>
        <time>2020-09-03T08:02:32.000Z</time>
      </trkpt>
      <trkpt lat="47.26655" lon="-2.42258">
        <ele>-13.60000038147</ele>
        <time>2020-09-03T08:02:36.000Z</time>
      </trkpt>
      <trkpt lat="47.26627" lon="-2.42221">
        <ele>-13.60000038147</ele>
        <time>2020-09-03T08:02:42.000Z</time>
      </trkpt>
      <trkpt lat="47.26621" lon="-2.42216">
        <ele>-13.60000038147</ele>
        <time>2020-09-03T08:02:43.000Z</time>
      </trkpt>
      <trkpt lat="47.26616" lon="-2.42211">
        <ele>-14</ele>
        <time>2020-09-03T08:02:44.000Z</time>
      </trkpt>
      <trkpt lat="47.26611" lon="-2.42206">
        <ele>-14.39999961853</ele>
        <time>2020-09-03T08:02:45.000Z</time>
      </trkpt>
      <trkpt lat="47.26605" lon="-2.42201">
        <ele>-14.800000190735</ele>
        <time>2020-09-03T08:02:46.000Z</time>
      </trkpt>
      <trkpt lat="47.26599" lon="-2.42197">
        <ele>-15.60000038147</ele>
        <time>2020-09-03T08:02:47.000Z</time>
      </trkpt>
      <trkpt lat="47.26593" lon="-2.42192">
        <ele>-15.60000038147</ele>
        <time>2020-09-03T08:02:48.000Z</time>
      </trkpt>
      <trkpt lat="47.26588" lon="-2.42188">
        <ele>-15.60000038147</ele>
        <time>2020-09-03T08:02:49.000Z</time>
      </trkpt>
      <trkpt lat="47.26577" lon="-2.42178">
        <ele>-15.60000038147</ele>
        <time>2020-09-03T08:02:51.000Z</time>
      </trkpt>
      <trkpt lat="47.26562" lon="-2.42166">
        <ele>-15.60000038147</ele>
        <time>2020-09-03T08:02:54.000Z</time>
      </trkpt>
      <trkpt lat="47.26546" lon="-2.42155">
        <ele>-15.60000038147</ele>
        <time>2020-09-03T08:02:57.000Z</time>
      </trkpt>
      <trkpt lat="47.26533" lon="-2.42144">
        <ele>-15.60000038147</ele>
        <time>2020-09-03T08:03:00.000Z</time>
      </trkpt>
      <trkpt lat="47.26502" lon="-2.42115">
        <ele>-15.60000038147</ele>
        <time>2020-09-03T08:03:07.000Z</time>
      </trkpt>
      <trkpt lat="47.26472" lon="-2.42083">
        <ele>-15.60000038147</ele>
        <time>2020-09-03T08:03:14.000Z</time>
      </trkpt>
      <trkpt lat="47.26444" lon="-2.42052">
        <ele>-15.60000038147</ele>
        <time>2020-09-03T08:03:21.000Z</time>
      </trkpt>
      <trkpt lat="47.26414" lon="-2.42022">
        <ele>-15.60000038147</ele>
        <time>2020-09-03T08:03:28.000Z</time>
      </trkpt>
      <trkpt lat="47.26385" lon="-2.41998">
        <ele>-15.60000038147</ele>
        <time>2020-09-03T08:03:34.000Z</time>
      </trkpt>
      <trkpt lat="47.26346" lon="-2.41972">
        <ele>-15.60000038147</ele>
        <time>2020-09-03T08:03:41.000Z</time>
      </trkpt>
      <trkpt lat="47.26311" lon="-2.41948">
        <ele>-15.60000038147</ele>
        <time>2020-09-03T08:03:48.000Z</time>
      </trkpt>
      <trkpt lat="47.26273" lon="-2.41925">
        <ele>-15.60000038147</ele>
        <time>2020-09-03T08:03:56.000Z</time>
      </trkpt>
      <trkpt lat="47.2624" lon="-2.41903">
        <ele>-15.60000038147</ele>
        <time>2020-09-03T08:04:04.000Z</time>
      </trkpt>
      <trkpt lat="47.26217" lon="-2.41886">
        <ele>-15.199999809265</ele>
        <time>2020-09-03T08:04:10.000Z</time>
      </trkpt>
      <trkpt lat="47.26213" lon="-2.41883">
        <ele>-14.800000190735</ele>
        <time>2020-09-03T08:04:11.000Z</time>
      </trkpt>
      <trkpt lat="47.2621" lon="-2.4188">
        <ele>-14.39999961853</ele>
        <time>2020-09-03T08:04:12.000Z</time>
      </trkpt>
      <trkpt lat="47.26206" lon="-2.41877">
        <ele>-14</ele>
        <time>2020-09-03T08:04:13.000Z</time>
      </trkpt>
      <trkpt lat="47.26203" lon="-2.41874">
        <ele>-13.60000038147</ele>
        <time>2020-09-03T08:04:14.000Z</time>
      </trkpt>
      <trkpt lat="47.26189" lon="-2.41857">
        <ele>-13.60000038147</ele>
        <time>2020-09-03T08:04:18.000Z</time>
      </trkpt>
      <trkpt lat="47.26186" lon="-2.41852">
        <ele>-13.60000038147</ele>
        <time>2020-09-03T08:04:19.000Z</time>
      </trkpt>
      <trkpt lat="47.26165" lon="-2.41827">
        <ele>-13.60000038147</ele>
        <time>2020-09-03T08:04:25.000Z</time>
      </trkpt>
      <trkpt lat="47.26161" lon="-2.41824">
        <ele>-13.60000038147</ele>
        <time>2020-09-03T08:04:26.000Z</time>
      </trkpt>
      <trkpt lat="47.26141" lon="-2.4181">
        <ele>-13.60000038147</ele>
        <time>2020-09-03T08:04:31.000Z</time>
      </trkpt>
      <trkpt lat="47.26133" lon="-2.41807">
        <ele>-13.60000038147</ele>
        <time>2020-09-03T08:04:33.000Z</time>
      </trkpt>
      <trkpt lat="47.26121" lon="-2.41813">
        <ele>-13.60000038147</ele>
        <time>2020-09-03T08:04:36.000Z</time>
      </trkpt>
      <trkpt lat="47.26116" lon="-2.41823">
        <ele>-13.60000038147</ele>
        <time>2020-09-03T08:04:38.000Z</time>
      </trkpt>
      <trkpt lat="47.2611" lon="-2.41832">
        <ele>-13.60000038147</ele>
        <time>2020-09-03T08:04:40.000Z</time>
      </trkpt>
      <trkpt lat="47.26107" lon="-2.41837">
        <ele>-13.60000038147</ele>
        <time>2020-09-03T08:04:41.000Z</time>
      </trkpt>
      <trkpt lat="47.26088" lon="-2.41864">
        <ele>-13.60000038147</ele>
        <time>2020-09-03T08:04:47.000Z</time>
      </trkpt>
      <trkpt lat="47.26085" lon="-2.41868">
        <ele>-13.199999809265</ele>
        <time>2020-09-03T08:04:48.000Z</time>
      </trkpt>
      <trkpt lat="47.26082" lon="-2.41872">
        <ele>-12.800000190735</ele>
        <time>2020-09-03T08:04:49.000Z</time>
      </trkpt>
      <trkpt lat="47.26079" lon="-2.41877">
        <ele>-12.39999961853</ele>
        <time>2020-09-03T08:04:50.000Z</time>
      </trkpt>
      <trkpt lat="47.26076" lon="-2.41881">
        <ele>-11.39999961853</ele>
        <time>2020-09-03T08:04:51.000Z</time>
      </trkpt>
      <trkpt lat="47.2606" lon="-2.41902">
        <ele>-11.39999961853</ele>
        <time>2020-09-03T08:04:56.000Z</time>
      </trkpt>
      <trkpt lat="47.26042" lon="-2.41926">
        <ele>-11.39999961853</ele>
        <time>2020-09-03T08:05:03.000Z</time>
      </trkpt>
      <trkpt lat="47.26039" lon="-2.4193">
        <ele>-11.39999961853</ele>
        <time>2020-09-03T08:05:04.000Z</time>
      </trkpt>
      <trkpt lat="47.26029" lon="-2.41944">
        <ele>-11.39999961853</ele>
        <time>2020-09-03T08:05:10.000Z</time>
      </trkpt>
      <trkpt lat="47.26024" lon="-2.41952">
        <ele>-11</ele>
        <time>2020-09-03T08:05:14.000Z</time>
      </trkpt>
      <trkpt lat="47.26022" lon="-2.41954">
        <ele>-10.199999809265</ele>
        <time>2020-09-03T08:05:15.000Z</time>
      </trkpt>
      <trkpt lat="47.26021" lon="-2.41956">
        <ele>-9.8000001907349</ele>
        <time>2020-09-03T08:05:16.000Z</time>
      </trkpt>
      <trkpt lat="47.26019" lon="-2.41959">
        <ele>-9.3999996185303</ele>
        <time>2020-09-03T08:05:17.000Z</time>
      </trkpt>
      <trkpt lat="47.26011" lon="-2.41975">
        <ele>-9.3999996185303</ele>
        <time>2020-09-03T08:05:23.000Z</time>
      </trkpt>
      <trkpt lat="47.26002" lon="-2.41992">
        <ele>-9.3999996185303</ele>
        <time>2020-09-03T08:05:30.000Z</time>
      </trkpt>
      <trkpt lat="47.25999" lon="-2.42007">
        <ele>-9.3999996185303</ele>
        <time>2020-09-03T08:05:36.000Z</time>
      </trkpt>
      <trkpt lat="47.25998" lon="-2.42007">
        <ele>-9.3999996185303</ele>
        <time>2020-09-03T08:05:37.000Z</time>
      </trkpt>
      <trkpt lat="47.25999" lon="-2.4201">
        <ele>-9.3999996185303</ele>
        <time>2020-09-03T08:08:15.000Z</time>
      </trkpt>
      <trkpt lat="47.26" lon="-2.42015">
        <ele>-9.3999996185303</ele>
        <time>2020-09-03T08:08:17.000Z</time>
      </trkpt>
      <trkpt lat="47.26005" lon="-2.42027">
        <ele>-9.3999996185303</ele>
        <time>2020-09-03T08:08:20.000Z</time>
      </trkpt>
      <trkpt lat="47.26008" lon="-2.42037">
        <ele>-9.3999996185303</ele>
        <time>2020-09-03T08:08:22.000Z</time>
      </trkpt>
      <trkpt lat="47.2602" lon="-2.42075">
        <ele>-9.3999996185303</ele>
        <time>2020-09-03T08:08:28.000Z</time>
      </trkpt>
      <trkpt lat="47.26039" lon="-2.42134">
        <ele>-9.3999996185303</ele>
        <time>2020-09-03T08:08:36.000Z</time>
      </trkpt>
      <trkpt lat="47.26051" lon="-2.42168">
        <ele>-10</ele>
        <time>2020-09-03T08:08:41.000Z</time>
      </trkpt>
      <trkpt lat="47.26053" lon="-2.42176">
        <ele>-10.39999961853</ele>
        <time>2020-09-03T08:08:42.000Z</time>
      </trkpt>
      <trkpt lat="47.26056" lon="-2.42183">
        <ele>-10.800000190735</ele>
        <time>2020-09-03T08:08:43.000Z</time>
      </trkpt>
      <trkpt lat="47.26058" lon="-2.42191">
        <ele>-11.199999809265</ele>
        <time>2020-09-03T08:08:44.000Z</time>
      </trkpt>
      <trkpt lat="47.26061" lon="-2.42198">
        <ele>-11.60000038147</ele>
        <time>2020-09-03T08:08:45.000Z</time>
      </trkpt>
      <trkpt lat="47.26069" lon="-2.42223">
        <ele>-11.60000038147</ele>
        <time>2020-09-03T08:08:49.000Z</time>
      </trkpt>
      <trkpt lat="47.26082" lon="-2.42261">
        <ele>-11.60000038147</ele>
        <time>2020-09-03T08:08:56.000Z</time>
      </trkpt>
      <trkpt lat="47.26099" lon="-2.42309">
        <ele>-11.60000038147</ele>
        <time>2020-09-03T08:09:05.000Z</time>
      </trkpt>
      <trkpt lat="47.26103" lon="-2.42318">
        <ele>-11.60000038147</ele>
        <time>2020-09-03T08:09:09.000Z</time>
      </trkpt>
      <trkpt lat="47.26103" lon="-2.4232">
        <ele>-11.60000038147</ele>
        <time>2020-09-03T08:09:13.000Z</time>
      </trkpt>
      <trkpt lat="47.26103" lon="-2.42325">
        <ele>-11.60000038147</ele>
        <time>2020-09-03T08:09:15.000Z</time>
      </trkpt>
      <trkpt lat="47.26106" lon="-2.42345">
        <ele>-11.60000038147</ele>
        <time>2020-09-03T08:09:21.000Z</time>
      </trkpt>
      <trkpt lat="47.26113" lon="-2.42374">
        <ele>-11.60000038147</ele>
        <time>2020-09-03T08:09:27.000Z</time>
      </trkpt>
      <trkpt lat="47.26119" lon="-2.42417">
        <ele>-11.60000038147</ele>
        <time>2020-09-03T08:09:34.000Z</time>
      </trkpt>
      <trkpt lat="47.26127" lon="-2.4247">
        <ele>-11.60000038147</ele>
        <time>2020-09-03T08:09:42.000Z</time>
      </trkpt>
      <trkpt lat="47.26134" lon="-2.4251">
        <ele>-11.60000038147</ele>
        <time>2020-09-03T08:09:48.000Z</time>
      </trkpt>
      <trkpt lat="47.2614" lon="-2.4255">
        <ele>-11.60000038147</ele>
        <time>2020-09-03T08:09:54.000Z</time>
      </trkpt>
      <trkpt lat="47.26145" lon="-2.42585">
        <ele>-11.60000038147</ele>
        <time>2020-09-03T08:09:59.000Z</time>
      </trkpt>
      <trkpt lat="47.26148" lon="-2.426">
        <ele>-11.60000038147</ele>
        <time>2020-09-03T08:10:01.000Z</time>
      </trkpt>
      <trkpt lat="47.26157" lon="-2.42659">
        <ele>-11.60000038147</ele>
        <time>2020-09-03T08:10:09.000Z</time>
      </trkpt>
      <trkpt lat="47.26165" lon="-2.42708">
        <ele>-11.60000038147</ele>
        <time>2020-09-03T08:10:17.000Z</time>
      </trkpt>
      <trkpt lat="47.2617" lon="-2.42724">
        <ele>-11.60000038147</ele>
        <time>2020-09-03T08:10:21.000Z</time>
      </trkpt>
      <trkpt lat="47.26172" lon="-2.42746">
        <ele>-11.60000038147</ele>
        <time>2020-09-03T08:10:25.000Z</time>
      </trkpt>
      <trkpt lat="47.26175" lon="-2.42758">
        <ele>-11.60000038147</ele>
        <time>2020-09-03T08:10:27.000Z</time>
      </trkpt>
      <trkpt lat="47.26182" lon="-2.42781">
        <ele>-11.60000038147</ele>
        <time>2020-09-03T08:10:31.000Z</time>
      </trkpt>
      <trkpt lat="47.26188" lon="-2.42804">
        <ele>-11.60000038147</ele>
        <time>2020-09-03T08:10:35.000Z</time>
      </trkpt>
      <trkpt lat="47.26191" lon="-2.42816">
        <ele>-11.60000038147</ele>
        <time>2020-09-03T08:10:37.000Z</time>
      </trkpt>
      <trkpt lat="47.26193" lon="-2.42821">
        <ele>-11.60000038147</ele>
        <time>2020-09-03T08:10:38.000Z</time>
      </trkpt>
      <trkpt lat="47.26208" lon="-2.42875">
        <ele>-11.60000038147</ele>
        <time>2020-09-03T08:10:47.000Z</time>
      </trkpt>
      <trkpt lat="47.26221" lon="-2.42923">
        <ele>-11.60000038147</ele>
        <time>2020-09-03T08:10:55.000Z</time>
      </trkpt>
      <trkpt lat="47.26237" lon="-2.42979">
        <ele>-11.60000038147</ele>
        <time>2020-09-03T08:11:05.000Z</time>
      </trkpt>
      <trkpt lat="47.26242" lon="-2.42989">
        <ele>-11.60000038147</ele>
        <time>2020-09-03T08:11:07.000Z</time>
      </trkpt>
      <trkpt lat="47.26258" lon="-2.43018">
        <ele>-11.60000038147</ele>
        <time>2020-09-03T08:11:13.000Z</time>
      </trkpt>
      <trkpt lat="47.26273" lon="-2.43034">
        <ele>-11.60000038147</ele>
        <time>2020-09-03T08:11:17.000Z</time>
      </trkpt>
      <trkpt lat="47.26281" lon="-2.43041">
        <ele>-11.60000038147</ele>
        <time>2020-09-03T08:11:19.000Z</time>
      </trkpt>
      <trkpt lat="47.26312" lon="-2.43074">
        <ele>-11.60000038147</ele>
        <time>2020-09-03T08:11:27.000Z</time>
      </trkpt>
      <trkpt lat="47.26333" lon="-2.43109">
        <ele>-11.60000038147</ele>
        <time>2020-09-03T08:11:34.000Z</time>
      </trkpt>
      <trkpt lat="47.2635" lon="-2.43137">
        <ele>-11.60000038147</ele>
        <time>2020-09-03T08:11:40.000Z</time>
      </trkpt>
      <trkpt lat="47.26356" lon="-2.43146">
        <ele>-11.60000038147</ele>
        <time>2020-09-03T08:11:42.000Z</time>
      </trkpt>
      <trkpt lat="47.26358" lon="-2.43152">
        <ele>-11.60000038147</ele>
        <time>2020-09-03T08:11:43.000Z</time>
      </trkpt>
      <trkpt lat="47.2637" lon="-2.43176">
        <ele>-11.60000038147</ele>
        <time>2020-09-03T08:11:48.000Z</time>
      </trkpt>
      <trkpt lat="47.26394" lon="-2.43219">
        <ele>-11.60000038147</ele>
        <time>2020-09-03T08:11:57.000Z</time>
      </trkpt>
      <trkpt lat="47.26405" lon="-2.43236">
        <ele>-11.60000038147</ele>
        <time>2020-09-03T08:12:01.000Z</time>
      </trkpt>
      <trkpt lat="47.26414" lon="-2.43242">
        <ele>-11.60000038147</ele>
        <time>2020-09-03T08:12:03.000Z</time>
      </trkpt>
      <trkpt lat="47.26417" lon="-2.43247">
        <ele>-11.60000038147</ele>
        <time>2020-09-03T08:12:04.000Z</time>
      </trkpt>
      <trkpt lat="47.26422" lon="-2.43258">
        <ele>-11.60000038147</ele>
        <time>2020-09-03T08:12:06.000Z</time>
      </trkpt>
      <trkpt lat="47.26431" lon="-2.43276">
        <ele>-11.60000038147</ele>
        <time>2020-09-03T08:12:10.000Z</time>
      </trkpt>
      <trkpt lat="47.26439" lon="-2.43288">
        <ele>-11.60000038147</ele>
        <time>2020-09-03T08:12:13.000Z</time>
      </trkpt>
      <trkpt lat="47.26446" lon="-2.43296">
        <ele>-11.199999809265</ele>
        <time>2020-09-03T08:12:15.000Z</time>
      </trkpt>
      <trkpt lat="47.2645" lon="-2.433">
        <ele>-10.800000190735</ele>
        <time>2020-09-03T08:12:16.000Z</time>
      </trkpt>
      <trkpt lat="47.26453" lon="-2.43304">
        <ele>-10.39999961853</ele>
        <time>2020-09-03T08:12:17.000Z</time>
      </trkpt>
      <trkpt lat="47.26457" lon="-2.43309">
        <ele>-10</ele>
        <time>2020-09-03T08:12:18.000Z</time>
      </trkpt>
      <trkpt lat="47.2646" lon="-2.43313">
        <ele>-9.6000003814697</ele>
        <time>2020-09-03T08:12:19.000Z</time>
      </trkpt>
      <trkpt lat="47.26472" lon="-2.43331">
        <ele>-9.6000003814697</ele>
        <time>2020-09-03T08:12:23.000Z</time>
      </trkpt>
      <trkpt lat="47.26499" lon="-2.43371">
        <ele>-9.6000003814697</ele>
        <time>2020-09-03T08:12:31.000Z</time>
      </trkpt>
      <trkpt lat="47.26527" lon="-2.43413">
        <ele>-9.6000003814697</ele>
        <time>2020-09-03T08:12:39.000Z</time>
      </trkpt>
      <trkpt lat="47.26547" lon="-2.43452">
        <ele>-9.6000003814697</ele>
        <time>2020-09-03T08:12:46.000Z</time>
      </trkpt>
      <trkpt lat="47.26563" lon="-2.43502">
        <ele>-9.6000003814697</ele>
        <time>2020-09-03T08:12:53.000Z</time>
      </trkpt>
      <trkpt lat="47.26573" lon="-2.43557">
        <ele>-9.6000003814697</ele>
        <time>2020-09-03T08:13:00.000Z</time>
      </trkpt>
      <trkpt lat="47.26584" lon="-2.43623">
        <ele>-9.6000003814697</ele>
        <time>2020-09-03T08:13:08.000Z</time>
      </trkpt>
      <trkpt lat="47.26592" lon="-2.43653">
        <ele>-9.6000003814697</ele>
        <time>2020-09-03T08:13:12.000Z</time>
      </trkpt>
      <trkpt lat="47.26597" lon="-2.43667">
        <ele>-9.6000003814697</ele>
        <time>2020-09-03T08:13:14.000Z</time>
      </trkpt>
      <trkpt lat="47.26619" lon="-2.4371">
        <ele>-9.6000003814697</ele>
        <time>2020-09-03T08:13:21.000Z</time>
      </trkpt>
      <trkpt lat="47.26645" lon="-2.43754">
        <ele>-9.6000003814697</ele>
        <time>2020-09-03T08:13:29.000Z</time>
      </trkpt>
      <trkpt lat="47.26669" lon="-2.4379">
        <ele>-9.6000003814697</ele>
        <time>2020-09-03T08:13:36.000Z</time>
      </trkpt>
      <trkpt lat="47.267" lon="-2.43838">
        <ele>-9.6000003814697</ele>
        <time>2020-09-03T08:13:46.000Z</time>
      </trkpt>
      <trkpt lat="47.26716" lon="-2.43864">
        <ele>-9.6000003814697</ele>
        <time>2020-09-03T08:13:52.000Z</time>
      </trkpt>
      <trkpt lat="47.2672" lon="-2.43886">
        <ele>-9.6000003814697</ele>
        <time>2020-09-03T08:13:55.000Z</time>
      </trkpt>
      <trkpt lat="47.26722" lon="-2.43893">
        <ele>-9.6000003814697</ele>
        <time>2020-09-03T08:13:56.000Z</time>
      </trkpt>
      <trkpt lat="47.26738" lon="-2.43942">
        <ele>-9.6000003814697</ele>
        <time>2020-09-03T08:14:03.000Z</time>
      </trkpt>
      <trkpt lat="47.26756" lon="-2.43987">
        <ele>-9.6000003814697</ele>
        <time>2020-09-03T08:14:10.000Z</time>
      </trkpt>
      <trkpt lat="47.26773" lon="-2.44038">
        <ele>-9.6000003814697</ele>
        <time>2020-09-03T08:14:17.000Z</time>
      </trkpt>
      <trkpt lat="47.26789" lon="-2.44071">
        <ele>-9.6000003814697</ele>
        <time>2020-09-03T08:14:23.000Z</time>
      </trkpt>
      <trkpt lat="47.26803" lon="-2.44081">
        <ele>-9.6000003814697</ele>
        <time>2020-09-03T08:14:27.000Z</time>
      </trkpt>
      <trkpt lat="47.26806" lon="-2.44096">
        <ele>-9.6000003814697</ele>
        <time>2020-09-03T08:14:30.000Z</time>
      </trkpt>
      <trkpt lat="47.26808" lon="-2.44105">
        <ele>-9.6000003814697</ele>
        <time>2020-09-03T08:14:33.000Z</time>
      </trkpt>
      <trkpt lat="47.26809" lon="-2.44109">
        <ele>-9.6000003814697</ele>
        <time>2020-09-03T08:14:35.000Z</time>
      </trkpt>
      <trkpt lat="47.26813" lon="-2.4412">
        <ele>-9.6000003814697</ele>
        <time>2020-09-03T08:14:38.000Z</time>
      </trkpt>
      <trkpt lat="47.26823" lon="-2.44155">
        <ele>-9.6000003814697</ele>
        <time>2020-09-03T08:14:46.000Z</time>
      </trkpt>
      <trkpt lat="47.2683" lon="-2.44178">
        <ele>-9.6000003814697</ele>
        <time>2020-09-03T08:14:51.000Z</time>
      </trkpt>
      <trkpt lat="47.26832" lon="-2.44182">
        <ele>-9.6000003814697</ele>
        <time>2020-09-03T08:14:53.000Z</time>
      </trkpt>
      <trkpt lat="47.26839" lon="-2.44182">
        <ele>-9.6000003814697</ele>
        <time>2020-09-03T08:14:55.000Z</time>
      </trkpt>
      <trkpt lat="47.26859" lon="-2.44175">
        <ele>-9.6000003814697</ele>
        <time>2020-09-03T08:14:59.000Z</time>
      </trkpt>
      <trkpt lat="47.26865" lon="-2.44173">
        <ele>-9.6000003814697</ele>
        <time>2020-09-03T08:15:00.000Z</time>
      </trkpt>
      <trkpt lat="47.26895" lon="-2.44161">
        <ele>-10</ele>
        <time>2020-09-03T08:15:05.000Z</time>
      </trkpt>
      <trkpt lat="47.269" lon="-2.44159">
        <ele>-10.39999961853</ele>
        <time>2020-09-03T08:15:06.000Z</time>
      </trkpt>
      <trkpt lat="47.26904" lon="-2.44158">
        <ele>-10.800000190735</ele>
        <time>2020-09-03T08:15:07.000Z</time>
      </trkpt>
      <trkpt lat="47.26908" lon="-2.4416">
        <ele>-11.800000190735</ele>
        <time>2020-09-03T08:15:08.000Z</time>
      </trkpt>
      <trkpt lat="47.26911" lon="-2.44162">
        <ele>-11.800000190735</ele>
        <time>2020-09-03T08:15:09.000Z</time>
      </trkpt>
      <trkpt lat="47.26914" lon="-2.44173">
        <ele>-11.800000190735</ele>
        <time>2020-09-03T08:15:12.000Z</time>
      </trkpt>
      <trkpt lat="47.26927" lon="-2.44196">
        <ele>-11.800000190735</ele>
        <time>2020-09-03T08:15:17.000Z</time>
      </trkpt>
      <trkpt lat="47.2693" lon="-2.44202">
        <ele>-11.800000190735</ele>
        <time>2020-09-03T08:15:18.000Z</time>
      </trkpt>
      <trkpt lat="47.26933" lon="-2.44217">
        <ele>-11.800000190735</ele>
        <time>2020-09-03T08:15:20.000Z</time>
      </trkpt>
      <trkpt lat="47.26942" lon="-2.4427">
        <ele>-11.800000190735</ele>
        <time>2020-09-03T08:15:27.000Z</time>
      </trkpt>
      <trkpt lat="47.26953" lon="-2.44316">
        <ele>-11.800000190735</ele>
        <time>2020-09-03T08:15:34.000Z</time>
      </trkpt>
      <trkpt lat="47.26966" lon="-2.44358">
        <ele>-11.800000190735</ele>
        <time>2020-09-03T08:15:41.000Z</time>
      </trkpt>
      <trkpt lat="47.26975" lon="-2.44398">
        <ele>-11.800000190735</ele>
        <time>2020-09-03T08:15:48.000Z</time>
      </trkpt>
      <trkpt lat="47.26975" lon="-2.44414">
        <ele>-11.800000190735</ele>
        <time>2020-09-03T08:15:52.000Z</time>
      </trkpt>
      <trkpt lat="47.26974" lon="-2.44417">
        <ele>-11.800000190735</ele>
        <time>2020-09-03T08:15:53.000Z</time>
      </trkpt>
      <trkpt lat="47.26969" lon="-2.44436">
        <ele>-11.800000190735</ele>
        <time>2020-09-03T08:15:58.000Z</time>
      </trkpt>
      <trkpt lat="47.26975" lon="-2.44455">
        <ele>-11.800000190735</ele>
        <time>2020-09-03T08:16:03.000Z</time>
      </trkpt>
      <trkpt lat="47.26977" lon="-2.44459">
        <ele>-11.800000190735</ele>
        <time>2020-09-03T08:16:05.000Z</time>
      </trkpt>
      <trkpt lat="47.26983" lon="-2.44467">
        <ele>-11.800000190735</ele>
        <time>2020-09-03T08:16:07.000Z</time>
      </trkpt>
      <trkpt lat="47.27002" lon="-2.44485">
        <ele>-11.800000190735</ele>
        <time>2020-09-03T08:16:13.000Z</time>
      </trkpt>
      <trkpt lat="47.27008" lon="-2.44504">
        <ele>-11.800000190735</ele>
        <time>2020-09-03T08:16:17.000Z</time>
      </trkpt>
      <trkpt lat="47.27014" lon="-2.44546">
        <ele>-11.800000190735</ele>
        <time>2020-09-03T08:16:23.000Z</time>
      </trkpt>
      <trkpt lat="47.27021" lon="-2.44585">
        <ele>-11.800000190735</ele>
        <time>2020-09-03T08:16:29.000Z</time>
      </trkpt>
      <trkpt lat="47.27022" lon="-2.44592">
        <ele>-11.800000190735</ele>
        <time>2020-09-03T08:16:30.000Z</time>
      </trkpt>
      <trkpt lat="47.27027" lon="-2.44625">
        <ele>-11.800000190735</ele>
        <time>2020-09-03T08:16:35.000Z</time>
      </trkpt>
      <trkpt lat="47.27037" lon="-2.44681">
        <ele>-11.800000190735</ele>
        <time>2020-09-03T08:16:43.000Z</time>
      </trkpt>
      <trkpt lat="47.27046" lon="-2.44726">
        <ele>-11.800000190735</ele>
        <time>2020-09-03T08:16:49.000Z</time>
      </trkpt>
      <trkpt lat="47.27051" lon="-2.44773">
        <ele>-11.800000190735</ele>
        <time>2020-09-03T08:16:54.000Z</time>
      </trkpt>
      <trkpt lat="47.27055" lon="-2.44837">
        <ele>-11.800000190735</ele>
        <time>2020-09-03T08:17:01.000Z</time>
      </trkpt>
      <trkpt lat="47.27058" lon="-2.44906">
        <ele>-11.800000190735</ele>
        <time>2020-09-03T08:17:09.000Z</time>
      </trkpt>
      <trkpt lat="47.27063" lon="-2.44952">
        <ele>-11.800000190735</ele>
        <time>2020-09-03T08:17:15.000Z</time>
      </trkpt>
      <trkpt lat="47.27064" lon="-2.44973">
        <ele>-11.800000190735</ele>
        <time>2020-09-03T08:17:18.000Z</time>
      </trkpt>
      <trkpt lat="47.27065" lon="-2.44994">
        <ele>-11.800000190735</ele>
        <time>2020-09-03T08:17:21.000Z</time>
      </trkpt>
      <trkpt lat="47.27066" lon="-2.45015">
        <ele>-11.800000190735</ele>
        <time>2020-09-03T08:17:24.000Z</time>
      </trkpt>
      <trkpt lat="47.27066" lon="-2.45037">
        <ele>-11.800000190735</ele>
        <time>2020-09-03T08:17:27.000Z</time>
      </trkpt>
      <trkpt lat="47.27065" lon="-2.45079">
        <ele>-11.800000190735</ele>
        <time>2020-09-03T08:17:33.000Z</time>
      </trkpt>
      <trkpt lat="47.27063" lon="-2.45129">
        <ele>-11.800000190735</ele>
        <time>2020-09-03T08:17:40.000Z</time>
      </trkpt>
      <trkpt lat="47.27061" lon="-2.45193">
        <ele>-11.800000190735</ele>
        <time>2020-09-03T08:17:49.000Z</time>
      </trkpt>
      <trkpt lat="47.27061" lon="-2.45245">
        <ele>-11.800000190735</ele>
        <time>2020-09-03T08:17:56.000Z</time>
      </trkpt>
      <trkpt lat="47.27063" lon="-2.45302">
        <ele>-11.800000190735</ele>
        <time>2020-09-03T08:18:03.000Z</time>
      </trkpt>
      <trkpt lat="47.27067" lon="-2.45348">
        <ele>-11.800000190735</ele>
        <time>2020-09-03T08:18:09.000Z</time>
      </trkpt>
      <trkpt lat="47.27069" lon="-2.45404">
        <ele>-11.800000190735</ele>
        <time>2020-09-03T08:18:16.000Z</time>
      </trkpt>
      <trkpt lat="47.27068" lon="-2.45436">
        <ele>-11.800000190735</ele>
        <time>2020-09-03T08:18:20.000Z</time>
      </trkpt>
      <trkpt lat="47.27067" lon="-2.45444">
        <ele>-11.800000190735</ele>
        <time>2020-09-03T08:18:21.000Z</time>
      </trkpt>
      <trkpt lat="47.27062" lon="-2.45475">
        <ele>-11.800000190735</ele>
        <time>2020-09-03T08:18:25.000Z</time>
      </trkpt>
      <trkpt lat="47.27059" lon="-2.45489">
        <ele>-11.800000190735</ele>
        <time>2020-09-03T08:18:27.000Z</time>
      </trkpt>
      <trkpt lat="47.27058" lon="-2.45496">
        <ele>-11.800000190735</ele>
        <time>2020-09-03T08:18:28.000Z</time>
      </trkpt>
      <trkpt lat="47.27056" lon="-2.45524">
        <ele>-11.800000190735</ele>
        <time>2020-09-03T08:18:32.000Z</time>
      </trkpt>
      <trkpt lat="47.27059" lon="-2.45568">
        <ele>-11.800000190735</ele>
        <time>2020-09-03T08:18:38.000Z</time>
      </trkpt>
      <trkpt lat="47.27067" lon="-2.4563">
        <ele>-11.800000190735</ele>
        <time>2020-09-03T08:18:46.000Z</time>
      </trkpt>
      <trkpt lat="47.27074" lon="-2.45666">
        <ele>-11.800000190735</ele>
        <time>2020-09-03T08:18:51.000Z</time>
      </trkpt>
      <trkpt lat="47.27077" lon="-2.4568">
        <ele>-11.800000190735</ele>
        <time>2020-09-03T08:18:53.000Z</time>
      </trkpt>
      <trkpt lat="47.27086" lon="-2.45716">
        <ele>-11.800000190735</ele>
        <time>2020-09-03T08:18:59.000Z</time>
      </trkpt>
      <trkpt lat="47.27097" lon="-2.45746">
        <ele>-11.800000190735</ele>
        <time>2020-09-03T08:19:04.000Z</time>
      </trkpt>
      <trkpt lat="47.27104" lon="-2.45756">
        <ele>-11.800000190735</ele>
        <time>2020-09-03T08:19:06.000Z</time>
      </trkpt>
      <trkpt lat="47.27121" lon="-2.45785">
        <ele>-11.800000190735</ele>
        <time>2020-09-03T08:19:11.000Z</time>
      </trkpt>
      <trkpt lat="47.27124" lon="-2.45792">
        <ele>-11.800000190735</ele>
        <time>2020-09-03T08:19:12.000Z</time>
      </trkpt>
      <trkpt lat="47.27147" lon="-2.45845">
        <ele>-11.800000190735</ele>
        <time>2020-09-03T08:19:20.000Z</time>
      </trkpt>
      <trkpt lat="47.27166" lon="-2.45891">
        <ele>-11.800000190735</ele>
        <time>2020-09-03T08:19:28.000Z</time>
      </trkpt>
      <trkpt lat="47.27169" lon="-2.45901">
        <ele>-12.199999809265</ele>
        <time>2020-09-03T08:19:30.000Z</time>
      </trkpt>
      <trkpt lat="47.2717" lon="-2.45907">
        <ele>-12.60000038147</ele>
        <time>2020-09-03T08:19:31.000Z</time>
      </trkpt>
      <trkpt lat="47.27173" lon="-2.45914">
        <ele>-13</ele>
        <time>2020-09-03T08:19:32.000Z</time>
      </trkpt>
      <trkpt lat="47.27175" lon="-2.4592">
        <ele>-13.39999961853</ele>
        <time>2020-09-03T08:19:33.000Z</time>
      </trkpt>
      <trkpt lat="47.27177" lon="-2.45926">
        <ele>-13.800000190735</ele>
        <time>2020-09-03T08:19:34.000Z</time>
      </trkpt>
      <trkpt lat="47.27182" lon="-2.45939">
        <ele>-13.800000190735</ele>
        <time>2020-09-03T08:19:36.000Z</time>
      </trkpt>
      <trkpt lat="47.27188" lon="-2.45953">
        <ele>-13.800000190735</ele>
        <time>2020-09-03T08:19:38.000Z</time>
      </trkpt>
      <trkpt lat="47.2721" lon="-2.46014">
        <ele>-13.800000190735</ele>
        <time>2020-09-03T08:19:47.000Z</time>
      </trkpt>
      <trkpt lat="47.27223" lon="-2.46062">
        <ele>-13.800000190735</ele>
        <time>2020-09-03T08:19:54.000Z</time>
      </trkpt>
      <trkpt lat="47.27233" lon="-2.46116">
        <ele>-13.800000190735</ele>
        <time>2020-09-03T08:20:01.000Z</time>
      </trkpt>
      <trkpt lat="47.27244" lon="-2.4616">
        <ele>-13.800000190735</ele>
        <time>2020-09-03T08:20:08.000Z</time>
      </trkpt>
      <trkpt lat="47.27254" lon="-2.46198">
        <ele>-13.800000190735</ele>
        <time>2020-09-03T08:20:14.000Z</time>
      </trkpt>
      <trkpt lat="47.27272" lon="-2.46243">
        <ele>-13.800000190735</ele>
        <time>2020-09-03T08:20:21.000Z</time>
      </trkpt>
      <trkpt lat="47.27291" lon="-2.46286">
        <ele>-13.800000190735</ele>
        <time>2020-09-03T08:20:29.000Z</time>
      </trkpt>
      <trkpt lat="47.27299" lon="-2.46307">
        <ele>-13.800000190735</ele>
        <time>2020-09-03T08:20:35.000Z</time>
      </trkpt>
      <trkpt lat="47.273" lon="-2.4631">
        <ele>-14.199999809265</ele>
        <time>2020-09-03T08:20:36.000Z</time>
      </trkpt>
      <trkpt lat="47.27302" lon="-2.46312">
        <ele>-14.60000038147</ele>
        <time>2020-09-03T08:20:37.000Z</time>
      </trkpt>
      <trkpt lat="47.27303" lon="-2.46315">
        <ele>-15</ele>
        <time>2020-09-03T08:20:38.000Z</time>
      </trkpt>
      <trkpt lat="47.27304" lon="-2.46317">
        <ele>-15.39999961853</ele>
        <time>2020-09-03T08:20:39.000Z</time>
      </trkpt>
      <trkpt lat="47.27304" lon="-2.46319">
        <ele>-15.800000190735</ele>
        <time>2020-09-03T08:20:40.000Z</time>
      </trkpt>
      <trkpt lat="47.27305" lon="-2.46322">
        <ele>-15.800000190735</ele>
        <time>2020-09-03T08:20:42.000Z</time>
      </trkpt>
      <trkpt lat="47.27305" lon="-2.46322">
        <ele>-15.800000190735</ele>
        <time>2020-09-03T08:20:44.000Z</time>
      </trkpt>
      <trkpt lat="47.27306" lon="-2.46327">
        <ele>-15.800000190735</ele>
        <time>2020-09-03T08:22:49.000Z</time>
      </trkpt>
      <trkpt lat="47.27307" lon="-2.46329">
        <ele>-15.800000190735</ele>
        <time>2020-09-03T08:22:50.000Z</time>
      </trkpt>
      <trkpt lat="47.27312" lon="-2.46344">
        <ele>-15.800000190735</ele>
        <time>2020-09-03T08:22:56.000Z</time>
      </trkpt>
      <trkpt lat="47.27321" lon="-2.46368">
        <ele>-15.800000190735</ele>
        <time>2020-09-03T08:23:03.000Z</time>
      </trkpt>
      <trkpt lat="47.27338" lon="-2.4641">
        <ele>-15.800000190735</ele>
        <time>2020-09-03T08:23:12.000Z</time>
      </trkpt>
      <trkpt lat="47.27354" lon="-2.46455">
        <ele>-15.800000190735</ele>
        <time>2020-09-03T08:23:20.000Z</time>
      </trkpt>
      <trkpt lat="47.2737" lon="-2.46502">
        <ele>-15.800000190735</ele>
        <time>2020-09-03T08:23:28.000Z</time>
      </trkpt>
      <trkpt lat="47.27379" lon="-2.46526">
        <ele>-15.39999961853</ele>
        <time>2020-09-03T08:23:32.000Z</time>
      </trkpt>
      <trkpt lat="47.27381" lon="-2.46532">
        <ele>-15</ele>
        <time>2020-09-03T08:23:33.000Z</time>
      </trkpt>
      <trkpt lat="47.27383" lon="-2.46538">
        <ele>-14.60000038147</ele>
        <time>2020-09-03T08:23:34.000Z</time>
      </trkpt>
      <trkpt lat="47.27385" lon="-2.46544">
        <ele>-14.199999809265</ele>
        <time>2020-09-03T08:23:35.000Z</time>
      </trkpt>
      <trkpt lat="47.27386" lon="-2.46551">
        <ele>-13.800000190735</ele>
        <time>2020-09-03T08:23:36.000Z</time>
      </trkpt>
      <trkpt lat="47.27397" lon="-2.46592">
        <ele>-13.800000190735</ele>
        <time>2020-09-03T08:23:42.000Z</time>
      </trkpt>
      <trkpt lat="47.27415" lon="-2.46652">
        <ele>-13.800000190735</ele>
        <time>2020-09-03T08:23:51.000Z</time>
      </trkpt>
      <trkpt lat="47.27429" lon="-2.46701">
        <ele>-13.800000190735</ele>
        <time>2020-09-03T08:23:58.000Z</time>
      </trkpt>
      <trkpt lat="47.27448" lon="-2.46762">
        <ele>-13.800000190735</ele>
        <time>2020-09-03T08:24:07.000Z</time>
      </trkpt>
      <trkpt lat="47.27464" lon="-2.46821">
        <ele>-13.800000190735</ele>
        <time>2020-09-03T08:24:16.000Z</time>
      </trkpt>
      <trkpt lat="47.27466" lon="-2.46826">
        <ele>-13.800000190735</ele>
        <time>2020-09-03T08:24:17.000Z</time>
      </trkpt>
      <trkpt lat="47.27481" lon="-2.46872">
        <ele>-13.800000190735</ele>
        <time>2020-09-03T08:24:24.000Z</time>
      </trkpt>
      <trkpt lat="47.27486" lon="-2.46893">
        <ele>-13.800000190735</ele>
        <time>2020-09-03T08:24:27.000Z</time>
      </trkpt>
      <trkpt lat="47.27487" lon="-2.46907">
        <ele>-13.800000190735</ele>
        <time>2020-09-03T08:24:29.000Z</time>
      </trkpt>
      <trkpt lat="47.27485" lon="-2.46914">
        <ele>-13.800000190735</ele>
        <time>2020-09-03T08:24:30.000Z</time>
      </trkpt>
      <trkpt lat="47.2748" lon="-2.46926">
        <ele>-13.39999961853</ele>
        <time>2020-09-03T08:24:32.000Z</time>
      </trkpt>
      <trkpt lat="47.27476" lon="-2.46931">
        <ele>-13</ele>
        <time>2020-09-03T08:24:33.000Z</time>
      </trkpt>
      <trkpt lat="47.27472" lon="-2.46935">
        <ele>-12.60000038147</ele>
        <time>2020-09-03T08:24:34.000Z</time>
      </trkpt>
      <trkpt lat="47.27468" lon="-2.46938">
        <ele>-11.800000190735</ele>
        <time>2020-09-03T08:24:35.000Z</time>
      </trkpt>
      <trkpt lat="47.27455" lon="-2.46946">
        <ele>-11.800000190735</ele>
        <time>2020-09-03T08:24:38.000Z</time>
      </trkpt>
      <trkpt lat="47.27451" lon="-2.46949">
        <ele>-11.800000190735</ele>
        <time>2020-09-03T08:24:39.000Z</time>
      </trkpt>
      <trkpt lat="47.27447" lon="-2.46951">
        <ele>-11.800000190735</ele>
        <time>2020-09-03T08:24:40.000Z</time>
      </trkpt>
      <trkpt lat="47.27439" lon="-2.46966">
        <ele>-11.800000190735</ele>
        <time>2020-09-03T08:24:43.000Z</time>
      </trkpt>
      <trkpt lat="47.27439" lon="-2.46987">
        <ele>-11.800000190735</ele>
        <time>2020-09-03T08:24:46.000Z</time>
      </trkpt>
      <trkpt lat="47.27445" lon="-2.47009">
        <ele>-11.800000190735</ele>
        <time>2020-09-03T08:24:49.000Z</time>
      </trkpt>
      <trkpt lat="47.27448" lon="-2.47017">
        <ele>-11.800000190735</ele>
        <time>2020-09-03T08:24:50.000Z</time>
      </trkpt>
      <trkpt lat="47.27472" lon="-2.47084">
        <ele>-11.800000190735</ele>
        <time>2020-09-03T08:24:59.000Z</time>
      </trkpt>
      <trkpt lat="47.27494" lon="-2.47154">
        <ele>-11.800000190735</ele>
        <time>2020-09-03T08:25:08.000Z</time>
      </trkpt>
      <trkpt lat="47.27502" lon="-2.47175">
        <ele>-12.199999809265</ele>
        <time>2020-09-03T08:25:11.000Z</time>
      </trkpt>
      <trkpt lat="47.27505" lon="-2.47183">
        <ele>-12.60000038147</ele>
        <time>2020-09-03T08:25:12.000Z</time>
      </trkpt>
      <trkpt lat="47.27508" lon="-2.4719">
        <ele>-13</ele>
        <time>2020-09-03T08:25:13.000Z</time>
      </trkpt>
      <trkpt lat="47.2751" lon="-2.47197">
        <ele>-13.39999961853</ele>
        <time>2020-09-03T08:25:14.000Z</time>
      </trkpt>
      <trkpt lat="47.27513" lon="-2.47204">
        <ele>-13.800000190735</ele>
        <time>2020-09-03T08:25:15.000Z</time>
      </trkpt>
      <trkpt lat="47.2753" lon="-2.47255">
        <ele>-13.800000190735</ele>
        <time>2020-09-03T08:25:22.000Z</time>
      </trkpt>
      <trkpt lat="47.2755" lon="-2.47303">
        <ele>-13.800000190735</ele>
        <time>2020-09-03T08:25:29.000Z</time>
      </trkpt>
      <trkpt lat="47.27574" lon="-2.47357">
        <ele>-13.800000190735</ele>
        <time>2020-09-03T08:25:37.000Z</time>
      </trkpt>
      <trkpt lat="47.27588" lon="-2.4739">
        <ele>-13.800000190735</ele>
        <time>2020-09-03T08:25:42.000Z</time>
      </trkpt>
      <trkpt lat="47.27593" lon="-2.47409">
        <ele>-13.800000190735</ele>
        <time>2020-09-03T08:25:45.000Z</time>
      </trkpt>
      <trkpt lat="47.27606" lon="-2.47448">
        <ele>-13.800000190735</ele>
        <time>2020-09-03T08:25:51.000Z</time>
      </trkpt>
      <trkpt lat="47.2762" lon="-2.47496">
        <ele>-13.800000190735</ele>
        <time>2020-09-03T08:25:58.000Z</time>
      </trkpt>
      <trkpt lat="47.27637" lon="-2.47547">
        <ele>-13.800000190735</ele>
        <time>2020-09-03T08:26:06.000Z</time>
      </trkpt>
      <trkpt lat="47.27656" lon="-2.47597">
        <ele>-13.800000190735</ele>
        <time>2020-09-03T08:26:14.000Z</time>
      </trkpt>
      <trkpt lat="47.27668" lon="-2.47627">
        <ele>-13.800000190735</ele>
        <time>2020-09-03T08:26:19.000Z</time>
      </trkpt>
      <trkpt lat="47.27673" lon="-2.47638">
        <ele>-13.800000190735</ele>
        <time>2020-09-03T08:26:21.000Z</time>
      </trkpt>
      <trkpt lat="47.27675" lon="-2.47643">
        <ele>-13.800000190735</ele>
        <time>2020-09-03T08:26:22.000Z</time>
      </trkpt>
      <trkpt lat="47.27678" lon="-2.47655">
        <ele>-13.800000190735</ele>
        <time>2020-09-03T08:26:24.000Z</time>
      </trkpt>
      <trkpt lat="47.27681" lon="-2.47666">
        <ele>-13.800000190735</ele>
        <time>2020-09-03T08:26:26.000Z</time>
      </trkpt>
      <trkpt lat="47.27683" lon="-2.47684">
        <ele>-13.800000190735</ele>
        <time>2020-09-03T08:26:29.000Z</time>
      </trkpt>
      <trkpt lat="47.27684" lon="-2.47695">
        <ele>-13.39999961853</ele>
        <time>2020-09-03T08:26:31.000Z</time>
      </trkpt>
      <trkpt lat="47.27685" lon="-2.477">
        <ele>-13</ele>
        <time>2020-09-03T08:26:32.000Z</time>
      </trkpt>
      <trkpt lat="47.27686" lon="-2.47705">
        <ele>-12.60000038147</ele>
        <time>2020-09-03T08:26:33.000Z</time>
      </trkpt>
      <trkpt lat="47.27686" lon="-2.47709">
        <ele>-12.199999809265</ele>
        <time>2020-09-03T08:26:34.000Z</time>
      </trkpt>
      <trkpt lat="47.27686" lon="-2.47714">
        <ele>-11.800000190735</ele>
        <time>2020-09-03T08:26:35.000Z</time>
      </trkpt>
      <trkpt lat="47.27689" lon="-2.4774">
        <ele>-11.800000190735</ele>
        <time>2020-09-03T08:26:40.000Z</time>
      </trkpt>
      <trkpt lat="47.27697" lon="-2.47781">
        <ele>-11.800000190735</ele>
        <time>2020-09-03T08:26:47.000Z</time>
      </trkpt>
      <trkpt lat="47.27706" lon="-2.47822">
        <ele>-11.800000190735</ele>
        <time>2020-09-03T08:26:54.000Z</time>
      </trkpt>
      <trkpt lat="47.27712" lon="-2.47864">
        <ele>-11.800000190735</ele>
        <time>2020-09-03T08:27:01.000Z</time>
      </trkpt>
      <trkpt lat="47.27711" lon="-2.47892">
        <ele>-11.800000190735</ele>
        <time>2020-09-03T08:27:06.000Z</time>
      </trkpt>
      <trkpt lat="47.27712" lon="-2.47898">
        <ele>-11.39999961853</ele>
        <time>2020-09-03T08:27:07.000Z</time>
      </trkpt>
      <trkpt lat="47.27713" lon="-2.47903">
        <ele>-11</ele>
        <time>2020-09-03T08:27:08.000Z</time>
      </trkpt>
      <trkpt lat="47.27714" lon="-2.47908">
        <ele>-10.60000038147</ele>
        <time>2020-09-03T08:27:09.000Z</time>
      </trkpt>
      <trkpt lat="47.27714" lon="-2.47913">
        <ele>-10.199999809265</ele>
        <time>2020-09-03T08:27:10.000Z</time>
      </trkpt>
      <trkpt lat="47.27715" lon="-2.47918">
        <ele>-9.8000001907349</ele>
        <time>2020-09-03T08:27:11.000Z</time>
      </trkpt>
      <trkpt lat="47.27715" lon="-2.47922">
        <ele>-9.8000001907349</ele>
        <time>2020-09-03T08:27:12.000Z</time>
      </trkpt>
      <trkpt lat="47.27722" lon="-2.47938">
        <ele>-9.8000001907349</ele>
        <time>2020-09-03T08:27:16.000Z</time>
      </trkpt>
      <trkpt lat="47.27723" lon="-2.47949">
        <ele>-9.8000001907349</ele>
        <time>2020-09-03T08:27:19.000Z</time>
      </trkpt>
      <trkpt lat="47.27722" lon="-2.47951">
        <ele>-9.8000001907349</ele>
        <time>2020-09-03T08:27:20.000Z</time>
      </trkpt>
      <trkpt lat="47.27715" lon="-2.47965">
        <ele>-9.8000001907349</ele>
        <time>2020-09-03T08:27:26.000Z</time>
      </trkpt>
      <trkpt lat="47.27713" lon="-2.47971">
        <ele>-9.3999996185303</ele>
        <time>2020-09-03T08:27:28.000Z</time>
      </trkpt>
      <trkpt lat="47.27712" lon="-2.47974">
        <ele>-9</ele>
        <time>2020-09-03T08:27:29.000Z</time>
      </trkpt>
      <trkpt lat="47.27711" lon="-2.47978">
        <ele>-8.6000003814697</ele>
        <time>2020-09-03T08:27:30.000Z</time>
      </trkpt>
      <trkpt lat="47.27711" lon="-2.47982">
        <ele>-8.1999998092651</ele>
        <time>2020-09-03T08:27:31.000Z</time>
      </trkpt>
      <trkpt lat="47.27711" lon="-2.47987">
        <ele>-7.8000001907349</ele>
        <time>2020-09-03T08:27:32.000Z</time>
      </trkpt>
      <trkpt lat="47.27711" lon="-2.47992">
        <ele>-7.8000001907349</ele>
        <time>2020-09-03T08:27:33.000Z</time>
      </trkpt>
      <trkpt lat="47.2771" lon="-2.48004">
        <ele>-7.8000001907349</ele>
        <time>2020-09-03T08:27:36.000Z</time>
      </trkpt>
      <trkpt lat="47.27706" lon="-2.48008">
        <ele>-7.8000001907349</ele>
        <time>2020-09-03T08:27:38.000Z</time>
      </trkpt>
      <trkpt lat="47.2769" lon="-2.48024">
        <ele>-7.8000001907349</ele>
        <time>2020-09-03T08:27:45.000Z</time>
      </trkpt>
      <trkpt lat="47.27694" lon="-2.48041">
        <ele>-7.8000001907349</ele>
        <time>2020-09-03T08:27:50.000Z</time>
      </trkpt>
      <trkpt lat="47.27698" lon="-2.48065">
        <ele>-7.8000001907349</ele>
        <time>2020-09-03T08:27:57.000Z</time>
      </trkpt>
      <trkpt lat="47.27703" lon="-2.48087">
        <ele>-7.8000001907349</ele>
        <time>2020-09-03T08:28:04.000Z</time>
      </trkpt>
      <trkpt lat="47.27711" lon="-2.48097">
        <ele>-7.8000001907349</ele>
        <time>2020-09-03T08:28:10.000Z</time>
      </trkpt>
      <trkpt lat="47.27712" lon="-2.48099">
        <ele>-7.1999998092651</ele>
        <time>2020-09-03T08:28:11.000Z</time>
      </trkpt>
      <trkpt lat="47.27714" lon="-2.48101">
        <ele>-6.8000001907349</ele>
        <time>2020-09-03T08:28:12.000Z</time>
      </trkpt>
      <trkpt lat="47.27715" lon="-2.48103">
        <ele>-6.4000000953674</ele>
        <time>2020-09-03T08:28:13.000Z</time>
      </trkpt>
      <trkpt lat="47.27716" lon="-2.48106">
        <ele>-6</ele>
        <time>2020-09-03T08:28:14.000Z</time>
      </trkpt>
      <trkpt lat="47.27718" lon="-2.48108">
        <ele>-5.5999999046326</ele>
        <time>2020-09-03T08:28:15.000Z</time>
      </trkpt>
      <trkpt lat="47.27722" lon="-2.48115">
        <ele>-5.1999998092651</ele>
        <time>2020-09-03T08:28:18.000Z</time>
      </trkpt>
      <trkpt lat="47.27723" lon="-2.48117">
        <ele>-4.8000001907349</ele>
        <time>2020-09-03T08:28:19.000Z</time>
      </trkpt>
      <trkpt lat="47.27724" lon="-2.4812">
        <ele>-4.4000000953674</ele>
        <time>2020-09-03T08:28:20.000Z</time>
      </trkpt>
      <trkpt lat="47.27724" lon="-2.48123">
        <ele>-4</ele>
        <time>2020-09-03T08:28:21.000Z</time>
      </trkpt>
      <trkpt lat="47.27723" lon="-2.48127">
        <ele>-3.5999999046326</ele>
        <time>2020-09-03T08:28:22.000Z</time>
      </trkpt>
      <trkpt lat="47.27723" lon="-2.48131">
        <ele>-3.5999999046326</ele>
        <time>2020-09-03T08:28:23.000Z</time>
      </trkpt>
      <trkpt lat="47.2772" lon="-2.48149">
        <ele>-3.5999999046326</ele>
        <time>2020-09-03T08:28:28.000Z</time>
      </trkpt>
      <trkpt lat="47.2772" lon="-2.48152">
        <ele>-3.5999999046326</ele>
        <time>2020-09-03T08:28:29.000Z</time>
      </trkpt>
      <trkpt lat="47.27718" lon="-2.48161">
        <ele>-3.5999999046326</ele>
        <time>2020-09-03T08:28:33.000Z</time>
      </trkpt>
      <trkpt lat="47.27718" lon="-2.48177">
        <ele>-4</ele>
        <time>2020-09-03T08:28:36.000Z</time>
      </trkpt>
      <trkpt lat="47.27719" lon="-2.48186">
        <ele>-4.5999999046326</ele>
        <time>2020-09-03T08:28:37.000Z</time>
      </trkpt>
      <trkpt lat="47.27721" lon="-2.48192">
        <ele>-5</ele>
        <time>2020-09-03T08:28:38.000Z</time>
      </trkpt>
      <trkpt lat="47.27724" lon="-2.48199">
        <ele>-5.8000001907349</ele>
        <time>2020-09-03T08:28:39.000Z</time>
      </trkpt>
      <trkpt lat="47.27727" lon="-2.48205">
        <ele>-6.4000000953674</ele>
        <time>2020-09-03T08:28:40.000Z</time>
      </trkpt>
      <trkpt lat="47.27744" lon="-2.48233">
        <ele>-9.6000003814697</ele>
        <time>2020-09-03T08:28:41.000Z</time>
      </trkpt>
      <trkpt lat="47.27748" lon="-2.4824">
        <ele>-10</ele>
        <time>2020-09-03T08:28:45.000Z</time>
      </trkpt>
      <trkpt lat="47.27751" lon="-2.48245">
        <ele>-10.60000038147</ele>
        <time>2020-09-03T08:28:46.000Z</time>
      </trkpt>
      <trkpt lat="47.27753" lon="-2.4825">
        <ele>-10.60000038147</ele>
        <time>2020-09-03T08:28:47.000Z</time>
      </trkpt>
      <trkpt lat="47.27755" lon="-2.48254">
        <ele>-11</ele>
        <time>2020-09-03T08:28:48.000Z</time>
      </trkpt>
      <trkpt lat="47.27755" lon="-2.48258">
        <ele>-11.39999961853</ele>
        <time>2020-09-03T08:28:49.000Z</time>
      </trkpt>
      <trkpt lat="47.27755" lon="-2.48262">
        <ele>-12</ele>
        <time>2020-09-03T08:28:50.000Z</time>
      </trkpt>
      <trkpt lat="47.27755" lon="-2.48264">
        <ele>-12.39999961853</ele>
        <time>2020-09-03T08:28:51.000Z</time>
      </trkpt>
      <trkpt lat="47.27753" lon="-2.48265">
        <ele>-12.800000190735</ele>
        <time>2020-09-03T08:28:52.000Z</time>
      </trkpt>
      <trkpt lat="47.27748" lon="-2.48266">
        <ele>-12.800000190735</ele>
        <time>2020-09-03T08:28:54.000Z</time>
      </trkpt>
      <trkpt lat="47.27741" lon="-2.48277">
        <ele>-12.800000190735</ele>
        <time>2020-09-03T08:28:58.000Z</time>
      </trkpt>
      <trkpt lat="47.27732" lon="-2.4829">
        <ele>-12.800000190735</ele>
        <time>2020-09-03T08:29:02.000Z</time>
      </trkpt>
      <trkpt lat="47.27715" lon="-2.48293">
        <ele>-12.800000190735</ele>
        <time>2020-09-03T08:29:07.000Z</time>
      </trkpt>
      <trkpt lat="47.27704" lon="-2.4829">
        <ele>-12.800000190735</ele>
        <time>2020-09-03T08:29:13.000Z</time>
      </trkpt>
      <trkpt lat="47.27703" lon="-2.48289">
        <ele>-12.800000190735</ele>
        <time>2020-09-03T08:29:14.000Z</time>
      </trkpt>
      <trkpt lat="47.27697" lon="-2.48291">
        <ele>-12.800000190735</ele>
        <time>2020-09-03T08:29:18.000Z</time>
      </trkpt>
      <trkpt lat="47.27695" lon="-2.48293">
        <ele>-12.800000190735</ele>
        <time>2020-09-03T08:29:21.000Z</time>
      </trkpt>
      <trkpt lat="47.27691" lon="-2.48299">
        <ele>-12.800000190735</ele>
        <time>2020-09-03T08:29:24.000Z</time>
      </trkpt>
      <trkpt lat="47.27686" lon="-2.48305">
        <ele>-12.800000190735</ele>
        <time>2020-09-03T08:29:27.000Z</time>
      </trkpt>
      <trkpt lat="47.27677" lon="-2.48311">
        <ele>-12.800000190735</ele>
        <time>2020-09-03T08:29:30.000Z</time>
      </trkpt>
      <trkpt lat="47.27659" lon="-2.48319">
        <ele>-12.800000190735</ele>
        <time>2020-09-03T08:29:36.000Z</time>
      </trkpt>
      <trkpt lat="47.27649" lon="-2.48326">
        <ele>-12.800000190735</ele>
        <time>2020-09-03T08:29:40.000Z</time>
      </trkpt>
      <trkpt lat="47.27647" lon="-2.48329">
        <ele>-12.800000190735</ele>
        <time>2020-09-03T08:29:41.000Z</time>
      </trkpt>
      <trkpt lat="47.27648" lon="-2.48348">
        <ele>-12.800000190735</ele>
        <time>2020-09-03T08:29:45.000Z</time>
      </trkpt>
      <trkpt lat="47.27647" lon="-2.48357">
        <ele>-12.800000190735</ele>
        <time>2020-09-03T08:29:47.000Z</time>
      </trkpt>
      <trkpt lat="47.27644" lon="-2.4836">
        <ele>-12.800000190735</ele>
        <time>2020-09-03T08:29:48.000Z</time>
      </trkpt>
      <trkpt lat="47.27633" lon="-2.48372">
        <ele>-12.800000190735</ele>
        <time>2020-09-03T08:29:51.000Z</time>
      </trkpt>
      <trkpt lat="47.2763" lon="-2.48375">
        <ele>-12.800000190735</ele>
        <time>2020-09-03T08:29:52.000Z</time>
      </trkpt>
      <trkpt lat="47.27627" lon="-2.48377">
        <ele>-12.800000190735</ele>
        <time>2020-09-03T08:29:53.000Z</time>
      </trkpt>
      <trkpt lat="47.27621" lon="-2.48373">
        <ele>-12.800000190735</ele>
        <time>2020-09-03T08:29:55.000Z</time>
      </trkpt>
      <trkpt lat="47.27616" lon="-2.48351">
        <ele>-12.800000190735</ele>
        <time>2020-09-03T08:30:00.000Z</time>
      </trkpt>
      <trkpt lat="47.27614" lon="-2.48347">
        <ele>-12.800000190735</ele>
        <time>2020-09-03T08:30:01.000Z</time>
      </trkpt>
      <trkpt lat="47.27605" lon="-2.48319">
        <ele>-12.800000190735</ele>
        <time>2020-09-03T08:30:07.000Z</time>
      </trkpt>
      <trkpt lat="47.27602" lon="-2.48317">
        <ele>-12.800000190735</ele>
        <time>2020-09-03T08:30:08.000Z</time>
      </trkpt>
      <trkpt lat="47.27596" lon="-2.48319">
        <ele>-12.800000190735</ele>
        <time>2020-09-03T08:30:10.000Z</time>
      </trkpt>
      <trkpt lat="47.27585" lon="-2.48324">
        <ele>-12.800000190735</ele>
        <time>2020-09-03T08:30:13.000Z</time>
      </trkpt>
      <trkpt lat="47.27575" lon="-2.4833">
        <ele>-12.800000190735</ele>
        <time>2020-09-03T08:30:16.000Z</time>
      </trkpt>
      <trkpt lat="47.27558" lon="-2.48338">
        <ele>-12.800000190735</ele>
        <time>2020-09-03T08:30:22.000Z</time>
      </trkpt>
      <trkpt lat="47.27557" lon="-2.4834">
        <ele>-12.800000190735</ele>
        <time>2020-09-03T08:30:23.000Z</time>
      </trkpt>
      <trkpt lat="47.27557" lon="-2.48346">
        <ele>-12.800000190735</ele>
        <time>2020-09-03T08:30:25.000Z</time>
      </trkpt>
      <trkpt lat="47.27559" lon="-2.48356">
        <ele>-12.800000190735</ele>
        <time>2020-09-03T08:30:27.000Z</time>
      </trkpt>
      <trkpt lat="47.27562" lon="-2.48368">
        <ele>-12.800000190735</ele>
        <time>2020-09-03T08:30:29.000Z</time>
      </trkpt>
      <trkpt lat="47.27571" lon="-2.4841">
        <ele>-12.800000190735</ele>
        <time>2020-09-03T08:30:35.000Z</time>
      </trkpt>
      <trkpt lat="47.27577" lon="-2.48458">
        <ele>-12.800000190735</ele>
        <time>2020-09-03T08:30:43.000Z</time>
      </trkpt>
      <trkpt lat="47.2758" lon="-2.48501">
        <ele>-12.800000190735</ele>
        <time>2020-09-03T08:30:49.000Z</time>
      </trkpt>
      <trkpt lat="47.27583" lon="-2.48537">
        <ele>-12.800000190735</ele>
        <time>2020-09-03T08:30:54.000Z</time>
      </trkpt>
      <trkpt lat="47.27581" lon="-2.48543">
        <ele>-12.800000190735</ele>
        <time>2020-09-03T08:30:55.000Z</time>
      </trkpt>
      <trkpt lat="47.2757" lon="-2.48549">
        <ele>-12.800000190735</ele>
        <time>2020-09-03T08:30:58.000Z</time>
      </trkpt>
      <trkpt lat="47.27543" lon="-2.48553">
        <ele>-12.800000190735</ele>
        <time>2020-09-03T08:31:05.000Z</time>
      </trkpt>
      <trkpt lat="47.27526" lon="-2.48557">
        <ele>-12.800000190735</ele>
        <time>2020-09-03T08:31:10.000Z</time>
      </trkpt>
      <trkpt lat="47.2752" lon="-2.48556">
        <ele>-12.800000190735</ele>
        <time>2020-09-03T08:31:13.000Z</time>
      </trkpt>
      <trkpt lat="47.27516" lon="-2.48559">
        <ele>-12.800000190735</ele>
        <time>2020-09-03T08:31:15.000Z</time>
      </trkpt>
      <trkpt lat="47.27505" lon="-2.48573">
        <ele>-12.800000190735</ele>
        <time>2020-09-03T08:31:21.000Z</time>
      </trkpt>
      <trkpt lat="47.27504" lon="-2.48577">
        <ele>-13.199999809265</ele>
        <time>2020-09-03T08:31:22.000Z</time>
      </trkpt>
      <trkpt lat="47.27503" lon="-2.48582">
        <ele>-13.800000190735</ele>
        <time>2020-09-03T08:31:23.000Z</time>
      </trkpt>
      <trkpt lat="47.27503" lon="-2.48586">
        <ele>-14.199999809265</ele>
        <time>2020-09-03T08:31:24.000Z</time>
      </trkpt>
      <trkpt lat="47.27503" lon="-2.4859">
        <ele>-14.60000038147</ele>
        <time>2020-09-03T08:31:25.000Z</time>
      </trkpt>
      <trkpt lat="47.27504" lon="-2.48593">
        <ele>-15.199999809265</ele>
        <time>2020-09-03T08:31:26.000Z</time>
      </trkpt>
      <trkpt lat="47.27505" lon="-2.48607">
        <ele>-15.199999809265</ele>
        <time>2020-09-03T08:31:30.000Z</time>
      </trkpt>
      <trkpt lat="47.27501" lon="-2.4863">
        <ele>-15.199999809265</ele>
        <time>2020-09-03T08:31:36.000Z</time>
      </trkpt>
      <trkpt lat="47.27496" lon="-2.48635">
        <ele>-15.199999809265</ele>
        <time>2020-09-03T08:31:39.000Z</time>
      </trkpt>
      <trkpt lat="47.27493" lon="-2.48633">
        <ele>-15.199999809265</ele>
        <time>2020-09-03T08:31:40.000Z</time>
      </trkpt>
      <trkpt lat="47.27487" lon="-2.48621">
        <ele>-15.199999809265</ele>
        <time>2020-09-03T08:31:44.000Z</time>
      </trkpt>
      <trkpt lat="47.27485" lon="-2.48614">
        <ele>-15.199999809265</ele>
        <time>2020-09-03T08:31:46.000Z</time>
      </trkpt>
      <trkpt lat="47.27484" lon="-2.48611">
        <ele>-15.199999809265</ele>
        <time>2020-09-03T08:31:47.000Z</time>
      </trkpt>
      <trkpt lat="47.27479" lon="-2.48609">
        <ele>-15.199999809265</ele>
        <time>2020-09-03T08:31:49.000Z</time>
      </trkpt>
      <trkpt lat="47.27475" lon="-2.4861">
        <ele>-15.199999809265</ele>
        <time>2020-09-03T08:31:51.000Z</time>
      </trkpt>
      <trkpt lat="47.27468" lon="-2.48609">
        <ele>-15.199999809265</ele>
        <time>2020-09-03T08:31:54.000Z</time>
      </trkpt>
      <trkpt lat="47.27459" lon="-2.48609">
        <ele>-15.199999809265</ele>
        <time>2020-09-03T08:31:58.000Z</time>
      </trkpt>
      <trkpt lat="47.27456" lon="-2.48611">
        <ele>-15.199999809265</ele>
        <time>2020-09-03T08:31:59.000Z</time>
      </trkpt>
      <trkpt lat="47.27448" lon="-2.48627">
        <ele>-15.199999809265</ele>
        <time>2020-09-03T08:32:04.000Z</time>
      </trkpt>
      <trkpt lat="47.27445" lon="-2.48633">
        <ele>-15.199999809265</ele>
        <time>2020-09-03T08:32:07.000Z</time>
      </trkpt>
      <trkpt lat="47.27451" lon="-2.48636">
        <ele>-15.199999809265</ele>
        <time>2020-09-03T08:38:15.000Z</time>
      </trkpt>
      <trkpt lat="47.27459" lon="-2.48634">
        <ele>-15.199999809265</ele>
        <time>2020-09-03T08:38:21.000Z</time>
      </trkpt>
      <trkpt lat="47.27461" lon="-2.48634">
        <ele>-15.199999809265</ele>
        <time>2020-09-03T08:38:22.000Z</time>
      </trkpt>
      <trkpt lat="47.27468" lon="-2.48635">
        <ele>-15.199999809265</ele>
        <time>2020-09-03T08:38:26.000Z</time>
      </trkpt>
      <trkpt lat="47.27469" lon="-2.48637">
        <ele>-15.199999809265</ele>
        <time>2020-09-03T08:38:27.000Z</time>
      </trkpt>
      <trkpt lat="47.27477" lon="-2.4865">
        <ele>-15.199999809265</ele>
        <time>2020-09-03T08:38:33.000Z</time>
      </trkpt>
      <trkpt lat="47.27482" lon="-2.4867">
        <ele>-15.199999809265</ele>
        <time>2020-09-03T08:38:40.000Z</time>
      </trkpt>
      <trkpt lat="47.27486" lon="-2.48681">
        <ele>-15.199999809265</ele>
        <time>2020-09-03T08:38:47.000Z</time>
      </trkpt>
      <trkpt lat="47.27494" lon="-2.48688">
        <ele>-15.199999809265</ele>
        <time>2020-09-03T08:38:52.000Z</time>
      </trkpt>
      <trkpt lat="47.27507" lon="-2.48696">
        <ele>-15.199999809265</ele>
        <time>2020-09-03T08:38:59.000Z</time>
      </trkpt>
      <trkpt lat="47.27521" lon="-2.48698">
        <ele>-15.199999809265</ele>
        <time>2020-09-03T08:39:06.000Z</time>
      </trkpt>
      <trkpt lat="47.27526" lon="-2.48701">
        <ele>-15.199999809265</ele>
        <time>2020-09-03T08:39:09.000Z</time>
      </trkpt>
      <trkpt lat="47.27528" lon="-2.48703">
        <ele>-15.199999809265</ele>
        <time>2020-09-03T08:39:10.000Z</time>
      </trkpt>
      <trkpt lat="47.27532" lon="-2.48717">
        <ele>-15.199999809265</ele>
        <time>2020-09-03T08:39:14.000Z</time>
      </trkpt>
      <trkpt lat="47.27535" lon="-2.48724">
        <ele>-15.199999809265</ele>
        <time>2020-09-03T08:39:16.000Z</time>
      </trkpt>
      <trkpt lat="47.27536" lon="-2.48733">
        <ele>-15.199999809265</ele>
        <time>2020-09-03T08:39:19.000Z</time>
      </trkpt>
      <trkpt lat="47.27534" lon="-2.48738">
        <ele>-15.199999809265</ele>
        <time>2020-09-03T08:39:21.000Z</time>
      </trkpt>
      <trkpt lat="47.27534" lon="-2.48742">
        <ele>-15.199999809265</ele>
        <time>2020-09-03T08:39:22.000Z</time>
      </trkpt>
      <trkpt lat="47.27537" lon="-2.48747">
        <ele>-15.199999809265</ele>
        <time>2020-09-03T08:39:24.000Z</time>
      </trkpt>
      <trkpt lat="47.27541" lon="-2.4876">
        <ele>-15.199999809265</ele>
        <time>2020-09-03T08:39:27.000Z</time>
      </trkpt>
      <trkpt lat="47.27542" lon="-2.48765">
        <ele>-15.199999809265</ele>
        <time>2020-09-03T08:39:28.000Z</time>
      </trkpt>
      <trkpt lat="47.27543" lon="-2.48772">
        <ele>-15.199999809265</ele>
        <time>2020-09-03T08:39:29.000Z</time>
      </trkpt>
      <trkpt lat="47.27541" lon="-2.48787">
        <ele>-15.199999809265</ele>
        <time>2020-09-03T08:39:31.000Z</time>
      </trkpt>
      <trkpt lat="47.27535" lon="-2.48828">
        <ele>-15.199999809265</ele>
        <time>2020-09-03T08:39:37.000Z</time>
      </trkpt>
      <trkpt lat="47.27534" lon="-2.48834">
        <ele>-15.199999809265</ele>
        <time>2020-09-03T08:39:38.000Z</time>
      </trkpt>
      <trkpt lat="47.27523" lon="-2.48871">
        <ele>-15.199999809265</ele>
        <time>2020-09-03T08:39:45.000Z</time>
      </trkpt>
      <trkpt lat="47.27519" lon="-2.48896">
        <ele>-15.199999809265</ele>
        <time>2020-09-03T08:39:51.000Z</time>
      </trkpt>
      <trkpt lat="47.27518" lon="-2.48898">
        <ele>-15.199999809265</ele>
        <time>2020-09-03T08:39:52.000Z</time>
      </trkpt>
      <trkpt lat="47.27513" lon="-2.48904">
        <ele>-15.199999809265</ele>
        <time>2020-09-03T08:39:55.000Z</time>
      </trkpt>
      <trkpt lat="47.27503" lon="-2.48903">
        <ele>-15.199999809265</ele>
        <time>2020-09-03T08:40:00.000Z</time>
      </trkpt>
      <trkpt lat="47.27499" lon="-2.48905">
        <ele>-15.199999809265</ele>
        <time>2020-09-03T08:40:04.000Z</time>
      </trkpt>
      <trkpt lat="47.275" lon="-2.48906">
        <ele>-15.199999809265</ele>
        <time>2020-09-03T08:40:06.000Z</time>
      </trkpt>
      <trkpt lat="47.27502" lon="-2.48908">
        <ele>-15.199999809265</ele>
        <time>2020-09-03T08:40:08.000Z</time>
      </trkpt>
      <trkpt lat="47.27504" lon="-2.48908">
        <ele>-15.199999809265</ele>
        <time>2020-09-03T08:40:32.000Z</time>
      </trkpt>
      <trkpt lat="47.27509" lon="-2.48909">
        <ele>-15.199999809265</ele>
        <time>2020-09-03T08:40:35.000Z</time>
      </trkpt>
      <trkpt lat="47.2751" lon="-2.48909">
        <ele>-15.199999809265</ele>
        <time>2020-09-03T08:40:36.000Z</time>
      </trkpt>
      <trkpt lat="47.27511" lon="-2.48908">
        <ele>-15.199999809265</ele>
        <time>2020-09-03T08:40:42.000Z</time>
      </trkpt>
      <trkpt lat="47.27513" lon="-2.48907">
        <ele>-15.199999809265</ele>
        <time>2020-09-03T08:40:43.000Z</time>
      </trkpt>
      <trkpt lat="47.27519" lon="-2.48914">
        <ele>-15.199999809265</ele>
        <time>2020-09-03T08:40:47.000Z</time>
      </trkpt>
      <trkpt lat="47.2752" lon="-2.48918">
        <ele>-15.199999809265</ele>
        <time>2020-09-03T08:40:48.000Z</time>
      </trkpt>
      <trkpt lat="47.27526" lon="-2.4893">
        <ele>-15.199999809265</ele>
        <time>2020-09-03T08:40:51.000Z</time>
      </trkpt>
      <trkpt lat="47.27527" lon="-2.48935">
        <ele>-15.199999809265</ele>
        <time>2020-09-03T08:40:52.000Z</time>
      </trkpt>
      <trkpt lat="47.27528" lon="-2.48948">
        <ele>-15.199999809265</ele>
        <time>2020-09-03T08:40:55.000Z</time>
      </trkpt>
      <trkpt lat="47.27528" lon="-2.48952">
        <ele>-15.60000038147</ele>
        <time>2020-09-03T08:40:56.000Z</time>
      </trkpt>
      <trkpt lat="47.27528" lon="-2.48956">
        <ele>-16</ele>
        <time>2020-09-03T08:40:57.000Z</time>
      </trkpt>
      <trkpt lat="47.27528" lon="-2.4896">
        <ele>-16.39999961853</ele>
        <time>2020-09-03T08:40:58.000Z</time>
      </trkpt>
      <trkpt lat="47.27528" lon="-2.48965">
        <ele>-16.799999237061</ele>
        <time>2020-09-03T08:40:59.000Z</time>
      </trkpt>
      <trkpt lat="47.27528" lon="-2.48968">
        <ele>-17.200000762939</ele>
        <time>2020-09-03T08:41:00.000Z</time>
      </trkpt>
      <trkpt lat="47.27529" lon="-2.48969">
        <ele>-17.200000762939</ele>
        <time>2020-09-03T08:41:01.000Z</time>
      </trkpt>
      <trkpt lat="47.27529" lon="-2.4897">
        <ele>-17.200000762939</ele>
        <time>2020-09-03T08:41:04.000Z</time>
      </trkpt>
      <trkpt lat="47.2753" lon="-2.48976">
        <ele>-17.200000762939</ele>
        <time>2020-09-03T08:41:11.000Z</time>
      </trkpt>
      <trkpt lat="47.27532" lon="-2.48998">
        <ele>-17.200000762939</ele>
        <time>2020-09-03T08:41:20.000Z</time>
      </trkpt>
      <trkpt lat="47.27537" lon="-2.49017">
        <ele>-17.200000762939</ele>
        <time>2020-09-03T08:41:26.000Z</time>
      </trkpt>
      <trkpt lat="47.27538" lon="-2.49046">
        <ele>-17.200000762939</ele>
        <time>2020-09-03T08:41:33.000Z</time>
      </trkpt>
      <trkpt lat="47.27542" lon="-2.49079">
        <ele>-17.200000762939</ele>
        <time>2020-09-03T08:41:41.000Z</time>
      </trkpt>
      <trkpt lat="47.27548" lon="-2.49105">
        <ele>-17.200000762939</ele>
        <time>2020-09-03T08:41:46.000Z</time>
      </trkpt>
      <trkpt lat="47.27554" lon="-2.49105">
        <ele>-17.200000762939</ele>
        <time>2020-09-03T08:41:50.000Z</time>
      </trkpt>
      <trkpt lat="47.2756" lon="-2.49104">
        <ele>-17.200000762939</ele>
        <time>2020-09-03T08:41:55.000Z</time>
      </trkpt>
      <trkpt lat="47.27573" lon="-2.49103">
        <ele>-17.200000762939</ele>
        <time>2020-09-03T08:42:00.000Z</time>
      </trkpt>
      <trkpt lat="47.27585" lon="-2.49105">
        <ele>-17.200000762939</ele>
        <time>2020-09-03T08:42:05.000Z</time>
      </trkpt>
      <trkpt lat="47.27587" lon="-2.49107">
        <ele>-17.200000762939</ele>
        <time>2020-09-03T08:42:06.000Z</time>
      </trkpt>
      <trkpt lat="47.27593" lon="-2.49126">
        <ele>-17.200000762939</ele>
        <time>2020-09-03T08:42:10.000Z</time>
      </trkpt>
      <trkpt lat="47.27595" lon="-2.49131">
        <ele>-17.200000762939</ele>
        <time>2020-09-03T08:42:11.000Z</time>
      </trkpt>
      <trkpt lat="47.27601" lon="-2.49156">
        <ele>-17.200000762939</ele>
        <time>2020-09-03T08:42:15.000Z</time>
      </trkpt>
      <trkpt lat="47.27603" lon="-2.49162">
        <ele>-17.200000762939</ele>
        <time>2020-09-03T08:42:16.000Z</time>
      </trkpt>
      <trkpt lat="47.27611" lon="-2.4918">
        <ele>-17.200000762939</ele>
        <time>2020-09-03T08:42:19.000Z</time>
      </trkpt>
      <trkpt lat="47.27619" lon="-2.49195">
        <ele>-17.200000762939</ele>
        <time>2020-09-03T08:42:22.000Z</time>
      </trkpt>
      <trkpt lat="47.27631" lon="-2.49216">
        <ele>-17.200000762939</ele>
        <time>2020-09-03T08:42:27.000Z</time>
      </trkpt>
      <trkpt lat="47.27639" lon="-2.49224">
        <ele>-17.200000762939</ele>
        <time>2020-09-03T08:42:29.000Z</time>
      </trkpt>
      <trkpt lat="47.27653" lon="-2.49232">
        <ele>-17.200000762939</ele>
        <time>2020-09-03T08:42:32.000Z</time>
      </trkpt>
      <trkpt lat="47.27665" lon="-2.49242">
        <ele>-17.200000762939</ele>
        <time>2020-09-03T08:42:35.000Z</time>
      </trkpt>
      <trkpt lat="47.27669" lon="-2.49243">
        <ele>-17.200000762939</ele>
        <time>2020-09-03T08:42:36.000Z</time>
      </trkpt>
      <trkpt lat="47.27684" lon="-2.49247">
        <ele>-17.200000762939</ele>
        <time>2020-09-03T08:42:39.000Z</time>
      </trkpt>
      <trkpt lat="47.27718" lon="-2.49251">
        <ele>-17.200000762939</ele>
        <time>2020-09-03T08:42:46.000Z</time>
      </trkpt>
      <trkpt lat="47.27753" lon="-2.49252">
        <ele>-17.200000762939</ele>
        <time>2020-09-03T08:42:53.000Z</time>
      </trkpt>
      <trkpt lat="47.27793" lon="-2.49255">
        <ele>-17.200000762939</ele>
        <time>2020-09-03T08:43:01.000Z</time>
      </trkpt>
      <trkpt lat="47.27803" lon="-2.49256">
        <ele>-16.799999237061</ele>
        <time>2020-09-03T08:43:03.000Z</time>
      </trkpt>
      <trkpt lat="47.27808" lon="-2.49257">
        <ele>-16.39999961853</ele>
        <time>2020-09-03T08:43:04.000Z</time>
      </trkpt>
      <trkpt lat="47.27813" lon="-2.49258">
        <ele>-16</ele>
        <time>2020-09-03T08:43:05.000Z</time>
      </trkpt>
      <trkpt lat="47.27818" lon="-2.4926">
        <ele>-15.60000038147</ele>
        <time>2020-09-03T08:43:06.000Z</time>
      </trkpt>
      <trkpt lat="47.27822" lon="-2.49262">
        <ele>-15</ele>
        <time>2020-09-03T08:43:07.000Z</time>
      </trkpt>
      <trkpt lat="47.27852" lon="-2.49281">
        <ele>-15</ele>
        <time>2020-09-03T08:43:14.000Z</time>
      </trkpt>
      <trkpt lat="47.27884" lon="-2.49314">
        <ele>-15</ele>
        <time>2020-09-03T08:43:22.000Z</time>
      </trkpt>
      <trkpt lat="47.27891" lon="-2.49322">
        <ele>-15</ele>
        <time>2020-09-03T08:43:24.000Z</time>
      </trkpt>
      <trkpt lat="47.27898" lon="-2.49323">
        <ele>-15</ele>
        <time>2020-09-03T08:43:26.000Z</time>
      </trkpt>
      <trkpt lat="47.27908" lon="-2.4933">
        <ele>-15</ele>
        <time>2020-09-03T08:43:30.000Z</time>
      </trkpt>
      <trkpt lat="47.27911" lon="-2.49334">
        <ele>-15</ele>
        <time>2020-09-03T08:43:31.000Z</time>
      </trkpt>
      <trkpt lat="47.27925" lon="-2.49356">
        <ele>-15</ele>
        <time>2020-09-03T08:43:35.000Z</time>
      </trkpt>
      <trkpt lat="47.27959" lon="-2.49404">
        <ele>-15</ele>
        <time>2020-09-03T08:43:44.000Z</time>
      </trkpt>
      <trkpt lat="47.27984" lon="-2.49443">
        <ele>-15</ele>
        <time>2020-09-03T08:43:51.000Z</time>
      </trkpt>
      <trkpt lat="47.27987" lon="-2.49449">
        <ele>-15</ele>
        <time>2020-09-03T08:43:52.000Z</time>
      </trkpt>
      <trkpt lat="47.27991" lon="-2.49454">
        <ele>-15</ele>
        <time>2020-09-03T08:43:53.000Z</time>
      </trkpt>
      <trkpt lat="47.28006" lon="-2.49475">
        <ele>-15</ele>
        <time>2020-09-03T08:43:57.000Z</time>
      </trkpt>
      <trkpt lat="47.28034" lon="-2.49517">
        <ele>-15</ele>
        <time>2020-09-03T08:44:04.000Z</time>
      </trkpt>
      <trkpt lat="47.28051" lon="-2.49541">
        <ele>-15</ele>
        <time>2020-09-03T08:44:08.000Z</time>
      </trkpt>
      <trkpt lat="47.2806" lon="-2.49553">
        <ele>-15</ele>
        <time>2020-09-03T08:44:10.000Z</time>
      </trkpt>
      <trkpt lat="47.28073" lon="-2.49571">
        <ele>-15</ele>
        <time>2020-09-03T08:44:13.000Z</time>
      </trkpt>
      <trkpt lat="47.28087" lon="-2.49591">
        <ele>-15</ele>
        <time>2020-09-03T08:44:17.000Z</time>
      </trkpt>
      <trkpt lat="47.28089" lon="-2.49596">
        <ele>-15</ele>
        <time>2020-09-03T08:44:18.000Z</time>
      </trkpt>
      <trkpt lat="47.28099" lon="-2.49618">
        <ele>-15</ele>
        <time>2020-09-03T08:44:22.000Z</time>
      </trkpt>
      <trkpt lat="47.28105" lon="-2.49627">
        <ele>-15</ele>
        <time>2020-09-03T08:44:24.000Z</time>
      </trkpt>
      <trkpt lat="47.28119" lon="-2.49646">
        <ele>-15</ele>
        <time>2020-09-03T08:44:28.000Z</time>
      </trkpt>
      <trkpt lat="47.28125" lon="-2.49658">
        <ele>-15</ele>
        <time>2020-09-03T08:44:30.000Z</time>
      </trkpt>
      <trkpt lat="47.28129" lon="-2.4967">
        <ele>-15</ele>
        <time>2020-09-03T08:44:32.000Z</time>
      </trkpt>
      <trkpt lat="47.28132" lon="-2.49685">
        <ele>-15</ele>
        <time>2020-09-03T08:44:34.000Z</time>
      </trkpt>
      <trkpt lat="47.28134" lon="-2.49699">
        <ele>-15</ele>
        <time>2020-09-03T08:44:36.000Z</time>
      </trkpt>
      <trkpt lat="47.2814" lon="-2.49757">
        <ele>-15</ele>
        <time>2020-09-03T08:44:44.000Z</time>
      </trkpt>
      <trkpt lat="47.28148" lon="-2.49818">
        <ele>-15</ele>
        <time>2020-09-03T08:44:51.000Z</time>
      </trkpt>
      <trkpt lat="47.28149" lon="-2.49827">
        <ele>-15.39999961853</ele>
        <time>2020-09-03T08:44:52.000Z</time>
      </trkpt>
      <trkpt lat="47.2815" lon="-2.49836">
        <ele>-16</ele>
        <time>2020-09-03T08:44:53.000Z</time>
      </trkpt>
      <trkpt lat="47.28151" lon="-2.49845">
        <ele>-16.39999961853</ele>
        <time>2020-09-03T08:44:54.000Z</time>
      </trkpt>
      <trkpt lat="47.28152" lon="-2.49853">
        <ele>-16.799999237061</ele>
        <time>2020-09-03T08:44:55.000Z</time>
      </trkpt>
      <trkpt lat="47.28153" lon="-2.49861">
        <ele>-17.200000762939</ele>
        <time>2020-09-03T08:44:56.000Z</time>
      </trkpt>
      <trkpt lat="47.28155" lon="-2.49877">
        <ele>-17.200000762939</ele>
        <time>2020-09-03T08:44:58.000Z</time>
      </trkpt>
      <trkpt lat="47.28161" lon="-2.49916">
        <ele>-17.200000762939</ele>
        <time>2020-09-03T08:45:03.000Z</time>
      </trkpt>
      <trkpt lat="47.28162" lon="-2.49924">
        <ele>-17.200000762939</ele>
        <time>2020-09-03T08:45:04.000Z</time>
      </trkpt>
      <trkpt lat="47.28169" lon="-2.49971">
        <ele>-17.200000762939</ele>
        <time>2020-09-03T08:45:10.000Z</time>
      </trkpt>
      <trkpt lat="47.28174" lon="-2.50011">
        <ele>-17.200000762939</ele>
        <time>2020-09-03T08:45:15.000Z</time>
      </trkpt>
      <trkpt lat="47.28175" lon="-2.50018">
        <ele>-17.200000762939</ele>
        <time>2020-09-03T08:45:16.000Z</time>
      </trkpt>
      <trkpt lat="47.28178" lon="-2.50031">
        <ele>-17.200000762939</ele>
        <time>2020-09-03T08:45:18.000Z</time>
      </trkpt>
      <trkpt lat="47.28181" lon="-2.50046">
        <ele>-17.200000762939</ele>
        <time>2020-09-03T08:45:20.000Z</time>
      </trkpt>
      <trkpt lat="47.2819" lon="-2.50092">
        <ele>-17.200000762939</ele>
        <time>2020-09-03T08:45:26.000Z</time>
      </trkpt>
      <trkpt lat="47.28199" lon="-2.50136">
        <ele>-17.200000762939</ele>
        <time>2020-09-03T08:45:32.000Z</time>
      </trkpt>
      <trkpt lat="47.28209" lon="-2.5018">
        <ele>-17.200000762939</ele>
        <time>2020-09-03T08:45:39.000Z</time>
      </trkpt>
      <trkpt lat="47.28228" lon="-2.5023">
        <ele>-17.200000762939</ele>
        <time>2020-09-03T08:45:47.000Z</time>
      </trkpt>
      <trkpt lat="47.28249" lon="-2.50261">
        <ele>-17.60000038147</ele>
        <time>2020-09-03T08:45:53.000Z</time>
      </trkpt>
      <trkpt lat="47.28252" lon="-2.50266">
        <ele>-18</ele>
        <time>2020-09-03T08:45:54.000Z</time>
      </trkpt>
      <trkpt lat="47.28255" lon="-2.5027">
        <ele>-18.39999961853</ele>
        <time>2020-09-03T08:45:55.000Z</time>
      </trkpt>
      <trkpt lat="47.28257" lon="-2.50274">
        <ele>-18.799999237061</ele>
        <time>2020-09-03T08:45:56.000Z</time>
      </trkpt>
      <trkpt lat="47.28261" lon="-2.50276">
        <ele>-19.200000762939</ele>
        <time>2020-09-03T08:45:57.000Z</time>
      </trkpt>
      <trkpt lat="47.28264" lon="-2.50276">
        <ele>-19.200000762939</ele>
        <time>2020-09-03T08:45:58.000Z</time>
      </trkpt>
      <trkpt lat="47.28268" lon="-2.50267">
        <ele>-19.200000762939</ele>
        <time>2020-09-03T08:46:01.000Z</time>
      </trkpt>
      <trkpt lat="47.2828" lon="-2.50258">
        <ele>-19.200000762939</ele>
        <time>2020-09-03T08:46:06.000Z</time>
      </trkpt>
      <trkpt lat="47.28286" lon="-2.50262">
        <ele>-19.200000762939</ele>
        <time>2020-09-03T08:46:08.000Z</time>
      </trkpt>
      <trkpt lat="47.28297" lon="-2.50271">
        <ele>-19.200000762939</ele>
        <time>2020-09-03T08:46:11.000Z</time>
      </trkpt>
      <trkpt lat="47.28327" lon="-2.50295">
        <ele>-19.200000762939</ele>
        <time>2020-09-03T08:46:18.000Z</time>
      </trkpt>
      <trkpt lat="47.28359" lon="-2.50319">
        <ele>-19.200000762939</ele>
        <time>2020-09-03T08:46:26.000Z</time>
      </trkpt>
      <trkpt lat="47.28391" lon="-2.50341">
        <ele>-19.200000762939</ele>
        <time>2020-09-03T08:46:33.000Z</time>
      </trkpt>
      <trkpt lat="47.28428" lon="-2.50368">
        <ele>-19.200000762939</ele>
        <time>2020-09-03T08:46:41.000Z</time>
      </trkpt>
      <trkpt lat="47.28458" lon="-2.50386">
        <ele>-19.200000762939</ele>
        <time>2020-09-03T08:46:47.000Z</time>
      </trkpt>
      <trkpt lat="47.28491" lon="-2.50406">
        <ele>-19.200000762939</ele>
        <time>2020-09-03T08:46:54.000Z</time>
      </trkpt>
      <trkpt lat="47.28525" lon="-2.50429">
        <ele>-19.200000762939</ele>
        <time>2020-09-03T08:47:02.000Z</time>
      </trkpt>
      <trkpt lat="47.28553" lon="-2.50449">
        <ele>-19.200000762939</ele>
        <time>2020-09-03T08:47:08.000Z</time>
      </trkpt>
      <trkpt lat="47.28563" lon="-2.50457">
        <ele>-19.200000762939</ele>
        <time>2020-09-03T08:47:10.000Z</time>
      </trkpt>
      <trkpt lat="47.28584" lon="-2.50469">
        <ele>-19.200000762939</ele>
        <time>2020-09-03T08:47:14.000Z</time>
      </trkpt>
      <trkpt lat="47.28619" lon="-2.50492">
        <ele>-19.200000762939</ele>
        <time>2020-09-03T08:47:20.000Z</time>
      </trkpt>
      <trkpt lat="47.28671" lon="-2.50526">
        <ele>-19.200000762939</ele>
        <time>2020-09-03T08:47:28.000Z</time>
      </trkpt>
      <trkpt lat="47.28678" lon="-2.50531">
        <ele>-19.200000762939</ele>
        <time>2020-09-03T08:47:29.000Z</time>
      </trkpt>
      <trkpt lat="47.28728" lon="-2.50562">
        <ele>-19.200000762939</ele>
        <time>2020-09-03T08:47:37.000Z</time>
      </trkpt>
      <trkpt lat="47.28782" lon="-2.50593">
        <ele>-19.200000762939</ele>
        <time>2020-09-03T08:47:46.000Z</time>
      </trkpt>
      <trkpt lat="47.28838" lon="-2.5062">
        <ele>-19.200000762939</ele>
        <time>2020-09-03T08:47:55.000Z</time>
      </trkpt>
      <trkpt lat="47.28868" lon="-2.50638">
        <ele>-19.200000762939</ele>
        <time>2020-09-03T08:48:00.000Z</time>
      </trkpt>
      <trkpt lat="47.28879" lon="-2.50648">
        <ele>-19.200000762939</ele>
        <time>2020-09-03T08:48:02.000Z</time>
      </trkpt>
      <trkpt lat="47.28885" lon="-2.50654">
        <ele>-19.200000762939</ele>
        <time>2020-09-03T08:48:03.000Z</time>
      </trkpt>
      <trkpt lat="47.28898" lon="-2.50675">
        <ele>-19.200000762939</ele>
        <time>2020-09-03T08:48:06.000Z</time>
      </trkpt>
      <trkpt lat="47.2892" lon="-2.50713">
        <ele>-19.200000762939</ele>
        <time>2020-09-03T08:48:12.000Z</time>
      </trkpt>
      <trkpt lat="47.28937" lon="-2.50731">
        <ele>-19.200000762939</ele>
        <time>2020-09-03T08:48:16.000Z</time>
      </trkpt>
      <trkpt lat="47.28945" lon="-2.50738">
        <ele>-19.200000762939</ele>
        <time>2020-09-03T08:48:18.000Z</time>
      </trkpt>
      <trkpt lat="47.28958" lon="-2.50745">
        <ele>-19.200000762939</ele>
        <time>2020-09-03T08:48:21.000Z</time>
      </trkpt>
      <trkpt lat="47.28973" lon="-2.50749">
        <ele>-19.200000762939</ele>
        <time>2020-09-03T08:48:24.000Z</time>
      </trkpt>
      <trkpt lat="47.28979" lon="-2.50749">
        <ele>-19.200000762939</ele>
        <time>2020-09-03T08:48:25.000Z</time>
      </trkpt>
      <trkpt lat="47.29003" lon="-2.50753">
        <ele>-19.200000762939</ele>
        <time>2020-09-03T08:48:30.000Z</time>
      </trkpt>
      <trkpt lat="47.29008" lon="-2.50755">
        <ele>-19.200000762939</ele>
        <time>2020-09-03T08:48:31.000Z</time>
      </trkpt>
      <trkpt lat="47.29034" lon="-2.5077">
        <ele>-19.200000762939</ele>
        <time>2020-09-03T08:48:37.000Z</time>
      </trkpt>
      <trkpt lat="47.29039" lon="-2.50774">
        <ele>-19.200000762939</ele>
        <time>2020-09-03T08:48:38.000Z</time>
      </trkpt>
      <trkpt lat="47.29048" lon="-2.50782">
        <ele>-19.200000762939</ele>
        <time>2020-09-03T08:48:40.000Z</time>
      </trkpt>
      <trkpt lat="47.29065" lon="-2.50794">
        <ele>-19.200000762939</ele>
        <time>2020-09-03T08:48:44.000Z</time>
      </trkpt>
      <trkpt lat="47.29088" lon="-2.50804">
        <ele>-19.200000762939</ele>
        <time>2020-09-03T08:48:50.000Z</time>
      </trkpt>
      <trkpt lat="47.29119" lon="-2.50812">
        <ele>-19.200000762939</ele>
        <time>2020-09-03T08:48:57.000Z</time>
      </trkpt>
      <trkpt lat="47.29134" lon="-2.50817">
        <ele>-19.200000762939</ele>
        <time>2020-09-03T08:49:00.000Z</time>
      </trkpt>
      <trkpt lat="47.29148" lon="-2.50825">
        <ele>-19.200000762939</ele>
        <time>2020-09-03T08:49:03.000Z</time>
      </trkpt>
      <trkpt lat="47.29179" lon="-2.50842">
        <ele>-19.200000762939</ele>
        <time>2020-09-03T08:49:09.000Z</time>
      </trkpt>
      <trkpt lat="47.29184" lon="-2.50844">
        <ele>-19.200000762939</ele>
        <time>2020-09-03T08:49:10.000Z</time>
      </trkpt>
      <trkpt lat="47.29223" lon="-2.50857">
        <ele>-19.200000762939</ele>
        <time>2020-09-03T08:49:18.000Z</time>
      </trkpt>
      <trkpt lat="47.29244" lon="-2.50863">
        <ele>-19.200000762939</ele>
        <time>2020-09-03T08:49:24.000Z</time>
      </trkpt>
      <trkpt lat="47.29254" lon="-2.5087">
        <ele>-19.200000762939</ele>
        <time>2020-09-03T08:49:29.000Z</time>
      </trkpt>
      <trkpt lat="47.29268" lon="-2.50883">
        <ele>-19.200000762939</ele>
        <time>2020-09-03T08:49:35.000Z</time>
      </trkpt>
      <trkpt lat="47.29272" lon="-2.5089">
        <ele>-19.200000762939</ele>
        <time>2020-09-03T08:49:40.000Z</time>
      </trkpt>
      <trkpt lat="47.2928" lon="-2.50898">
        <ele>-19.200000762939</ele>
        <time>2020-09-03T08:49:47.000Z</time>
      </trkpt>
      <trkpt lat="47.29291" lon="-2.50903">
        <ele>-19.200000762939</ele>
        <time>2020-09-03T08:49:54.000Z</time>
      </trkpt>
      <trkpt lat="47.29305" lon="-2.50906">
        <ele>-19.200000762939</ele>
        <time>2020-09-03T08:49:58.000Z</time>
      </trkpt>
      <trkpt lat="47.29309" lon="-2.50908">
        <ele>-19.200000762939</ele>
        <time>2020-09-03T08:50:02.000Z</time>
      </trkpt>
      <trkpt lat="47.29309" lon="-2.50908">
        <ele>-19.200000762939</ele>
        <time>2020-09-03T08:50:04.000Z</time>
      </trkpt>
      <trkpt lat="47.29313" lon="-2.5091">
        <ele>-19.200000762939</ele>
        <time>2020-09-03T08:50:11.000Z</time>
      </trkpt>
      <trkpt lat="47.29317" lon="-2.50912">
        <ele>-19.200000762939</ele>
        <time>2020-09-03T08:50:13.000Z</time>
      </trkpt>
      <trkpt lat="47.29334" lon="-2.5092">
        <ele>-19.200000762939</ele>
        <time>2020-09-03T08:50:19.000Z</time>
      </trkpt>
      <trkpt lat="47.2936" lon="-2.50929">
        <ele>-19.200000762939</ele>
        <time>2020-09-03T08:50:27.000Z</time>
      </trkpt>
      <trkpt lat="47.29373" lon="-2.50939">
        <ele>-19.200000762939</ele>
        <time>2020-09-03T08:50:32.000Z</time>
      </trkpt>
      <trkpt lat="47.29387" lon="-2.50964">
        <ele>-19.200000762939</ele>
        <time>2020-09-03T08:50:38.000Z</time>
      </trkpt>
      <trkpt lat="47.29389" lon="-2.50971">
        <ele>-19.200000762939</ele>
        <time>2020-09-03T08:50:39.000Z</time>
      </trkpt>
      <trkpt lat="47.29394" lon="-2.50998">
        <ele>-19.200000762939</ele>
        <time>2020-09-03T08:50:43.000Z</time>
      </trkpt>
      <trkpt lat="47.29396" lon="-2.5101">
        <ele>-19.200000762939</ele>
        <time>2020-09-03T08:50:45.000Z</time>
      </trkpt>
      <trkpt lat="47.29404" lon="-2.51024">
        <ele>-19.200000762939</ele>
        <time>2020-09-03T08:50:48.000Z</time>
      </trkpt>
      <trkpt lat="47.29407" lon="-2.51029">
        <ele>-19.200000762939</ele>
        <time>2020-09-03T08:50:49.000Z</time>
      </trkpt>
      <trkpt lat="47.29431" lon="-2.51061">
        <ele>-19.200000762939</ele>
        <time>2020-09-03T08:50:56.000Z</time>
      </trkpt>
      <trkpt lat="47.29456" lon="-2.51097">
        <ele>-19.200000762939</ele>
        <time>2020-09-03T08:51:04.000Z</time>
      </trkpt>
      <trkpt lat="47.29472" lon="-2.51117">
        <ele>-19.200000762939</ele>
        <time>2020-09-03T08:51:08.000Z</time>
      </trkpt>
      <trkpt lat="47.29484" lon="-2.51132">
        <ele>-19.200000762939</ele>
        <time>2020-09-03T08:51:11.000Z</time>
      </trkpt>
      <trkpt lat="47.29501" lon="-2.51164">
        <ele>-19.200000762939</ele>
        <time>2020-09-03T08:51:17.000Z</time>
      </trkpt>
      <trkpt lat="47.29503" lon="-2.5117">
        <ele>-19.200000762939</ele>
        <time>2020-09-03T08:51:18.000Z</time>
      </trkpt>
      <trkpt lat="47.29516" lon="-2.51212">
        <ele>-19.200000762939</ele>
        <time>2020-09-03T08:51:26.000Z</time>
      </trkpt>
      <trkpt lat="47.29527" lon="-2.51248">
        <ele>-19.200000762939</ele>
        <time>2020-09-03T08:51:33.000Z</time>
      </trkpt>
      <trkpt lat="47.29528" lon="-2.51254">
        <ele>-19.200000762939</ele>
        <time>2020-09-03T08:51:34.000Z</time>
      </trkpt>
      <trkpt lat="47.29533" lon="-2.51272">
        <ele>-19.200000762939</ele>
        <time>2020-09-03T08:51:37.000Z</time>
      </trkpt>
      <trkpt lat="47.29535" lon="-2.51278">
        <ele>-19.200000762939</ele>
        <time>2020-09-03T08:51:38.000Z</time>
      </trkpt>
      <trkpt lat="47.29548" lon="-2.51318">
        <ele>-19.200000762939</ele>
        <time>2020-09-03T08:51:44.000Z</time>
      </trkpt>
      <trkpt lat="47.29561" lon="-2.51326">
        <ele>-19.200000762939</ele>
        <time>2020-09-03T08:51:47.000Z</time>
      </trkpt>
      <trkpt lat="47.29566" lon="-2.51328">
        <ele>-19.200000762939</ele>
        <time>2020-09-03T08:51:48.000Z</time>
      </trkpt>
      <trkpt lat="47.29587" lon="-2.51336">
        <ele>-19.200000762939</ele>
        <time>2020-09-03T08:51:52.000Z</time>
      </trkpt>
      <trkpt lat="47.29597" lon="-2.51343">
        <ele>-19.200000762939</ele>
        <time>2020-09-03T08:51:54.000Z</time>
      </trkpt>
      <trkpt lat="47.29626" lon="-2.51367">
        <ele>-19.200000762939</ele>
        <time>2020-09-03T08:52:00.000Z</time>
      </trkpt>
      <trkpt lat="47.2967" lon="-2.51406">
        <ele>-19.200000762939</ele>
        <time>2020-09-03T08:52:09.000Z</time>
      </trkpt>
      <trkpt lat="47.29712" lon="-2.51437">
        <ele>-19.200000762939</ele>
        <time>2020-09-03T08:52:17.000Z</time>
      </trkpt>
      <trkpt lat="47.29743" lon="-2.51455">
        <ele>-19.200000762939</ele>
        <time>2020-09-03T08:52:23.000Z</time>
      </trkpt>
      <trkpt lat="47.29784" lon="-2.51479">
        <ele>-19.200000762939</ele>
        <time>2020-09-03T08:52:31.000Z</time>
      </trkpt>
      <trkpt lat="47.29795" lon="-2.51483">
        <ele>-19.200000762939</ele>
        <time>2020-09-03T08:52:33.000Z</time>
      </trkpt>
      <trkpt lat="47.29811" lon="-2.51483">
        <ele>-19.200000762939</ele>
        <time>2020-09-03T08:52:36.000Z</time>
      </trkpt>
      <trkpt lat="47.2983" lon="-2.5148">
        <ele>-19.200000762939</ele>
        <time>2020-09-03T08:52:40.000Z</time>
      </trkpt>
      <trkpt lat="47.29838" lon="-2.51476">
        <ele>-19.200000762939</ele>
        <time>2020-09-03T08:52:42.000Z</time>
      </trkpt>
      <trkpt lat="47.29857" lon="-2.51481">
        <ele>-19.200000762939</ele>
        <time>2020-09-03T08:52:47.000Z</time>
      </trkpt>
      <trkpt lat="47.29862" lon="-2.5149">
        <ele>-19.200000762939</ele>
        <time>2020-09-03T08:52:49.000Z</time>
      </trkpt>
      <trkpt lat="47.29865" lon="-2.51504">
        <ele>-19.200000762939</ele>
        <time>2020-09-03T08:52:52.000Z</time>
      </trkpt>
      <trkpt lat="47.29864" lon="-2.51507">
        <ele>-19.200000762939</ele>
        <time>2020-09-03T08:52:53.000Z</time>
      </trkpt>
      <trkpt lat="47.2986" lon="-2.51509">
        <ele>-19.200000762939</ele>
        <time>2020-09-03T08:52:55.000Z</time>
      </trkpt>
      <trkpt lat="47.29845" lon="-2.51518">
        <ele>-19.200000762939</ele>
        <time>2020-09-03T08:53:02.000Z</time>
      </trkpt>
      <trkpt lat="47.29834" lon="-2.51527">
        <ele>-19.200000762939</ele>
        <time>2020-09-03T08:53:08.000Z</time>
      </trkpt>
      <trkpt lat="47.29833" lon="-2.5153">
        <ele>-19.200000762939</ele>
        <time>2020-09-03T08:53:09.000Z</time>
      </trkpt>
      <trkpt lat="47.29835" lon="-2.51541">
        <ele>-19.200000762939</ele>
        <time>2020-09-03T08:53:12.000Z</time>
      </trkpt>
      <trkpt lat="47.29838" lon="-2.51548">
        <ele>-19.200000762939</ele>
        <time>2020-09-03T08:53:14.000Z</time>
      </trkpt>
      <trkpt lat="47.29846" lon="-2.51558">
        <ele>-19.200000762939</ele>
        <time>2020-09-03T08:53:18.000Z</time>
      </trkpt>
      <trkpt lat="47.29849" lon="-2.51557">
        <ele>-19.200000762939</ele>
        <time>2020-09-03T08:53:19.000Z</time>
      </trkpt>
      <trkpt lat="47.29857" lon="-2.51553">
        <ele>-19.200000762939</ele>
        <time>2020-09-03T08:53:21.000Z</time>
      </trkpt>
      <trkpt lat="47.29865" lon="-2.5155">
        <ele>-19.200000762939</ele>
        <time>2020-09-03T08:53:23.000Z</time>
      </trkpt>
      <trkpt lat="47.29873" lon="-2.51553">
        <ele>-19.200000762939</ele>
        <time>2020-09-03T08:53:25.000Z</time>
      </trkpt>
      <trkpt lat="47.29882" lon="-2.51566">
        <ele>-19.200000762939</ele>
        <time>2020-09-03T08:53:28.000Z</time>
      </trkpt>
      <trkpt lat="47.29886" lon="-2.51576">
        <ele>-19.200000762939</ele>
        <time>2020-09-03T08:53:30.000Z</time>
      </trkpt>
      <trkpt lat="47.29892" lon="-2.516">
        <ele>-19.200000762939</ele>
        <time>2020-09-03T08:53:35.000Z</time>
      </trkpt>
      <trkpt lat="47.299" lon="-2.51644">
        <ele>-19.200000762939</ele>
        <time>2020-09-03T08:53:44.000Z</time>
      </trkpt>
      <trkpt lat="47.29906" lon="-2.51669">
        <ele>-19.200000762939</ele>
        <time>2020-09-03T08:53:50.000Z</time>
      </trkpt>
      <trkpt lat="47.29907" lon="-2.51672">
        <ele>-19.200000762939</ele>
        <time>2020-09-03T08:53:53.000Z</time>
      </trkpt>
      <trkpt lat="47.29908" lon="-2.51673">
        <ele>-19.200000762939</ele>
        <time>2020-09-03T09:15:18.000Z</time>
      </trkpt>
      <trkpt lat="47.29921" lon="-2.5169">
        <ele>-19.200000762939</ele>
        <time>2020-09-03T09:15:25.000Z</time>
      </trkpt>
      <trkpt lat="47.29924" lon="-2.51701">
        <ele>-19.200000762939</ele>
        <time>2020-09-03T09:15:27.000Z</time>
      </trkpt>
      <trkpt lat="47.29928" lon="-2.51712">
        <ele>-19.200000762939</ele>
        <time>2020-09-03T09:15:29.000Z</time>
      </trkpt>
      <trkpt lat="47.2993" lon="-2.51717">
        <ele>-18.799999237061</ele>
        <time>2020-09-03T09:15:30.000Z</time>
      </trkpt>
      <trkpt lat="47.29932" lon="-2.51722">
        <ele>-18.39999961853</ele>
        <time>2020-09-03T09:15:31.000Z</time>
      </trkpt>
      <trkpt lat="47.29934" lon="-2.51727">
        <ele>-18</ele>
        <time>2020-09-03T09:15:32.000Z</time>
      </trkpt>
      <trkpt lat="47.29936" lon="-2.51732">
        <ele>-17.60000038147</ele>
        <time>2020-09-03T09:15:33.000Z</time>
      </trkpt>
      <trkpt lat="47.29938" lon="-2.51736">
        <ele>-17</ele>
        <time>2020-09-03T09:15:34.000Z</time>
      </trkpt>
      <trkpt lat="47.29944" lon="-2.51748">
        <ele>-17</ele>
        <time>2020-09-03T09:15:37.000Z</time>
      </trkpt>
      <trkpt lat="47.29958" lon="-2.51777">
        <ele>-17</ele>
        <time>2020-09-03T09:15:45.000Z</time>
      </trkpt>
      <trkpt lat="47.29971" lon="-2.51803">
        <ele>-17</ele>
        <time>2020-09-03T09:15:53.000Z</time>
      </trkpt>
      <trkpt lat="47.2998" lon="-2.51825">
        <ele>-17</ele>
        <time>2020-09-03T09:16:00.000Z</time>
      </trkpt>
      <trkpt lat="47.29988" lon="-2.5185">
        <ele>-17</ele>
        <time>2020-09-03T09:16:07.000Z</time>
      </trkpt>
      <trkpt lat="47.29988" lon="-2.51869">
        <ele>-17</ele>
        <time>2020-09-03T09:16:13.000Z</time>
      </trkpt>
      <trkpt lat="47.29983" lon="-2.51886">
        <ele>-17</ele>
        <time>2020-09-03T09:16:19.000Z</time>
      </trkpt>
      <trkpt lat="47.29978" lon="-2.51895">
        <ele>-17</ele>
        <time>2020-09-03T09:16:23.000Z</time>
      </trkpt>
      <trkpt lat="47.29982" lon="-2.51899">
        <ele>-17</ele>
        <time>2020-09-03T09:16:25.000Z</time>
      </trkpt>
      <trkpt lat="47.29995" lon="-2.51901">
        <ele>-17</ele>
        <time>2020-09-03T09:16:29.000Z</time>
      </trkpt>
      <trkpt lat="47.29999" lon="-2.51903">
        <ele>-17</ele>
        <time>2020-09-03T09:16:30.000Z</time>
      </trkpt>
      <trkpt lat="47.30003" lon="-2.51906">
        <ele>-17</ele>
        <time>2020-09-03T09:16:31.000Z</time>
      </trkpt>
      <trkpt lat="47.30016" lon="-2.51923">
        <ele>-17</ele>
        <time>2020-09-03T09:16:35.000Z</time>
      </trkpt>
      <trkpt lat="47.30019" lon="-2.51928">
        <ele>-17</ele>
        <time>2020-09-03T09:16:36.000Z</time>
      </trkpt>
      <trkpt lat="47.30037" lon="-2.51958">
        <ele>-17</ele>
        <time>2020-09-03T09:16:42.000Z</time>
      </trkpt>
      <trkpt lat="47.30053" lon="-2.5198">
        <ele>-17</ele>
        <time>2020-09-03T09:16:49.000Z</time>
      </trkpt>
      <trkpt lat="47.30066" lon="-2.52002">
        <ele>-17</ele>
        <time>2020-09-03T09:16:55.000Z</time>
      </trkpt>
      <trkpt lat="47.3008" lon="-2.52025">
        <ele>-17</ele>
        <time>2020-09-03T09:17:02.000Z</time>
      </trkpt>
      <trkpt lat="47.30081" lon="-2.52049">
        <ele>-17</ele>
        <time>2020-09-03T09:17:09.000Z</time>
      </trkpt>
      <trkpt lat="47.30077" lon="-2.52072">
        <ele>-17</ele>
        <time>2020-09-03T09:17:15.000Z</time>
      </trkpt>
      <trkpt lat="47.30074" lon="-2.52075">
        <ele>-17</ele>
        <time>2020-09-03T09:17:16.000Z</time>
      </trkpt>
      <trkpt lat="47.30062" lon="-2.52079">
        <ele>-17</ele>
        <time>2020-09-03T09:17:20.000Z</time>
      </trkpt>
      <trkpt lat="47.30039" lon="-2.52083">
        <ele>-17</ele>
        <time>2020-09-03T09:17:26.000Z</time>
      </trkpt>
      <trkpt lat="47.30036" lon="-2.52085">
        <ele>-17</ele>
        <time>2020-09-03T09:17:27.000Z</time>
      </trkpt>
      <trkpt lat="47.30031" lon="-2.52096">
        <ele>-17</ele>
        <time>2020-09-03T09:17:30.000Z</time>
      </trkpt>
      <trkpt lat="47.30029" lon="-2.52111">
        <ele>-17</ele>
        <time>2020-09-03T09:17:35.000Z</time>
      </trkpt>
      <trkpt lat="47.30028" lon="-2.52112">
        <ele>-17</ele>
        <time>2020-09-03T09:17:36.000Z</time>
      </trkpt>
      <trkpt lat="47.30026" lon="-2.5211">
        <ele>-17</ele>
        <time>2020-09-03T09:17:37.000Z</time>
      </trkpt>
      <trkpt lat="47.30024" lon="-2.52104">
        <ele>-17</ele>
        <time>2020-09-03T09:17:39.000Z</time>
      </trkpt>
      <trkpt lat="47.30023" lon="-2.52089">
        <ele>-17</ele>
        <time>2020-09-03T09:17:42.000Z</time>
      </trkpt>
      <trkpt lat="47.30023" lon="-2.52075">
        <ele>-17</ele>
        <time>2020-09-03T09:17:44.000Z</time>
      </trkpt>
      <trkpt lat="47.30017" lon="-2.52018">
        <ele>-17</ele>
        <time>2020-09-03T09:17:52.000Z</time>
      </trkpt>
      <trkpt lat="47.30012" lon="-2.51999">
        <ele>-17</ele>
        <time>2020-09-03T09:17:56.000Z</time>
      </trkpt>
      <trkpt lat="47.30004" lon="-2.52">
        <ele>-17</ele>
        <time>2020-09-03T09:17:59.000Z</time>
      </trkpt>
      <trkpt lat="47.29984" lon="-2.52007">
        <ele>-17</ele>
        <time>2020-09-03T09:18:04.000Z</time>
      </trkpt>
      <trkpt lat="47.29962" lon="-2.52018">
        <ele>-17</ele>
        <time>2020-09-03T09:18:09.000Z</time>
      </trkpt>
      <trkpt lat="47.29949" lon="-2.52026">
        <ele>-17</ele>
        <time>2020-09-03T09:18:12.000Z</time>
      </trkpt>
      <trkpt lat="47.29935" lon="-2.52031">
        <ele>-17</ele>
        <time>2020-09-03T09:18:15.000Z</time>
      </trkpt>
      <trkpt lat="47.29918" lon="-2.52035">
        <ele>-17</ele>
        <time>2020-09-03T09:18:19.000Z</time>
      </trkpt>
      <trkpt lat="47.29912" lon="-2.52042">
        <ele>-17</ele>
        <time>2020-09-03T09:18:21.000Z</time>
      </trkpt>
      <trkpt lat="47.29909" lon="-2.52059">
        <ele>-17</ele>
        <time>2020-09-03T09:18:24.000Z</time>
      </trkpt>
      <trkpt lat="47.2991" lon="-2.52065">
        <ele>-17</ele>
        <time>2020-09-03T09:18:25.000Z</time>
      </trkpt>
      <trkpt lat="47.29909" lon="-2.52083">
        <ele>-17</ele>
        <time>2020-09-03T09:18:28.000Z</time>
      </trkpt>
      <trkpt lat="47.29908" lon="-2.52095">
        <ele>-17</ele>
        <time>2020-09-03T09:18:30.000Z</time>
      </trkpt>
      <trkpt lat="47.2991" lon="-2.52145">
        <ele>-17</ele>
        <time>2020-09-03T09:18:38.000Z</time>
      </trkpt>
      <trkpt lat="47.29909" lon="-2.52152">
        <ele>-17</ele>
        <time>2020-09-03T09:18:39.000Z</time>
      </trkpt>
      <trkpt lat="47.29907" lon="-2.5218">
        <ele>-17</ele>
        <time>2020-09-03T09:18:43.000Z</time>
      </trkpt>
      <trkpt lat="47.29905" lon="-2.52228">
        <ele>-17</ele>
        <time>2020-09-03T09:18:50.000Z</time>
      </trkpt>
      <trkpt lat="47.29903" lon="-2.52242">
        <ele>-17</ele>
        <time>2020-09-03T09:18:54.000Z</time>
      </trkpt>
      <trkpt lat="47.29893" lon="-2.52245">
        <ele>-17</ele>
        <time>2020-09-03T09:18:58.000Z</time>
      </trkpt>
      <trkpt lat="47.29882" lon="-2.52244">
        <ele>-17</ele>
        <time>2020-09-03T09:19:01.000Z</time>
      </trkpt>
      <trkpt lat="47.2987" lon="-2.52243">
        <ele>-17</ele>
        <time>2020-09-03T09:19:04.000Z</time>
      </trkpt>
      <trkpt lat="47.29858" lon="-2.52242">
        <ele>-17</ele>
        <time>2020-09-03T09:19:07.000Z</time>
      </trkpt>
      <trkpt lat="47.29842" lon="-2.5224">
        <ele>-17</ele>
        <time>2020-09-03T09:19:11.000Z</time>
      </trkpt>
      <trkpt lat="47.29814" lon="-2.52238">
        <ele>-17</ele>
        <time>2020-09-03T09:19:18.000Z</time>
      </trkpt>
      <trkpt lat="47.29786" lon="-2.52235">
        <ele>-17</ele>
        <time>2020-09-03T09:19:25.000Z</time>
      </trkpt>
      <trkpt lat="47.29763" lon="-2.52232">
        <ele>-17</ele>
        <time>2020-09-03T09:19:31.000Z</time>
      </trkpt>
      <trkpt lat="47.29728" lon="-2.52229">
        <ele>-17</ele>
        <time>2020-09-03T09:19:40.000Z</time>
      </trkpt>
      <trkpt lat="47.29699" lon="-2.52225">
        <ele>-16.60000038147</ele>
        <time>2020-09-03T09:19:47.000Z</time>
      </trkpt>
      <trkpt lat="47.29696" lon="-2.52225">
        <ele>-16.200000762939</ele>
        <time>2020-09-03T09:19:48.000Z</time>
      </trkpt>
      <trkpt lat="47.29692" lon="-2.52225">
        <ele>-15.800000190735</ele>
        <time>2020-09-03T09:19:49.000Z</time>
      </trkpt>
      <trkpt lat="47.29688" lon="-2.52224">
        <ele>-15.39999961853</ele>
        <time>2020-09-03T09:19:50.000Z</time>
      </trkpt>
      <trkpt lat="47.29684" lon="-2.52224">
        <ele>-15</ele>
        <time>2020-09-03T09:19:51.000Z</time>
      </trkpt>
      <trkpt lat="47.29674" lon="-2.52223">
        <ele>-15</ele>
        <time>2020-09-03T09:19:54.000Z</time>
      </trkpt>
      <trkpt lat="47.29649" lon="-2.52224">
        <ele>-15</ele>
        <time>2020-09-03T09:20:01.000Z</time>
      </trkpt>
      <trkpt lat="47.29615" lon="-2.52231">
        <ele>-15</ele>
        <time>2020-09-03T09:20:09.000Z</time>
      </trkpt>
      <trkpt lat="47.29607" lon="-2.52232">
        <ele>-15</ele>
        <time>2020-09-03T09:20:12.000Z</time>
      </trkpt>
      <trkpt lat="47.29605" lon="-2.52233">
        <ele>-15</ele>
        <time>2020-09-03T09:20:13.000Z</time>
      </trkpt>
      <trkpt lat="47.29605" lon="-2.52239">
        <ele>-15</ele>
        <time>2020-09-03T09:20:16.000Z</time>
      </trkpt>
      <trkpt lat="47.29606" lon="-2.52243">
        <ele>-15</ele>
        <time>2020-09-03T09:20:19.000Z</time>
      </trkpt>
      <trkpt lat="47.29604" lon="-2.52245">
        <ele>-15</ele>
        <time>2020-09-03T09:20:21.000Z</time>
      </trkpt>
      <trkpt lat="47.29602" lon="-2.52246">
        <ele>-15</ele>
        <time>2020-09-03T09:20:22.000Z</time>
      </trkpt>
      <trkpt lat="47.29594" lon="-2.52252">
        <ele>-15</ele>
        <time>2020-09-03T09:20:25.000Z</time>
      </trkpt>
      <trkpt lat="47.2959" lon="-2.52254">
        <ele>-15</ele>
        <time>2020-09-03T09:20:26.000Z</time>
      </trkpt>
      <trkpt lat="47.29559" lon="-2.52277">
        <ele>-15</ele>
        <time>2020-09-03T09:20:34.000Z</time>
      </trkpt>
      <trkpt lat="47.29523" lon="-2.52307">
        <ele>-15</ele>
        <time>2020-09-03T09:20:44.000Z</time>
      </trkpt>
      <trkpt lat="47.29505" lon="-2.52325">
        <ele>-15</ele>
        <time>2020-09-03T09:20:50.000Z</time>
      </trkpt>
      <trkpt lat="47.29493" lon="-2.52337">
        <ele>-14.60000038147</ele>
        <time>2020-09-03T09:20:54.000Z</time>
      </trkpt>
      <trkpt lat="47.2949" lon="-2.52339">
        <ele>-14.199999809265</ele>
        <time>2020-09-03T09:20:55.000Z</time>
      </trkpt>
      <trkpt lat="47.29487" lon="-2.52342">
        <ele>-13.60000038147</ele>
        <time>2020-09-03T09:20:56.000Z</time>
      </trkpt>
      <trkpt lat="47.29484" lon="-2.52344">
        <ele>-13.199999809265</ele>
        <time>2020-09-03T09:20:57.000Z</time>
      </trkpt>
      <trkpt lat="47.29481" lon="-2.52347">
        <ele>-12.800000190735</ele>
        <time>2020-09-03T09:20:58.000Z</time>
      </trkpt>
      <trkpt lat="47.29475" lon="-2.52355">
        <ele>-12.800000190735</ele>
        <time>2020-09-03T09:21:02.000Z</time>
      </trkpt>
      <trkpt lat="47.29473" lon="-2.52358">
        <ele>-12.800000190735</ele>
        <time>2020-09-03T09:21:03.000Z</time>
      </trkpt>
      <trkpt lat="47.29471" lon="-2.52372">
        <ele>-12.800000190735</ele>
        <time>2020-09-03T09:21:06.000Z</time>
      </trkpt>
      <trkpt lat="47.29467" lon="-2.52381">
        <ele>-12.800000190735</ele>
        <time>2020-09-03T09:21:08.000Z</time>
      </trkpt>
      <trkpt lat="47.29458" lon="-2.52397">
        <ele>-12.800000190735</ele>
        <time>2020-09-03T09:21:11.000Z</time>
      </trkpt>
      <trkpt lat="47.29439" lon="-2.52434">
        <ele>-12.800000190735</ele>
        <time>2020-09-03T09:21:18.000Z</time>
      </trkpt>
      <trkpt lat="47.29429" lon="-2.52455">
        <ele>-12.800000190735</ele>
        <time>2020-09-03T09:21:22.000Z</time>
      </trkpt>
      <trkpt lat="47.29425" lon="-2.52459">
        <ele>-12.800000190735</ele>
        <time>2020-09-03T09:21:23.000Z</time>
      </trkpt>
      <trkpt lat="47.294" lon="-2.52481">
        <ele>-12.800000190735</ele>
        <time>2020-09-03T09:21:29.000Z</time>
      </trkpt>
      <trkpt lat="47.29392" lon="-2.52487">
        <ele>-12.800000190735</ele>
        <time>2020-09-03T09:21:31.000Z</time>
      </trkpt>
      <trkpt lat="47.29374" lon="-2.52502">
        <ele>-12.800000190735</ele>
        <time>2020-09-03T09:21:35.000Z</time>
      </trkpt>
      <trkpt lat="47.29361" lon="-2.52513">
        <ele>-12.800000190735</ele>
        <time>2020-09-03T09:21:38.000Z</time>
      </trkpt>
      <trkpt lat="47.29347" lon="-2.52521">
        <ele>-12.800000190735</ele>
        <time>2020-09-03T09:21:41.000Z</time>
      </trkpt>
      <trkpt lat="47.29332" lon="-2.52527">
        <ele>-12.800000190735</ele>
        <time>2020-09-03T09:21:44.000Z</time>
      </trkpt>
      <trkpt lat="47.29323" lon="-2.52526">
        <ele>-12.800000190735</ele>
        <time>2020-09-03T09:21:46.000Z</time>
      </trkpt>
      <trkpt lat="47.29313" lon="-2.52516">
        <ele>-12.800000190735</ele>
        <time>2020-09-03T09:21:49.000Z</time>
      </trkpt>
      <trkpt lat="47.29299" lon="-2.52508">
        <ele>-12.800000190735</ele>
        <time>2020-09-03T09:21:53.000Z</time>
      </trkpt>
      <trkpt lat="47.29293" lon="-2.52507">
        <ele>-12.800000190735</ele>
        <time>2020-09-03T09:21:55.000Z</time>
      </trkpt>
      <trkpt lat="47.2929" lon="-2.52509">
        <ele>-12.800000190735</ele>
        <time>2020-09-03T09:21:56.000Z</time>
      </trkpt>
      <trkpt lat="47.29283" lon="-2.52526">
        <ele>-12.800000190735</ele>
        <time>2020-09-03T09:22:00.000Z</time>
      </trkpt>
      <trkpt lat="47.29283" lon="-2.52543">
        <ele>-12.800000190735</ele>
        <time>2020-09-03T09:22:03.000Z</time>
      </trkpt>
      <trkpt lat="47.29284" lon="-2.5256">
        <ele>-12.800000190735</ele>
        <time>2020-09-03T09:22:06.000Z</time>
      </trkpt>
      <trkpt lat="47.29296" lon="-2.526">
        <ele>-12.800000190735</ele>
        <time>2020-09-03T09:22:13.000Z</time>
      </trkpt>
      <trkpt lat="47.29301" lon="-2.52617">
        <ele>-12.800000190735</ele>
        <time>2020-09-03T09:22:16.000Z</time>
      </trkpt>
      <trkpt lat="47.29303" lon="-2.52635">
        <ele>-12.800000190735</ele>
        <time>2020-09-03T09:22:19.000Z</time>
      </trkpt>
      <trkpt lat="47.293" lon="-2.52653">
        <ele>-12.800000190735</ele>
        <time>2020-09-03T09:22:22.000Z</time>
      </trkpt>
      <trkpt lat="47.29302" lon="-2.52673">
        <ele>-12.800000190735</ele>
        <time>2020-09-03T09:22:25.000Z</time>
      </trkpt>
      <trkpt lat="47.29303" lon="-2.5268">
        <ele>-12.800000190735</ele>
        <time>2020-09-03T09:22:26.000Z</time>
      </trkpt>
      <trkpt lat="47.2931" lon="-2.52704">
        <ele>-12.800000190735</ele>
        <time>2020-09-03T09:22:30.000Z</time>
      </trkpt>
      <trkpt lat="47.29313" lon="-2.5271">
        <ele>-12.800000190735</ele>
        <time>2020-09-03T09:22:31.000Z</time>
      </trkpt>
      <trkpt lat="47.29326" lon="-2.52735">
        <ele>-12.800000190735</ele>
        <time>2020-09-03T09:22:35.000Z</time>
      </trkpt>
      <trkpt lat="47.29329" lon="-2.52742">
        <ele>-12.800000190735</ele>
        <time>2020-09-03T09:22:36.000Z</time>
      </trkpt>
      <trkpt lat="47.29335" lon="-2.52766">
        <ele>-12.800000190735</ele>
        <time>2020-09-03T09:22:39.000Z</time>
      </trkpt>
      <trkpt lat="47.29337" lon="-2.52773">
        <ele>-12.800000190735</ele>
        <time>2020-09-03T09:22:40.000Z</time>
      </trkpt>
      <trkpt lat="47.29339" lon="-2.52787">
        <ele>-12.800000190735</ele>
        <time>2020-09-03T09:22:42.000Z</time>
      </trkpt>
      <trkpt lat="47.29337" lon="-2.52798">
        <ele>-12.800000190735</ele>
        <time>2020-09-03T09:22:44.000Z</time>
      </trkpt>
      <trkpt lat="47.29327" lon="-2.52808">
        <ele>-12.800000190735</ele>
        <time>2020-09-03T09:22:47.000Z</time>
      </trkpt>
      <trkpt lat="47.29319" lon="-2.52813">
        <ele>-12.800000190735</ele>
        <time>2020-09-03T09:22:49.000Z</time>
      </trkpt>
      <trkpt lat="47.293" lon="-2.52823">
        <ele>-12.800000190735</ele>
        <time>2020-09-03T09:22:54.000Z</time>
      </trkpt>
      <trkpt lat="47.29278" lon="-2.52839">
        <ele>-12.800000190735</ele>
        <time>2020-09-03T09:23:01.000Z</time>
      </trkpt>
      <trkpt lat="47.29269" lon="-2.52862">
        <ele>-12.800000190735</ele>
        <time>2020-09-03T09:23:06.000Z</time>
      </trkpt>
      <trkpt lat="47.29262" lon="-2.52895">
        <ele>-12.800000190735</ele>
        <time>2020-09-03T09:23:12.000Z</time>
      </trkpt>
      <trkpt lat="47.29259" lon="-2.52899">
        <ele>-12.800000190735</ele>
        <time>2020-09-03T09:23:13.000Z</time>
      </trkpt>
      <trkpt lat="47.29237" lon="-2.52909">
        <ele>-12.800000190735</ele>
        <time>2020-09-03T09:23:18.000Z</time>
      </trkpt>
      <trkpt lat="47.29232" lon="-2.52911">
        <ele>-12.39999961853</ele>
        <time>2020-09-03T09:23:19.000Z</time>
      </trkpt>
      <trkpt lat="47.29227" lon="-2.52913">
        <ele>-12</ele>
        <time>2020-09-03T09:23:20.000Z</time>
      </trkpt>
      <trkpt lat="47.29223" lon="-2.52915">
        <ele>-11.60000038147</ele>
        <time>2020-09-03T09:23:21.000Z</time>
      </trkpt>
      <trkpt lat="47.29218" lon="-2.52917">
        <ele>-11.199999809265</ele>
        <time>2020-09-03T09:23:22.000Z</time>
      </trkpt>
      <trkpt lat="47.29213" lon="-2.52918">
        <ele>-10.60000038147</ele>
        <time>2020-09-03T09:23:23.000Z</time>
      </trkpt>
      <trkpt lat="47.29205" lon="-2.52922">
        <ele>-10.60000038147</ele>
        <time>2020-09-03T09:23:25.000Z</time>
      </trkpt>
      <trkpt lat="47.29169" lon="-2.52937">
        <ele>-10.60000038147</ele>
        <time>2020-09-03T09:23:33.000Z</time>
      </trkpt>
      <trkpt lat="47.2914" lon="-2.52952">
        <ele>-10.60000038147</ele>
        <time>2020-09-03T09:23:39.000Z</time>
      </trkpt>
      <trkpt lat="47.29127" lon="-2.52959">
        <ele>-10.60000038147</ele>
        <time>2020-09-03T09:23:42.000Z</time>
      </trkpt>
      <trkpt lat="47.29114" lon="-2.52969">
        <ele>-10.60000038147</ele>
        <time>2020-09-03T09:23:45.000Z</time>
      </trkpt>
      <trkpt lat="47.29102" lon="-2.52981">
        <ele>-10.60000038147</ele>
        <time>2020-09-03T09:23:48.000Z</time>
      </trkpt>
      <trkpt lat="47.29095" lon="-2.52989">
        <ele>-10.60000038147</ele>
        <time>2020-09-03T09:23:50.000Z</time>
      </trkpt>
      <trkpt lat="47.29084" lon="-2.53002">
        <ele>-10.199999809265</ele>
        <time>2020-09-03T09:23:53.000Z</time>
      </trkpt>
      <trkpt lat="47.2908" lon="-2.53006">
        <ele>-9.8000001907349</ele>
        <time>2020-09-03T09:23:54.000Z</time>
      </trkpt>
      <trkpt lat="47.29076" lon="-2.53011">
        <ele>-9.3999996185303</ele>
        <time>2020-09-03T09:23:55.000Z</time>
      </trkpt>
      <trkpt lat="47.29072" lon="-2.53015">
        <ele>-9</ele>
        <time>2020-09-03T09:23:56.000Z</time>
      </trkpt>
      <trkpt lat="47.29068" lon="-2.53019">
        <ele>-8.6000003814697</ele>
        <time>2020-09-03T09:23:57.000Z</time>
      </trkpt>
      <trkpt lat="47.29064" lon="-2.53022">
        <ele>-8.6000003814697</ele>
        <time>2020-09-03T09:23:58.000Z</time>
      </trkpt>
      <trkpt lat="47.29051" lon="-2.53034">
        <ele>-8.6000003814697</ele>
        <time>2020-09-03T09:24:03.000Z</time>
      </trkpt>
      <trkpt lat="47.29049" lon="-2.53035">
        <ele>-8.6000003814697</ele>
        <time>2020-09-03T09:24:04.000Z</time>
      </trkpt>
      <trkpt lat="47.29043" lon="-2.53032">
        <ele>-8.6000003814697</ele>
        <time>2020-09-03T09:24:07.000Z</time>
      </trkpt>
      <trkpt lat="47.29042" lon="-2.5303">
        <ele>-8.6000003814697</ele>
        <time>2020-09-03T09:24:08.000Z</time>
      </trkpt>
      <trkpt lat="47.2904" lon="-2.53027">
        <ele>-8.6000003814697</ele>
        <time>2020-09-03T09:24:11.000Z</time>
      </trkpt>
      <trkpt lat="47.2904" lon="-2.53027">
        <ele>-8.6000003814697</ele>
        <time>2020-09-03T09:24:20.000Z</time>
      </trkpt>
      <trkpt lat="47.29032" lon="-2.53012">
        <ele>-8.6000003814697</ele>
        <time>2020-09-03T09:24:25.000Z</time>
      </trkpt>
      <trkpt lat="47.29018" lon="-2.52983">
        <ele>-8.6000003814697</ele>
        <time>2020-09-03T09:24:31.000Z</time>
      </trkpt>
      <trkpt lat="47.29013" lon="-2.52972">
        <ele>-8.6000003814697</ele>
        <time>2020-09-03T09:24:33.000Z</time>
      </trkpt>
      <trkpt lat="47.29011" lon="-2.52966">
        <ele>-8.1999998092651</ele>
        <time>2020-09-03T09:24:34.000Z</time>
      </trkpt>
      <trkpt lat="47.29009" lon="-2.5296">
        <ele>-7.8000001907349</ele>
        <time>2020-09-03T09:24:35.000Z</time>
      </trkpt>
      <trkpt lat="47.29007" lon="-2.52953">
        <ele>-7.4000000953674</ele>
        <time>2020-09-03T09:24:36.000Z</time>
      </trkpt>
      <trkpt lat="47.29005" lon="-2.52947">
        <ele>-7</ele>
        <time>2020-09-03T09:24:37.000Z</time>
      </trkpt>
      <trkpt lat="47.29003" lon="-2.52941">
        <ele>-6.5999999046326</ele>
        <time>2020-09-03T09:24:38.000Z</time>
      </trkpt>
      <trkpt lat="47.28988" lon="-2.52892">
        <ele>-6.5999999046326</ele>
        <time>2020-09-03T09:24:46.000Z</time>
      </trkpt>
      <trkpt lat="47.28986" lon="-2.52886">
        <ele>-6.5999999046326</ele>
        <time>2020-09-03T09:24:47.000Z</time>
      </trkpt>
      <trkpt lat="47.28981" lon="-2.52869">
        <ele>-6.5999999046326</ele>
        <time>2020-09-03T09:24:50.000Z</time>
      </trkpt>
      <trkpt lat="47.2898" lon="-2.52863">
        <ele>-6.5999999046326</ele>
        <time>2020-09-03T09:24:51.000Z</time>
      </trkpt>
      <trkpt lat="47.28979" lon="-2.52859">
        <ele>-6.5999999046326</ele>
        <time>2020-09-03T09:24:52.000Z</time>
      </trkpt>
      <trkpt lat="47.28972" lon="-2.52858">
        <ele>-6.5999999046326</ele>
        <time>2020-09-03T09:24:54.000Z</time>
      </trkpt>
      <trkpt lat="47.28962" lon="-2.52869">
        <ele>-6.5999999046326</ele>
        <time>2020-09-03T09:24:57.000Z</time>
      </trkpt>
      <trkpt lat="47.28956" lon="-2.52881">
        <ele>-6.5999999046326</ele>
        <time>2020-09-03T09:24:59.000Z</time>
      </trkpt>
      <trkpt lat="47.28943" lon="-2.52902">
        <ele>-6.5999999046326</ele>
        <time>2020-09-03T09:25:03.000Z</time>
      </trkpt>
      <trkpt lat="47.2893" lon="-2.52922">
        <ele>-6.1999998092651</ele>
        <time>2020-09-03T09:25:07.000Z</time>
      </trkpt>
      <trkpt lat="47.28927" lon="-2.52927">
        <ele>-5.8000001907349</ele>
        <time>2020-09-03T09:25:08.000Z</time>
      </trkpt>
      <trkpt lat="47.28924" lon="-2.52932">
        <ele>-5.4000000953674</ele>
        <time>2020-09-03T09:25:09.000Z</time>
      </trkpt>
      <trkpt lat="47.28921" lon="-2.52937">
        <ele>-5</ele>
        <time>2020-09-03T09:25:10.000Z</time>
      </trkpt>
      <trkpt lat="47.28918" lon="-2.52943">
        <ele>-4.5999999046326</ele>
        <time>2020-09-03T09:25:11.000Z</time>
      </trkpt>
      <trkpt lat="47.28913" lon="-2.52953">
        <ele>-4.5999999046326</ele>
        <time>2020-09-03T09:25:13.000Z</time>
      </trkpt>
      <trkpt lat="47.28904" lon="-2.52966">
        <ele>-4.5999999046326</ele>
        <time>2020-09-03T09:25:16.000Z</time>
      </trkpt>
      <trkpt lat="47.28895" lon="-2.52981">
        <ele>-4.1999998092651</ele>
        <time>2020-09-03T09:25:19.000Z</time>
      </trkpt>
      <trkpt lat="47.28891" lon="-2.52986">
        <ele>-3.7999999523163</ele>
        <time>2020-09-03T09:25:20.000Z</time>
      </trkpt>
      <trkpt lat="47.28888" lon="-2.5299">
        <ele>-3.4000000953674</ele>
        <time>2020-09-03T09:25:21.000Z</time>
      </trkpt>
      <trkpt lat="47.28885" lon="-2.52994">
        <ele>-3</ele>
        <time>2020-09-03T09:25:22.000Z</time>
      </trkpt>
      <trkpt lat="47.28882" lon="-2.52998">
        <ele>-2.5999999046326</ele>
        <time>2020-09-03T09:25:23.000Z</time>
      </trkpt>
      <trkpt lat="47.28873" lon="-2.53016">
        <ele>-2.5999999046326</ele>
        <time>2020-09-03T09:25:27.000Z</time>
      </trkpt>
      <trkpt lat="47.28873" lon="-2.53021">
        <ele>-2.5999999046326</ele>
        <time>2020-09-03T09:25:28.000Z</time>
      </trkpt>
      <trkpt lat="47.28878" lon="-2.53038">
        <ele>-2.5999999046326</ele>
        <time>2020-09-03T09:25:31.000Z</time>
      </trkpt>
      <trkpt lat="47.28878" lon="-2.53044">
        <ele>-2.5999999046326</ele>
        <time>2020-09-03T09:25:32.000Z</time>
      </trkpt>
      <trkpt lat="47.28874" lon="-2.53066">
        <ele>-2.5999999046326</ele>
        <time>2020-09-03T09:25:36.000Z</time>
      </trkpt>
      <trkpt lat="47.28864" lon="-2.53078">
        <ele>-2.5999999046326</ele>
        <time>2020-09-03T09:25:39.000Z</time>
      </trkpt>
      <trkpt lat="47.2886" lon="-2.53081">
        <ele>-2.5999999046326</ele>
        <time>2020-09-03T09:25:40.000Z</time>
      </trkpt>
      <trkpt lat="47.28836" lon="-2.53088">
        <ele>-2.5999999046326</ele>
        <time>2020-09-03T09:25:45.000Z</time>
      </trkpt>
      <trkpt lat="47.28815" lon="-2.53096">
        <ele>-2.5999999046326</ele>
        <time>2020-09-03T09:25:50.000Z</time>
      </trkpt>
      <trkpt lat="47.28806" lon="-2.53098">
        <ele>-2.5999999046326</ele>
        <time>2020-09-03T09:25:52.000Z</time>
      </trkpt>
      <trkpt lat="47.28794" lon="-2.531">
        <ele>-2.5999999046326</ele>
        <time>2020-09-03T09:25:56.000Z</time>
      </trkpt>
      <trkpt lat="47.28793" lon="-2.53099">
        <ele>-2.5999999046326</ele>
        <time>2020-09-03T09:25:57.000Z</time>
      </trkpt>
      <trkpt lat="47.28791" lon="-2.53092">
        <ele>-3</ele>
        <time>2020-09-03T09:25:59.000Z</time>
      </trkpt>
      <trkpt lat="47.28791" lon="-2.53088">
        <ele>-3.4000000953674</ele>
        <time>2020-09-03T09:26:00.000Z</time>
      </trkpt>
      <trkpt lat="47.28791" lon="-2.53084">
        <ele>-4</ele>
        <time>2020-09-03T09:26:01.000Z</time>
      </trkpt>
      <trkpt lat="47.2879" lon="-2.5308">
        <ele>-4.4000000953674</ele>
        <time>2020-09-03T09:26:02.000Z</time>
      </trkpt>
      <trkpt lat="47.2879" lon="-2.53076">
        <ele>-4.8000001907349</ele>
        <time>2020-09-03T09:26:03.000Z</time>
      </trkpt>
      <trkpt lat="47.28789" lon="-2.53072">
        <ele>-4.8000001907349</ele>
        <time>2020-09-03T09:26:04.000Z</time>
      </trkpt>
      <trkpt lat="47.28784" lon="-2.53056">
        <ele>-4.8000001907349</ele>
        <time>2020-09-03T09:26:10.000Z</time>
      </trkpt>
      <trkpt lat="47.28784" lon="-2.53055">
        <ele>-4.8000001907349</ele>
        <time>2020-09-03T09:26:12.000Z</time>
      </trkpt>
      <trkpt lat="47.28783" lon="-2.53053">
        <ele>-4.8000001907349</ele>
        <time>2020-09-03T09:33:11.000Z</time>
      </trkpt>
      <trkpt lat="47.28783" lon="-2.5305">
        <ele>-4.8000001907349</ele>
        <time>2020-09-03T09:33:12.000Z</time>
      </trkpt>
      <trkpt lat="47.28784" lon="-2.53048">
        <ele>-4.8000001907349</ele>
        <time>2020-09-03T09:33:13.000Z</time>
      </trkpt>
      <trkpt lat="47.28788" lon="-2.53046">
        <ele>-4.8000001907349</ele>
        <time>2020-09-03T09:33:18.000Z</time>
      </trkpt>
      <trkpt lat="47.28788" lon="-2.53062">
        <ele>-4.8000001907349</ele>
        <time>2020-09-03T09:33:23.000Z</time>
      </trkpt>
      <trkpt lat="47.28789" lon="-2.53071">
        <ele>-4.8000001907349</ele>
        <time>2020-09-03T09:33:26.000Z</time>
      </trkpt>
      <trkpt lat="47.2879" lon="-2.53087">
        <ele>-4.8000001907349</ele>
        <time>2020-09-03T09:33:30.000Z</time>
      </trkpt>
      <trkpt lat="47.28786" lon="-2.53105">
        <ele>-4.8000001907349</ele>
        <time>2020-09-03T09:33:35.000Z</time>
      </trkpt>
      <trkpt lat="47.28772" lon="-2.5311">
        <ele>-4.8000001907349</ele>
        <time>2020-09-03T09:33:39.000Z</time>
      </trkpt>
      <trkpt lat="47.28764" lon="-2.53101">
        <ele>-5.1999998092651</ele>
        <time>2020-09-03T09:33:43.000Z</time>
      </trkpt>
      <trkpt lat="47.28762" lon="-2.53097">
        <ele>-5.5999999046326</ele>
        <time>2020-09-03T09:33:44.000Z</time>
      </trkpt>
      <trkpt lat="47.28762" lon="-2.53092">
        <ele>-6</ele>
        <time>2020-09-03T09:33:45.000Z</time>
      </trkpt>
      <trkpt lat="47.28761" lon="-2.53088">
        <ele>-6.5999999046326</ele>
        <time>2020-09-03T09:33:46.000Z</time>
      </trkpt>
      <trkpt lat="47.28761" lon="-2.53084">
        <ele>-7</ele>
        <time>2020-09-03T09:33:47.000Z</time>
      </trkpt>
      <trkpt lat="47.2876" lon="-2.5308">
        <ele>-7</ele>
        <time>2020-09-03T09:33:48.000Z</time>
      </trkpt>
      <trkpt lat="47.2876" lon="-2.53077">
        <ele>-7</ele>
        <time>2020-09-03T09:33:51.000Z</time>
      </trkpt>
      <trkpt lat="47.28759" lon="-2.53074">
        <ele>-6.5999999046326</ele>
        <time>2020-09-03T09:33:56.000Z</time>
      </trkpt>
      <trkpt lat="47.28759" lon="-2.53072">
        <ele>-6.1999998092651</ele>
        <time>2020-09-03T09:33:57.000Z</time>
      </trkpt>
      <trkpt lat="47.28759" lon="-2.53069">
        <ele>-6.1999998092651</ele>
        <time>2020-09-03T09:33:58.000Z</time>
      </trkpt>
      <trkpt lat="47.28758" lon="-2.53065">
        <ele>-6.4000000953674</ele>
        <time>2020-09-03T09:33:59.000Z</time>
      </trkpt>
      <trkpt lat="47.28758" lon="-2.53062">
        <ele>-6.4000000953674</ele>
        <time>2020-09-03T09:34:00.000Z</time>
      </trkpt>
      <trkpt lat="47.28758" lon="-2.53058">
        <ele>-6.4000000953674</ele>
        <time>2020-09-03T09:34:01.000Z</time>
      </trkpt>
      <trkpt lat="47.28757" lon="-2.53054">
        <ele>-6.4000000953674</ele>
        <time>2020-09-03T09:34:02.000Z</time>
      </trkpt>
      <trkpt lat="47.28755" lon="-2.53032">
        <ele>-6.4000000953674</ele>
        <time>2020-09-03T09:34:10.000Z</time>
      </trkpt>
      <trkpt lat="47.28753" lon="-2.53002">
        <ele>-6.4000000953674</ele>
        <time>2020-09-03T09:34:19.000Z</time>
      </trkpt>
      <trkpt lat="47.28749" lon="-2.52972">
        <ele>-6.4000000953674</ele>
        <time>2020-09-03T09:34:27.000Z</time>
      </trkpt>
      <trkpt lat="47.28745" lon="-2.52932">
        <ele>-6.4000000953674</ele>
        <time>2020-09-03T09:34:35.000Z</time>
      </trkpt>
      <trkpt lat="47.28741" lon="-2.52891">
        <ele>-6.4000000953674</ele>
        <time>2020-09-03T09:34:41.000Z</time>
      </trkpt>
      <trkpt lat="47.28737" lon="-2.52844">
        <ele>-6.8000001907349</ele>
        <time>2020-09-03T09:34:47.000Z</time>
      </trkpt>
      <trkpt lat="47.28736" lon="-2.52836">
        <ele>-7.1999998092651</ele>
        <time>2020-09-03T09:34:48.000Z</time>
      </trkpt>
      <trkpt lat="47.28735" lon="-2.52827">
        <ele>-7.5999999046326</ele>
        <time>2020-09-03T09:34:49.000Z</time>
      </trkpt>
      <trkpt lat="47.28734" lon="-2.52819">
        <ele>-8</ele>
        <time>2020-09-03T09:34:50.000Z</time>
      </trkpt>
      <trkpt lat="47.28733" lon="-2.5281">
        <ele>-8.3999996185303</ele>
        <time>2020-09-03T09:34:51.000Z</time>
      </trkpt>
      <trkpt lat="47.28727" lon="-2.5274">
        <ele>-8.3999996185303</ele>
        <time>2020-09-03T09:34:59.000Z</time>
      </trkpt>
      <trkpt lat="47.28726" lon="-2.52731">
        <ele>-8.8000001907349</ele>
        <time>2020-09-03T09:35:00.000Z</time>
      </trkpt>
      <trkpt lat="47.28725" lon="-2.52722">
        <ele>-9.3999996185303</ele>
        <time>2020-09-03T09:35:01.000Z</time>
      </trkpt>
      <trkpt lat="47.28724" lon="-2.52713">
        <ele>-9.8000001907349</ele>
        <time>2020-09-03T09:35:02.000Z</time>
      </trkpt>
      <trkpt lat="47.28723" lon="-2.52704">
        <ele>-10.199999809265</ele>
        <time>2020-09-03T09:35:03.000Z</time>
      </trkpt>
      <trkpt lat="47.28722" lon="-2.52695">
        <ele>-10.60000038147</ele>
        <time>2020-09-03T09:35:04.000Z</time>
      </trkpt>
      <trkpt lat="47.28719" lon="-2.52659">
        <ele>-10.60000038147</ele>
        <time>2020-09-03T09:35:08.000Z</time>
      </trkpt>
      <trkpt lat="47.28714" lon="-2.5261">
        <ele>-11</ele>
        <time>2020-09-03T09:35:13.000Z</time>
      </trkpt>
      <trkpt lat="47.28714" lon="-2.526">
        <ele>-11.39999961853</ele>
        <time>2020-09-03T09:35:14.000Z</time>
      </trkpt>
      <trkpt lat="47.28714" lon="-2.5259">
        <ele>-11.800000190735</ele>
        <time>2020-09-03T09:35:15.000Z</time>
      </trkpt>
      <trkpt lat="47.28714" lon="-2.5258">
        <ele>-12.199999809265</ele>
        <time>2020-09-03T09:35:16.000Z</time>
      </trkpt>
      <trkpt lat="47.28714" lon="-2.52569">
        <ele>-12.60000038147</ele>
        <time>2020-09-03T09:35:17.000Z</time>
      </trkpt>
      <trkpt lat="47.28719" lon="-2.52529">
        <ele>-12.60000038147</ele>
        <time>2020-09-03T09:35:21.000Z</time>
      </trkpt>
      <trkpt lat="47.28727" lon="-2.52491">
        <ele>-12.60000038147</ele>
        <time>2020-09-03T09:35:25.000Z</time>
      </trkpt>
      <trkpt lat="47.28732" lon="-2.52474">
        <ele>-12.60000038147</ele>
        <time>2020-09-03T09:35:27.000Z</time>
      </trkpt>
      <trkpt lat="47.28742" lon="-2.52434">
        <ele>-12.60000038147</ele>
        <time>2020-09-03T09:35:32.000Z</time>
      </trkpt>
      <trkpt lat="47.28744" lon="-2.52417">
        <ele>-12.60000038147</ele>
        <time>2020-09-03T09:35:34.000Z</time>
      </trkpt>
      <trkpt lat="47.28744" lon="-2.52408">
        <ele>-12.60000038147</ele>
        <time>2020-09-03T09:35:35.000Z</time>
      </trkpt>
      <trkpt lat="47.28742" lon="-2.52385">
        <ele>-12.60000038147</ele>
        <time>2020-09-03T09:35:38.000Z</time>
      </trkpt>
      <trkpt lat="47.28736" lon="-2.52347">
        <ele>-12.60000038147</ele>
        <time>2020-09-03T09:35:44.000Z</time>
      </trkpt>
      <trkpt lat="47.28733" lon="-2.5233">
        <ele>-12.199999809265</ele>
        <time>2020-09-03T09:35:47.000Z</time>
      </trkpt>
      <trkpt lat="47.28732" lon="-2.52324">
        <ele>-11.800000190735</ele>
        <time>2020-09-03T09:35:48.000Z</time>
      </trkpt>
      <trkpt lat="47.2873" lon="-2.52318">
        <ele>-11.39999961853</ele>
        <time>2020-09-03T09:35:49.000Z</time>
      </trkpt>
      <trkpt lat="47.28729" lon="-2.52312">
        <ele>-11</ele>
        <time>2020-09-03T09:35:50.000Z</time>
      </trkpt>
      <trkpt lat="47.28728" lon="-2.52305">
        <ele>-10.39999961853</ele>
        <time>2020-09-03T09:35:51.000Z</time>
      </trkpt>
      <trkpt lat="47.28717" lon="-2.52252">
        <ele>-10.39999961853</ele>
        <time>2020-09-03T09:35:59.000Z</time>
      </trkpt>
      <trkpt lat="47.28701" lon="-2.52196">
        <ele>-10.39999961853</ele>
        <time>2020-09-03T09:36:07.000Z</time>
      </trkpt>
      <trkpt lat="47.28684" lon="-2.52148">
        <ele>-10.39999961853</ele>
        <time>2020-09-03T09:36:14.000Z</time>
      </trkpt>
      <trkpt lat="47.28668" lon="-2.52101">
        <ele>-10.39999961853</ele>
        <time>2020-09-03T09:36:21.000Z</time>
      </trkpt>
      <trkpt lat="47.28643" lon="-2.52032">
        <ele>-10.39999961853</ele>
        <time>2020-09-03T09:36:31.000Z</time>
      </trkpt>
      <trkpt lat="47.28634" lon="-2.5198">
        <ele>-10.39999961853</ele>
        <time>2020-09-03T09:36:37.000Z</time>
      </trkpt>
      <trkpt lat="47.2863" lon="-2.51925">
        <ele>-11</ele>
        <time>2020-09-03T09:36:43.000Z</time>
      </trkpt>
      <trkpt lat="47.2863" lon="-2.51915">
        <ele>-11.39999961853</ele>
        <time>2020-09-03T09:36:44.000Z</time>
      </trkpt>
      <trkpt lat="47.28629" lon="-2.51906">
        <ele>-11.800000190735</ele>
        <time>2020-09-03T09:36:45.000Z</time>
      </trkpt>
      <trkpt lat="47.28628" lon="-2.51896">
        <ele>-12.199999809265</ele>
        <time>2020-09-03T09:36:46.000Z</time>
      </trkpt>
      <trkpt lat="47.28627" lon="-2.51886">
        <ele>-12.60000038147</ele>
        <time>2020-09-03T09:36:47.000Z</time>
      </trkpt>
      <trkpt lat="47.28625" lon="-2.51876">
        <ele>-12.60000038147</ele>
        <time>2020-09-03T09:36:48.000Z</time>
      </trkpt>
      <trkpt lat="47.2862" lon="-2.51857">
        <ele>-12.60000038147</ele>
        <time>2020-09-03T09:36:50.000Z</time>
      </trkpt>
      <trkpt lat="47.28603" lon="-2.51827">
        <ele>-12.60000038147</ele>
        <time>2020-09-03T09:36:54.000Z</time>
      </trkpt>
      <trkpt lat="47.28577" lon="-2.518">
        <ele>-12.60000038147</ele>
        <time>2020-09-03T09:36:59.000Z</time>
      </trkpt>
      <trkpt lat="47.28569" lon="-2.5179">
        <ele>-12.60000038147</ele>
        <time>2020-09-03T09:37:01.000Z</time>
      </trkpt>
      <trkpt lat="47.28562" lon="-2.51778">
        <ele>-12.60000038147</ele>
        <time>2020-09-03T09:37:03.000Z</time>
      </trkpt>
      <trkpt lat="47.28559" lon="-2.51771">
        <ele>-12.60000038147</ele>
        <time>2020-09-03T09:37:04.000Z</time>
      </trkpt>
      <trkpt lat="47.28552" lon="-2.51747">
        <ele>-12.60000038147</ele>
        <time>2020-09-03T09:37:07.000Z</time>
      </trkpt>
      <trkpt lat="47.28549" lon="-2.5173">
        <ele>-12.60000038147</ele>
        <time>2020-09-03T09:37:09.000Z</time>
      </trkpt>
      <trkpt lat="47.28543" lon="-2.51685">
        <ele>-13</ele>
        <time>2020-09-03T09:37:14.000Z</time>
      </trkpt>
      <trkpt lat="47.28542" lon="-2.51676">
        <ele>-13.39999961853</ele>
        <time>2020-09-03T09:37:15.000Z</time>
      </trkpt>
      <trkpt lat="47.28541" lon="-2.51667">
        <ele>-13.800000190735</ele>
        <time>2020-09-03T09:37:16.000Z</time>
      </trkpt>
      <trkpt lat="47.2854" lon="-2.51658">
        <ele>-14.199999809265</ele>
        <time>2020-09-03T09:37:17.000Z</time>
      </trkpt>
      <trkpt lat="47.28538" lon="-2.51649">
        <ele>-14.60000038147</ele>
        <time>2020-09-03T09:37:18.000Z</time>
      </trkpt>
      <trkpt lat="47.28528" lon="-2.51577">
        <ele>-14.60000038147</ele>
        <time>2020-09-03T09:37:26.000Z</time>
      </trkpt>
      <trkpt lat="47.28515" lon="-2.51493">
        <ele>-14.60000038147</ele>
        <time>2020-09-03T09:37:35.000Z</time>
      </trkpt>
      <trkpt lat="47.28511" lon="-2.51486">
        <ele>-14.60000038147</ele>
        <time>2020-09-03T09:37:36.000Z</time>
      </trkpt>
      <trkpt lat="47.28497" lon="-2.51469">
        <ele>-14.60000038147</ele>
        <time>2020-09-03T09:37:39.000Z</time>
      </trkpt>
      <trkpt lat="47.28492" lon="-2.51464">
        <ele>-14.60000038147</ele>
        <time>2020-09-03T09:37:40.000Z</time>
      </trkpt>
      <trkpt lat="47.28456" lon="-2.51426">
        <ele>-14.60000038147</ele>
        <time>2020-09-03T09:37:48.000Z</time>
      </trkpt>
      <trkpt lat="47.28444" lon="-2.51395">
        <ele>-14.60000038147</ele>
        <time>2020-09-03T09:37:53.000Z</time>
      </trkpt>
      <trkpt lat="47.28442" lon="-2.51372">
        <ele>-14.60000038147</ele>
        <time>2020-09-03T09:37:56.000Z</time>
      </trkpt>
      <trkpt lat="47.28441" lon="-2.51365">
        <ele>-14.60000038147</ele>
        <time>2020-09-03T09:37:57.000Z</time>
      </trkpt>
      <trkpt lat="47.28438" lon="-2.51334">
        <ele>-14.60000038147</ele>
        <time>2020-09-03T09:38:01.000Z</time>
      </trkpt>
      <trkpt lat="47.28434" lon="-2.51323">
        <ele>-14.60000038147</ele>
        <time>2020-09-03T09:38:03.000Z</time>
      </trkpt>
      <trkpt lat="47.28411" lon="-2.51278">
        <ele>-14.60000038147</ele>
        <time>2020-09-03T09:38:11.000Z</time>
      </trkpt>
      <trkpt lat="47.28392" lon="-2.51262">
        <ele>-14.60000038147</ele>
        <time>2020-09-03T09:38:15.000Z</time>
      </trkpt>
      <trkpt lat="47.28387" lon="-2.51259">
        <ele>-14.60000038147</ele>
        <time>2020-09-03T09:38:16.000Z</time>
      </trkpt>
      <trkpt lat="47.2834" lon="-2.51225">
        <ele>-14.60000038147</ele>
        <time>2020-09-03T09:38:25.000Z</time>
      </trkpt>
      <trkpt lat="47.28314" lon="-2.51206">
        <ele>-14.60000038147</ele>
        <time>2020-09-03T09:38:30.000Z</time>
      </trkpt>
      <trkpt lat="47.28305" lon="-2.51195">
        <ele>-14.60000038147</ele>
        <time>2020-09-03T09:38:32.000Z</time>
      </trkpt>
      <trkpt lat="47.28293" lon="-2.51166">
        <ele>-14.60000038147</ele>
        <time>2020-09-03T09:38:36.000Z</time>
      </trkpt>
      <trkpt lat="47.28276" lon="-2.51115">
        <ele>-14.60000038147</ele>
        <time>2020-09-03T09:38:43.000Z</time>
      </trkpt>
      <trkpt lat="47.28258" lon="-2.51066">
        <ele>-14.60000038147</ele>
        <time>2020-09-03T09:38:50.000Z</time>
      </trkpt>
      <trkpt lat="47.28245" lon="-2.51017">
        <ele>-14.60000038147</ele>
        <time>2020-09-03T09:38:56.000Z</time>
      </trkpt>
      <trkpt lat="47.28236" lon="-2.50953">
        <ele>-14.60000038147</ele>
        <time>2020-09-03T09:39:03.000Z</time>
      </trkpt>
      <trkpt lat="47.28226" lon="-2.50885">
        <ele>-14.60000038147</ele>
        <time>2020-09-03T09:39:10.000Z</time>
      </trkpt>
      <trkpt lat="47.28211" lon="-2.50822">
        <ele>-14.60000038147</ele>
        <time>2020-09-03T09:39:17.000Z</time>
      </trkpt>
      <trkpt lat="47.28205" lon="-2.50777">
        <ele>-14.60000038147</ele>
        <time>2020-09-03T09:39:22.000Z</time>
      </trkpt>
      <trkpt lat="47.282" lon="-2.50723">
        <ele>-14.60000038147</ele>
        <time>2020-09-03T09:39:28.000Z</time>
      </trkpt>
      <trkpt lat="47.28202" lon="-2.50714">
        <ele>-14.60000038147</ele>
        <time>2020-09-03T09:39:29.000Z</time>
      </trkpt>
      <trkpt lat="47.28211" lon="-2.5068">
        <ele>-14.60000038147</ele>
        <time>2020-09-03T09:39:33.000Z</time>
      </trkpt>
      <trkpt lat="47.28222" lon="-2.50625">
        <ele>-14.60000038147</ele>
        <time>2020-09-03T09:39:39.000Z</time>
      </trkpt>
      <trkpt lat="47.2823" lon="-2.50599">
        <ele>-14.60000038147</ele>
        <time>2020-09-03T09:39:42.000Z</time>
      </trkpt>
      <trkpt lat="47.28235" lon="-2.50581">
        <ele>-14.60000038147</ele>
        <time>2020-09-03T09:39:44.000Z</time>
      </trkpt>
      <trkpt lat="47.28251" lon="-2.50518">
        <ele>-14.60000038147</ele>
        <time>2020-09-03T09:39:51.000Z</time>
      </trkpt>
      <trkpt lat="47.28267" lon="-2.50455">
        <ele>-14.60000038147</ele>
        <time>2020-09-03T09:39:58.000Z</time>
      </trkpt>
      <trkpt lat="47.28271" lon="-2.50438">
        <ele>-15.199999809265</ele>
        <time>2020-09-03T09:40:00.000Z</time>
      </trkpt>
      <trkpt lat="47.28273" lon="-2.50429">
        <ele>-15.60000038147</ele>
        <time>2020-09-03T09:40:01.000Z</time>
      </trkpt>
      <trkpt lat="47.28274" lon="-2.50421">
        <ele>-16</ele>
        <time>2020-09-03T09:40:02.000Z</time>
      </trkpt>
      <trkpt lat="47.28275" lon="-2.50413">
        <ele>-16.39999961853</ele>
        <time>2020-09-03T09:40:03.000Z</time>
      </trkpt>
      <trkpt lat="47.28276" lon="-2.50407">
        <ele>-17</ele>
        <time>2020-09-03T09:40:04.000Z</time>
      </trkpt>
      <trkpt lat="47.28281" lon="-2.50357">
        <ele>-17</ele>
        <time>2020-09-03T09:40:11.000Z</time>
      </trkpt>
      <trkpt lat="47.2828" lon="-2.50349">
        <ele>-17</ele>
        <time>2020-09-03T09:40:12.000Z</time>
      </trkpt>
      <trkpt lat="47.28276" lon="-2.50316">
        <ele>-17</ele>
        <time>2020-09-03T09:40:16.000Z</time>
      </trkpt>
      <trkpt lat="47.28273" lon="-2.50301">
        <ele>-17</ele>
        <time>2020-09-03T09:40:18.000Z</time>
      </trkpt>
      <trkpt lat="47.28262" lon="-2.50273">
        <ele>-17</ele>
        <time>2020-09-03T09:40:22.000Z</time>
      </trkpt>
      <trkpt lat="47.28256" lon="-2.50261">
        <ele>-17</ele>
        <time>2020-09-03T09:40:24.000Z</time>
      </trkpt>
      <trkpt lat="47.28239" lon="-2.50241">
        <ele>-17</ele>
        <time>2020-09-03T09:40:28.000Z</time>
      </trkpt>
      <trkpt lat="47.28218" lon="-2.50202">
        <ele>-17</ele>
        <time>2020-09-03T09:40:34.000Z</time>
      </trkpt>
      <trkpt lat="47.28204" lon="-2.50159">
        <ele>-17</ele>
        <time>2020-09-03T09:40:41.000Z</time>
      </trkpt>
      <trkpt lat="47.28196" lon="-2.5012">
        <ele>-17</ele>
        <time>2020-09-03T09:40:48.000Z</time>
      </trkpt>
      <trkpt lat="47.2819" lon="-2.50084">
        <ele>-17</ele>
        <time>2020-09-03T09:40:53.000Z</time>
      </trkpt>
      <trkpt lat="47.2818" lon="-2.50038">
        <ele>-17</ele>
        <time>2020-09-03T09:40:59.000Z</time>
      </trkpt>
      <trkpt lat="47.28172" lon="-2.50002">
        <ele>-17</ele>
        <time>2020-09-03T09:41:04.000Z</time>
      </trkpt>
      <trkpt lat="47.2817" lon="-2.49972">
        <ele>-17</ele>
        <time>2020-09-03T09:41:09.000Z</time>
      </trkpt>
      <trkpt lat="47.28167" lon="-2.49955">
        <ele>-17</ele>
        <time>2020-09-03T09:41:12.000Z</time>
      </trkpt>
      <trkpt lat="47.28163" lon="-2.49943">
        <ele>-17</ele>
        <time>2020-09-03T09:41:14.000Z</time>
      </trkpt>
      <trkpt lat="47.28159" lon="-2.49928">
        <ele>-17</ele>
        <time>2020-09-03T09:41:16.000Z</time>
      </trkpt>
      <trkpt lat="47.28157" lon="-2.49904">
        <ele>-17</ele>
        <time>2020-09-03T09:41:19.000Z</time>
      </trkpt>
      <trkpt lat="47.28151" lon="-2.49855">
        <ele>-17</ele>
        <time>2020-09-03T09:41:25.000Z</time>
      </trkpt>
      <trkpt lat="47.2815" lon="-2.49847">
        <ele>-17</ele>
        <time>2020-09-03T09:41:26.000Z</time>
      </trkpt>
      <trkpt lat="47.28146" lon="-2.49818">
        <ele>-17</ele>
        <time>2020-09-03T09:41:31.000Z</time>
      </trkpt>
      <trkpt lat="47.28142" lon="-2.4979">
        <ele>-17</ele>
        <time>2020-09-03T09:41:37.000Z</time>
      </trkpt>
      <trkpt lat="47.28141" lon="-2.49784">
        <ele>-17</ele>
        <time>2020-09-03T09:41:38.000Z</time>
      </trkpt>
      <trkpt lat="47.28138" lon="-2.49754">
        <ele>-17</ele>
        <time>2020-09-03T09:41:43.000Z</time>
      </trkpt>
      <trkpt lat="47.28133" lon="-2.49711">
        <ele>-17</ele>
        <time>2020-09-03T09:41:50.000Z</time>
      </trkpt>
      <trkpt lat="47.28131" lon="-2.49698">
        <ele>-16.60000038147</ele>
        <time>2020-09-03T09:41:52.000Z</time>
      </trkpt>
      <trkpt lat="47.2813" lon="-2.49691">
        <ele>-16.200000762939</ele>
        <time>2020-09-03T09:41:53.000Z</time>
      </trkpt>
      <trkpt lat="47.28129" lon="-2.49684">
        <ele>-15.800000190735</ele>
        <time>2020-09-03T09:41:54.000Z</time>
      </trkpt>
      <trkpt lat="47.28128" lon="-2.49677">
        <ele>-15.39999961853</ele>
        <time>2020-09-03T09:41:55.000Z</time>
      </trkpt>
      <trkpt lat="47.28127" lon="-2.4967">
        <ele>-15</ele>
        <time>2020-09-03T09:41:56.000Z</time>
      </trkpt>
      <trkpt lat="47.28123" lon="-2.49658">
        <ele>-15</ele>
        <time>2020-09-03T09:41:58.000Z</time>
      </trkpt>
      <trkpt lat="47.28111" lon="-2.49625">
        <ele>-15</ele>
        <time>2020-09-03T09:42:04.000Z</time>
      </trkpt>
      <trkpt lat="47.28109" lon="-2.49614">
        <ele>-15</ele>
        <time>2020-09-03T09:42:06.000Z</time>
      </trkpt>
      <trkpt lat="47.28112" lon="-2.49602">
        <ele>-15</ele>
        <time>2020-09-03T09:42:08.000Z</time>
      </trkpt>
      <trkpt lat="47.28117" lon="-2.49583">
        <ele>-15</ele>
        <time>2020-09-03T09:42:11.000Z</time>
      </trkpt>
      <trkpt lat="47.28118" lon="-2.49576">
        <ele>-15</ele>
        <time>2020-09-03T09:42:12.000Z</time>
      </trkpt>
      <trkpt lat="47.28118" lon="-2.4957">
        <ele>-15</ele>
        <time>2020-09-03T09:42:13.000Z</time>
      </trkpt>
      <trkpt lat="47.28113" lon="-2.4955">
        <ele>-15</ele>
        <time>2020-09-03T09:42:16.000Z</time>
      </trkpt>
      <trkpt lat="47.28112" lon="-2.49543">
        <ele>-15</ele>
        <time>2020-09-03T09:42:17.000Z</time>
      </trkpt>
      <trkpt lat="47.28103" lon="-2.49487">
        <ele>-15</ele>
        <time>2020-09-03T09:42:24.000Z</time>
      </trkpt>
      <trkpt lat="47.28094" lon="-2.49424">
        <ele>-15</ele>
        <time>2020-09-03T09:42:31.000Z</time>
      </trkpt>
      <trkpt lat="47.2808" lon="-2.49337">
        <ele>-15</ele>
        <time>2020-09-03T09:42:40.000Z</time>
      </trkpt>
      <trkpt lat="47.28078" lon="-2.49328">
        <ele>-15</ele>
        <time>2020-09-03T09:42:41.000Z</time>
      </trkpt>
      <trkpt lat="47.28069" lon="-2.49266">
        <ele>-15</ele>
        <time>2020-09-03T09:42:48.000Z</time>
      </trkpt>
      <trkpt lat="47.28058" lon="-2.49196">
        <ele>-15</ele>
        <time>2020-09-03T09:42:56.000Z</time>
      </trkpt>
      <trkpt lat="47.28052" lon="-2.49164">
        <ele>-14.60000038147</ele>
        <time>2020-09-03T09:43:00.000Z</time>
      </trkpt>
      <trkpt lat="47.28051" lon="-2.49156">
        <ele>-14.199999809265</ele>
        <time>2020-09-03T09:43:01.000Z</time>
      </trkpt>
      <trkpt lat="47.2805" lon="-2.49148">
        <ele>-13.800000190735</ele>
        <time>2020-09-03T09:43:02.000Z</time>
      </trkpt>
      <trkpt lat="47.28049" lon="-2.4914">
        <ele>-13.199999809265</ele>
        <time>2020-09-03T09:43:03.000Z</time>
      </trkpt>
      <trkpt lat="47.28047" lon="-2.49132">
        <ele>-12.800000190735</ele>
        <time>2020-09-03T09:43:04.000Z</time>
      </trkpt>
      <trkpt lat="47.28036" lon="-2.49062">
        <ele>-12.800000190735</ele>
        <time>2020-09-03T09:43:13.000Z</time>
      </trkpt>
      <trkpt lat="47.28027" lon="-2.49002">
        <ele>-12.800000190735</ele>
        <time>2020-09-03T09:43:21.000Z</time>
      </trkpt>
      <trkpt lat="47.2802" lon="-2.48948">
        <ele>-12.800000190735</ele>
        <time>2020-09-03T09:43:29.000Z</time>
      </trkpt>
      <trkpt lat="47.28014" lon="-2.48903">
        <ele>-12.800000190735</ele>
        <time>2020-09-03T09:43:36.000Z</time>
      </trkpt>
      <trkpt lat="47.28007" lon="-2.48856">
        <ele>-12.800000190735</ele>
        <time>2020-09-03T09:43:43.000Z</time>
      </trkpt>
      <trkpt lat="47.28002" lon="-2.4882">
        <ele>-12.800000190735</ele>
        <time>2020-09-03T09:43:49.000Z</time>
      </trkpt>
      <trkpt lat="47.27998" lon="-2.48793">
        <ele>-12.800000190735</ele>
        <time>2020-09-03T09:43:54.000Z</time>
      </trkpt>
      <trkpt lat="47.27991" lon="-2.48783">
        <ele>-12.800000190735</ele>
        <time>2020-09-03T09:43:56.000Z</time>
      </trkpt>
      <trkpt lat="47.27988" lon="-2.48769">
        <ele>-12.39999961853</ele>
        <time>2020-09-03T09:43:58.000Z</time>
      </trkpt>
      <trkpt lat="47.27988" lon="-2.48762">
        <ele>-12</ele>
        <time>2020-09-03T09:43:59.000Z</time>
      </trkpt>
      <trkpt lat="47.27988" lon="-2.48754">
        <ele>-11.60000038147</ele>
        <time>2020-09-03T09:44:00.000Z</time>
      </trkpt>
      <trkpt lat="47.27988" lon="-2.48745">
        <ele>-11.199999809265</ele>
        <time>2020-09-03T09:44:01.000Z</time>
      </trkpt>
      <trkpt lat="47.27988" lon="-2.48737">
        <ele>-10.800000190735</ele>
        <time>2020-09-03T09:44:02.000Z</time>
      </trkpt>
      <trkpt lat="47.27985" lon="-2.48721">
        <ele>-10.800000190735</ele>
        <time>2020-09-03T09:44:04.000Z</time>
      </trkpt>
      <trkpt lat="47.27979" lon="-2.48698">
        <ele>-10.800000190735</ele>
        <time>2020-09-03T09:44:07.000Z</time>
      </trkpt>
      <trkpt lat="47.27971" lon="-2.48675">
        <ele>-10.800000190735</ele>
        <time>2020-09-03T09:44:10.000Z</time>
      </trkpt>
      <trkpt lat="47.27947" lon="-2.48609">
        <ele>-10.800000190735</ele>
        <time>2020-09-03T09:44:19.000Z</time>
      </trkpt>
      <trkpt lat="47.27923" lon="-2.48541">
        <ele>-10.800000190735</ele>
        <time>2020-09-03T09:44:28.000Z</time>
      </trkpt>
      <trkpt lat="47.27908" lon="-2.48493">
        <ele>-10.800000190735</ele>
        <time>2020-09-03T09:44:34.000Z</time>
      </trkpt>
      <trkpt lat="47.27885" lon="-2.48431">
        <ele>-10.800000190735</ele>
        <time>2020-09-03T09:44:42.000Z</time>
      </trkpt>
      <trkpt lat="47.2786" lon="-2.48363">
        <ele>-10.800000190735</ele>
        <time>2020-09-03T09:44:51.000Z</time>
      </trkpt>
      <trkpt lat="47.2784" lon="-2.48313">
        <ele>-10.800000190735</ele>
        <time>2020-09-03T09:44:58.000Z</time>
      </trkpt>
      <trkpt lat="47.27823" lon="-2.48265">
        <ele>-10.800000190735</ele>
        <time>2020-09-03T09:45:05.000Z</time>
      </trkpt>
      <trkpt lat="47.27805" lon="-2.48216">
        <ele>-10.800000190735</ele>
        <time>2020-09-03T09:45:13.000Z</time>
      </trkpt>
      <trkpt lat="47.2779" lon="-2.4817">
        <ele>-10.39999961853</ele>
        <time>2020-09-03T09:45:21.000Z</time>
      </trkpt>
      <trkpt lat="47.27787" lon="-2.48164">
        <ele>-10</ele>
        <time>2020-09-03T09:45:22.000Z</time>
      </trkpt>
      <trkpt lat="47.27785" lon="-2.48158">
        <ele>-9.6000003814697</ele>
        <time>2020-09-03T09:45:23.000Z</time>
      </trkpt>
      <trkpt lat="47.27782" lon="-2.48152">
        <ele>-9.1999998092651</ele>
        <time>2020-09-03T09:45:24.000Z</time>
      </trkpt>
      <trkpt lat="47.2778" lon="-2.48146">
        <ele>-8.8000001907349</ele>
        <time>2020-09-03T09:45:25.000Z</time>
      </trkpt>
      <trkpt lat="47.2777" lon="-2.48116">
        <ele>-8.8000001907349</ele>
        <time>2020-09-03T09:45:30.000Z</time>
      </trkpt>
      <trkpt lat="47.2776" lon="-2.4808">
        <ele>-8.3999996185303</ele>
        <time>2020-09-03T09:45:36.000Z</time>
      </trkpt>
      <trkpt lat="47.27759" lon="-2.48075">
        <ele>-8</ele>
        <time>2020-09-03T09:45:37.000Z</time>
      </trkpt>
      <trkpt lat="47.27758" lon="-2.48069">
        <ele>-7.5999999046326</ele>
        <time>2020-09-03T09:45:38.000Z</time>
      </trkpt>
      <trkpt lat="47.27758" lon="-2.48064">
        <ele>-7.1999998092651</ele>
        <time>2020-09-03T09:45:39.000Z</time>
      </trkpt>
      <trkpt lat="47.27757" lon="-2.48058">
        <ele>-6.5999999046326</ele>
        <time>2020-09-03T09:45:40.000Z</time>
      </trkpt>
      <trkpt lat="47.27753" lon="-2.48037">
        <ele>-6.5999999046326</ele>
        <time>2020-09-03T09:45:44.000Z</time>
      </trkpt>
      <trkpt lat="47.27751" lon="-2.48022">
        <ele>-6.5999999046326</ele>
        <time>2020-09-03T09:45:48.000Z</time>
      </trkpt>
      <trkpt lat="47.2775" lon="-2.47997">
        <ele>-6.5999999046326</ele>
        <time>2020-09-03T09:45:53.000Z</time>
      </trkpt>
      <trkpt lat="47.2775" lon="-2.47965">
        <ele>-6.5999999046326</ele>
        <time>2020-09-03T09:45:58.000Z</time>
      </trkpt>
      <trkpt lat="47.27749" lon="-2.47957">
        <ele>-6.5999999046326</ele>
        <time>2020-09-03T09:45:59.000Z</time>
      </trkpt>
      <trkpt lat="47.27748" lon="-2.47912">
        <ele>-6.5999999046326</ele>
        <time>2020-09-03T09:46:05.000Z</time>
      </trkpt>
      <trkpt lat="47.27749" lon="-2.47904">
        <ele>-6.5999999046326</ele>
        <time>2020-09-03T09:46:06.000Z</time>
      </trkpt>
      <trkpt lat="47.27758" lon="-2.47832">
        <ele>-6.5999999046326</ele>
        <time>2020-09-03T09:46:15.000Z</time>
      </trkpt>
      <trkpt lat="47.27763" lon="-2.4779">
        <ele>-7.1999998092651</ele>
        <time>2020-09-03T09:46:20.000Z</time>
      </trkpt>
      <trkpt lat="47.27764" lon="-2.47781">
        <ele>-7.5999999046326</ele>
        <time>2020-09-03T09:46:21.000Z</time>
      </trkpt>
      <trkpt lat="47.27765" lon="-2.47771">
        <ele>-8</ele>
        <time>2020-09-03T09:46:22.000Z</time>
      </trkpt>
      <trkpt lat="47.27766" lon="-2.47762">
        <ele>-8.3999996185303</ele>
        <time>2020-09-03T09:46:23.000Z</time>
      </trkpt>
      <trkpt lat="47.27767" lon="-2.47752">
        <ele>-8.8000001907349</ele>
        <time>2020-09-03T09:46:24.000Z</time>
      </trkpt>
      <trkpt lat="47.27771" lon="-2.47694">
        <ele>-8.8000001907349</ele>
        <time>2020-09-03T09:46:30.000Z</time>
      </trkpt>
      <trkpt lat="47.27775" lon="-2.47632">
        <ele>-8.8000001907349</ele>
        <time>2020-09-03T09:46:37.000Z</time>
      </trkpt>
      <trkpt lat="47.27776" lon="-2.47606">
        <ele>-9.1999998092651</ele>
        <time>2020-09-03T09:46:40.000Z</time>
      </trkpt>
      <trkpt lat="47.27776" lon="-2.47598">
        <ele>-9.6000003814697</ele>
        <time>2020-09-03T09:46:41.000Z</time>
      </trkpt>
      <trkpt lat="47.27776" lon="-2.4759">
        <ele>-10.199999809265</ele>
        <time>2020-09-03T09:46:42.000Z</time>
      </trkpt>
      <trkpt lat="47.27777" lon="-2.47582">
        <ele>-11</ele>
        <time>2020-09-03T09:46:43.000Z</time>
      </trkpt>
      <trkpt lat="47.27778" lon="-2.47566">
        <ele>-11</ele>
        <time>2020-09-03T09:46:45.000Z</time>
      </trkpt>
      <trkpt lat="47.27786" lon="-2.47513">
        <ele>-11</ele>
        <time>2020-09-03T09:46:52.000Z</time>
      </trkpt>
      <trkpt lat="47.27786" lon="-2.47505">
        <ele>-11.39999961853</ele>
        <time>2020-09-03T09:46:53.000Z</time>
      </trkpt>
      <trkpt lat="47.27787" lon="-2.47496">
        <ele>-11.800000190735</ele>
        <time>2020-09-03T09:46:54.000Z</time>
      </trkpt>
      <trkpt lat="47.27786" lon="-2.47487">
        <ele>-12.199999809265</ele>
        <time>2020-09-03T09:46:55.000Z</time>
      </trkpt>
      <trkpt lat="47.27786" lon="-2.47478">
        <ele>-12.60000038147</ele>
        <time>2020-09-03T09:46:56.000Z</time>
      </trkpt>
      <trkpt lat="47.27786" lon="-2.47469">
        <ele>-13</ele>
        <time>2020-09-03T09:46:57.000Z</time>
      </trkpt>
      <trkpt lat="47.27785" lon="-2.4746">
        <ele>-13</ele>
        <time>2020-09-03T09:46:58.000Z</time>
      </trkpt>
      <trkpt lat="47.27786" lon="-2.47386">
        <ele>-13</ele>
        <time>2020-09-03T09:47:06.000Z</time>
      </trkpt>
      <trkpt lat="47.27785" lon="-2.47369">
        <ele>-13.39999961853</ele>
        <time>2020-09-03T09:47:08.000Z</time>
      </trkpt>
      <trkpt lat="47.27785" lon="-2.47362">
        <ele>-13.800000190735</ele>
        <time>2020-09-03T09:47:09.000Z</time>
      </trkpt>
      <trkpt lat="47.27785" lon="-2.47354">
        <ele>-14.199999809265</ele>
        <time>2020-09-03T09:47:10.000Z</time>
      </trkpt>
      <trkpt lat="47.27785" lon="-2.47347">
        <ele>-14.60000038147</ele>
        <time>2020-09-03T09:47:11.000Z</time>
      </trkpt>
      <trkpt lat="47.27786" lon="-2.47339">
        <ele>-15</ele>
        <time>2020-09-03T09:47:12.000Z</time>
      </trkpt>
      <trkpt lat="47.27786" lon="-2.47331">
        <ele>-15</ele>
        <time>2020-09-03T09:47:13.000Z</time>
      </trkpt>
      <trkpt lat="47.27787" lon="-2.47279">
        <ele>-15</ele>
        <time>2020-09-03T09:47:19.000Z</time>
      </trkpt>
      <trkpt lat="47.27788" lon="-2.47211">
        <ele>-15</ele>
        <time>2020-09-03T09:47:26.000Z</time>
      </trkpt>
      <trkpt lat="47.27787" lon="-2.4715">
        <ele>-15</ele>
        <time>2020-09-03T09:47:32.000Z</time>
      </trkpt>
      <trkpt lat="47.27784" lon="-2.47074">
        <ele>-15</ele>
        <time>2020-09-03T09:47:40.000Z</time>
      </trkpt>
      <trkpt lat="47.27788" lon="-2.47046">
        <ele>-15</ele>
        <time>2020-09-03T09:47:43.000Z</time>
      </trkpt>
      <trkpt lat="47.27788" lon="-2.47017">
        <ele>-15</ele>
        <time>2020-09-03T09:47:46.000Z</time>
      </trkpt>
      <trkpt lat="47.27788" lon="-2.46999">
        <ele>-15</ele>
        <time>2020-09-03T09:47:48.000Z</time>
      </trkpt>
      <trkpt lat="47.27787" lon="-2.46957">
        <ele>-15</ele>
        <time>2020-09-03T09:47:53.000Z</time>
      </trkpt>
      <trkpt lat="47.27785" lon="-2.46949">
        <ele>-15</ele>
        <time>2020-09-03T09:47:54.000Z</time>
      </trkpt>
      <trkpt lat="47.27775" lon="-2.46928">
        <ele>-15</ele>
        <time>2020-09-03T09:47:57.000Z</time>
      </trkpt>
      <trkpt lat="47.27774" lon="-2.46921">
        <ele>-15</ele>
        <time>2020-09-03T09:47:58.000Z</time>
      </trkpt>
      <trkpt lat="47.27778" lon="-2.46896">
        <ele>-15</ele>
        <time>2020-09-03T09:48:01.000Z</time>
      </trkpt>
      <trkpt lat="47.27785" lon="-2.46859">
        <ele>-15</ele>
        <time>2020-09-03T09:48:05.000Z</time>
      </trkpt>
      <trkpt lat="47.27785" lon="-2.46839">
        <ele>-15</ele>
        <time>2020-09-03T09:48:07.000Z</time>
      </trkpt>
      <trkpt lat="47.27785" lon="-2.468">
        <ele>-15</ele>
        <time>2020-09-03T09:48:11.000Z</time>
      </trkpt>
      <trkpt lat="47.27786" lon="-2.46731">
        <ele>-15</ele>
        <time>2020-09-03T09:48:18.000Z</time>
      </trkpt>
      <trkpt lat="47.27794" lon="-2.46675">
        <ele>-15</ele>
        <time>2020-09-03T09:48:24.000Z</time>
      </trkpt>
      <trkpt lat="47.27808" lon="-2.46595">
        <ele>-15</ele>
        <time>2020-09-03T09:48:33.000Z</time>
      </trkpt>
      <trkpt lat="47.27818" lon="-2.46541">
        <ele>-15</ele>
        <time>2020-09-03T09:48:39.000Z</time>
      </trkpt>
      <trkpt lat="47.27833" lon="-2.46458">
        <ele>-15</ele>
        <time>2020-09-03T09:48:48.000Z</time>
      </trkpt>
      <trkpt lat="47.27846" lon="-2.46385">
        <ele>-15</ele>
        <time>2020-09-03T09:48:56.000Z</time>
      </trkpt>
      <trkpt lat="47.27848" lon="-2.46375">
        <ele>-15.39999961853</ele>
        <time>2020-09-03T09:48:57.000Z</time>
      </trkpt>
      <trkpt lat="47.2785" lon="-2.46365">
        <ele>-15.800000190735</ele>
        <time>2020-09-03T09:48:58.000Z</time>
      </trkpt>
      <trkpt lat="47.27852" lon="-2.46355">
        <ele>-16.200000762939</ele>
        <time>2020-09-03T09:48:59.000Z</time>
      </trkpt>
      <trkpt lat="47.27854" lon="-2.46346">
        <ele>-16.60000038147</ele>
        <time>2020-09-03T09:49:00.000Z</time>
      </trkpt>
      <trkpt lat="47.27856" lon="-2.46335">
        <ele>-17</ele>
        <time>2020-09-03T09:49:01.000Z</time>
      </trkpt>
      <trkpt lat="47.27859" lon="-2.46316">
        <ele>-17</ele>
        <time>2020-09-03T09:49:03.000Z</time>
      </trkpt>
      <trkpt lat="47.27865" lon="-2.46279">
        <ele>-17</ele>
        <time>2020-09-03T09:49:07.000Z</time>
      </trkpt>
      <trkpt lat="47.27869" lon="-2.46253">
        <ele>-17</ele>
        <time>2020-09-03T09:49:10.000Z</time>
      </trkpt>
      <trkpt lat="47.2787" lon="-2.46202">
        <ele>-17</ele>
        <time>2020-09-03T09:49:16.000Z</time>
      </trkpt>
      <trkpt lat="47.27869" lon="-2.46184">
        <ele>-17</ele>
        <time>2020-09-03T09:49:18.000Z</time>
      </trkpt>
      <trkpt lat="47.27866" lon="-2.46154">
        <ele>-17</ele>
        <time>2020-09-03T09:49:21.000Z</time>
      </trkpt>
      <trkpt lat="47.27861" lon="-2.46126">
        <ele>-17</ele>
        <time>2020-09-03T09:49:24.000Z</time>
      </trkpt>
      <trkpt lat="47.27856" lon="-2.46109">
        <ele>-17</ele>
        <time>2020-09-03T09:49:26.000Z</time>
      </trkpt>
      <trkpt lat="47.27852" lon="-2.46101">
        <ele>-17</ele>
        <time>2020-09-03T09:49:27.000Z</time>
      </trkpt>
      <trkpt lat="47.2784" lon="-2.4608">
        <ele>-17</ele>
        <time>2020-09-03T09:49:30.000Z</time>
      </trkpt>
      <trkpt lat="47.27831" lon="-2.46068">
        <ele>-17</ele>
        <time>2020-09-03T09:49:32.000Z</time>
      </trkpt>
      <trkpt lat="47.27806" lon="-2.46042">
        <ele>-17</ele>
        <time>2020-09-03T09:49:37.000Z</time>
      </trkpt>
      <trkpt lat="47.27801" lon="-2.46037">
        <ele>-17</ele>
        <time>2020-09-03T09:49:38.000Z</time>
      </trkpt>
      <trkpt lat="47.27765" lon="-2.4601">
        <ele>-17</ele>
        <time>2020-09-03T09:49:45.000Z</time>
      </trkpt>
      <trkpt lat="47.27742" lon="-2.45982">
        <ele>-17</ele>
        <time>2020-09-03T09:49:51.000Z</time>
      </trkpt>
      <trkpt lat="47.27739" lon="-2.45978">
        <ele>-17</ele>
        <time>2020-09-03T09:49:52.000Z</time>
      </trkpt>
      <trkpt lat="47.27725" lon="-2.45968">
        <ele>-17</ele>
        <time>2020-09-03T09:49:55.000Z</time>
      </trkpt>
      <trkpt lat="47.27717" lon="-2.45949">
        <ele>-17</ele>
        <time>2020-09-03T09:49:58.000Z</time>
      </trkpt>
      <trkpt lat="47.27718" lon="-2.45927">
        <ele>-17</ele>
        <time>2020-09-03T09:50:01.000Z</time>
      </trkpt>
      <trkpt lat="47.27728" lon="-2.45908">
        <ele>-17</ele>
        <time>2020-09-03T09:50:04.000Z</time>
      </trkpt>
      <trkpt lat="47.27731" lon="-2.45904">
        <ele>-17</ele>
        <time>2020-09-03T09:50:05.000Z</time>
      </trkpt>
      <trkpt lat="47.27735" lon="-2.45891">
        <ele>-17</ele>
        <time>2020-09-03T09:50:08.000Z</time>
      </trkpt>
      <trkpt lat="47.27737" lon="-2.4588">
        <ele>-17</ele>
        <time>2020-09-03T09:50:13.000Z</time>
      </trkpt>
      <trkpt lat="47.27732" lon="-2.45869">
        <ele>-17</ele>
        <time>2020-09-03T09:50:18.000Z</time>
      </trkpt>
      <trkpt lat="47.27738" lon="-2.45857">
        <ele>-17</ele>
        <time>2020-09-03T09:50:21.000Z</time>
      </trkpt>
      <trkpt lat="47.2775" lon="-2.45837">
        <ele>-17</ele>
        <time>2020-09-03T09:50:25.000Z</time>
      </trkpt>
      <trkpt lat="47.27753" lon="-2.45832">
        <ele>-17</ele>
        <time>2020-09-03T09:50:26.000Z</time>
      </trkpt>
      <trkpt lat="47.27767" lon="-2.45795">
        <ele>-17</ele>
        <time>2020-09-03T09:50:32.000Z</time>
      </trkpt>
      <trkpt lat="47.27769" lon="-2.45781">
        <ele>-17</ele>
        <time>2020-09-03T09:50:34.000Z</time>
      </trkpt>
      <trkpt lat="47.27778" lon="-2.45765">
        <ele>-17</ele>
        <time>2020-09-03T09:50:37.000Z</time>
      </trkpt>
      <trkpt lat="47.27797" lon="-2.45753">
        <ele>-17</ele>
        <time>2020-09-03T09:50:41.000Z</time>
      </trkpt>
      <trkpt lat="47.27802" lon="-2.45751">
        <ele>-17</ele>
        <time>2020-09-03T09:50:42.000Z</time>
      </trkpt>
      <trkpt lat="47.27823" lon="-2.45743">
        <ele>-17</ele>
        <time>2020-09-03T09:50:47.000Z</time>
      </trkpt>
      <trkpt lat="47.27839" lon="-2.45733">
        <ele>-17</ele>
        <time>2020-09-03T09:50:53.000Z</time>
      </trkpt>
      <trkpt lat="47.27842" lon="-2.45719">
        <ele>-17</ele>
        <time>2020-09-03T09:50:56.000Z</time>
      </trkpt>
      <trkpt lat="47.27845" lon="-2.45714">
        <ele>-17</ele>
        <time>2020-09-03T09:50:57.000Z</time>
      </trkpt>
      <trkpt lat="47.2785" lon="-2.457">
        <ele>-17</ele>
        <time>2020-09-03T09:50:59.000Z</time>
      </trkpt>
      <trkpt lat="47.27852" lon="-2.45693">
        <ele>-17</ele>
        <time>2020-09-03T09:51:00.000Z</time>
      </trkpt>
      <trkpt lat="47.27858" lon="-2.45653">
        <ele>-17</ele>
        <time>2020-09-03T09:51:05.000Z</time>
      </trkpt>
      <trkpt lat="47.27858" lon="-2.45645">
        <ele>-17</ele>
        <time>2020-09-03T09:51:06.000Z</time>
      </trkpt>
      <trkpt lat="47.27858" lon="-2.45585">
        <ele>-17</ele>
        <time>2020-09-03T09:51:14.000Z</time>
      </trkpt>
      <trkpt lat="47.27856" lon="-2.45571">
        <ele>-17</ele>
        <time>2020-09-03T09:51:16.000Z</time>
      </trkpt>
      <trkpt lat="47.27852" lon="-2.4556">
        <ele>-17</ele>
        <time>2020-09-03T09:51:18.000Z</time>
      </trkpt>
      <trkpt lat="47.2785" lon="-2.45538">
        <ele>-17</ele>
        <time>2020-09-03T09:51:22.000Z</time>
      </trkpt>
      <trkpt lat="47.2785" lon="-2.45531">
        <ele>-17</ele>
        <time>2020-09-03T09:51:23.000Z</time>
      </trkpt>
      <trkpt lat="47.27849" lon="-2.45503">
        <ele>-17</ele>
        <time>2020-09-03T09:51:27.000Z</time>
      </trkpt>
      <trkpt lat="47.27848" lon="-2.45497">
        <ele>-17</ele>
        <time>2020-09-03T09:51:28.000Z</time>
      </trkpt>
      <trkpt lat="47.27847" lon="-2.45478">
        <ele>-17</ele>
        <time>2020-09-03T09:51:32.000Z</time>
      </trkpt>
      <trkpt lat="47.27845" lon="-2.45469">
        <ele>-17</ele>
        <time>2020-09-03T09:51:34.000Z</time>
      </trkpt>
      <trkpt lat="47.2784" lon="-2.45459">
        <ele>-17</ele>
        <time>2020-09-03T09:51:36.000Z</time>
      </trkpt>
      <trkpt lat="47.27822" lon="-2.4542">
        <ele>-17</ele>
        <time>2020-09-03T09:51:43.000Z</time>
      </trkpt>
      <trkpt lat="47.27811" lon="-2.45392">
        <ele>-17</ele>
        <time>2020-09-03T09:51:48.000Z</time>
      </trkpt>
      <trkpt lat="47.27808" lon="-2.45379">
        <ele>-17</ele>
        <time>2020-09-03T09:51:50.000Z</time>
      </trkpt>
      <trkpt lat="47.27799" lon="-2.45343">
        <ele>-17</ele>
        <time>2020-09-03T09:51:56.000Z</time>
      </trkpt>
      <trkpt lat="47.27786" lon="-2.45292">
        <ele>-17</ele>
        <time>2020-09-03T09:52:03.000Z</time>
      </trkpt>
      <trkpt lat="47.27777" lon="-2.45257">
        <ele>-17</ele>
        <time>2020-09-03T09:52:08.000Z</time>
      </trkpt>
      <trkpt lat="47.27777" lon="-2.4524">
        <ele>-17</ele>
        <time>2020-09-03T09:52:10.000Z</time>
      </trkpt>
      <trkpt lat="47.27777" lon="-2.45223">
        <ele>-17</ele>
        <time>2020-09-03T09:52:12.000Z</time>
      </trkpt>
      <trkpt lat="47.27776" lon="-2.45177">
        <ele>-17</ele>
        <time>2020-09-03T09:52:17.000Z</time>
      </trkpt>
      <trkpt lat="47.27767" lon="-2.45113">
        <ele>-17</ele>
        <time>2020-09-03T09:52:24.000Z</time>
      </trkpt>
      <trkpt lat="47.27765" lon="-2.45104">
        <ele>-17</ele>
        <time>2020-09-03T09:52:25.000Z</time>
      </trkpt>
      <trkpt lat="47.27756" lon="-2.45069">
        <ele>-17</ele>
        <time>2020-09-03T09:52:29.000Z</time>
      </trkpt>
      <trkpt lat="47.27749" lon="-2.45024">
        <ele>-17</ele>
        <time>2020-09-03T09:52:34.000Z</time>
      </trkpt>
      <trkpt lat="47.27747" lon="-2.45006">
        <ele>-17</ele>
        <time>2020-09-03T09:52:36.000Z</time>
      </trkpt>
      <trkpt lat="47.27737" lon="-2.44943">
        <ele>-17</ele>
        <time>2020-09-03T09:52:43.000Z</time>
      </trkpt>
      <trkpt lat="47.27728" lon="-2.44882">
        <ele>-17</ele>
        <time>2020-09-03T09:52:50.000Z</time>
      </trkpt>
      <trkpt lat="47.2772" lon="-2.44818">
        <ele>-17</ele>
        <time>2020-09-03T09:52:58.000Z</time>
      </trkpt>
      <trkpt lat="47.27715" lon="-2.44758">
        <ele>-17</ele>
        <time>2020-09-03T09:53:05.000Z</time>
      </trkpt>
      <trkpt lat="47.27716" lon="-2.44729">
        <ele>-17</ele>
        <time>2020-09-03T09:53:08.000Z</time>
      </trkpt>
      <trkpt lat="47.2772" lon="-2.447">
        <ele>-17</ele>
        <time>2020-09-03T09:53:11.000Z</time>
      </trkpt>
      <trkpt lat="47.27731" lon="-2.44615">
        <ele>-17</ele>
        <time>2020-09-03T09:53:20.000Z</time>
      </trkpt>
      <trkpt lat="47.2774" lon="-2.44547">
        <ele>-17</ele>
        <time>2020-09-03T09:53:27.000Z</time>
      </trkpt>
      <trkpt lat="47.27741" lon="-2.44527">
        <ele>-17</ele>
        <time>2020-09-03T09:53:29.000Z</time>
      </trkpt>
      <trkpt lat="47.27739" lon="-2.44493">
        <ele>-17</ele>
        <time>2020-09-03T09:53:32.000Z</time>
      </trkpt>
      <trkpt lat="47.27735" lon="-2.4446">
        <ele>-17.39999961853</ele>
        <time>2020-09-03T09:53:35.000Z</time>
      </trkpt>
      <trkpt lat="47.27733" lon="-2.44449">
        <ele>-17.799999237061</ele>
        <time>2020-09-03T09:53:36.000Z</time>
      </trkpt>
      <trkpt lat="47.27732" lon="-2.44438">
        <ele>-18.39999961853</ele>
        <time>2020-09-03T09:53:37.000Z</time>
      </trkpt>
      <trkpt lat="47.2773" lon="-2.44427">
        <ele>-18.799999237061</ele>
        <time>2020-09-03T09:53:38.000Z</time>
      </trkpt>
      <trkpt lat="47.27729" lon="-2.44416">
        <ele>-19.200000762939</ele>
        <time>2020-09-03T09:53:39.000Z</time>
      </trkpt>
      <trkpt lat="47.27724" lon="-2.44339">
        <ele>-19.200000762939</ele>
        <time>2020-09-03T09:53:46.000Z</time>
      </trkpt>
      <trkpt lat="47.27722" lon="-2.44255">
        <ele>-19.200000762939</ele>
        <time>2020-09-03T09:53:54.000Z</time>
      </trkpt>
      <trkpt lat="47.27721" lon="-2.44244">
        <ele>-19.200000762939</ele>
        <time>2020-09-03T09:53:55.000Z</time>
      </trkpt>
      <trkpt lat="47.27719" lon="-2.44168">
        <ele>-19.200000762939</ele>
        <time>2020-09-03T09:54:03.000Z</time>
      </trkpt>
      <trkpt lat="47.27711" lon="-2.44113">
        <ele>-19.200000762939</ele>
        <time>2020-09-03T09:54:09.000Z</time>
      </trkpt>
      <trkpt lat="47.27707" lon="-2.44094">
        <ele>-19.200000762939</ele>
        <time>2020-09-03T09:54:12.000Z</time>
      </trkpt>
      <trkpt lat="47.27697" lon="-2.44073">
        <ele>-19.200000762939</ele>
        <time>2020-09-03T09:54:17.000Z</time>
      </trkpt>
      <trkpt lat="47.27697" lon="-2.44067">
        <ele>-19.200000762939</ele>
        <time>2020-09-03T09:54:18.000Z</time>
      </trkpt>
      <trkpt lat="47.27705" lon="-2.44051">
        <ele>-19.200000762939</ele>
        <time>2020-09-03T09:54:21.000Z</time>
      </trkpt>
      <trkpt lat="47.27718" lon="-2.44028">
        <ele>-19.200000762939</ele>
        <time>2020-09-03T09:54:25.000Z</time>
      </trkpt>
      <trkpt lat="47.27736" lon="-2.43973">
        <ele>-19.200000762939</ele>
        <time>2020-09-03T09:54:32.000Z</time>
      </trkpt>
      <trkpt lat="47.27754" lon="-2.43904">
        <ele>-19.200000762939</ele>
        <time>2020-09-03T09:54:40.000Z</time>
      </trkpt>
      <trkpt lat="47.27764" lon="-2.43857">
        <ele>-19.200000762939</ele>
        <time>2020-09-03T09:54:45.000Z</time>
      </trkpt>
      <trkpt lat="47.27764" lon="-2.43847">
        <ele>-19.200000762939</ele>
        <time>2020-09-03T09:54:46.000Z</time>
      </trkpt>
      <trkpt lat="47.27763" lon="-2.43827">
        <ele>-19.200000762939</ele>
        <time>2020-09-03T09:54:48.000Z</time>
      </trkpt>
      <trkpt lat="47.27767" lon="-2.43808">
        <ele>-19.200000762939</ele>
        <time>2020-09-03T09:54:50.000Z</time>
      </trkpt>
      <trkpt lat="47.27776" lon="-2.43793">
        <ele>-19.200000762939</ele>
        <time>2020-09-03T09:54:52.000Z</time>
      </trkpt>
      <trkpt lat="47.27781" lon="-2.43786">
        <ele>-19.200000762939</ele>
        <time>2020-09-03T09:54:53.000Z</time>
      </trkpt>
      <trkpt lat="47.27795" lon="-2.4375">
        <ele>-19.200000762939</ele>
        <time>2020-09-03T09:54:57.000Z</time>
      </trkpt>
      <trkpt lat="47.27808" lon="-2.43693">
        <ele>-19.200000762939</ele>
        <time>2020-09-03T09:55:03.000Z</time>
      </trkpt>
      <trkpt lat="47.27825" lon="-2.43622">
        <ele>-19.200000762939</ele>
        <time>2020-09-03T09:55:10.000Z</time>
      </trkpt>
      <trkpt lat="47.27845" lon="-2.43541">
        <ele>-19.200000762939</ele>
        <time>2020-09-03T09:55:18.000Z</time>
      </trkpt>
      <trkpt lat="47.27854" lon="-2.43468">
        <ele>-19.200000762939</ele>
        <time>2020-09-03T09:55:25.000Z</time>
      </trkpt>
      <trkpt lat="47.2786" lon="-2.43404">
        <ele>-19.200000762939</ele>
        <time>2020-09-03T09:55:32.000Z</time>
      </trkpt>
      <trkpt lat="47.2786" lon="-2.43395">
        <ele>-19.200000762939</ele>
        <time>2020-09-03T09:55:33.000Z</time>
      </trkpt>
      <trkpt lat="47.27855" lon="-2.43364">
        <ele>-19.200000762939</ele>
        <time>2020-09-03T09:55:37.000Z</time>
      </trkpt>
      <trkpt lat="47.27864" lon="-2.43343">
        <ele>-19.200000762939</ele>
        <time>2020-09-03T09:55:40.000Z</time>
      </trkpt>
      <trkpt lat="47.27867" lon="-2.43335">
        <ele>-19.200000762939</ele>
        <time>2020-09-03T09:55:41.000Z</time>
      </trkpt>
      <trkpt lat="47.2787" lon="-2.43327">
        <ele>-19.200000762939</ele>
        <time>2020-09-03T09:55:42.000Z</time>
      </trkpt>
      <trkpt lat="47.2787" lon="-2.43318">
        <ele>-19.200000762939</ele>
        <time>2020-09-03T09:55:43.000Z</time>
      </trkpt>
      <trkpt lat="47.27869" lon="-2.43273">
        <ele>-19.200000762939</ele>
        <time>2020-09-03T09:55:48.000Z</time>
      </trkpt>
      <trkpt lat="47.27865" lon="-2.43214">
        <ele>-19.200000762939</ele>
        <time>2020-09-03T09:55:55.000Z</time>
      </trkpt>
      <trkpt lat="47.27861" lon="-2.43175">
        <ele>-19.200000762939</ele>
        <time>2020-09-03T09:56:01.000Z</time>
      </trkpt>
      <trkpt lat="47.27859" lon="-2.43149">
        <ele>-19.200000762939</ele>
        <time>2020-09-03T09:56:05.000Z</time>
      </trkpt>
      <trkpt lat="47.27857" lon="-2.43134">
        <ele>-19.200000762939</ele>
        <time>2020-09-03T09:56:07.000Z</time>
      </trkpt>
      <trkpt lat="47.27852" lon="-2.43081">
        <ele>-19.200000762939</ele>
        <time>2020-09-03T09:56:14.000Z</time>
      </trkpt>
      <trkpt lat="47.27849" lon="-2.43048">
        <ele>-19.200000762939</ele>
        <time>2020-09-03T09:56:19.000Z</time>
      </trkpt>
      <trkpt lat="47.27848" lon="-2.43043">
        <ele>-19.200000762939</ele>
        <time>2020-09-03T09:56:20.000Z</time>
      </trkpt>
      <trkpt lat="47.27835" lon="-2.43031">
        <ele>-19.200000762939</ele>
        <time>2020-09-03T09:56:24.000Z</time>
      </trkpt>
      <trkpt lat="47.27831" lon="-2.43028">
        <ele>-19.200000762939</ele>
        <time>2020-09-03T09:56:25.000Z</time>
      </trkpt>
      <trkpt lat="47.27815" lon="-2.43016">
        <ele>-19.200000762939</ele>
        <time>2020-09-03T09:56:30.000Z</time>
      </trkpt>
      <trkpt lat="47.27814" lon="-2.43013">
        <ele>-19.200000762939</ele>
        <time>2020-09-03T09:56:31.000Z</time>
      </trkpt>
      <trkpt lat="47.27812" lon="-2.43006">
        <ele>-19.200000762939</ele>
        <time>2020-09-03T09:56:34.000Z</time>
      </trkpt>
      <trkpt lat="47.27813" lon="-2.43001">
        <ele>-19.200000762939</ele>
        <time>2020-09-03T09:56:36.000Z</time>
      </trkpt>
      <trkpt lat="47.27814" lon="-2.42989">
        <ele>-19.200000762939</ele>
        <time>2020-09-03T09:56:39.000Z</time>
      </trkpt>
      <trkpt lat="47.2781" lon="-2.42961">
        <ele>-19.200000762939</ele>
        <time>2020-09-03T09:56:44.000Z</time>
      </trkpt>
      <trkpt lat="47.27802" lon="-2.42917">
        <ele>-19.200000762939</ele>
        <time>2020-09-03T09:56:51.000Z</time>
      </trkpt>
      <trkpt lat="47.27795" lon="-2.42875">
        <ele>-19.200000762939</ele>
        <time>2020-09-03T09:56:58.000Z</time>
      </trkpt>
      <trkpt lat="47.27796" lon="-2.4285">
        <ele>-19.200000762939</ele>
        <time>2020-09-03T09:57:04.000Z</time>
      </trkpt>
      <trkpt lat="47.27798" lon="-2.42827">
        <ele>-19.200000762939</ele>
        <time>2020-09-03T09:57:10.000Z</time>
      </trkpt>
      <trkpt lat="47.27799" lon="-2.42826">
        <ele>-19.200000762939</ele>
        <time>2020-09-03T09:57:11.000Z</time>
      </trkpt>
      <trkpt lat="47.278" lon="-2.42825">
        <ele>-19.200000762939</ele>
        <time>2020-09-03T09:57:13.000Z</time>
      </trkpt>
      <trkpt lat="47.27803" lon="-2.42821">
        <ele>-19.200000762939</ele>
        <time>2020-09-03T09:57:23.000Z</time>
      </trkpt>
      <trkpt lat="47.27804" lon="-2.4282">
        <ele>-19.200000762939</ele>
        <time>2020-09-03T09:57:24.000Z</time>
      </trkpt>
      <trkpt lat="47.27818" lon="-2.42816">
        <ele>-19.200000762939</ele>
        <time>2020-09-03T09:57:29.000Z</time>
      </trkpt>
      <trkpt lat="47.27826" lon="-2.42806">
        <ele>-19.200000762939</ele>
        <time>2020-09-03T09:57:32.000Z</time>
      </trkpt>
      <trkpt lat="47.27827" lon="-2.42795">
        <ele>-18.60000038147</ele>
        <time>2020-09-03T09:57:34.000Z</time>
      </trkpt>
      <trkpt lat="47.27826" lon="-2.42788">
        <ele>-18.200000762939</ele>
        <time>2020-09-03T09:57:35.000Z</time>
      </trkpt>
      <trkpt lat="47.27826" lon="-2.42782">
        <ele>-17.799999237061</ele>
        <time>2020-09-03T09:57:36.000Z</time>
      </trkpt>
      <trkpt lat="47.27826" lon="-2.42776">
        <ele>-17.200000762939</ele>
        <time>2020-09-03T09:57:37.000Z</time>
      </trkpt>
      <trkpt lat="47.27826" lon="-2.4277">
        <ele>-16.799999237061</ele>
        <time>2020-09-03T09:57:38.000Z</time>
      </trkpt>
      <trkpt lat="47.27826" lon="-2.42737">
        <ele>-16.799999237061</ele>
        <time>2020-09-03T09:57:43.000Z</time>
      </trkpt>
      <trkpt lat="47.27825" lon="-2.42706">
        <ele>-16.799999237061</ele>
        <time>2020-09-03T09:57:47.000Z</time>
      </trkpt>
      <trkpt lat="47.27824" lon="-2.42691">
        <ele>-16.799999237061</ele>
        <time>2020-09-03T09:57:49.000Z</time>
      </trkpt>
      <trkpt lat="47.27818" lon="-2.42639">
        <ele>-16.799999237061</ele>
        <time>2020-09-03T09:57:56.000Z</time>
      </trkpt>
      <trkpt lat="47.27805" lon="-2.42584">
        <ele>-16.799999237061</ele>
        <time>2020-09-03T09:58:03.000Z</time>
      </trkpt>
      <trkpt lat="47.27797" lon="-2.42561">
        <ele>-16.799999237061</ele>
        <time>2020-09-03T09:58:06.000Z</time>
      </trkpt>
      <trkpt lat="47.27786" lon="-2.42532">
        <ele>-16.799999237061</ele>
        <time>2020-09-03T09:58:10.000Z</time>
      </trkpt>
      <trkpt lat="47.27769" lon="-2.42483">
        <ele>-16.799999237061</ele>
        <time>2020-09-03T09:58:17.000Z</time>
      </trkpt>
      <trkpt lat="47.27757" lon="-2.42431">
        <ele>-16.799999237061</ele>
        <time>2020-09-03T09:58:24.000Z</time>
      </trkpt>
      <trkpt lat="47.27745" lon="-2.42353">
        <ele>-16.799999237061</ele>
        <time>2020-09-03T09:58:33.000Z</time>
      </trkpt>
      <trkpt lat="47.27735" lon="-2.42274">
        <ele>-16.799999237061</ele>
        <time>2020-09-03T09:58:42.000Z</time>
      </trkpt>
      <trkpt lat="47.27735" lon="-2.42266">
        <ele>-16.799999237061</ele>
        <time>2020-09-03T09:58:43.000Z</time>
      </trkpt>
      <trkpt lat="47.27733" lon="-2.42203">
        <ele>-16.799999237061</ele>
        <time>2020-09-03T09:58:50.000Z</time>
      </trkpt>
      <trkpt lat="47.27733" lon="-2.42143">
        <ele>-16.799999237061</ele>
        <time>2020-09-03T09:58:57.000Z</time>
      </trkpt>
      <trkpt lat="47.27733" lon="-2.42127">
        <ele>-16.799999237061</ele>
        <time>2020-09-03T09:58:59.000Z</time>
      </trkpt>
      <trkpt lat="47.27737" lon="-2.42094">
        <ele>-16.799999237061</ele>
        <time>2020-09-03T09:59:03.000Z</time>
      </trkpt>
      <trkpt lat="47.27748" lon="-2.42029">
        <ele>-16.799999237061</ele>
        <time>2020-09-03T09:59:11.000Z</time>
      </trkpt>
      <trkpt lat="47.27765" lon="-2.4197">
        <ele>-16.799999237061</ele>
        <time>2020-09-03T09:59:18.000Z</time>
      </trkpt>
      <trkpt lat="47.2778" lon="-2.4192">
        <ele>-16.799999237061</ele>
        <time>2020-09-03T09:59:24.000Z</time>
      </trkpt>
      <trkpt lat="47.27799" lon="-2.41866">
        <ele>-16.799999237061</ele>
        <time>2020-09-03T09:59:31.000Z</time>
      </trkpt>
      <trkpt lat="47.27819" lon="-2.41818">
        <ele>-16.799999237061</ele>
        <time>2020-09-03T09:59:38.000Z</time>
      </trkpt>
      <trkpt lat="47.27827" lon="-2.41798">
        <ele>-16.799999237061</ele>
        <time>2020-09-03T09:59:42.000Z</time>
      </trkpt>
      <trkpt lat="47.27834" lon="-2.41781">
        <ele>-16.799999237061</ele>
        <time>2020-09-03T09:59:47.000Z</time>
      </trkpt>
      <trkpt lat="47.27838" lon="-2.41771">
        <ele>-16.799999237061</ele>
        <time>2020-09-03T09:59:53.000Z</time>
      </trkpt>
      <trkpt lat="47.27841" lon="-2.41767">
        <ele>-16.799999237061</ele>
        <time>2020-09-03T09:59:58.000Z</time>
      </trkpt>
      <trkpt lat="47.27844" lon="-2.4176">
        <ele>-16.799999237061</ele>
        <time>2020-09-03T10:00:00.000Z</time>
      </trkpt>
      <trkpt lat="47.27855" lon="-2.41735">
        <ele>-16.799999237061</ele>
        <time>2020-09-03T10:00:05.000Z</time>
      </trkpt>
      <trkpt lat="47.27863" lon="-2.41719">
        <ele>-16.799999237061</ele>
        <time>2020-09-03T10:00:08.000Z</time>
      </trkpt>
      <trkpt lat="47.27872" lon="-2.41699">
        <ele>-16.799999237061</ele>
        <time>2020-09-03T10:00:11.000Z</time>
      </trkpt>
      <trkpt lat="47.27897" lon="-2.41653">
        <ele>-16.799999237061</ele>
        <time>2020-09-03T10:00:18.000Z</time>
      </trkpt>
      <trkpt lat="47.2792" lon="-2.41605">
        <ele>-16.799999237061</ele>
        <time>2020-09-03T10:00:25.000Z</time>
      </trkpt>
      <trkpt lat="47.27937" lon="-2.4157">
        <ele>-16.799999237061</ele>
        <time>2020-09-03T10:00:30.000Z</time>
      </trkpt>
      <trkpt lat="47.2796" lon="-2.41522">
        <ele>-16.799999237061</ele>
        <time>2020-09-03T10:00:37.000Z</time>
      </trkpt>
      <trkpt lat="47.27968" lon="-2.41499">
        <ele>-16.799999237061</ele>
        <time>2020-09-03T10:00:40.000Z</time>
      </trkpt>
      <trkpt lat="47.27971" lon="-2.41484">
        <ele>-16.799999237061</ele>
        <time>2020-09-03T10:00:42.000Z</time>
      </trkpt>
      <trkpt lat="47.27986" lon="-2.41423">
        <ele>-16.799999237061</ele>
        <time>2020-09-03T10:00:50.000Z</time>
      </trkpt>
      <trkpt lat="47.27993" lon="-2.4137">
        <ele>-16.799999237061</ele>
        <time>2020-09-03T10:00:56.000Z</time>
      </trkpt>
      <trkpt lat="47.28002" lon="-2.41297">
        <ele>-16.799999237061</ele>
        <time>2020-09-03T10:01:04.000Z</time>
      </trkpt>
      <trkpt lat="47.28023" lon="-2.41214">
        <ele>-16.799999237061</ele>
        <time>2020-09-03T10:01:13.000Z</time>
      </trkpt>
      <trkpt lat="47.28037" lon="-2.41161">
        <ele>-16.799999237061</ele>
        <time>2020-09-03T10:01:19.000Z</time>
      </trkpt>
      <trkpt lat="47.28049" lon="-2.41093">
        <ele>-16.799999237061</ele>
        <time>2020-09-03T10:01:26.000Z</time>
      </trkpt>
      <trkpt lat="47.28061" lon="-2.41027">
        <ele>-16.799999237061</ele>
        <time>2020-09-03T10:01:33.000Z</time>
      </trkpt>
      <trkpt lat="47.28079" lon="-2.40958">
        <ele>-16.799999237061</ele>
        <time>2020-09-03T10:01:41.000Z</time>
      </trkpt>
      <trkpt lat="47.28086" lon="-2.40937">
        <ele>-16.799999237061</ele>
        <time>2020-09-03T10:01:44.000Z</time>
      </trkpt>
      <trkpt lat="47.28085" lon="-2.40924">
        <ele>-16.799999237061</ele>
        <time>2020-09-03T10:01:46.000Z</time>
      </trkpt>
      <trkpt lat="47.28078" lon="-2.40907">
        <ele>-16.39999961853</ele>
        <time>2020-09-03T10:01:49.000Z</time>
      </trkpt>
      <trkpt lat="47.28076" lon="-2.40901">
        <ele>-15.800000190735</ele>
        <time>2020-09-03T10:01:50.000Z</time>
      </trkpt>
      <trkpt lat="47.28074" lon="-2.40896">
        <ele>-15.39999961853</ele>
        <time>2020-09-03T10:01:51.000Z</time>
      </trkpt>
      <trkpt lat="47.28071" lon="-2.40891">
        <ele>-14.800000190735</ele>
        <time>2020-09-03T10:01:52.000Z</time>
      </trkpt>
      <trkpt lat="47.28068" lon="-2.40887">
        <ele>-14.39999961853</ele>
        <time>2020-09-03T10:01:53.000Z</time>
      </trkpt>
      <trkpt lat="47.28059" lon="-2.40864">
        <ele>-14.39999961853</ele>
        <time>2020-09-03T10:01:58.000Z</time>
      </trkpt>
      <trkpt lat="47.28045" lon="-2.40832">
        <ele>-14.39999961853</ele>
        <time>2020-09-03T10:02:05.000Z</time>
      </trkpt>
      <trkpt lat="47.28036" lon="-2.40815">
        <ele>-14.39999961853</ele>
        <time>2020-09-03T10:02:09.000Z</time>
      </trkpt>
      <trkpt lat="47.28036" lon="-2.40809">
        <ele>-14.39999961853</ele>
        <time>2020-09-03T10:02:10.000Z</time>
      </trkpt>
      <trkpt lat="47.28039" lon="-2.40792">
        <ele>-14.39999961853</ele>
        <time>2020-09-03T10:02:13.000Z</time>
      </trkpt>
      <trkpt lat="47.28046" lon="-2.40753">
        <ele>-14.39999961853</ele>
        <time>2020-09-03T10:02:20.000Z</time>
      </trkpt>
      <trkpt lat="47.28052" lon="-2.4072">
        <ele>-14.39999961853</ele>
        <time>2020-09-03T10:02:26.000Z</time>
      </trkpt>
      <trkpt lat="47.28055" lon="-2.407">
        <ele>-14.39999961853</ele>
        <time>2020-09-03T10:02:29.000Z</time>
      </trkpt>
      <trkpt lat="47.28055" lon="-2.40679">
        <ele>-14.39999961853</ele>
        <time>2020-09-03T10:02:32.000Z</time>
      </trkpt>
      <trkpt lat="47.28053" lon="-2.40652">
        <ele>-14.39999961853</ele>
        <time>2020-09-03T10:02:36.000Z</time>
      </trkpt>
      <trkpt lat="47.2805" lon="-2.40639">
        <ele>-14.39999961853</ele>
        <time>2020-09-03T10:02:38.000Z</time>
      </trkpt>
      <trkpt lat="47.28047" lon="-2.40624">
        <ele>-14.39999961853</ele>
        <time>2020-09-03T10:02:40.000Z</time>
      </trkpt>
      <trkpt lat="47.28048" lon="-2.40603">
        <ele>-14.39999961853</ele>
        <time>2020-09-03T10:02:43.000Z</time>
      </trkpt>
      <trkpt lat="47.2805" lon="-2.40596">
        <ele>-14.39999961853</ele>
        <time>2020-09-03T10:02:44.000Z</time>
      </trkpt>
      <trkpt lat="47.28059" lon="-2.40548">
        <ele>-14.39999961853</ele>
        <time>2020-09-03T10:02:51.000Z</time>
      </trkpt>
      <trkpt lat="47.28071" lon="-2.40491">
        <ele>-14.39999961853</ele>
        <time>2020-09-03T10:02:59.000Z</time>
      </trkpt>
      <trkpt lat="47.28075" lon="-2.40478">
        <ele>-14.39999961853</ele>
        <time>2020-09-03T10:03:01.000Z</time>
      </trkpt>
      <trkpt lat="47.28085" lon="-2.40461">
        <ele>-14.39999961853</ele>
        <time>2020-09-03T10:03:04.000Z</time>
      </trkpt>
      <trkpt lat="47.28101" lon="-2.40431">
        <ele>-14.39999961853</ele>
        <time>2020-09-03T10:03:09.000Z</time>
      </trkpt>
      <trkpt lat="47.28106" lon="-2.40417">
        <ele>-14.39999961853</ele>
        <time>2020-09-03T10:03:11.000Z</time>
      </trkpt>
      <trkpt lat="47.28107" lon="-2.40409">
        <ele>-14.39999961853</ele>
        <time>2020-09-03T10:03:12.000Z</time>
      </trkpt>
      <trkpt lat="47.28113" lon="-2.4037">
        <ele>-14.39999961853</ele>
        <time>2020-09-03T10:03:17.000Z</time>
      </trkpt>
      <trkpt lat="47.2812" lon="-2.40307">
        <ele>-14.39999961853</ele>
        <time>2020-09-03T10:03:25.000Z</time>
      </trkpt>
      <trkpt lat="47.28129" lon="-2.40234">
        <ele>-14.39999961853</ele>
        <time>2020-09-03T10:03:34.000Z</time>
      </trkpt>
      <trkpt lat="47.28136" lon="-2.40158">
        <ele>-14.39999961853</ele>
        <time>2020-09-03T10:03:43.000Z</time>
      </trkpt>
      <trkpt lat="47.28143" lon="-2.40089">
        <ele>-14.39999961853</ele>
        <time>2020-09-03T10:03:51.000Z</time>
      </trkpt>
      <trkpt lat="47.28149" lon="-2.40026">
        <ele>-14.39999961853</ele>
        <time>2020-09-03T10:03:59.000Z</time>
      </trkpt>
      <trkpt lat="47.2815" lon="-2.40018">
        <ele>-14.39999961853</ele>
        <time>2020-09-03T10:04:00.000Z</time>
      </trkpt>
      <trkpt lat="47.2815" lon="-2.39994">
        <ele>-14.39999961853</ele>
        <time>2020-09-03T10:04:03.000Z</time>
      </trkpt>
      <trkpt lat="47.28153" lon="-2.39963">
        <ele>-14.39999961853</ele>
        <time>2020-09-03T10:04:07.000Z</time>
      </trkpt>
      <trkpt lat="47.28154" lon="-2.39955">
        <ele>-14.39999961853</ele>
        <time>2020-09-03T10:04:08.000Z</time>
      </trkpt>
      <trkpt lat="47.28155" lon="-2.39914">
        <ele>-14.39999961853</ele>
        <time>2020-09-03T10:04:13.000Z</time>
      </trkpt>
      <trkpt lat="47.2816" lon="-2.39854">
        <ele>-14.39999961853</ele>
        <time>2020-09-03T10:04:20.000Z</time>
      </trkpt>
      <trkpt lat="47.28163" lon="-2.39793">
        <ele>-14.39999961853</ele>
        <time>2020-09-03T10:04:27.000Z</time>
      </trkpt>
      <trkpt lat="47.28168" lon="-2.39715">
        <ele>-14.39999961853</ele>
        <time>2020-09-03T10:04:36.000Z</time>
      </trkpt>
      <trkpt lat="47.28171" lon="-2.39634">
        <ele>-14.39999961853</ele>
        <time>2020-09-03T10:04:45.000Z</time>
      </trkpt>
      <trkpt lat="47.28171" lon="-2.39625">
        <ele>-14.39999961853</ele>
        <time>2020-09-03T10:04:46.000Z</time>
      </trkpt>
      <trkpt lat="47.28173" lon="-2.39537">
        <ele>-14.39999961853</ele>
        <time>2020-09-03T10:04:56.000Z</time>
      </trkpt>
      <trkpt lat="47.28175" lon="-2.39466">
        <ele>-14.39999961853</ele>
        <time>2020-09-03T10:05:04.000Z</time>
      </trkpt>
      <trkpt lat="47.28174" lon="-2.39386">
        <ele>-14.39999961853</ele>
        <time>2020-09-03T10:05:13.000Z</time>
      </trkpt>
      <trkpt lat="47.28174" lon="-2.39369">
        <ele>-14.39999961853</ele>
        <time>2020-09-03T10:05:15.000Z</time>
      </trkpt>
      <trkpt lat="47.28172" lon="-2.39297">
        <ele>-14.39999961853</ele>
        <time>2020-09-03T10:05:23.000Z</time>
      </trkpt>
      <trkpt lat="47.28171" lon="-2.39259">
        <ele>-14.39999961853</ele>
        <time>2020-09-03T10:05:28.000Z</time>
      </trkpt>
      <trkpt lat="47.28171" lon="-2.39244">
        <ele>-14.39999961853</ele>
        <time>2020-09-03T10:05:33.000Z</time>
      </trkpt>
      <trkpt lat="47.28171" lon="-2.39243">
        <ele>-14.39999961853</ele>
        <time>2020-09-03T10:05:34.000Z</time>
      </trkpt>
      <trkpt lat="47.28171" lon="-2.39243">
        <ele>-14.39999961853</ele>
        <time>2020-09-03T10:06:21.000Z</time>
      </trkpt>
      <trkpt lat="47.28171" lon="-2.39241">
        <ele>-14.39999961853</ele>
        <time>2020-09-03T10:06:22.000Z</time>
      </trkpt>
      <trkpt lat="47.28171" lon="-2.39224">
        <ele>-14.39999961853</ele>
        <time>2020-09-03T10:06:26.000Z</time>
      </trkpt>
      <trkpt lat="47.2817" lon="-2.39188">
        <ele>-14.39999961853</ele>
        <time>2020-09-03T10:06:31.000Z</time>
      </trkpt>
      <trkpt lat="47.28167" lon="-2.39132">
        <ele>-14.39999961853</ele>
        <time>2020-09-03T10:06:38.000Z</time>
      </trkpt>
      <trkpt lat="47.28161" lon="-2.39051">
        <ele>-14.39999961853</ele>
        <time>2020-09-03T10:06:48.000Z</time>
      </trkpt>
      <trkpt lat="47.28155" lon="-2.38981">
        <ele>-14.39999961853</ele>
        <time>2020-09-03T10:06:56.000Z</time>
      </trkpt>
      <trkpt lat="47.28151" lon="-2.38955">
        <ele>-14.39999961853</ele>
        <time>2020-09-03T10:06:59.000Z</time>
      </trkpt>
      <trkpt lat="47.28144" lon="-2.38928">
        <ele>-14.39999961853</ele>
        <time>2020-09-03T10:07:02.000Z</time>
      </trkpt>
      <trkpt lat="47.28131" lon="-2.38864">
        <ele>-14.39999961853</ele>
        <time>2020-09-03T10:07:09.000Z</time>
      </trkpt>
      <trkpt lat="47.28124" lon="-2.38788">
        <ele>-14.39999961853</ele>
        <time>2020-09-03T10:07:17.000Z</time>
      </trkpt>
      <trkpt lat="47.28117" lon="-2.38702">
        <ele>-14.39999961853</ele>
        <time>2020-09-03T10:07:26.000Z</time>
      </trkpt>
      <trkpt lat="47.28109" lon="-2.38616">
        <ele>-14.39999961853</ele>
        <time>2020-09-03T10:07:35.000Z</time>
      </trkpt>
      <trkpt lat="47.28101" lon="-2.38538">
        <ele>-14.39999961853</ele>
        <time>2020-09-03T10:07:43.000Z</time>
      </trkpt>
      <trkpt lat="47.28088" lon="-2.38459">
        <ele>-14.39999961853</ele>
        <time>2020-09-03T10:07:51.000Z</time>
      </trkpt>
      <trkpt lat="47.28086" lon="-2.3845">
        <ele>-14.39999961853</ele>
        <time>2020-09-03T10:07:52.000Z</time>
      </trkpt>
      <trkpt lat="47.28073" lon="-2.38371">
        <ele>-14.39999961853</ele>
        <time>2020-09-03T10:08:00.000Z</time>
      </trkpt>
      <trkpt lat="47.28069" lon="-2.38351">
        <ele>-14.39999961853</ele>
        <time>2020-09-03T10:08:02.000Z</time>
      </trkpt>
      <trkpt lat="47.28054" lon="-2.38275">
        <ele>-14.39999961853</ele>
        <time>2020-09-03T10:08:10.000Z</time>
      </trkpt>
      <trkpt lat="47.28043" lon="-2.38218">
        <ele>-14.39999961853</ele>
        <time>2020-09-03T10:08:16.000Z</time>
      </trkpt>
      <trkpt lat="47.28029" lon="-2.38141">
        <ele>-14.39999961853</ele>
        <time>2020-09-03T10:08:24.000Z</time>
      </trkpt>
      <trkpt lat="47.28027" lon="-2.38132">
        <ele>-14.39999961853</ele>
        <time>2020-09-03T10:08:25.000Z</time>
      </trkpt>
      <trkpt lat="47.28011" lon="-2.38049">
        <ele>-14.39999961853</ele>
        <time>2020-09-03T10:08:34.000Z</time>
      </trkpt>
      <trkpt lat="47.27996" lon="-2.37968">
        <ele>-14.39999961853</ele>
        <time>2020-09-03T10:08:43.000Z</time>
      </trkpt>
      <trkpt lat="47.27994" lon="-2.37959">
        <ele>-14.39999961853</ele>
        <time>2020-09-03T10:08:44.000Z</time>
      </trkpt>
      <trkpt lat="47.27987" lon="-2.37922">
        <ele>-14.39999961853</ele>
        <time>2020-09-03T10:08:49.000Z</time>
      </trkpt>
      <trkpt lat="47.27975" lon="-2.37861">
        <ele>-14.39999961853</ele>
        <time>2020-09-03T10:08:56.000Z</time>
      </trkpt>
      <trkpt lat="47.27974" lon="-2.37853">
        <ele>-14.39999961853</ele>
        <time>2020-09-03T10:08:57.000Z</time>
      </trkpt>
      <trkpt lat="47.2797" lon="-2.37819">
        <ele>-14.39999961853</ele>
        <time>2020-09-03T10:09:01.000Z</time>
      </trkpt>
      <trkpt lat="47.27965" lon="-2.37795">
        <ele>-14.39999961853</ele>
        <time>2020-09-03T10:09:04.000Z</time>
      </trkpt>
      <trkpt lat="47.27964" lon="-2.37787">
        <ele>-14.39999961853</ele>
        <time>2020-09-03T10:09:05.000Z</time>
      </trkpt>
      <trkpt lat="47.27956" lon="-2.37754">
        <ele>-14.39999961853</ele>
        <time>2020-09-03T10:09:09.000Z</time>
      </trkpt>
      <trkpt lat="47.27941" lon="-2.37691">
        <ele>-14.39999961853</ele>
        <time>2020-09-03T10:09:16.000Z</time>
      </trkpt>
      <trkpt lat="47.27923" lon="-2.37608">
        <ele>-14.39999961853</ele>
        <time>2020-09-03T10:09:25.000Z</time>
      </trkpt>
      <trkpt lat="47.27919" lon="-2.3759">
        <ele>-14.39999961853</ele>
        <time>2020-09-03T10:09:27.000Z</time>
      </trkpt>
      <trkpt lat="47.279" lon="-2.37506">
        <ele>-14.39999961853</ele>
        <time>2020-09-03T10:09:36.000Z</time>
      </trkpt>
      <trkpt lat="47.27881" lon="-2.37425">
        <ele>-14.39999961853</ele>
        <time>2020-09-03T10:09:45.000Z</time>
      </trkpt>
      <trkpt lat="47.27861" lon="-2.37345">
        <ele>-14.39999961853</ele>
        <time>2020-09-03T10:09:54.000Z</time>
      </trkpt>
      <trkpt lat="47.2784" lon="-2.37265">
        <ele>-14.39999961853</ele>
        <time>2020-09-03T10:10:03.000Z</time>
      </trkpt>
      <trkpt lat="47.27826" lon="-2.37206">
        <ele>-14.39999961853</ele>
        <time>2020-09-03T10:10:10.000Z</time>
      </trkpt>
      <trkpt lat="47.27824" lon="-2.37198">
        <ele>-14.39999961853</ele>
        <time>2020-09-03T10:10:11.000Z</time>
      </trkpt>
      <trkpt lat="47.27817" lon="-2.37175">
        <ele>-14.39999961853</ele>
        <time>2020-09-03T10:10:14.000Z</time>
      </trkpt>
      <trkpt lat="47.27806" lon="-2.37135">
        <ele>-14.39999961853</ele>
        <time>2020-09-03T10:10:19.000Z</time>
      </trkpt>
      <trkpt lat="47.27804" lon="-2.37126">
        <ele>-14.39999961853</ele>
        <time>2020-09-03T10:10:20.000Z</time>
      </trkpt>
      <trkpt lat="47.27786" lon="-2.37057">
        <ele>-14.39999961853</ele>
        <time>2020-09-03T10:10:28.000Z</time>
      </trkpt>
      <trkpt lat="47.27764" lon="-2.36978">
        <ele>-14.39999961853</ele>
        <time>2020-09-03T10:10:37.000Z</time>
      </trkpt>
      <trkpt lat="47.27761" lon="-2.36969">
        <ele>-14.39999961853</ele>
        <time>2020-09-03T10:10:38.000Z</time>
      </trkpt>
      <trkpt lat="47.27742" lon="-2.36908">
        <ele>-14.39999961853</ele>
        <time>2020-09-03T10:10:46.000Z</time>
      </trkpt>
      <trkpt lat="47.27719" lon="-2.36827">
        <ele>-14.39999961853</ele>
        <time>2020-09-03T10:10:55.000Z</time>
      </trkpt>
      <trkpt lat="47.27717" lon="-2.36818">
        <ele>-14.39999961853</ele>
        <time>2020-09-03T10:10:56.000Z</time>
      </trkpt>
      <trkpt lat="47.27693" lon="-2.36747">
        <ele>-14.39999961853</ele>
        <time>2020-09-03T10:11:04.000Z</time>
      </trkpt>
      <trkpt lat="47.27666" lon="-2.36669">
        <ele>-14.39999961853</ele>
        <time>2020-09-03T10:11:13.000Z</time>
      </trkpt>
      <trkpt lat="47.2766" lon="-2.36651">
        <ele>-14.39999961853</ele>
        <time>2020-09-03T10:11:15.000Z</time>
      </trkpt>
      <trkpt lat="47.27648" lon="-2.36617">
        <ele>-14</ele>
        <time>2020-09-03T10:11:19.000Z</time>
      </trkpt>
      <trkpt lat="47.27645" lon="-2.36609">
        <ele>-13.39999961853</ele>
        <time>2020-09-03T10:11:20.000Z</time>
      </trkpt>
      <trkpt lat="47.27642" lon="-2.366">
        <ele>-13</ele>
        <time>2020-09-03T10:11:21.000Z</time>
      </trkpt>
      <trkpt lat="47.27639" lon="-2.36592">
        <ele>-12.60000038147</ele>
        <time>2020-09-03T10:11:22.000Z</time>
      </trkpt>
      <trkpt lat="47.27636" lon="-2.36583">
        <ele>-12.199999809265</ele>
        <time>2020-09-03T10:11:23.000Z</time>
      </trkpt>
      <trkpt lat="47.27633" lon="-2.36575">
        <ele>-12.199999809265</ele>
        <time>2020-09-03T10:11:24.000Z</time>
      </trkpt>
      <trkpt lat="47.27608" lon="-2.36505">
        <ele>-12.199999809265</ele>
        <time>2020-09-03T10:11:32.000Z</time>
      </trkpt>
      <trkpt lat="47.2758" lon="-2.36428">
        <ele>-12.199999809265</ele>
        <time>2020-09-03T10:11:41.000Z</time>
      </trkpt>
      <trkpt lat="47.27551" lon="-2.36353">
        <ele>-12.199999809265</ele>
        <time>2020-09-03T10:11:50.000Z</time>
      </trkpt>
      <trkpt lat="47.27523" lon="-2.36279">
        <ele>-12.199999809265</ele>
        <time>2020-09-03T10:11:59.000Z</time>
      </trkpt>
      <trkpt lat="47.27496" lon="-2.36211">
        <ele>-12.199999809265</ele>
        <time>2020-09-03T10:12:07.000Z</time>
      </trkpt>
      <trkpt lat="47.27487" lon="-2.36185">
        <ele>-12.199999809265</ele>
        <time>2020-09-03T10:12:10.000Z</time>
      </trkpt>
      <trkpt lat="47.27475" lon="-2.36149">
        <ele>-12.199999809265</ele>
        <time>2020-09-03T10:12:14.000Z</time>
      </trkpt>
      <trkpt lat="47.27456" lon="-2.36097">
        <ele>-12.199999809265</ele>
        <time>2020-09-03T10:12:20.000Z</time>
      </trkpt>
      <trkpt lat="47.27437" lon="-2.36054">
        <ele>-12.199999809265</ele>
        <time>2020-09-03T10:12:25.000Z</time>
      </trkpt>
      <trkpt lat="47.27415" lon="-2.36004">
        <ele>-12.199999809265</ele>
        <time>2020-09-03T10:12:31.000Z</time>
      </trkpt>
      <trkpt lat="47.27388" lon="-2.35935">
        <ele>-12.199999809265</ele>
        <time>2020-09-03T10:12:39.000Z</time>
      </trkpt>
      <trkpt lat="47.27384" lon="-2.35927">
        <ele>-12.199999809265</ele>
        <time>2020-09-03T10:12:40.000Z</time>
      </trkpt>
      <trkpt lat="47.27357" lon="-2.35858">
        <ele>-12.199999809265</ele>
        <time>2020-09-03T10:12:48.000Z</time>
      </trkpt>
      <trkpt lat="47.27343" lon="-2.35823">
        <ele>-12.60000038147</ele>
        <time>2020-09-03T10:12:52.000Z</time>
      </trkpt>
      <trkpt lat="47.2734" lon="-2.35814">
        <ele>-13</ele>
        <time>2020-09-03T10:12:53.000Z</time>
      </trkpt>
      <trkpt lat="47.27336" lon="-2.35805">
        <ele>-13.39999961853</ele>
        <time>2020-09-03T10:12:54.000Z</time>
      </trkpt>
      <trkpt lat="47.27333" lon="-2.35796">
        <ele>-13.800000190735</ele>
        <time>2020-09-03T10:12:55.000Z</time>
      </trkpt>
      <trkpt lat="47.2733" lon="-2.35787">
        <ele>-14.199999809265</ele>
        <time>2020-09-03T10:12:56.000Z</time>
      </trkpt>
      <trkpt lat="47.27327" lon="-2.35778">
        <ele>-14.199999809265</ele>
        <time>2020-09-03T10:12:57.000Z</time>
      </trkpt>
      <trkpt lat="47.27318" lon="-2.35752">
        <ele>-14.199999809265</ele>
        <time>2020-09-03T10:13:00.000Z</time>
      </trkpt>
      <trkpt lat="47.27309" lon="-2.35736">
        <ele>-14.199999809265</ele>
        <time>2020-09-03T10:13:02.000Z</time>
      </trkpt>
      <trkpt lat="47.273" lon="-2.35709">
        <ele>-14.199999809265</ele>
        <time>2020-09-03T10:13:05.000Z</time>
      </trkpt>
      <trkpt lat="47.27297" lon="-2.35701">
        <ele>-14.199999809265</ele>
        <time>2020-09-03T10:13:06.000Z</time>
      </trkpt>
      <trkpt lat="47.27277" lon="-2.35661">
        <ele>-14.199999809265</ele>
        <time>2020-09-03T10:13:11.000Z</time>
      </trkpt>
      <trkpt lat="47.27248" lon="-2.35595">
        <ele>-14.199999809265</ele>
        <time>2020-09-03T10:13:19.000Z</time>
      </trkpt>
      <trkpt lat="47.27225" lon="-2.35545">
        <ele>-14.199999809265</ele>
        <time>2020-09-03T10:13:25.000Z</time>
      </trkpt>
      <trkpt lat="47.27193" lon="-2.35479">
        <ele>-14.199999809265</ele>
        <time>2020-09-03T10:13:33.000Z</time>
      </trkpt>
      <trkpt lat="47.27165" lon="-2.35423">
        <ele>-14.199999809265</ele>
        <time>2020-09-03T10:13:40.000Z</time>
      </trkpt>
      <trkpt lat="47.27127" lon="-2.35357">
        <ele>-14.199999809265</ele>
        <time>2020-09-03T10:13:49.000Z</time>
      </trkpt>
      <trkpt lat="47.27087" lon="-2.35294">
        <ele>-14.199999809265</ele>
        <time>2020-09-03T10:13:58.000Z</time>
      </trkpt>
      <trkpt lat="47.27048" lon="-2.35232">
        <ele>-14.199999809265</ele>
        <time>2020-09-03T10:14:07.000Z</time>
      </trkpt>
      <trkpt lat="47.27043" lon="-2.35225">
        <ele>-14.199999809265</ele>
        <time>2020-09-03T10:14:08.000Z</time>
      </trkpt>
      <trkpt lat="47.27003" lon="-2.35161">
        <ele>-14.199999809265</ele>
        <time>2020-09-03T10:14:17.000Z</time>
      </trkpt>
      <trkpt lat="47.26994" lon="-2.35147">
        <ele>-14.199999809265</ele>
        <time>2020-09-03T10:14:19.000Z</time>
      </trkpt>
      <trkpt lat="47.26951" lon="-2.35085">
        <ele>-14.199999809265</ele>
        <time>2020-09-03T10:14:28.000Z</time>
      </trkpt>
      <trkpt lat="47.26947" lon="-2.35077">
        <ele>-14.199999809265</ele>
        <time>2020-09-03T10:14:29.000Z</time>
      </trkpt>
      <trkpt lat="47.26906" lon="-2.35016">
        <ele>-14.199999809265</ele>
        <time>2020-09-03T10:14:38.000Z</time>
      </trkpt>
      <trkpt lat="47.26898" lon="-2.35002">
        <ele>-14.199999809265</ele>
        <time>2020-09-03T10:14:40.000Z</time>
      </trkpt>
      <trkpt lat="47.2688" lon="-2.34975">
        <ele>-14.199999809265</ele>
        <time>2020-09-03T10:14:44.000Z</time>
      </trkpt>
      <trkpt lat="47.26839" lon="-2.34915">
        <ele>-14.199999809265</ele>
        <time>2020-09-03T10:14:53.000Z</time>
      </trkpt>
      <trkpt lat="47.26808" lon="-2.34869">
        <ele>-14.199999809265</ele>
        <time>2020-09-03T10:15:00.000Z</time>
      </trkpt>
      <trkpt lat="47.26767" lon="-2.34812">
        <ele>-14.199999809265</ele>
        <time>2020-09-03T10:15:09.000Z</time>
      </trkpt>
      <trkpt lat="47.26757" lon="-2.34799">
        <ele>-14.199999809265</ele>
        <time>2020-09-03T10:15:11.000Z</time>
      </trkpt>
      <trkpt lat="47.26744" lon="-2.34781">
        <ele>-14.199999809265</ele>
        <time>2020-09-03T10:15:14.000Z</time>
      </trkpt>
      <trkpt lat="47.267" lon="-2.34727">
        <ele>-14.199999809265</ele>
        <time>2020-09-03T10:15:23.000Z</time>
      </trkpt>
      <trkpt lat="47.26656" lon="-2.34673">
        <ele>-14.199999809265</ele>
        <time>2020-09-03T10:15:32.000Z</time>
      </trkpt>
      <trkpt lat="47.26651" lon="-2.34667">
        <ele>-14.199999809265</ele>
        <time>2020-09-03T10:15:33.000Z</time>
      </trkpt>
      <trkpt lat="47.26607" lon="-2.34613">
        <ele>-14.199999809265</ele>
        <time>2020-09-03T10:15:42.000Z</time>
      </trkpt>
      <trkpt lat="47.26561" lon="-2.34562">
        <ele>-14.199999809265</ele>
        <time>2020-09-03T10:15:51.000Z</time>
      </trkpt>
      <trkpt lat="47.26556" lon="-2.34557">
        <ele>-14.199999809265</ele>
        <time>2020-09-03T10:15:52.000Z</time>
      </trkpt>
      <trkpt lat="47.26515" lon="-2.34519">
        <ele>-14.199999809265</ele>
        <time>2020-09-03T10:16:00.000Z</time>
      </trkpt>
      <trkpt lat="47.26476" lon="-2.34491">
        <ele>-14.199999809265</ele>
        <time>2020-09-03T10:16:07.000Z</time>
      </trkpt>
      <trkpt lat="47.26425" lon="-2.34455">
        <ele>-14.199999809265</ele>
        <time>2020-09-03T10:16:16.000Z</time>
      </trkpt>
      <trkpt lat="47.26381" lon="-2.34419">
        <ele>-14.199999809265</ele>
        <time>2020-09-03T10:16:24.000Z</time>
      </trkpt>
      <trkpt lat="47.26344" lon="-2.34385">
        <ele>-14.199999809265</ele>
        <time>2020-09-03T10:16:31.000Z</time>
      </trkpt>
      <trkpt lat="47.26338" lon="-2.34381">
        <ele>-14.199999809265</ele>
        <time>2020-09-03T10:16:32.000Z</time>
      </trkpt>
      <trkpt lat="47.26321" lon="-2.34375">
        <ele>-14.199999809265</ele>
        <time>2020-09-03T10:16:35.000Z</time>
      </trkpt>
      <trkpt lat="47.2631" lon="-2.34355">
        <ele>-14.199999809265</ele>
        <time>2020-09-03T10:16:38.000Z</time>
      </trkpt>
      <trkpt lat="47.26299" lon="-2.34345">
        <ele>-14.199999809265</ele>
        <time>2020-09-03T10:16:40.000Z</time>
      </trkpt>
      <trkpt lat="47.26289" lon="-2.34334">
        <ele>-14.199999809265</ele>
        <time>2020-09-03T10:16:42.000Z</time>
      </trkpt>
      <trkpt lat="47.26248" lon="-2.3429">
        <ele>-14.199999809265</ele>
        <time>2020-09-03T10:16:50.000Z</time>
      </trkpt>
      <trkpt lat="47.26217" lon="-2.34258">
        <ele>-14.199999809265</ele>
        <time>2020-09-03T10:16:56.000Z</time>
      </trkpt>
      <trkpt lat="47.26172" lon="-2.3421">
        <ele>-14.199999809265</ele>
        <time>2020-09-03T10:17:05.000Z</time>
      </trkpt>
      <trkpt lat="47.26141" lon="-2.34184">
        <ele>-14.199999809265</ele>
        <time>2020-09-03T10:17:11.000Z</time>
      </trkpt>
      <trkpt lat="47.26135" lon="-2.34182">
        <ele>-14.199999809265</ele>
        <time>2020-09-03T10:17:12.000Z</time>
      </trkpt>
      <trkpt lat="47.26131" lon="-2.34178">
        <ele>-14.199999809265</ele>
        <time>2020-09-03T10:17:13.000Z</time>
      </trkpt>
      <trkpt lat="47.26122" lon="-2.34168">
        <ele>-14.199999809265</ele>
        <time>2020-09-03T10:17:15.000Z</time>
      </trkpt>
      <trkpt lat="47.261" lon="-2.34155">
        <ele>-14.199999809265</ele>
        <time>2020-09-03T10:17:19.000Z</time>
      </trkpt>
      <trkpt lat="47.26059" lon="-2.34135">
        <ele>-14.199999809265</ele>
        <time>2020-09-03T10:17:26.000Z</time>
      </trkpt>
      <trkpt lat="47.26006" lon="-2.34107">
        <ele>-14.199999809265</ele>
        <time>2020-09-03T10:17:35.000Z</time>
      </trkpt>
      <trkpt lat="47.25959" lon="-2.34086">
        <ele>-14.199999809265</ele>
        <time>2020-09-03T10:17:43.000Z</time>
      </trkpt>
      <trkpt lat="47.25933" lon="-2.34074">
        <ele>-14.60000038147</ele>
        <time>2020-09-03T10:17:48.000Z</time>
      </trkpt>
      <trkpt lat="47.25927" lon="-2.34073">
        <ele>-15</ele>
        <time>2020-09-03T10:17:49.000Z</time>
      </trkpt>
      <trkpt lat="47.25922" lon="-2.34073">
        <ele>-15.39999961853</ele>
        <time>2020-09-03T10:17:50.000Z</time>
      </trkpt>
      <trkpt lat="47.25917" lon="-2.34073">
        <ele>-15.800000190735</ele>
        <time>2020-09-03T10:17:51.000Z</time>
      </trkpt>
      <trkpt lat="47.25912" lon="-2.34073">
        <ele>-16.200000762939</ele>
        <time>2020-09-03T10:17:52.000Z</time>
      </trkpt>
      <trkpt lat="47.25908" lon="-2.34071">
        <ele>-16.200000762939</ele>
        <time>2020-09-03T10:17:53.000Z</time>
      </trkpt>
      <trkpt lat="47.25898" lon="-2.34055">
        <ele>-16.200000762939</ele>
        <time>2020-09-03T10:17:56.000Z</time>
      </trkpt>
      <trkpt lat="47.259" lon="-2.34033">
        <ele>-16.200000762939</ele>
        <time>2020-09-03T10:17:59.000Z</time>
      </trkpt>
      <trkpt lat="47.25908" lon="-2.34004">
        <ele>-16.200000762939</ele>
        <time>2020-09-03T10:18:03.000Z</time>
      </trkpt>
      <trkpt lat="47.2591" lon="-2.33997">
        <ele>-16.200000762939</ele>
        <time>2020-09-03T10:18:04.000Z</time>
      </trkpt>
      <trkpt lat="47.25914" lon="-2.33981">
        <ele>-16.200000762939</ele>
        <time>2020-09-03T10:18:06.000Z</time>
      </trkpt>
      <trkpt lat="47.25923" lon="-2.33959">
        <ele>-16.200000762939</ele>
        <time>2020-09-03T10:18:09.000Z</time>
      </trkpt>
      <trkpt lat="47.25944" lon="-2.33922">
        <ele>-16.200000762939</ele>
        <time>2020-09-03T10:18:15.000Z</time>
      </trkpt>
      <trkpt lat="47.25947" lon="-2.33915">
        <ele>-16.200000762939</ele>
        <time>2020-09-03T10:18:16.000Z</time>
      </trkpt>
      <trkpt lat="47.2595" lon="-2.339">
        <ele>-16.200000762939</ele>
        <time>2020-09-03T10:18:18.000Z</time>
      </trkpt>
      <trkpt lat="47.25952" lon="-2.33893">
        <ele>-16.200000762939</ele>
        <time>2020-09-03T10:18:19.000Z</time>
      </trkpt>
      <trkpt lat="47.25957" lon="-2.33882">
        <ele>-16.200000762939</ele>
        <time>2020-09-03T10:18:22.000Z</time>
      </trkpt>
      <trkpt lat="47.25962" lon="-2.33868">
        <ele>-16.200000762939</ele>
        <time>2020-09-03T10:18:27.000Z</time>
      </trkpt>
      <trkpt lat="47.25964" lon="-2.33856">
        <ele>-16.200000762939</ele>
        <time>2020-09-03T10:18:29.000Z</time>
      </trkpt>
      <trkpt lat="47.25966" lon="-2.33844">
        <ele>-16.200000762939</ele>
        <time>2020-09-03T10:18:31.000Z</time>
      </trkpt>
      <trkpt lat="47.25979" lon="-2.33803">
        <ele>-16.200000762939</ele>
        <time>2020-09-03T10:18:37.000Z</time>
      </trkpt>
      <trkpt lat="47.25998" lon="-2.33742">
        <ele>-16.200000762939</ele>
        <time>2020-09-03T10:18:45.000Z</time>
      </trkpt>
      <trkpt lat="47.26017" lon="-2.3368">
        <ele>-16.200000762939</ele>
        <time>2020-09-03T10:18:53.000Z</time>
      </trkpt>
      <trkpt lat="47.26023" lon="-2.3365">
        <ele>-16.200000762939</ele>
        <time>2020-09-03T10:18:57.000Z</time>
      </trkpt>
      <trkpt lat="47.26022" lon="-2.33634">
        <ele>-16.200000762939</ele>
        <time>2020-09-03T10:18:59.000Z</time>
      </trkpt>
      <trkpt lat="47.26019" lon="-2.33611">
        <ele>-16.200000762939</ele>
        <time>2020-09-03T10:19:02.000Z</time>
      </trkpt>
      <trkpt lat="47.26017" lon="-2.33603">
        <ele>-16.200000762939</ele>
        <time>2020-09-03T10:19:03.000Z</time>
      </trkpt>
      <trkpt lat="47.26012" lon="-2.33589">
        <ele>-16.200000762939</ele>
        <time>2020-09-03T10:19:05.000Z</time>
      </trkpt>
      <trkpt lat="47.25993" lon="-2.33548">
        <ele>-16.200000762939</ele>
        <time>2020-09-03T10:19:11.000Z</time>
      </trkpt>
      <trkpt lat="47.25975" lon="-2.33513">
        <ele>-16.200000762939</ele>
        <time>2020-09-03T10:19:17.000Z</time>
      </trkpt>
      <trkpt lat="47.25971" lon="-2.33508">
        <ele>-16.200000762939</ele>
        <time>2020-09-03T10:19:18.000Z</time>
      </trkpt>
      <trkpt lat="47.25963" lon="-2.33496">
        <ele>-16.200000762939</ele>
        <time>2020-09-03T10:19:20.000Z</time>
      </trkpt>
      <trkpt lat="47.2596" lon="-2.33489">
        <ele>-16.200000762939</ele>
        <time>2020-09-03T10:19:21.000Z</time>
      </trkpt>
      <trkpt lat="47.25951" lon="-2.33468">
        <ele>-16.200000762939</ele>
        <time>2020-09-03T10:19:24.000Z</time>
      </trkpt>
      <trkpt lat="47.25938" lon="-2.33441">
        <ele>-16.200000762939</ele>
        <time>2020-09-03T10:19:28.000Z</time>
      </trkpt>
      <trkpt lat="47.25916" lon="-2.33377">
        <ele>-16.200000762939</ele>
        <time>2020-09-03T10:19:36.000Z</time>
      </trkpt>
      <trkpt lat="47.25915" lon="-2.33368">
        <ele>-16.200000762939</ele>
        <time>2020-09-03T10:19:37.000Z</time>
      </trkpt>
      <trkpt lat="47.25908" lon="-2.33334">
        <ele>-16.200000762939</ele>
        <time>2020-09-03T10:19:41.000Z</time>
      </trkpt>
      <trkpt lat="47.25905" lon="-2.33299">
        <ele>-16.200000762939</ele>
        <time>2020-09-03T10:19:45.000Z</time>
      </trkpt>
      <trkpt lat="47.25905" lon="-2.33281">
        <ele>-16.200000762939</ele>
        <time>2020-09-03T10:19:47.000Z</time>
      </trkpt>
      <trkpt lat="47.25903" lon="-2.33205">
        <ele>-16.200000762939</ele>
        <time>2020-09-03T10:19:55.000Z</time>
      </trkpt>
      <trkpt lat="47.25897" lon="-2.33148">
        <ele>-16.200000762939</ele>
        <time>2020-09-03T10:20:01.000Z</time>
      </trkpt>
      <trkpt lat="47.25885" lon="-2.33096">
        <ele>-16.200000762939</ele>
        <time>2020-09-03T10:20:07.000Z</time>
      </trkpt>
      <trkpt lat="47.25868" lon="-2.33042">
        <ele>-16.200000762939</ele>
        <time>2020-09-03T10:20:14.000Z</time>
      </trkpt>
      <trkpt lat="47.25866" lon="-2.33034">
        <ele>-15.800000190735</ele>
        <time>2020-09-03T10:20:15.000Z</time>
      </trkpt>
      <trkpt lat="47.25864" lon="-2.33027">
        <ele>-15.39999961853</ele>
        <time>2020-09-03T10:20:16.000Z</time>
      </trkpt>
      <trkpt lat="47.25861" lon="-2.3302">
        <ele>-15</ele>
        <time>2020-09-03T10:20:17.000Z</time>
      </trkpt>
      <trkpt lat="47.25858" lon="-2.33013">
        <ele>-14.60000038147</ele>
        <time>2020-09-03T10:20:18.000Z</time>
      </trkpt>
      <trkpt lat="47.25856" lon="-2.33007">
        <ele>-14.199999809265</ele>
        <time>2020-09-03T10:20:19.000Z</time>
      </trkpt>
      <trkpt lat="47.2585" lon="-2.32994">
        <ele>-14.199999809265</ele>
        <time>2020-09-03T10:20:21.000Z</time>
      </trkpt>
      <trkpt lat="47.25826" lon="-2.3296">
        <ele>-13.800000190735</ele>
        <time>2020-09-03T10:20:27.000Z</time>
      </trkpt>
      <trkpt lat="47.25821" lon="-2.32955">
        <ele>-13.39999961853</ele>
        <time>2020-09-03T10:20:28.000Z</time>
      </trkpt>
      <trkpt lat="47.25817" lon="-2.3295">
        <ele>-13</ele>
        <time>2020-09-03T10:20:29.000Z</time>
      </trkpt>
      <trkpt lat="47.25813" lon="-2.32945">
        <ele>-12.60000038147</ele>
        <time>2020-09-03T10:20:30.000Z</time>
      </trkpt>
      <trkpt lat="47.25808" lon="-2.32939">
        <ele>-12</ele>
        <time>2020-09-03T10:20:31.000Z</time>
      </trkpt>
      <trkpt lat="47.25788" lon="-2.32911">
        <ele>-12</ele>
        <time>2020-09-03T10:20:36.000Z</time>
      </trkpt>
      <trkpt lat="47.25768" lon="-2.32882">
        <ele>-12</ele>
        <time>2020-09-03T10:20:41.000Z</time>
      </trkpt>
      <trkpt lat="47.25761" lon="-2.3287">
        <ele>-12</ele>
        <time>2020-09-03T10:20:43.000Z</time>
      </trkpt>
      <trkpt lat="47.25745" lon="-2.32831">
        <ele>-11.60000038147</ele>
        <time>2020-09-03T10:20:49.000Z</time>
      </trkpt>
      <trkpt lat="47.25742" lon="-2.32824">
        <ele>-11.199999809265</ele>
        <time>2020-09-03T10:20:50.000Z</time>
      </trkpt>
      <trkpt lat="47.2574" lon="-2.32817">
        <ele>-10.800000190735</ele>
        <time>2020-09-03T10:20:51.000Z</time>
      </trkpt>
      <trkpt lat="47.25738" lon="-2.3281">
        <ele>-10.39999961853</ele>
        <time>2020-09-03T10:20:52.000Z</time>
      </trkpt>
      <trkpt lat="47.25736" lon="-2.32802">
        <ele>-10</ele>
        <time>2020-09-03T10:20:53.000Z</time>
      </trkpt>
      <trkpt lat="47.2573" lon="-2.32763">
        <ele>-10</ele>
        <time>2020-09-03T10:20:58.000Z</time>
      </trkpt>
      <trkpt lat="47.25722" lon="-2.32705">
        <ele>-10</ele>
        <time>2020-09-03T10:21:05.000Z</time>
      </trkpt>
      <trkpt lat="47.25717" lon="-2.32642">
        <ele>-10</ele>
        <time>2020-09-03T10:21:12.000Z</time>
      </trkpt>
      <trkpt lat="47.25702" lon="-2.3258">
        <ele>-10</ele>
        <time>2020-09-03T10:21:19.000Z</time>
      </trkpt>
      <trkpt lat="47.257" lon="-2.32571">
        <ele>-10.39999961853</ele>
        <time>2020-09-03T10:21:20.000Z</time>
      </trkpt>
      <trkpt lat="47.25697" lon="-2.32562">
        <ele>-10.800000190735</ele>
        <time>2020-09-03T10:21:21.000Z</time>
      </trkpt>
      <trkpt lat="47.25694" lon="-2.32553">
        <ele>-11.199999809265</ele>
        <time>2020-09-03T10:21:22.000Z</time>
      </trkpt>
      <trkpt lat="47.25691" lon="-2.32543">
        <ele>-11.60000038147</ele>
        <time>2020-09-03T10:21:23.000Z</time>
      </trkpt>
      <trkpt lat="47.25688" lon="-2.32533">
        <ele>-12</ele>
        <time>2020-09-03T10:21:24.000Z</time>
      </trkpt>
      <trkpt lat="47.25682" lon="-2.32514">
        <ele>-12</ele>
        <time>2020-09-03T10:21:26.000Z</time>
      </trkpt>
      <trkpt lat="47.25663" lon="-2.32455">
        <ele>-12.39999961853</ele>
        <time>2020-09-03T10:21:32.000Z</time>
      </trkpt>
      <trkpt lat="47.2566" lon="-2.32445">
        <ele>-12.800000190735</ele>
        <time>2020-09-03T10:21:33.000Z</time>
      </trkpt>
      <trkpt lat="47.25658" lon="-2.32435">
        <ele>-13.199999809265</ele>
        <time>2020-09-03T10:21:34.000Z</time>
      </trkpt>
      <trkpt lat="47.25657" lon="-2.32425">
        <ele>-13.800000190735</ele>
        <time>2020-09-03T10:21:35.000Z</time>
      </trkpt>
      <trkpt lat="47.25655" lon="-2.32416">
        <ele>-14.199999809265</ele>
        <time>2020-09-03T10:21:36.000Z</time>
      </trkpt>
      <trkpt lat="47.25653" lon="-2.32396">
        <ele>-14.199999809265</ele>
        <time>2020-09-03T10:21:38.000Z</time>
      </trkpt>
      <trkpt lat="47.25652" lon="-2.32357">
        <ele>-14.199999809265</ele>
        <time>2020-09-03T10:21:42.000Z</time>
      </trkpt>
      <trkpt lat="47.25648" lon="-2.32293">
        <ele>-14.199999809265</ele>
        <time>2020-09-03T10:21:49.000Z</time>
      </trkpt>
      <trkpt lat="47.25648" lon="-2.32284">
        <ele>-13.800000190735</ele>
        <time>2020-09-03T10:21:50.000Z</time>
      </trkpt>
      <trkpt lat="47.25647" lon="-2.32276">
        <ele>-13.39999961853</ele>
        <time>2020-09-03T10:21:51.000Z</time>
      </trkpt>
      <trkpt lat="47.25647" lon="-2.32267">
        <ele>-13</ele>
        <time>2020-09-03T10:21:52.000Z</time>
      </trkpt>
      <trkpt lat="47.25646" lon="-2.32259">
        <ele>-12.60000038147</ele>
        <time>2020-09-03T10:21:53.000Z</time>
      </trkpt>
      <trkpt lat="47.25646" lon="-2.32251">
        <ele>-12.199999809265</ele>
        <time>2020-09-03T10:21:54.000Z</time>
      </trkpt>
      <trkpt lat="47.25645" lon="-2.32235">
        <ele>-11.60000038147</ele>
        <time>2020-09-03T10:21:56.000Z</time>
      </trkpt>
      <trkpt lat="47.25645" lon="-2.32227">
        <ele>-11.199999809265</ele>
        <time>2020-09-03T10:21:57.000Z</time>
      </trkpt>
      <trkpt lat="47.25644" lon="-2.32218">
        <ele>-10.60000038147</ele>
        <time>2020-09-03T10:21:58.000Z</time>
      </trkpt>
      <trkpt lat="47.25643" lon="-2.3221">
        <ele>-10.199999809265</ele>
        <time>2020-09-03T10:21:59.000Z</time>
      </trkpt>
      <trkpt lat="47.25642" lon="-2.32202">
        <ele>-9.6000003814697</ele>
        <time>2020-09-03T10:22:00.000Z</time>
      </trkpt>
      <trkpt lat="47.25641" lon="-2.32194">
        <ele>-9.6000003814697</ele>
        <time>2020-09-03T10:22:01.000Z</time>
      </trkpt>
      <trkpt lat="47.25637" lon="-2.32178">
        <ele>-8.8000001907349</ele>
        <time>2020-09-03T10:22:03.000Z</time>
      </trkpt>
      <trkpt lat="47.25635" lon="-2.3217">
        <ele>-8.3999996185303</ele>
        <time>2020-09-03T10:22:04.000Z</time>
      </trkpt>
      <trkpt lat="47.25632" lon="-2.32162">
        <ele>-8</ele>
        <time>2020-09-03T10:22:05.000Z</time>
      </trkpt>
      <trkpt lat="47.2563" lon="-2.32154">
        <ele>-7.4000000953674</ele>
        <time>2020-09-03T10:22:06.000Z</time>
      </trkpt>
      <trkpt lat="47.25615" lon="-2.32106">
        <ele>-7.4000000953674</ele>
        <time>2020-09-03T10:22:12.000Z</time>
      </trkpt>
      <trkpt lat="47.25595" lon="-2.32056">
        <ele>-7.4000000953674</ele>
        <time>2020-09-03T10:22:19.000Z</time>
      </trkpt>
      <trkpt lat="47.25579" lon="-2.3201">
        <ele>-7.4000000953674</ele>
        <time>2020-09-03T10:22:25.000Z</time>
      </trkpt>
      <trkpt lat="47.2557" lon="-2.31981">
        <ele>-7.4000000953674</ele>
        <time>2020-09-03T10:22:29.000Z</time>
      </trkpt>
      <trkpt lat="47.25566" lon="-2.31969">
        <ele>-7</ele>
        <time>2020-09-03T10:22:31.000Z</time>
      </trkpt>
      <trkpt lat="47.25564" lon="-2.31961">
        <ele>-6.5999999046326</ele>
        <time>2020-09-03T10:22:32.000Z</time>
      </trkpt>
      <trkpt lat="47.25564" lon="-2.31955">
        <ele>-6.1999998092651</ele>
        <time>2020-09-03T10:22:33.000Z</time>
      </trkpt>
      <trkpt lat="47.25563" lon="-2.31948">
        <ele>-5.8000001907349</ele>
        <time>2020-09-03T10:22:34.000Z</time>
      </trkpt>
      <trkpt lat="47.25562" lon="-2.31942">
        <ele>-5.4000000953674</ele>
        <time>2020-09-03T10:22:35.000Z</time>
      </trkpt>
      <trkpt lat="47.25561" lon="-2.31937">
        <ele>-5.4000000953674</ele>
        <time>2020-09-03T10:22:36.000Z</time>
      </trkpt>
      <trkpt lat="47.2556" lon="-2.31916">
        <ele>-5.4000000953674</ele>
        <time>2020-09-03T10:22:41.000Z</time>
      </trkpt>
      <trkpt lat="47.25559" lon="-2.31915">
        <ele>-5.4000000953674</ele>
        <time>2020-09-03T10:22:44.000Z</time>
      </trkpt>
      <trkpt lat="47.25555" lon="-2.31915">
        <ele>-5.4000000953674</ele>
        <time>2020-09-03T10:22:52.000Z</time>
      </trkpt>
      <trkpt lat="47.2554" lon="-2.31919">
        <ele>-5.4000000953674</ele>
        <time>2020-09-03T10:22:58.000Z</time>
      </trkpt>
      <trkpt lat="47.25533" lon="-2.31906">
        <ele>-5.4000000953674</ele>
        <time>2020-09-03T10:23:01.000Z</time>
      </trkpt>
      <trkpt lat="47.25531" lon="-2.31897">
        <ele>-5.4000000953674</ele>
        <time>2020-09-03T10:23:03.000Z</time>
      </trkpt>
      <trkpt lat="47.25524" lon="-2.31869">
        <ele>-5.4000000953674</ele>
        <time>2020-09-03T10:23:09.000Z</time>
      </trkpt>
      <trkpt lat="47.25523" lon="-2.3186">
        <ele>-5</ele>
        <time>2020-09-03T10:23:11.000Z</time>
      </trkpt>
      <trkpt lat="47.25522" lon="-2.31855">
        <ele>-4.5999999046326</ele>
        <time>2020-09-03T10:23:12.000Z</time>
      </trkpt>
      <trkpt lat="47.25521" lon="-2.31851">
        <ele>-4.1999998092651</ele>
        <time>2020-09-03T10:23:13.000Z</time>
      </trkpt>
      <trkpt lat="47.2552" lon="-2.31847">
        <ele>-3.7999999523163</ele>
        <time>2020-09-03T10:23:14.000Z</time>
      </trkpt>
      <trkpt lat="47.2552" lon="-2.31843">
        <ele>-3.4000000953674</ele>
        <time>2020-09-03T10:23:15.000Z</time>
      </trkpt>
      <trkpt lat="47.25518" lon="-2.31835">
        <ele>-3.4000000953674</ele>
        <time>2020-09-03T10:23:17.000Z</time>
      </trkpt>
      <trkpt lat="47.25514" lon="-2.31827">
        <ele>-3.4000000953674</ele>
        <time>2020-09-03T10:23:20.000Z</time>
      </trkpt>
      <trkpt lat="47.25512" lon="-2.31828">
        <ele>-3.4000000953674</ele>
        <time>2020-09-03T10:23:21.000Z</time>
      </trkpt>
      <trkpt lat="47.25511" lon="-2.31835">
        <ele>-3.4000000953674</ele>
        <time>2020-09-03T10:23:24.000Z</time>
      </trkpt>
      <trkpt lat="47.25511" lon="-2.31835">
        <ele>-3.4000000953674</ele>
        <time>2020-09-03T10:23:25.000Z</time>
      </trkpt>
      <trkpt lat="47.25513" lon="-2.31832">
        <ele>-3.4000000953674</ele>
        <time>2020-09-03T10:33:13.000Z</time>
      </trkpt>
      <trkpt lat="47.25513" lon="-2.31831">
        <ele>-3.4000000953674</ele>
        <time>2020-09-03T10:33:14.000Z</time>
      </trkpt>
      <trkpt lat="47.2551" lon="-2.31819">
        <ele>-3.4000000953674</ele>
        <time>2020-09-03T10:33:19.000Z</time>
      </trkpt>
      <trkpt lat="47.25515" lon="-2.31811">
        <ele>-3.4000000953674</ele>
        <time>2020-09-03T10:33:22.000Z</time>
      </trkpt>
      <trkpt lat="47.25522" lon="-2.31807">
        <ele>-3.4000000953674</ele>
        <time>2020-09-03T10:33:24.000Z</time>
      </trkpt>
      <trkpt lat="47.25541" lon="-2.318">
        <ele>-3.4000000953674</ele>
        <time>2020-09-03T10:33:29.000Z</time>
      </trkpt>
      <trkpt lat="47.2556" lon="-2.31795">
        <ele>-3.4000000953674</ele>
        <time>2020-09-03T10:33:33.000Z</time>
      </trkpt>
      <trkpt lat="47.25563" lon="-2.31791">
        <ele>-3.4000000953674</ele>
        <time>2020-09-03T10:33:34.000Z</time>
      </trkpt>
      <trkpt lat="47.25576" lon="-2.31768">
        <ele>-3.7999999523163</ele>
        <time>2020-09-03T10:33:38.000Z</time>
      </trkpt>
      <trkpt lat="47.2558" lon="-2.31763">
        <ele>-4.1999998092651</ele>
        <time>2020-09-03T10:33:39.000Z</time>
      </trkpt>
      <trkpt lat="47.25583" lon="-2.31758">
        <ele>-4.5999999046326</ele>
        <time>2020-09-03T10:33:40.000Z</time>
      </trkpt>
      <trkpt lat="47.25586" lon="-2.31753">
        <ele>-5</ele>
        <time>2020-09-03T10:33:41.000Z</time>
      </trkpt>
      <trkpt lat="47.25589" lon="-2.31748">
        <ele>-5.4000000953674</ele>
        <time>2020-09-03T10:33:42.000Z</time>
      </trkpt>
      <trkpt lat="47.2559" lon="-2.31743">
        <ele>-5.4000000953674</ele>
        <time>2020-09-03T10:33:43.000Z</time>
      </trkpt>
      <trkpt lat="47.25599" lon="-2.31714">
        <ele>-5.4000000953674</ele>
        <time>2020-09-03T10:33:48.000Z</time>
      </trkpt>
      <trkpt lat="47.25618" lon="-2.31706">
        <ele>-5.4000000953674</ele>
        <time>2020-09-03T10:33:52.000Z</time>
      </trkpt>
      <trkpt lat="47.25629" lon="-2.31705">
        <ele>-5.4000000953674</ele>
        <time>2020-09-03T10:33:54.000Z</time>
      </trkpt>
      <trkpt lat="47.25645" lon="-2.31694">
        <ele>-5.4000000953674</ele>
        <time>2020-09-03T10:33:57.000Z</time>
      </trkpt>
      <trkpt lat="47.25654" lon="-2.31679">
        <ele>-5.8000001907349</ele>
        <time>2020-09-03T10:33:59.000Z</time>
      </trkpt>
      <trkpt lat="47.25657" lon="-2.3167">
        <ele>-6.8000001907349</ele>
        <time>2020-09-03T10:34:00.000Z</time>
      </trkpt>
      <trkpt lat="47.2566" lon="-2.31663">
        <ele>-7.1999998092651</ele>
        <time>2020-09-03T10:34:01.000Z</time>
      </trkpt>
      <trkpt lat="47.25665" lon="-2.3166">
        <ele>-7.5999999046326</ele>
        <time>2020-09-03T10:34:02.000Z</time>
      </trkpt>
      <trkpt lat="47.25675" lon="-2.31665">
        <ele>-7.5999999046326</ele>
        <time>2020-09-03T10:34:04.000Z</time>
      </trkpt>
      <trkpt lat="47.25697" lon="-2.31678">
        <ele>-8</ele>
        <time>2020-09-03T10:34:08.000Z</time>
      </trkpt>
      <trkpt lat="47.25703" lon="-2.31681">
        <ele>-8.3999996185303</ele>
        <time>2020-09-03T10:34:09.000Z</time>
      </trkpt>
      <trkpt lat="47.2571" lon="-2.31685">
        <ele>-8.8000001907349</ele>
        <time>2020-09-03T10:34:10.000Z</time>
      </trkpt>
      <trkpt lat="47.25715" lon="-2.31689">
        <ele>-9.1999998092651</ele>
        <time>2020-09-03T10:34:11.000Z</time>
      </trkpt>
      <trkpt lat="47.25721" lon="-2.31694">
        <ele>-9.6000003814697</ele>
        <time>2020-09-03T10:34:12.000Z</time>
      </trkpt>
      <trkpt lat="47.25728" lon="-2.31697">
        <ele>-9.6000003814697</ele>
        <time>2020-09-03T10:34:13.000Z</time>
      </trkpt>
      <trkpt lat="47.2574" lon="-2.31693">
        <ele>-9.6000003814697</ele>
        <time>2020-09-03T10:34:15.000Z</time>
      </trkpt>
      <trkpt lat="47.25752" lon="-2.31684">
        <ele>-9.6000003814697</ele>
        <time>2020-09-03T10:34:17.000Z</time>
      </trkpt>
      <trkpt lat="47.25757" lon="-2.31679">
        <ele>-10</ele>
        <time>2020-09-03T10:34:18.000Z</time>
      </trkpt>
      <trkpt lat="47.25762" lon="-2.31675">
        <ele>-10.39999961853</ele>
        <time>2020-09-03T10:34:19.000Z</time>
      </trkpt>
      <trkpt lat="47.25767" lon="-2.31671">
        <ele>-10.800000190735</ele>
        <time>2020-09-03T10:34:20.000Z</time>
      </trkpt>
      <trkpt lat="47.25772" lon="-2.31668">
        <ele>-11.199999809265</ele>
        <time>2020-09-03T10:34:21.000Z</time>
      </trkpt>
      <trkpt lat="47.25776" lon="-2.31664">
        <ele>-11.60000038147</ele>
        <time>2020-09-03T10:34:22.000Z</time>
      </trkpt>
      <trkpt lat="47.25798" lon="-2.31646">
        <ele>-11.60000038147</ele>
        <time>2020-09-03T10:34:27.000Z</time>
      </trkpt>
      <trkpt lat="47.2583" lon="-2.3162">
        <ele>-11.60000038147</ele>
        <time>2020-09-03T10:34:35.000Z</time>
      </trkpt>
      <trkpt lat="47.25855" lon="-2.31596">
        <ele>-11.60000038147</ele>
        <time>2020-09-03T10:34:41.000Z</time>
      </trkpt>
      <trkpt lat="47.25885" lon="-2.31563">
        <ele>-11.60000038147</ele>
        <time>2020-09-03T10:34:47.000Z</time>
      </trkpt>
      <trkpt lat="47.25898" lon="-2.31529">
        <ele>-11.60000038147</ele>
        <time>2020-09-03T10:34:51.000Z</time>
      </trkpt>
      <trkpt lat="47.25906" lon="-2.31516">
        <ele>-11.60000038147</ele>
        <time>2020-09-03T10:34:54.000Z</time>
      </trkpt>
      <trkpt lat="47.25909" lon="-2.31515">
        <ele>-11.60000038147</ele>
        <time>2020-09-03T10:34:55.000Z</time>
      </trkpt>
      <trkpt lat="47.25916" lon="-2.31515">
        <ele>-11.60000038147</ele>
        <time>2020-09-03T10:34:58.000Z</time>
      </trkpt>
      <trkpt lat="47.25915" lon="-2.31514">
        <ele>-11.60000038147</ele>
        <time>2020-09-03T10:35:00.000Z</time>
      </trkpt>
      <trkpt lat="47.25914" lon="-2.31513">
        <ele>-11.60000038147</ele>
        <time>2020-09-03T10:35:01.000Z</time>
      </trkpt>
      <trkpt lat="47.25912" lon="-2.31505">
        <ele>-11.60000038147</ele>
        <time>2020-09-03T10:35:06.000Z</time>
      </trkpt>
      <trkpt lat="47.25911" lon="-2.31504">
        <ele>-11.60000038147</ele>
        <time>2020-09-03T10:35:07.000Z</time>
      </trkpt>
      <trkpt lat="47.25912" lon="-2.31502">
        <ele>-11.60000038147</ele>
        <time>2020-09-03T10:35:09.000Z</time>
      </trkpt>
      <trkpt lat="47.25914" lon="-2.31496">
        <ele>-11.60000038147</ele>
        <time>2020-09-03T10:35:11.000Z</time>
      </trkpt>
      <trkpt lat="47.25922" lon="-2.31474">
        <ele>-12</ele>
        <time>2020-09-03T10:35:15.000Z</time>
      </trkpt>
      <trkpt lat="47.25924" lon="-2.31469">
        <ele>-12.39999961853</ele>
        <time>2020-09-03T10:35:16.000Z</time>
      </trkpt>
      <trkpt lat="47.25926" lon="-2.31463">
        <ele>-12.800000190735</ele>
        <time>2020-09-03T10:35:17.000Z</time>
      </trkpt>
      <trkpt lat="47.25929" lon="-2.31459">
        <ele>-13.199999809265</ele>
        <time>2020-09-03T10:35:18.000Z</time>
      </trkpt>
      <trkpt lat="47.25932" lon="-2.31456">
        <ele>-13.60000038147</ele>
        <time>2020-09-03T10:35:19.000Z</time>
      </trkpt>
      <trkpt lat="47.25936" lon="-2.31456">
        <ele>-13.60000038147</ele>
        <time>2020-09-03T10:35:20.000Z</time>
      </trkpt>
      <trkpt lat="47.25955" lon="-2.31465">
        <ele>-13.60000038147</ele>
        <time>2020-09-03T10:35:24.000Z</time>
      </trkpt>
      <trkpt lat="47.25959" lon="-2.3147">
        <ele>-13.60000038147</ele>
        <time>2020-09-03T10:35:25.000Z</time>
      </trkpt>
      <trkpt lat="47.25963" lon="-2.31475">
        <ele>-13.60000038147</ele>
        <time>2020-09-03T10:35:26.000Z</time>
      </trkpt>
      <trkpt lat="47.25973" lon="-2.31495">
        <ele>-13.60000038147</ele>
        <time>2020-09-03T10:35:29.000Z</time>
      </trkpt>
      <trkpt lat="47.25975" lon="-2.31502">
        <ele>-13.60000038147</ele>
        <time>2020-09-03T10:35:30.000Z</time>
      </trkpt>
      <trkpt lat="47.25991" lon="-2.31532">
        <ele>-13.60000038147</ele>
        <time>2020-09-03T10:35:35.000Z</time>
      </trkpt>
      <trkpt lat="47.2601" lon="-2.31562">
        <ele>-13.60000038147</ele>
        <time>2020-09-03T10:35:41.000Z</time>
      </trkpt>
      <trkpt lat="47.26021" lon="-2.31557">
        <ele>-13.60000038147</ele>
        <time>2020-09-03T10:35:44.000Z</time>
      </trkpt>
      <trkpt lat="47.26027" lon="-2.31539">
        <ele>-13.60000038147</ele>
        <time>2020-09-03T10:35:47.000Z</time>
      </trkpt>
      <trkpt lat="47.26029" lon="-2.31533">
        <ele>-13.60000038147</ele>
        <time>2020-09-03T10:35:48.000Z</time>
      </trkpt>
      <trkpt lat="47.26035" lon="-2.31517">
        <ele>-13.60000038147</ele>
        <time>2020-09-03T10:35:51.000Z</time>
      </trkpt>
      <trkpt lat="47.26038" lon="-2.31515">
        <ele>-13.60000038147</ele>
        <time>2020-09-03T10:35:52.000Z</time>
      </trkpt>
      <trkpt lat="47.26049" lon="-2.31525">
        <ele>-13.60000038147</ele>
        <time>2020-09-03T10:35:55.000Z</time>
      </trkpt>
      <trkpt lat="47.26052" lon="-2.3153">
        <ele>-13.60000038147</ele>
        <time>2020-09-03T10:35:56.000Z</time>
      </trkpt>
      <trkpt lat="47.26066" lon="-2.31553">
        <ele>-13.60000038147</ele>
        <time>2020-09-03T10:36:00.000Z</time>
      </trkpt>
      <trkpt lat="47.26078" lon="-2.31576">
        <ele>-14.199999809265</ele>
        <time>2020-09-03T10:36:05.000Z</time>
      </trkpt>
      <trkpt lat="47.2608" lon="-2.31577">
        <ele>-14.60000038147</ele>
        <time>2020-09-03T10:36:06.000Z</time>
      </trkpt>
      <trkpt lat="47.26083" lon="-2.31578">
        <ele>-15</ele>
        <time>2020-09-03T10:36:07.000Z</time>
      </trkpt>
      <trkpt lat="47.26085" lon="-2.3158">
        <ele>-15.60000038147</ele>
        <time>2020-09-03T10:36:08.000Z</time>
      </trkpt>
      <trkpt lat="47.26088" lon="-2.31583">
        <ele>-16</ele>
        <time>2020-09-03T10:36:09.000Z</time>
      </trkpt>
      <trkpt lat="47.26091" lon="-2.31586">
        <ele>-16</ele>
        <time>2020-09-03T10:36:10.000Z</time>
      </trkpt>
      <trkpt lat="47.26104" lon="-2.31605">
        <ele>-16</ele>
        <time>2020-09-03T10:36:14.000Z</time>
      </trkpt>
      <trkpt lat="47.26109" lon="-2.31609">
        <ele>-16</ele>
        <time>2020-09-03T10:36:15.000Z</time>
      </trkpt>
      <trkpt lat="47.26129" lon="-2.31612">
        <ele>-16</ele>
        <time>2020-09-03T10:36:19.000Z</time>
      </trkpt>
      <trkpt lat="47.26139" lon="-2.31611">
        <ele>-16</ele>
        <time>2020-09-03T10:36:21.000Z</time>
      </trkpt>
      <trkpt lat="47.26159" lon="-2.31604">
        <ele>-16</ele>
        <time>2020-09-03T10:36:25.000Z</time>
      </trkpt>
      <trkpt lat="47.26192" lon="-2.31593">
        <ele>-16</ele>
        <time>2020-09-03T10:36:32.000Z</time>
      </trkpt>
      <trkpt lat="47.2621" lon="-2.31589">
        <ele>-16</ele>
        <time>2020-09-03T10:36:36.000Z</time>
      </trkpt>
      <trkpt lat="47.26224" lon="-2.31593">
        <ele>-16</ele>
        <time>2020-09-03T10:36:39.000Z</time>
      </trkpt>
      <trkpt lat="47.26232" lon="-2.31598">
        <ele>-16</ele>
        <time>2020-09-03T10:36:41.000Z</time>
      </trkpt>
      <trkpt lat="47.26243" lon="-2.31608">
        <ele>-16</ele>
        <time>2020-09-03T10:36:44.000Z</time>
      </trkpt>
      <trkpt lat="47.26247" lon="-2.31612">
        <ele>-16</ele>
        <time>2020-09-03T10:36:45.000Z</time>
      </trkpt>
      <trkpt lat="47.26259" lon="-2.31632">
        <ele>-16</ele>
        <time>2020-09-03T10:36:49.000Z</time>
      </trkpt>
      <trkpt lat="47.26271" lon="-2.31656">
        <ele>-16</ele>
        <time>2020-09-03T10:36:54.000Z</time>
      </trkpt>
      <trkpt lat="47.26292" lon="-2.31693">
        <ele>-16</ele>
        <time>2020-09-03T10:37:01.000Z</time>
      </trkpt>
      <trkpt lat="47.26299" lon="-2.31703">
        <ele>-16</ele>
        <time>2020-09-03T10:37:03.000Z</time>
      </trkpt>
      <trkpt lat="47.26307" lon="-2.31707">
        <ele>-16</ele>
        <time>2020-09-03T10:37:05.000Z</time>
      </trkpt>
      <trkpt lat="47.26321" lon="-2.31701">
        <ele>-16</ele>
        <time>2020-09-03T10:37:09.000Z</time>
      </trkpt>
      <trkpt lat="47.26324" lon="-2.317">
        <ele>-16</ele>
        <time>2020-09-03T10:37:10.000Z</time>
      </trkpt>
      <trkpt lat="47.2633" lon="-2.31695">
        <ele>-16</ele>
        <time>2020-09-03T10:37:12.000Z</time>
      </trkpt>
      <trkpt lat="47.26331" lon="-2.3169">
        <ele>-16</ele>
        <time>2020-09-03T10:37:13.000Z</time>
      </trkpt>
      <trkpt lat="47.26338" lon="-2.31683">
        <ele>-16</ele>
        <time>2020-09-03T10:37:16.000Z</time>
      </trkpt>
      <trkpt lat="47.26341" lon="-2.31681">
        <ele>-16</ele>
        <time>2020-09-03T10:37:17.000Z</time>
      </trkpt>
      <trkpt lat="47.26356" lon="-2.31675">
        <ele>-16</ele>
        <time>2020-09-03T10:37:21.000Z</time>
      </trkpt>
      <trkpt lat="47.26374" lon="-2.31669">
        <ele>-15.60000038147</ele>
        <time>2020-09-03T10:37:26.000Z</time>
      </trkpt>
      <trkpt lat="47.26377" lon="-2.31667">
        <ele>-15.199999809265</ele>
        <time>2020-09-03T10:37:27.000Z</time>
      </trkpt>
      <trkpt lat="47.26381" lon="-2.31666">
        <ele>-14.60000038147</ele>
        <time>2020-09-03T10:37:28.000Z</time>
      </trkpt>
      <trkpt lat="47.26385" lon="-2.31663">
        <ele>-14.199999809265</ele>
        <time>2020-09-03T10:37:29.000Z</time>
      </trkpt>
      <trkpt lat="47.26388" lon="-2.31661">
        <ele>-13.800000190735</ele>
        <time>2020-09-03T10:37:30.000Z</time>
      </trkpt>
      <trkpt lat="47.26399" lon="-2.31656">
        <ele>-13.800000190735</ele>
        <time>2020-09-03T10:37:34.000Z</time>
      </trkpt>
      <trkpt lat="47.26408" lon="-2.31647">
        <ele>-13.800000190735</ele>
        <time>2020-09-03T10:37:38.000Z</time>
      </trkpt>
      <trkpt lat="47.26409" lon="-2.31643">
        <ele>-13.800000190735</ele>
        <time>2020-09-03T10:37:39.000Z</time>
      </trkpt>
      <trkpt lat="47.2641" lon="-2.31615">
        <ele>-13.800000190735</ele>
        <time>2020-09-03T10:37:45.000Z</time>
      </trkpt>
      <trkpt lat="47.2641" lon="-2.31588">
        <ele>-13.800000190735</ele>
        <time>2020-09-03T10:37:51.000Z</time>
      </trkpt>
      <trkpt lat="47.2641" lon="-2.31563">
        <ele>-13.800000190735</ele>
        <time>2020-09-03T10:37:57.000Z</time>
      </trkpt>
      <trkpt lat="47.26412" lon="-2.31552">
        <ele>-13.800000190735</ele>
        <time>2020-09-03T10:38:00.000Z</time>
      </trkpt>
      <trkpt lat="47.26416" lon="-2.31551">
        <ele>-13.39999961853</ele>
        <time>2020-09-03T10:38:02.000Z</time>
      </trkpt>
      <trkpt lat="47.26417" lon="-2.31552">
        <ele>-13</ele>
        <time>2020-09-03T10:38:03.000Z</time>
      </trkpt>
      <trkpt lat="47.26417" lon="-2.31552">
        <ele>-12.60000038147</ele>
        <time>2020-09-03T10:38:04.000Z</time>
      </trkpt>
    </trkseg>
  </trk>
</gpx>